<?xml version="1.0" encoding="utf-8"?>
<gpx xmlns:xsi="http://www.w3.org/2001/XMLSchema-instance" xmlns:xsd="http://www.w3.org/2001/XMLSchema" version="1.1" creator="Shapelink.com" xmlns="http://www.topografix.com/GPX/1/1" xmlns:gpxtpx="http://www.garmin.com/xmlschemas/TrackPointExtension/v1">
  <metadata>
    <name>Löpning 9.54 km, 2017-10-16</name>
    <desc></desc>
    <author><name>Bengt-Åke Forslund</name></author> 
    <time>2017-10-16T18:11:09Z</time>
  </metadata>
  <trk>
    <name>Löpning 9.54 km, 2017-10-16</name>
    <trkseg>
      <trkpt lat="62.637297233193" lon="17.966016671371">
        <ele>60.4</ele>
        <time>2017-10-16T18:11:09Z</time>
      </trkpt>
      <trkpt lat="62.637275859348" lon="17.966036285017">
        <ele>60.4</ele>
        <time>2017-10-16T18:11:10Z</time>
      </trkpt>
      <trkpt lat="62.637254150227" lon="17.966062185088">
        <ele>60.2</ele>
        <time>2017-10-16T18:11:11Z</time>
      </trkpt>
      <trkpt lat="62.637235626228" lon="17.966092946661">
        <ele>60</ele>
        <time>2017-10-16T18:11:12Z</time>
      </trkpt>
      <trkpt lat="62.637217269867" lon="17.966122534768">
        <ele>60</ele>
        <time>2017-10-16T18:11:13Z</time>
      </trkpt>
      <trkpt lat="62.637200086972" lon="17.966158157843">
        <ele>60.2</ele>
        <time>2017-10-16T18:11:14Z</time>
      </trkpt>
      <trkpt lat="62.637193297633" lon="17.966201408447">
        <ele>60.2</ele>
        <time>2017-10-16T18:11:15Z</time>
      </trkpt>
      <trkpt lat="62.637187933217" lon="17.966246838345">
        <ele>60.2</ele>
        <time>2017-10-16T18:11:16Z</time>
      </trkpt>
      <trkpt lat="62.637176869109" lon="17.966288244931">
        <ele>60.2</ele>
        <time>2017-10-16T18:11:17Z</time>
      </trkpt>
      <trkpt lat="62.637172175245" lon="17.966337865779">
        <ele>60.2</ele>
        <time>2017-10-16T18:11:18Z</time>
      </trkpt>
      <trkpt lat="62.637172259064" lon="17.966389246826">
        <ele>60.4</ele>
        <time>2017-10-16T18:11:19Z</time>
      </trkpt>
      <trkpt lat="62.637175360367" lon="17.966436856018">
        <ele>60.4</ele>
        <time>2017-10-16T18:11:20Z</time>
      </trkpt>
      <trkpt lat="62.637185418647" lon="17.966493601481">
        <ele>60.6</ele>
        <time>2017-10-16T18:11:21Z</time>
      </trkpt>
      <trkpt lat="62.63719774004" lon="17.966547748555">
        <ele>60.8</ele>
        <time>2017-10-16T18:11:22Z</time>
      </trkpt>
      <trkpt lat="62.637211486356" lon="17.966592004987">
        <ele>61</ele>
        <time>2017-10-16T18:11:23Z</time>
      </trkpt>
      <trkpt lat="62.637230764726" lon="17.966642715482">
        <ele>61</ele>
        <time>2017-10-16T18:11:24Z</time>
      </trkpt>
      <trkpt lat="62.63724635506" lon="17.96669401271">
        <ele>61.2</ele>
        <time>2017-10-16T18:11:25Z</time>
      </trkpt>
      <trkpt lat="62.637268231819" lon="17.966734329649">
        <ele>61.2</ele>
        <time>2017-10-16T18:11:26Z</time>
      </trkpt>
      <trkpt lat="62.637291784958" lon="17.966771796742">
        <ele>61</ele>
        <time>2017-10-16T18:11:27Z</time>
      </trkpt>
      <trkpt lat="62.637304525446" lon="17.966815047346">
        <ele>61</ele>
        <time>2017-10-16T18:11:28Z</time>
      </trkpt>
      <trkpt lat="62.637314164631" lon="17.96686081252">
        <ele>61</ele>
        <time>2017-10-16T18:11:29Z</time>
      </trkpt>
      <trkpt lat="62.637329503508" lon="17.966915630146">
        <ele>60.8</ele>
        <time>2017-10-16T18:11:30Z</time>
      </trkpt>
      <trkpt lat="62.637344171833" lon="17.966973465256">
        <ele>60.8</ele>
        <time>2017-10-16T18:11:31Z</time>
      </trkpt>
      <trkpt lat="62.637356912321" lon="17.967025013941">
        <ele>60.8</ele>
        <time>2017-10-16T18:11:32Z</time>
      </trkpt>
      <trkpt lat="62.637370239542" lon="17.967073628961">
        <ele>60.8</ele>
        <time>2017-10-16T18:11:33Z</time>
      </trkpt>
      <trkpt lat="62.637384237315" lon="17.967107827113">
        <ele>60.6</ele>
        <time>2017-10-16T18:11:34Z</time>
      </trkpt>
      <trkpt lat="62.637393792681" lon="17.967155184848">
        <ele>60.6</ele>
        <time>2017-10-16T18:11:35Z</time>
      </trkpt>
      <trkpt lat="62.637409047739" lon="17.967209834836">
        <ele>60.6</ele>
        <time>2017-10-16T18:11:36Z</time>
      </trkpt>
      <trkpt lat="62.637419608933" lon="17.967258785132">
        <ele>60.4</ele>
        <time>2017-10-16T18:11:37Z</time>
      </trkpt>
      <trkpt lat="62.637433355249" lon="17.967310417636">
        <ele>60.8</ele>
        <time>2017-10-16T18:11:38Z</time>
      </trkpt>
      <trkpt lat="62.637445173728" lon="17.967362636873">
        <ele>60.8</ele>
        <time>2017-10-16T18:11:39Z</time>
      </trkpt>
      <trkpt lat="62.637455232008" lon="17.967411168074">
        <ele>60.6</ele>
        <time>2017-10-16T18:11:40Z</time>
      </trkpt>
      <trkpt lat="62.63746763722" lon="17.96746095656">
        <ele>60.6</ele>
        <time>2017-10-16T18:11:41Z</time>
      </trkpt>
      <trkpt lat="62.637482389364" lon="17.967510745046">
        <ele>60.8</ele>
        <time>2017-10-16T18:11:42Z</time>
      </trkpt>
      <trkpt lat="62.637498314974" lon="17.967561706998">
        <ele>60.6</ele>
        <time>2017-10-16T18:11:43Z</time>
      </trkpt>
      <trkpt lat="62.6375112231" lon="17.967606969258">
        <ele>60.4</ele>
        <time>2017-10-16T18:11:44Z</time>
      </trkpt>
      <trkpt lat="62.637525639968" lon="17.96765374026">
        <ele>60.4</ele>
        <time>2017-10-16T18:11:45Z</time>
      </trkpt>
      <trkpt lat="62.637541649397" lon="17.967703780203">
        <ele>60.6</ele>
        <time>2017-10-16T18:11:46Z</time>
      </trkpt>
      <trkpt lat="62.637555479532" lon="17.96774761754">
        <ele>60.4</ele>
        <time>2017-10-16T18:11:47Z</time>
      </trkpt>
      <trkpt lat="62.637569477305" lon="17.96780209989">
        <ele>60.4</ele>
        <time>2017-10-16T18:11:48Z</time>
      </trkpt>
      <trkpt lat="62.637583223621" lon="17.96784736215">
        <ele>60.6</ele>
        <time>2017-10-16T18:11:49Z</time>
      </trkpt>
      <trkpt lat="62.63759839486" lon="17.967885667433">
        <ele>60.6</ele>
        <time>2017-10-16T18:11:50Z</time>
      </trkpt>
      <trkpt lat="62.637614069013" lon="17.967935120643">
        <ele>60.4</ele>
        <time>2017-10-16T18:11:51Z</time>
      </trkpt>
      <trkpt lat="62.637631754822" lon="17.967974515573">
        <ele>60.6</ele>
        <time>2017-10-16T18:11:52Z</time>
      </trkpt>
      <trkpt lat="62.6376453335" lon="17.968019442557">
        <ele>60.6</ele>
        <time>2017-10-16T18:11:53Z</time>
      </trkpt>
      <trkpt lat="62.637661678205" lon="17.96807199707">
        <ele>60.4</ele>
        <time>2017-10-16T18:11:54Z</time>
      </trkpt>
      <trkpt lat="62.637674921607" lon="17.968115499131">
        <ele>60.4</ele>
        <time>2017-10-16T18:11:55Z</time>
      </trkpt>
      <trkpt lat="62.637689170837" lon="17.96816922711">
        <ele>60.4</ele>
        <time>2017-10-16T18:11:56Z</time>
      </trkpt>
      <trkpt lat="62.637702498058" lon="17.968215495198">
        <ele>60.2</ele>
        <time>2017-10-16T18:11:57Z</time>
      </trkpt>
      <trkpt lat="62.637716076736" lon="17.968257739974">
        <ele>60.2</ele>
        <time>2017-10-16T18:11:58Z</time>
      </trkpt>
      <trkpt lat="62.637729403957" lon="17.968297134904">
        <ele>60.4</ele>
        <time>2017-10-16T18:11:59Z</time>
      </trkpt>
      <trkpt lat="62.637739797513" lon="17.968338290033">
        <ele>60.4</ele>
        <time>2017-10-16T18:12:00Z</time>
      </trkpt>
      <trkpt lat="62.637755639304" lon="17.968381708275">
        <ele>60.2</ele>
        <time>2017-10-16T18:12:01Z</time>
      </trkpt>
      <trkpt lat="62.637763937385" lon="17.968428395458">
        <ele>60.4</ele>
        <time>2017-10-16T18:12:02Z</time>
      </trkpt>
      <trkpt lat="62.637767541602" lon="17.968474747365">
        <ele>60.4</ele>
        <time>2017-10-16T18:12:03Z</time>
      </trkpt>
      <trkpt lat="62.637768128335" lon="17.968525876955">
        <ele>60.2</ele>
        <time>2017-10-16T18:12:04Z</time>
      </trkpt>
      <trkpt lat="62.637770726724" lon="17.968569965749">
        <ele>60.4</ele>
        <time>2017-10-16T18:12:05Z</time>
      </trkpt>
      <trkpt lat="62.637773828027" lon="17.968624112823">
        <ele>60.4</ele>
        <time>2017-10-16T18:12:06Z</time>
      </trkpt>
      <trkpt lat="62.637773241294" lon="17.968679936277">
        <ele>60.4</ele>
        <time>2017-10-16T18:12:07Z</time>
      </trkpt>
      <trkpt lat="62.637774163303" lon="17.968729473306">
        <ele>60.6</ele>
        <time>2017-10-16T18:12:08Z</time>
      </trkpt>
      <trkpt lat="62.637778102796" lon="17.968784877665">
        <ele>61</ele>
        <time>2017-10-16T18:12:09Z</time>
      </trkpt>
      <trkpt lat="62.637778521891" lon="17.968836593988">
        <ele>61</ele>
        <time>2017-10-16T18:12:10Z</time>
      </trkpt>
      <trkpt lat="62.637777096968" lon="17.968887388302">
        <ele>61</ele>
        <time>2017-10-16T18:12:11Z</time>
      </trkpt>
      <trkpt lat="62.63776938562" lon="17.968938936987">
        <ele>61.2</ele>
        <time>2017-10-16T18:12:12Z</time>
      </trkpt>
      <trkpt lat="62.637761255177" lon="17.968985288894">
        <ele>61.4</ele>
        <time>2017-10-16T18:12:13Z</time>
      </trkpt>
      <trkpt lat="62.637751951268" lon="17.969026360204">
        <ele>61.4</ele>
        <time>2017-10-16T18:12:14Z</time>
      </trkpt>
      <trkpt lat="62.637736109477" lon="17.969069024075">
        <ele>61.6</ele>
        <time>2017-10-16T18:12:15Z</time>
      </trkpt>
      <trkpt lat="62.637723117532" lon="17.969106742625">
        <ele>62</ele>
        <time>2017-10-16T18:12:16Z</time>
      </trkpt>
      <trkpt lat="62.637710963777" lon="17.969145131727">
        <ele>62.2</ele>
        <time>2017-10-16T18:12:17Z</time>
      </trkpt>
      <trkpt lat="62.63769813947" lon="17.969192824738">
        <ele>62.4</ele>
        <time>2017-10-16T18:12:18Z</time>
      </trkpt>
      <trkpt lat="62.637694367615" lon="17.969232135849">
        <ele>62.8</ele>
        <time>2017-10-16T18:12:19Z</time>
      </trkpt>
      <trkpt lat="62.637691266312" lon="17.969276224643">
        <ele>63</ele>
        <time>2017-10-16T18:12:20Z</time>
      </trkpt>
      <trkpt lat="62.637689087018" lon="17.969329449708">
        <ele>63</ele>
        <time>2017-10-16T18:12:21Z</time>
      </trkpt>
      <trkpt lat="62.637690847217" lon="17.969378651461">
        <ele>63.4</ele>
        <time>2017-10-16T18:12:22Z</time>
      </trkpt>
      <trkpt lat="62.637692607416" lon="17.969416621468">
        <ele>63.6</ele>
        <time>2017-10-16T18:12:23Z</time>
      </trkpt>
      <trkpt lat="62.637693194149" lon="17.969483844306">
        <ele>63.6</ele>
        <time>2017-10-16T18:12:24Z</time>
      </trkpt>
      <trkpt lat="62.637696798366" lon="17.969534722439">
        <ele>64</ele>
        <time>2017-10-16T18:12:25Z</time>
      </trkpt>
      <trkpt lat="62.637699229117" lon="17.969594820662">
        <ele>64.2</ele>
        <time>2017-10-16T18:12:26Z</time>
      </trkpt>
      <trkpt lat="62.63770316861" lon="17.96964779427">
        <ele>64.2</ele>
        <time>2017-10-16T18:12:27Z</time>
      </trkpt>
      <trkpt lat="62.637705515542" lon="17.969697834213">
        <ele>64.4</ele>
        <time>2017-10-16T18:12:28Z</time>
      </trkpt>
      <trkpt lat="62.637709706492" lon="17.969746365414">
        <ele>64.8</ele>
        <time>2017-10-16T18:12:29Z</time>
      </trkpt>
      <trkpt lat="62.637715406184" lon="17.969801937411">
        <ele>64.6</ele>
        <time>2017-10-16T18:12:30Z</time>
      </trkpt>
      <trkpt lat="62.6377207706" lon="17.969859353426">
        <ele>65</ele>
        <time>2017-10-16T18:12:31Z</time>
      </trkpt>
      <trkpt lat="62.637722530799" lon="17.969909393369">
        <ele>65.2</ele>
        <time>2017-10-16T18:12:32Z</time>
      </trkpt>
      <trkpt lat="62.637721860247" lon="17.96995624819">
        <ele>65.2</ele>
        <time>2017-10-16T18:12:33Z</time>
      </trkpt>
      <trkpt lat="62.637718591306" lon="17.970009137979">
        <ele>65.4</ele>
        <time>2017-10-16T18:12:34Z</time>
      </trkpt>
      <trkpt lat="62.637716831107" lon="17.970052891497">
        <ele>65.6</ele>
        <time>2017-10-16T18:12:35Z</time>
      </trkpt>
      <trkpt lat="62.637713059252" lon="17.970108882589">
        <ele>65.4</ele>
        <time>2017-10-16T18:12:36Z</time>
      </trkpt>
      <trkpt lat="62.637711466691" lon="17.970152133193">
        <ele>65.6</ele>
        <time>2017-10-16T18:12:37Z</time>
      </trkpt>
      <trkpt lat="62.637709622673" lon="17.970193288322">
        <ele>65.8</ele>
        <time>2017-10-16T18:12:38Z</time>
      </trkpt>
      <trkpt lat="62.637707946293" lon="17.970233353804">
        <ele>65.8</ele>
        <time>2017-10-16T18:12:39Z</time>
      </trkpt>
      <trkpt lat="62.637706186094" lon="17.970274257476">
        <ele>66</ele>
        <time>2017-10-16T18:12:40Z</time>
      </trkpt>
      <trkpt lat="62.637708030112" lon="17.970322201944">
        <ele>66.4</ele>
        <time>2017-10-16T18:12:41Z</time>
      </trkpt>
      <trkpt lat="62.637708868302" lon="17.970373331534">
        <ele>66.6</ele>
        <time>2017-10-16T18:12:42Z</time>
      </trkpt>
      <trkpt lat="62.637711382872" lon="17.970422533287">
        <ele>66.6</ele>
        <time>2017-10-16T18:12:43Z</time>
      </trkpt>
      <trkpt lat="62.637716244374" lon="17.970474081972">
        <ele>66.8</ele>
        <time>2017-10-16T18:12:44Z</time>
      </trkpt>
      <trkpt lat="62.637723704265" lon="17.970525295381">
        <ele>67</ele>
        <time>2017-10-16T18:12:45Z</time>
      </trkpt>
      <trkpt lat="62.637734265459" lon="17.970574664772">
        <ele>67</ele>
        <time>2017-10-16T18:12:46Z</time>
      </trkpt>
      <trkpt lat="62.637745664843" lon="17.970621435774">
        <ele>67.2</ele>
        <time>2017-10-16T18:12:47Z</time>
      </trkpt>
      <trkpt lat="62.637757483322" lon="17.970673487373">
        <ele>67.2</ele>
        <time>2017-10-16T18:12:48Z</time>
      </trkpt>
      <trkpt lat="62.637768295973" lon="17.970721683298">
        <ele>67.2</ele>
        <time>2017-10-16T18:12:49Z</time>
      </trkpt>
      <trkpt lat="62.637777935158" lon="17.970768789576">
        <ele>67.2</ele>
        <time>2017-10-16T18:12:50Z</time>
      </trkpt>
      <trkpt lat="62.637788915447" lon="17.970821930822">
        <ele>67.2</ele>
        <time>2017-10-16T18:12:51Z</time>
      </trkpt>
      <trkpt lat="62.637799141365" lon="17.97087071348">
        <ele>67.4</ele>
        <time>2017-10-16T18:12:52Z</time>
      </trkpt>
      <trkpt lat="62.637808361455" lon="17.970916646292">
        <ele>67.4</ele>
        <time>2017-10-16T18:12:53Z</time>
      </trkpt>
      <trkpt lat="62.637819844658" lon="17.970963501113">
        <ele>67.4</ele>
        <time>2017-10-16T18:12:54Z</time>
      </trkpt>
      <trkpt lat="62.63783141168" lon="17.971013708694">
        <ele>67.4</ele>
        <time>2017-10-16T18:12:55Z</time>
      </trkpt>
      <trkpt lat="62.637841050865" lon="17.971066514664">
        <ele>67.4</ele>
        <time>2017-10-16T18:12:56Z</time>
      </trkpt>
      <trkpt lat="62.637849265127" lon="17.971122254299">
        <ele>67.6</ele>
        <time>2017-10-16T18:12:57Z</time>
      </trkpt>
      <trkpt lat="62.637854378086" lon="17.971175060269">
        <ele>67.6</ele>
        <time>2017-10-16T18:12:58Z</time>
      </trkpt>
      <trkpt lat="62.637860329235" lon="17.97122359147">
        <ele>67.6</ele>
        <time>2017-10-16T18:12:59Z</time>
      </trkpt>
      <trkpt lat="62.637867789126" lon="17.971275726888">
        <ele>67.6</ele>
        <time>2017-10-16T18:13:00Z</time>
      </trkpt>
      <trkpt lat="62.637875332836" lon="17.971325934469">
        <ele>67.6</ele>
        <time>2017-10-16T18:13:01Z</time>
      </trkpt>
      <trkpt lat="62.637883128003" lon="17.971377566973">
        <ele>67.6</ele>
        <time>2017-10-16T18:13:02Z</time>
      </trkpt>
      <trkpt lat="62.637891342265" lon="17.971425846717">
        <ele>67.8</ele>
        <time>2017-10-16T18:13:03Z</time>
      </trkpt>
      <trkpt lat="62.637899640346" lon="17.971474713194">
        <ele>67.8</ele>
        <time>2017-10-16T18:13:04Z</time>
      </trkpt>
      <trkpt lat="62.637907184056" lon="17.971522573843">
        <ele>67.8</ele>
        <time>2017-10-16T18:13:05Z</time>
      </trkpt>
      <trkpt lat="62.637916236508" lon="17.971577140012">
        <ele>67.8</ele>
        <time>2017-10-16T18:13:06Z</time>
      </trkpt>
      <trkpt lat="62.637925791874" lon="17.971629107792">
        <ele>68</ele>
        <time>2017-10-16T18:13:07Z</time>
      </trkpt>
      <trkpt lat="62.637933419403" lon="17.971688703101">
        <ele>68.2</ele>
        <time>2017-10-16T18:13:08Z</time>
      </trkpt>
      <trkpt lat="62.637939705828" lon="17.971739665053">
        <ele>68</ele>
        <time>2017-10-16T18:13:09Z</time>
      </trkpt>
      <trkpt lat="62.637945070244" lon="17.971791632833">
        <ele>68.2</ele>
        <time>2017-10-16T18:13:10Z</time>
      </trkpt>
      <trkpt lat="62.637949847927" lon="17.971846869554">
        <ele>68.2</ele>
        <time>2017-10-16T18:13:11Z</time>
      </trkpt>
      <trkpt lat="62.637953284506" lon="17.971903950293">
        <ele>68.2</ele>
        <time>2017-10-16T18:13:12Z</time>
      </trkpt>
      <trkpt lat="62.637957056361" lon="17.971962455955">
        <ele>68.2</ele>
        <time>2017-10-16T18:13:13Z</time>
      </trkpt>
      <trkpt lat="62.637959738569" lon="17.972021296893">
        <ele>68.2</ele>
        <time>2017-10-16T18:13:14Z</time>
      </trkpt>
      <trkpt lat="62.637962756053" lon="17.972072258845">
        <ele>68.2</ele>
        <time>2017-10-16T18:13:15Z</time>
      </trkpt>
      <trkpt lat="62.63796636027" lon="17.972134452543">
        <ele>68.4</ele>
        <time>2017-10-16T18:13:16Z</time>
      </trkpt>
      <trkpt lat="62.637968791021" lon="17.97218583359">
        <ele>68.4</ele>
        <time>2017-10-16T18:13:17Z</time>
      </trkpt>
      <trkpt lat="62.637971724686" lon="17.972242662872">
        <ele>68.4</ele>
        <time>2017-10-16T18:13:18Z</time>
      </trkpt>
      <trkpt lat="62.637973317247" lon="17.972302761095">
        <ele>68.6</ele>
        <time>2017-10-16T18:13:19Z</time>
      </trkpt>
      <trkpt lat="62.637974993627" lon="17.972353806866">
        <ele>68.4</ele>
        <time>2017-10-16T18:13:20Z</time>
      </trkpt>
      <trkpt lat="62.637980441862" lon="17.972407199569">
        <ele>68.4</ele>
        <time>2017-10-16T18:13:21Z</time>
      </trkpt>
      <trkpt lat="62.637984968088" lon="17.972460843729">
        <ele>68.6</ele>
        <time>2017-10-16T18:13:22Z</time>
      </trkpt>
      <trkpt lat="62.637988907581" lon="17.972506608903">
        <ele>68.6</ele>
        <time>2017-10-16T18:13:23Z</time>
      </trkpt>
      <trkpt lat="62.637993014712" lon="17.972567545316">
        <ele>68.8</ele>
        <time>2017-10-16T18:13:24Z</time>
      </trkpt>
      <trkpt lat="62.637996199834" lon="17.97261917782">
        <ele>69</ele>
        <time>2017-10-16T18:13:25Z</time>
      </trkpt>
      <trkpt lat="62.638001312793" lon="17.97267533655">
        <ele>69.2</ele>
        <time>2017-10-16T18:13:26Z</time>
      </trkpt>
      <trkpt lat="62.638006509571" lon="17.972731662918">
        <ele>69.2</ele>
        <time>2017-10-16T18:13:27Z</time>
      </trkpt>
      <trkpt lat="62.638010868159" lon="17.972786899639">
        <ele>69.4</ele>
        <time>2017-10-16T18:13:28Z</time>
      </trkpt>
      <trkpt lat="62.638013215091" lon="17.972836017573">
        <ele>69.6</ele>
        <time>2017-10-16T18:13:29Z</time>
      </trkpt>
      <trkpt lat="62.638014304738" lon="17.97289242776">
        <ele>69.6</ele>
        <time>2017-10-16T18:13:30Z</time>
      </trkpt>
      <trkpt lat="62.638017238403" lon="17.972950933422">
        <ele>69.6</ele>
        <time>2017-10-16T18:13:31Z</time>
      </trkpt>
      <trkpt lat="62.638019920611" lon="17.973002817383">
        <ele>69.6</ele>
        <time>2017-10-16T18:13:32Z</time>
      </trkpt>
      <trkpt lat="62.638023105733" lon="17.973061323045">
        <ele>69.8</ele>
        <time>2017-10-16T18:13:33Z</time>
      </trkpt>
      <trkpt lat="62.638025536484" lon="17.973114380472">
        <ele>69.8</ele>
        <time>2017-10-16T18:13:34Z</time>
      </trkpt>
      <trkpt lat="62.638026877588" lon="17.973165342424">
        <ele>70</ele>
        <time>2017-10-16T18:13:35Z</time>
      </trkpt>
      <trkpt lat="62.638028470149" lon="17.973225440647">
        <ele>70.2</ele>
        <time>2017-10-16T18:13:36Z</time>
      </trkpt>
      <trkpt lat="62.638029895072" lon="17.973277492246">
        <ele>70.2</ele>
        <time>2017-10-16T18:13:37Z</time>
      </trkpt>
      <trkpt lat="62.638030481805" lon="17.973327532189">
        <ele>70.4</ele>
        <time>2017-10-16T18:13:38Z</time>
      </trkpt>
      <trkpt lat="62.638030565624" lon="17.973383355643">
        <ele>70.6</ele>
        <time>2017-10-16T18:13:39Z</time>
      </trkpt>
      <trkpt lat="62.638030314167" lon="17.973428701722">
        <ele>70.8</ele>
        <time>2017-10-16T18:13:40Z</time>
      </trkpt>
      <trkpt lat="62.638029978891" lon="17.973481088597">
        <ele>70.8</ele>
        <time>2017-10-16T18:13:41Z</time>
      </trkpt>
      <trkpt lat="62.638028721606" lon="17.973534648938">
        <ele>71</ele>
        <time>2017-10-16T18:13:42Z</time>
      </trkpt>
      <trkpt lat="62.638029475977" lon="17.973586113804">
        <ele>71.2</ele>
        <time>2017-10-16T18:13:43Z</time>
      </trkpt>
      <trkpt lat="62.63802838633" lon="17.973642775448">
        <ele>71.2</ele>
        <time>2017-10-16T18:13:44Z</time>
      </trkpt>
      <trkpt lat="62.638027129045" lon="17.973696419608">
        <ele>71.4</ele>
        <time>2017-10-16T18:13:45Z</time>
      </trkpt>
      <trkpt lat="62.638028553968" lon="17.97375157251">
        <ele>71.4</ele>
        <time>2017-10-16T18:13:46Z</time>
      </trkpt>
      <trkpt lat="62.638030314167" lon="17.973805300489">
        <ele>71.2</ele>
        <time>2017-10-16T18:13:47Z</time>
      </trkpt>
      <trkpt lat="62.638033499289" lon="17.97386388997">
        <ele>71.4</ele>
        <time>2017-10-16T18:13:48Z</time>
      </trkpt>
      <trkpt lat="62.638035762402" lon="17.973914935741">
        <ele>71.2</ele>
        <time>2017-10-16T18:13:49Z</time>
      </trkpt>
      <trkpt lat="62.638037522601" lon="17.973968496082">
        <ele>71.2</ele>
        <time>2017-10-16T18:13:50Z</time>
      </trkpt>
      <trkpt lat="62.63803760642" lon="17.974026582649">
        <ele>71.2</ele>
        <time>2017-10-16T18:13:51Z</time>
      </trkpt>
      <trkpt lat="62.63803844461" lon="17.974082489922">
        <ele>71.2</ele>
        <time>2017-10-16T18:13:52Z</time>
      </trkpt>
      <trkpt lat="62.638040288628" lon="17.974134541521">
        <ele>71.2</ele>
        <time>2017-10-16T18:13:53Z</time>
      </trkpt>
      <trkpt lat="62.638042216465" lon="17.974194807382">
        <ele>71.2</ele>
        <time>2017-10-16T18:13:54Z</time>
      </trkpt>
      <trkpt lat="62.638044228121" lon="17.974241410746">
        <ele>71.2</ele>
        <time>2017-10-16T18:13:55Z</time>
      </trkpt>
      <trkpt lat="62.638046658872" lon="17.974305197005">
        <ele>71.2</ele>
        <time>2017-10-16T18:13:56Z</time>
      </trkpt>
      <trkpt lat="62.638048251433" lon="17.974364708495">
        <ele>71.2</ele>
        <time>2017-10-16T18:13:57Z</time>
      </trkpt>
      <trkpt lat="62.6380476647" lon="17.974421118682">
        <ele>71.2</ele>
        <time>2017-10-16T18:13:58Z</time>
      </trkpt>
      <trkpt lat="62.638046072139" lon="17.974474762842">
        <ele>71.2</ele>
        <time>2017-10-16T18:13:59Z</time>
      </trkpt>
      <trkpt lat="62.63804347375" lon="17.97453360378">
        <ele>71.2</ele>
        <time>2017-10-16T18:14:00Z</time>
      </trkpt>
      <trkpt lat="62.638041545913" lon="17.974597725315">
        <ele>71.2</ele>
        <time>2017-10-16T18:14:01Z</time>
      </trkpt>
      <trkpt lat="62.638034924212" lon="17.974657907357">
        <ele>71.2</ele>
        <time>2017-10-16T18:14:02Z</time>
      </trkpt>
      <trkpt lat="62.638026039398" lon="17.974713311716">
        <ele>71.2</ele>
        <time>2017-10-16T18:14:03Z</time>
      </trkpt>
      <trkpt lat="62.638016400213" lon="17.974766285324">
        <ele>71.4</ele>
        <time>2017-10-16T18:14:04Z</time>
      </trkpt>
      <trkpt lat="62.638004581734" lon="17.974810709394">
        <ele>71.4</ele>
        <time>2017-10-16T18:14:05Z</time>
      </trkpt>
      <trkpt lat="62.637990500142" lon="17.974858234767">
        <ele>71.2</ele>
        <time>2017-10-16T18:14:06Z</time>
      </trkpt>
      <trkpt lat="62.637974239256" lon="17.97490492195">
        <ele>71.4</ele>
        <time>2017-10-16T18:14:07Z</time>
      </trkpt>
      <trkpt lat="62.637956469628" lon="17.974947334364">
        <ele>71.4</ele>
        <time>2017-10-16T18:14:08Z</time>
      </trkpt>
      <trkpt lat="62.637940208742" lon="17.974985304371">
        <ele>71.6</ele>
        <time>2017-10-16T18:14:09Z</time>
      </trkpt>
      <trkpt lat="62.637924702227" lon="17.975021262722">
        <ele>71.6</ele>
        <time>2017-10-16T18:14:10Z</time>
      </trkpt>
      <trkpt lat="62.637907435513" lon="17.97505747253">
        <ele>71.8</ele>
        <time>2017-10-16T18:14:11Z</time>
      </trkpt>
      <trkpt lat="62.637889917342" lon="17.975095274899">
        <ele>72</ele>
        <time>2017-10-16T18:14:12Z</time>
      </trkpt>
      <trkpt lat="62.637871225705" lon="17.975132155259">
        <ele>72.2</ele>
        <time>2017-10-16T18:14:13Z</time>
      </trkpt>
      <trkpt lat="62.637851863516" lon="17.975167945972">
        <ele>72.2</ele>
        <time>2017-10-16T18:14:14Z</time>
      </trkpt>
      <trkpt lat="62.637837027553" lon="17.975204491056">
        <ele>72.4</ele>
        <time>2017-10-16T18:14:15Z</time>
      </trkpt>
      <trkpt lat="62.637817497726" lon="17.975241455235">
        <ele>72.4</ele>
        <time>2017-10-16T18:14:16Z</time>
      </trkpt>
      <trkpt lat="62.637800231012" lon="17.975277162129">
        <ele>72.6</ele>
        <time>2017-10-16T18:14:17Z</time>
      </trkpt>
      <trkpt lat="62.637784053945" lon="17.975313288118">
        <ele>72.8</ele>
        <time>2017-10-16T18:14:18Z</time>
      </trkpt>
      <trkpt lat="62.637767876878" lon="17.975344384967">
        <ele>72.8</ele>
        <time>2017-10-16T18:14:19Z</time>
      </trkpt>
      <trkpt lat="62.63775262182" lon="17.975372464332">
        <ele>73</ele>
        <time>2017-10-16T18:14:20Z</time>
      </trkpt>
      <trkpt lat="62.637735355106" lon="17.975401800982">
        <ele>73.2</ele>
        <time>2017-10-16T18:14:21Z</time>
      </trkpt>
      <trkpt lat="62.637713059252" lon="17.975421163171">
        <ele>73.4</ele>
        <time>2017-10-16T18:14:22Z</time>
      </trkpt>
      <trkpt lat="62.637696127814" lon="17.975440776817">
        <ele>73.4</ele>
        <time>2017-10-16T18:14:23Z</time>
      </trkpt>
      <trkpt lat="62.637672742313" lon="17.975453433486">
        <ele>73.8</ele>
        <time>2017-10-16T18:14:24Z</time>
      </trkpt>
      <trkpt lat="62.637649943545" lon="17.975466760707">
        <ele>74</ele>
        <time>2017-10-16T18:14:25Z</time>
      </trkpt>
      <trkpt lat="62.637625468397" lon="17.975484614154">
        <ele>74.2</ele>
        <time>2017-10-16T18:14:26Z</time>
      </trkpt>
      <trkpt lat="62.637600825611" lon="17.975500707402">
        <ele>74.8</ele>
        <time>2017-10-16T18:14:27Z</time>
      </trkpt>
      <trkpt lat="62.637577104834" lon="17.975514621356">
        <ele>74.8</ele>
        <time>2017-10-16T18:14:28Z</time>
      </trkpt>
      <trkpt lat="62.63755732355" lon="17.9755293735">
        <ele>75</ele>
        <time>2017-10-16T18:14:29Z</time>
      </trkpt>
      <trkpt lat="62.637534440963" lon="17.975546640214">
        <ele>75.2</ele>
        <time>2017-10-16T18:14:30Z</time>
      </trkpt>
      <trkpt lat="62.637511642195" lon="17.975562146729">
        <ele>75.4</ele>
        <time>2017-10-16T18:14:31Z</time>
      </trkpt>
      <trkpt lat="62.637491525635" lon="17.975577737063">
        <ele>75.6</ele>
        <time>2017-10-16T18:14:32Z</time>
      </trkpt>
      <trkpt lat="62.637468810686" lon="17.975594919958">
        <ele>75.8</ele>
        <time>2017-10-16T18:14:33Z</time>
      </trkpt>
      <trkpt lat="62.637451879248" lon="17.975613108681">
        <ele>76</ele>
        <time>2017-10-16T18:14:34Z</time>
      </trkpt>
      <trkpt lat="62.637434612534" lon="17.975630207757">
        <ele>76.2</ele>
        <time>2017-10-16T18:14:35Z</time>
      </trkpt>
      <trkpt lat="62.6374106403" lon="17.975651833059">
        <ele>76.6</ele>
        <time>2017-10-16T18:14:36Z</time>
      </trkpt>
      <trkpt lat="62.637386835704" lon="17.975675134741">
        <ele>76.6</ele>
        <time>2017-10-16T18:14:37Z</time>
      </trkpt>
      <trkpt lat="62.637366802963" lon="17.975697514414">
        <ele>76.8</ele>
        <time>2017-10-16T18:14:38Z</time>
      </trkpt>
      <trkpt lat="62.63734777605" lon="17.975724755589">
        <ele>77</ele>
        <time>2017-10-16T18:14:39Z</time>
      </trkpt>
      <trkpt lat="62.637330928431" lon="17.97575233204">
        <ele>77</ele>
        <time>2017-10-16T18:14:40Z</time>
      </trkpt>
      <trkpt lat="62.637313074984" lon="17.975779405577">
        <ele>77.2</ele>
        <time>2017-10-16T18:14:41Z</time>
      </trkpt>
      <trkpt lat="62.637296814098" lon="17.975813352272">
        <ele>77.2</ele>
        <time>2017-10-16T18:14:42Z</time>
      </trkpt>
      <trkpt lat="62.637283738334" lon="17.97584704751">
        <ele>77.4</ele>
        <time>2017-10-16T18:14:43Z</time>
      </trkpt>
      <trkpt lat="62.637269656742" lon="17.975884011689">
        <ele>77.4</ele>
        <time>2017-10-16T18:14:44Z</time>
      </trkpt>
      <trkpt lat="62.637256329521" lon="17.97592416099">
        <ele>77.8</ele>
        <time>2017-10-16T18:14:45Z</time>
      </trkpt>
      <trkpt lat="62.637242750843" lon="17.975975206761">
        <ele>78</ele>
        <time>2017-10-16T18:14:46Z</time>
      </trkpt>
      <trkpt lat="62.637230932364" lon="17.976016948623">
        <ele>78.2</ele>
        <time>2017-10-16T18:14:47Z</time>
      </trkpt>
      <trkpt lat="62.637220957903" lon="17.976066988566">
        <ele>78.4</ele>
        <time>2017-10-16T18:14:48Z</time>
      </trkpt>
      <trkpt lat="62.63721115108" lon="17.976117531423">
        <ele>78.6</ele>
        <time>2017-10-16T18:14:49Z</time>
      </trkpt>
      <trkpt lat="62.637199164963" lon="17.976164972977">
        <ele>78.6</ele>
        <time>2017-10-16T18:14:50Z</time>
      </trkpt>
      <trkpt lat="62.637186256837" lon="17.976214258549">
        <ele>78.8</ele>
        <time>2017-10-16T18:14:51Z</time>
      </trkpt>
      <trkpt lat="62.637177874937" lon="17.976262203017">
        <ele>79</ele>
        <time>2017-10-16T18:14:52Z</time>
      </trkpt>
      <trkpt lat="62.637168906304" lon="17.976311740046">
        <ele>79.2</ele>
        <time>2017-10-16T18:14:53Z</time>
      </trkpt>
      <trkpt lat="62.637162871336" lon="17.976367060586">
        <ele>79.4</ele>
        <time>2017-10-16T18:14:54Z</time>
      </trkpt>
      <trkpt lat="62.637159099481" lon="17.976411233199">
        <ele>79.6</ele>
        <time>2017-10-16T18:14:55Z</time>
      </trkpt>
      <trkpt lat="62.637152729237" lon="17.976467559567">
        <ele>79.6</ele>
        <time>2017-10-16T18:14:56Z</time>
      </trkpt>
      <trkpt lat="62.637145017889" lon="17.976521455184">
        <ele>79.8</ele>
        <time>2017-10-16T18:14:57Z</time>
      </trkpt>
      <trkpt lat="62.637138312369" lon="17.976573255326">
        <ele>79.8</ele>
        <time>2017-10-16T18:14:58Z</time>
      </trkpt>
      <trkpt lat="62.637136300713" lon="17.976627821495">
        <ele>80</ele>
        <time>2017-10-16T18:14:59Z</time>
      </trkpt>
      <trkpt lat="62.637136384532" lon="17.976687584442">
        <ele>80</ele>
        <time>2017-10-16T18:15:00Z</time>
      </trkpt>
      <trkpt lat="62.637135965437" lon="17.976743407896">
        <ele>80.2</ele>
        <time>2017-10-16T18:15:01Z</time>
      </trkpt>
      <trkpt lat="62.637133618505" lon="17.976796968237">
        <ele>80.2</ele>
        <time>2017-10-16T18:15:02Z</time>
      </trkpt>
      <trkpt lat="62.637131606849" lon="17.976851869682">
        <ele>80.2</ele>
        <time>2017-10-16T18:15:03Z</time>
      </trkpt>
      <trkpt lat="62.637133115591" lon="17.976907106403">
        <ele>80.4</ele>
        <time>2017-10-16T18:15:04Z</time>
      </trkpt>
      <trkpt lat="62.637134959609" lon="17.976957733079">
        <ele>80.2</ele>
        <time>2017-10-16T18:15:05Z</time>
      </trkpt>
      <trkpt lat="62.637137809455" lon="17.977020764967">
        <ele>80.2</ele>
        <time>2017-10-16T18:15:06Z</time>
      </trkpt>
      <trkpt lat="62.637139485835" lon="17.977062842105">
        <ele>80.2</ele>
        <time>2017-10-16T18:15:07Z</time>
      </trkpt>
      <trkpt lat="62.637140407844" lon="17.97711103803">
        <ele>80.2</ele>
        <time>2017-10-16T18:15:08Z</time>
      </trkpt>
      <trkpt lat="62.637132612677" lon="17.977155629738">
        <ele>80.2</ele>
        <time>2017-10-16T18:15:09Z</time>
      </trkpt>
      <trkpt lat="62.637122805854" lon="17.97720156255">
        <ele>80</ele>
        <time>2017-10-16T18:15:10Z</time>
      </trkpt>
      <trkpt lat="62.637112663755" lon="17.97725436852">
        <ele>80</ele>
        <time>2017-10-16T18:15:11Z</time>
      </trkpt>
      <trkpt lat="62.637100174724" lon="17.977314382924">
        <ele>80.2</ele>
        <time>2017-10-16T18:15:12Z</time>
      </trkpt>
      <trkpt lat="62.637092882471" lon="17.977368278541">
        <ele>80.2</ele>
        <time>2017-10-16T18:15:13Z</time>
      </trkpt>
      <trkpt lat="62.637083410924" lon="17.977423179986">
        <ele>80.2</ele>
        <time>2017-10-16T18:15:14Z</time>
      </trkpt>
      <trkpt lat="62.637073855558" lon="17.97747481249">
        <ele>80.4</ele>
        <time>2017-10-16T18:15:15Z</time>
      </trkpt>
      <trkpt lat="62.637061198889" lon="17.977525271528">
        <ele>80.4</ele>
        <time>2017-10-16T18:15:16Z</time>
      </trkpt>
      <trkpt lat="62.637048290763" lon="17.977573383634">
        <ele>80.2</ele>
        <time>2017-10-16T18:15:17Z</time>
      </trkpt>
      <trkpt lat="62.637033957714" lon="17.977628117441">
        <ele>80.2</ele>
        <time>2017-10-16T18:15:18Z</time>
      </trkpt>
      <trkpt lat="62.637021636321" lon="17.97767933085">
        <ele>80.2</ele>
        <time>2017-10-16T18:15:19Z</time>
      </trkpt>
      <trkpt lat="62.637010488394" lon="17.977727862051">
        <ele>80.4</ele>
        <time>2017-10-16T18:15:20Z</time>
      </trkpt>
      <trkpt lat="62.636999675743" lon="17.97777823727">
        <ele>80.2</ele>
        <time>2017-10-16T18:15:21Z</time>
      </trkpt>
      <trkpt lat="62.636989617463" lon="17.977830121231">
        <ele>80.2</ele>
        <time>2017-10-16T18:15:22Z</time>
      </trkpt>
      <trkpt lat="62.63697981064" lon="17.977877059871">
        <ele>80.4</ele>
        <time>2017-10-16T18:15:23Z</time>
      </trkpt>
      <trkpt lat="62.636968159799" lon="17.97793581699">
        <ele>80.2</ele>
        <time>2017-10-16T18:15:24Z</time>
      </trkpt>
      <trkpt lat="62.636959107347" lon="17.977984348191">
        <ele>80.2</ele>
        <time>2017-10-16T18:15:25Z</time>
      </trkpt>
      <trkpt lat="62.636944103746" lon="17.978035058686">
        <ele>80.2</ele>
        <time>2017-10-16T18:15:26Z</time>
      </trkpt>
      <trkpt lat="62.636930608887" lon="17.97808250024">
        <ele>80.2</ele>
        <time>2017-10-16T18:15:27Z</time>
      </trkpt>
      <trkpt lat="62.636919963874" lon="17.978130612346">
        <ele>80.2</ele>
        <time>2017-10-16T18:15:28Z</time>
      </trkpt>
      <trkpt lat="62.636908815947" lon="17.978173946769">
        <ele>80.2</ele>
        <time>2017-10-16T18:15:29Z</time>
      </trkpt>
      <trkpt lat="62.636895740183" lon="17.978225998368">
        <ele>80.2</ele>
        <time>2017-10-16T18:15:30Z</time>
      </trkpt>
      <trkpt lat="62.636886352455" lon="17.978282073279">
        <ele>80.4</ele>
        <time>2017-10-16T18:15:31Z</time>
      </trkpt>
      <trkpt lat="62.636872270863" lon="17.978331861765">
        <ele>80.4</ele>
        <time>2017-10-16T18:15:32Z</time>
      </trkpt>
      <trkpt lat="62.636858692185" lon="17.978384751554">
        <ele>80.6</ele>
        <time>2017-10-16T18:15:33Z</time>
      </trkpt>
      <trkpt lat="62.636846035516" lon="17.978431606375">
        <ele>80.6</ele>
        <time>2017-10-16T18:15:34Z</time>
      </trkpt>
      <trkpt lat="62.63683145101" lon="17.978469995477">
        <ele>80.8</ele>
        <time>2017-10-16T18:15:35Z</time>
      </trkpt>
      <trkpt lat="62.636812340278" lon="17.978518526678">
        <ele>81</ele>
        <time>2017-10-16T18:15:36Z</time>
      </trkpt>
      <trkpt lat="62.636795157383" lon="17.978562615472">
        <ele>81</ele>
        <time>2017-10-16T18:15:37Z</time>
      </trkpt>
      <trkpt lat="62.636776214289" lon="17.978597567995">
        <ele>80.8</ele>
        <time>2017-10-16T18:15:38Z</time>
      </trkpt>
      <trkpt lat="62.636756181548" lon="17.978625144446">
        <ele>81</ele>
        <time>2017-10-16T18:15:39Z</time>
      </trkpt>
      <trkpt lat="62.636739333929" lon="17.978643500807">
        <ele>81</ele>
        <time>2017-10-16T18:15:40Z</time>
      </trkpt>
      <trkpt lat="62.63671829536" lon="17.978669400878">
        <ele>81</ele>
        <time>2017-10-16T18:15:41Z</time>
      </trkpt>
      <trkpt lat="62.636701028646" lon="17.978692283465">
        <ele>81.2</ele>
        <time>2017-10-16T18:15:42Z</time>
      </trkpt>
      <trkpt lat="62.636684935398" lon="17.978712400025">
        <ele>81.2</ele>
        <time>2017-10-16T18:15:43Z</time>
      </trkpt>
      <trkpt lat="62.636662052811" lon="17.978726565436">
        <ele>81.4</ele>
        <time>2017-10-16T18:15:44Z</time>
      </trkpt>
      <trkpt lat="62.636643612631" lon="17.978734444422">
        <ele>81.4</ele>
        <time>2017-10-16T18:15:45Z</time>
      </trkpt>
      <trkpt lat="62.636619053664" lon="17.978744335064">
        <ele>81.4</ele>
        <time>2017-10-16T18:15:46Z</time>
      </trkpt>
      <trkpt lat="62.636593237412" lon="17.97875137586">
        <ele>81.6</ele>
        <time>2017-10-16T18:15:47Z</time>
      </trkpt>
      <trkpt lat="62.636564152219" lon="17.978757829923">
        <ele>81.6</ele>
        <time>2017-10-16T18:15:48Z</time>
      </trkpt>
      <trkpt lat="62.636541269632" lon="17.97876730147">
        <ele>81.6</ele>
        <time>2017-10-16T18:15:49Z</time>
      </trkpt>
      <trkpt lat="62.636518638502" lon="17.978773839352">
        <ele>81.6</ele>
        <time>2017-10-16T18:15:50Z</time>
      </trkpt>
      <trkpt lat="62.636498019028" lon="17.978776856836">
        <ele>81.8</ele>
        <time>2017-10-16T18:15:51Z</time>
      </trkpt>
      <trkpt lat="62.63647689664" lon="17.97878238889">
        <ele>81.8</ele>
        <time>2017-10-16T18:15:52Z</time>
      </trkpt>
      <trkpt lat="62.636457953546" lon="17.978787501849">
        <ele>81.8</ele>
        <time>2017-10-16T18:15:53Z</time>
      </trkpt>
      <trkpt lat="62.636441189746" lon="17.978793033903">
        <ele>81.8</ele>
        <time>2017-10-16T18:15:54Z</time>
      </trkpt>
      <trkpt lat="62.63642073791" lon="17.978793033903">
        <ele>81.8</ele>
        <time>2017-10-16T18:15:55Z</time>
      </trkpt>
      <trkpt lat="62.636395173115" lon="17.978798398319">
        <ele>82.2</ele>
        <time>2017-10-16T18:15:56Z</time>
      </trkpt>
      <trkpt lat="62.63637631384" lon="17.978809713884">
        <ele>82.4</ele>
        <time>2017-10-16T18:15:57Z</time>
      </trkpt>
      <trkpt lat="62.636358292755" lon="17.97881675468">
        <ele>82.8</ele>
        <time>2017-10-16T18:15:58Z</time>
      </trkpt>
      <trkpt lat="62.636340020213" lon="17.978827399693">
        <ele>83.2</ele>
        <time>2017-10-16T18:15:59Z</time>
      </trkpt>
      <trkpt lat="62.636320322748" lon="17.978842319475">
        <ele>83.6</ele>
        <time>2017-10-16T18:16:00Z</time>
      </trkpt>
      <trkpt lat="62.636300122369" lon="17.978858245085">
        <ele>83.8</ele>
        <time>2017-10-16T18:16:01Z</time>
      </trkpt>
      <trkpt lat="62.636278077972" lon="17.978876014713">
        <ele>84.4</ele>
        <time>2017-10-16T18:16:02Z</time>
      </trkpt>
      <trkpt lat="62.636259889249" lon="17.978895125445">
        <ele>84.6</ele>
        <time>2017-10-16T18:16:03Z</time>
      </trkpt>
      <trkpt lat="62.636244215096" lon="17.978911973064">
        <ele>84.8</ele>
        <time>2017-10-16T18:16:04Z</time>
      </trkpt>
      <trkpt lat="62.636231726065" lon="17.9789324249">
        <ele>85</ele>
        <time>2017-10-16T18:16:05Z</time>
      </trkpt>
      <trkpt lat="62.636218817939" lon="17.978954553116">
        <ele>85.4</ele>
        <time>2017-10-16T18:16:06Z</time>
      </trkpt>
      <trkpt lat="62.636207502374" lon="17.978980620825">
        <ele>85.6</ele>
        <time>2017-10-16T18:16:07Z</time>
      </trkpt>
      <trkpt lat="62.63619275023" lon="17.979007107629">
        <ele>85.8</ele>
        <time>2017-10-16T18:16:08Z</time>
      </trkpt>
      <trkpt lat="62.636178836276" lon="17.979029403483">
        <ele>86.2</ele>
        <time>2017-10-16T18:16:09Z</time>
      </trkpt>
      <trkpt lat="62.636164587046" lon="17.979054884459">
        <ele>86.6</ele>
        <time>2017-10-16T18:16:10Z</time>
      </trkpt>
      <trkpt lat="62.636151762739" lon="17.979087573869">
        <ele>87</ele>
        <time>2017-10-16T18:16:11Z</time>
      </trkpt>
      <trkpt lat="62.636139525165" lon="17.97911766489">
        <ele>87.4</ele>
        <time>2017-10-16T18:16:12Z</time>
      </trkpt>
      <trkpt lat="62.636126449401" lon="17.979150941033">
        <ele>87.6</ele>
        <time>2017-10-16T18:16:13Z</time>
      </trkpt>
      <trkpt lat="62.636115972026" lon="17.979190922696">
        <ele>88</ele>
        <time>2017-10-16T18:16:14Z</time>
      </trkpt>
      <trkpt lat="62.636109266506" lon="17.979237945155">
        <ele>88.2</ele>
        <time>2017-10-16T18:16:15Z</time>
      </trkpt>
      <trkpt lat="62.636101722796" lon="17.979285135252">
        <ele>88.4</ele>
        <time>2017-10-16T18:16:16Z</time>
      </trkpt>
      <trkpt lat="62.636096106923" lon="17.979327799123">
        <ele>88.6</ele>
        <time>2017-10-16T18:16:17Z</time>
      </trkpt>
      <trkpt lat="62.636090742507" lon="17.97937247465">
        <ele>88.8</ele>
        <time>2017-10-16T18:16:18Z</time>
      </trkpt>
      <trkpt lat="62.636083617892" lon="17.979418072186">
        <ele>88.8</ele>
        <time>2017-10-16T18:16:19Z</time>
      </trkpt>
      <trkpt lat="62.636077163829" lon="17.979465178464">
        <ele>88.8</ele>
        <time>2017-10-16T18:16:20Z</time>
      </trkpt>
      <trkpt lat="62.636069117205" lon="17.979517062425">
        <ele>88.6</ele>
        <time>2017-10-16T18:16:21Z</time>
      </trkpt>
      <trkpt lat="62.636064339522" lon="17.979570790404">
        <ele>88.4</ele>
        <time>2017-10-16T18:16:22Z</time>
      </trkpt>
      <trkpt lat="62.636062579323" lon="17.979624015469">
        <ele>88.2</ele>
        <time>2017-10-16T18:16:23Z</time>
      </trkpt>
      <trkpt lat="62.636056460536" lon="17.979691070669">
        <ele>87.8</ele>
        <time>2017-10-16T18:16:24Z</time>
      </trkpt>
      <trkpt lat="62.636052269586" lon="17.979750246883">
        <ele>87.2</ele>
        <time>2017-10-16T18:16:25Z</time>
      </trkpt>
      <trkpt lat="62.636049335921" lon="17.979811183296">
        <ele>86.8</ele>
        <time>2017-10-16T18:16:26Z</time>
      </trkpt>
      <trkpt lat="62.636049587378" lon="17.979861726153">
        <ele>86.4</ele>
        <time>2017-10-16T18:16:27Z</time>
      </trkpt>
      <trkpt lat="62.636051263758" lon="17.97991981272">
        <ele>86</ele>
        <time>2017-10-16T18:16:28Z</time>
      </trkpt>
      <trkpt lat="62.636055370889" lon="17.979963566238">
        <ele>85.6</ele>
        <time>2017-10-16T18:16:29Z</time>
      </trkpt>
      <trkpt lat="62.636059394201" lon="17.980013438543">
        <ele>85.4</ele>
        <time>2017-10-16T18:16:30Z</time>
      </trkpt>
      <trkpt lat="62.636067608463" lon="17.980076721888">
        <ele>85.2</ele>
        <time>2017-10-16T18:16:31Z</time>
      </trkpt>
      <trkpt lat="62.636072302327" lon="17.980130366048">
        <ele>85</ele>
        <time>2017-10-16T18:16:32Z</time>
      </trkpt>
      <trkpt lat="62.636078169657" lon="17.980184596941">
        <ele>85</ele>
        <time>2017-10-16T18:16:33Z</time>
      </trkpt>
      <trkpt lat="62.636083450254" lon="17.980234469246">
        <ele>85</ele>
        <time>2017-10-16T18:16:34Z</time>
      </trkpt>
      <trkpt lat="62.636088730851" lon="17.980281156429">
        <ele>85</ele>
        <time>2017-10-16T18:16:35Z</time>
      </trkpt>
      <trkpt lat="62.636095268733" lon="17.980339578272">
        <ele>85</ele>
        <time>2017-10-16T18:16:36Z</time>
      </trkpt>
      <trkpt lat="62.636101974253" lon="17.980396910468">
        <ele>85</ele>
        <time>2017-10-16T18:16:37Z</time>
      </trkpt>
      <trkpt lat="62.636112703085" lon="17.980457511605">
        <ele>84.6</ele>
        <time>2017-10-16T18:16:38Z</time>
      </trkpt>
      <trkpt lat="62.636122258451" lon="17.980515011439">
        <ele>84.6</ele>
        <time>2017-10-16T18:16:39Z</time>
      </trkpt>
      <trkpt lat="62.636131394722" lon="17.98056438083">
        <ele>84.4</ele>
        <time>2017-10-16T18:16:40Z</time>
      </trkpt>
      <trkpt lat="62.636138603156" lon="17.980623389406">
        <ele>84.2</ele>
        <time>2017-10-16T18:16:41Z</time>
      </trkpt>
      <trkpt lat="62.63615084073" lon="17.980679548136">
        <ele>84.2</ele>
        <time>2017-10-16T18:16:42Z</time>
      </trkpt>
      <trkpt lat="62.636162910666" lon="17.980733276115">
        <ele>84</ele>
        <time>2017-10-16T18:16:43Z</time>
      </trkpt>
      <trkpt lat="62.636172968946" lon="17.980787423189">
        <ele>84</ele>
        <time>2017-10-16T18:16:44Z</time>
      </trkpt>
      <trkpt lat="62.636184116873" lon="17.980839055693">
        <ele>83.8</ele>
        <time>2017-10-16T18:16:45Z</time>
      </trkpt>
      <trkpt lat="62.636198030827" lon="17.980890772016">
        <ele>83.6</ele>
        <time>2017-10-16T18:16:46Z</time>
      </trkpt>
      <trkpt lat="62.636211525686" lon="17.980940141407">
        <ele>83.4</ele>
        <time>2017-10-16T18:16:47Z</time>
      </trkpt>
      <trkpt lat="62.636221500147" lon="17.980996132499">
        <ele>83.4</ele>
        <time>2017-10-16T18:16:48Z</time>
      </trkpt>
      <trkpt lat="62.636230049685" lon="17.981043909329">
        <ele>83.2</ele>
        <time>2017-10-16T18:16:49Z</time>
      </trkpt>
      <trkpt lat="62.636235330282" lon="17.98108741139">
        <ele>83.2</ele>
        <time>2017-10-16T18:16:50Z</time>
      </trkpt>
      <trkpt lat="62.636238180128" lon="17.981147258156">
        <ele>83.2</ele>
        <time>2017-10-16T18:16:51Z</time>
      </trkpt>
      <trkpt lat="62.636244801829" lon="17.981209200397">
        <ele>83</ele>
        <time>2017-10-16T18:16:52Z</time>
      </trkpt>
      <trkpt lat="62.636245137105" lon="17.981261503453">
        <ele>83.2</ele>
        <time>2017-10-16T18:16:53Z</time>
      </trkpt>
      <trkpt lat="62.636241532888" lon="17.981324451522">
        <ele>83</ele>
        <time>2017-10-16T18:16:54Z</time>
      </trkpt>
      <trkpt lat="62.636241700526" lon="17.98137910151">
        <ele>83</ele>
        <time>2017-10-16T18:16:55Z</time>
      </trkpt>
      <trkpt lat="62.636244215096" lon="17.981435763154">
        <ele>83</ele>
        <time>2017-10-16T18:16:56Z</time>
      </trkpt>
      <trkpt lat="62.636244969467" lon="17.981501058155">
        <ele>82.8</ele>
        <time>2017-10-16T18:16:57Z</time>
      </trkpt>
      <trkpt lat="62.63625142353" lon="17.981562497482">
        <ele>82.8</ele>
        <time>2017-10-16T18:16:58Z</time>
      </trkpt>
      <trkpt lat="62.636258380507" lon="17.981613543253">
        <ele>82.8</ele>
        <time>2017-10-16T18:16:59Z</time>
      </trkpt>
      <trkpt lat="62.636267265321" lon="17.98166660068">
        <ele>82.8</ele>
        <time>2017-10-16T18:17:00Z</time>
      </trkpt>
      <trkpt lat="62.636280005809" lon="17.981724854885">
        <ele>82.6</ele>
        <time>2017-10-16T18:17:01Z</time>
      </trkpt>
      <trkpt lat="62.636287214243" lon="17.981782354719">
        <ele>82.6</ele>
        <time>2017-10-16T18:17:02Z</time>
      </trkpt>
      <trkpt lat="62.63629417122" lon="17.981838010535">
        <ele>82.6</ele>
        <time>2017-10-16T18:17:03Z</time>
      </trkpt>
      <trkpt lat="62.636298026894" lon="17.981894001627">
        <ele>82.6</ele>
        <time>2017-10-16T18:17:04Z</time>
      </trkpt>
      <trkpt lat="62.636301128197" lon="17.981944544484">
        <ele>82.6</ele>
        <time>2017-10-16T18:17:05Z</time>
      </trkpt>
      <trkpt lat="62.636302469301" lon="17.982013778978">
        <ele>82.4</ele>
        <time>2017-10-16T18:17:06Z</time>
      </trkpt>
      <trkpt lat="62.636297607799" lon="17.982082594377">
        <ele>82.4</ele>
        <time>2017-10-16T18:17:07Z</time>
      </trkpt>
      <trkpt lat="62.636297859256" lon="17.982137831098">
        <ele>82.4</ele>
        <time>2017-10-16T18:17:08Z</time>
      </trkpt>
      <trkpt lat="62.636295093229" lon="17.982196755855">
        <ele>82.4</ele>
        <time>2017-10-16T18:17:09Z</time>
      </trkpt>
      <trkpt lat="62.636296015238" lon="17.982253082223">
        <ele>82.4</ele>
        <time>2017-10-16T18:17:10Z</time>
      </trkpt>
      <trkpt lat="62.636299116541" lon="17.982311420247">
        <ele>82.4</ele>
        <time>2017-10-16T18:17:11Z</time>
      </trkpt>
      <trkpt lat="62.636301379654" lon="17.982378307809">
        <ele>82.4</ele>
        <time>2017-10-16T18:17:12Z</time>
      </trkpt>
      <trkpt lat="62.636303726586" lon="17.98243354453">
        <ele>82.4</ele>
        <time>2017-10-16T18:17:13Z</time>
      </trkpt>
      <trkpt lat="62.636302804577" lon="17.982484003568">
        <ele>82.4</ele>
        <time>2017-10-16T18:17:14Z</time>
      </trkpt>
      <trkpt lat="62.636303307491" lon="17.982537312452">
        <ele>82.4</ele>
        <time>2017-10-16T18:17:15Z</time>
      </trkpt>
      <trkpt lat="62.636296350514" lon="17.982611073172">
        <ele>82.6</ele>
        <time>2017-10-16T18:17:16Z</time>
      </trkpt>
      <trkpt lat="62.636292830116" lon="17.98266991411">
        <ele>82.6</ele>
        <time>2017-10-16T18:17:17Z</time>
      </trkpt>
      <trkpt lat="62.636290399365" lon="17.982731772532">
        <ele>82.6</ele>
        <time>2017-10-16T18:17:18Z</time>
      </trkpt>
      <trkpt lat="62.636287717157" lon="17.98278474614">
        <ele>82.6</ele>
        <time>2017-10-16T18:17:19Z</time>
      </trkpt>
      <trkpt lat="62.636287884795" lon="17.982837803567">
        <ele>82.8</ele>
        <time>2017-10-16T18:17:20Z</time>
      </trkpt>
      <trkpt lat="62.636286124596" lon="17.982899997265">
        <ele>82.8</ele>
        <time>2017-10-16T18:17:21Z</time>
      </trkpt>
      <trkpt lat="62.636291069917" lon="17.982968058293">
        <ele>82.8</ele>
        <time>2017-10-16T18:17:22Z</time>
      </trkpt>
      <trkpt lat="62.636295763781" lon="17.983015583666">
        <ele>82.8</ele>
        <time>2017-10-16T18:17:23Z</time>
      </trkpt>
      <trkpt lat="62.636302301663" lon="17.98307140712">
        <ele>82.8</ele>
        <time>2017-10-16T18:17:24Z</time>
      </trkpt>
      <trkpt lat="62.636302301663" lon="17.983116920837">
        <ele>82.8</ele>
        <time>2017-10-16T18:17:25Z</time>
      </trkpt>
      <trkpt lat="62.636303810405" lon="17.983167379875">
        <ele>82.6</ele>
        <time>2017-10-16T18:17:26Z</time>
      </trkpt>
      <trkpt lat="62.636300709102" lon="17.983224376795">
        <ele>82.8</ele>
        <time>2017-10-16T18:17:27Z</time>
      </trkpt>
      <trkpt lat="62.63629500941" lon="17.983282463362">
        <ele>82.8</ele>
        <time>2017-10-16T18:17:28Z</time>
      </trkpt>
      <trkpt lat="62.636290064089" lon="17.983332838581">
        <ele>82.8</ele>
        <time>2017-10-16T18:17:29Z</time>
      </trkpt>
      <trkpt lat="62.636285034949" lon="17.983394780822">
        <ele>82.8</ele>
        <time>2017-10-16T18:17:30Z</time>
      </trkpt>
      <trkpt lat="62.636279502895" lon="17.983449849905">
        <ele>83</ele>
        <time>2017-10-16T18:17:31Z</time>
      </trkpt>
      <trkpt lat="62.636272629737" lon="17.983499806029">
        <ele>83</ele>
        <time>2017-10-16T18:17:32Z</time>
      </trkpt>
      <trkpt lat="62.636264415475" lon="17.983549343058">
        <ele>83.2</ele>
        <time>2017-10-16T18:17:33Z</time>
      </trkpt>
      <trkpt lat="62.636260727439" lon="17.98359695225">
        <ele>83.2</ele>
        <time>2017-10-16T18:17:34Z</time>
      </trkpt>
      <trkpt lat="62.636252513177" lon="17.983633329696">
        <ele>83.4</ele>
        <time>2017-10-16T18:17:35Z</time>
      </trkpt>
      <trkpt lat="62.63624220344" lon="17.983686722399">
        <ele>83.6</ele>
        <time>2017-10-16T18:17:36Z</time>
      </trkpt>
      <trkpt lat="62.636234240635" lon="17.983743384043">
        <ele>83.6</ele>
        <time>2017-10-16T18:17:37Z</time>
      </trkpt>
      <trkpt lat="62.636228624762" lon="17.983795268004">
        <ele>83.6</ele>
        <time>2017-10-16T18:17:38Z</time>
      </trkpt>
      <trkpt lat="62.636226864563" lon="17.983848576888">
        <ele>83.6</ele>
        <time>2017-10-16T18:17:39Z</time>
      </trkpt>
      <trkpt lat="62.636217728292" lon="17.98390121522">
        <ele>83.6</ele>
        <time>2017-10-16T18:17:40Z</time>
      </trkpt>
      <trkpt lat="62.636209178754" lon="17.983948740593">
        <ele>83.8</ele>
        <time>2017-10-16T18:17:41Z</time>
      </trkpt>
      <trkpt lat="62.636203395243" lon="17.984004731685">
        <ele>83.8</ele>
        <time>2017-10-16T18:17:42Z</time>
      </trkpt>
      <trkpt lat="62.636195180981" lon="17.984057872931">
        <ele>84</ele>
        <time>2017-10-16T18:17:43Z</time>
      </trkpt>
      <trkpt lat="62.636188810737" lon="17.984117719697">
        <ele>84</ele>
        <time>2017-10-16T18:17:44Z</time>
      </trkpt>
      <trkpt lat="62.636185541796" lon="17.984170441848">
        <ele>84.2</ele>
        <time>2017-10-16T18:17:45Z</time>
      </trkpt>
      <trkpt lat="62.636188224004" lon="17.984231964994">
        <ele>84.2</ele>
        <time>2017-10-16T18:17:46Z</time>
      </trkpt>
      <trkpt lat="62.636189229832" lon="17.984284351869">
        <ele>84.4</ele>
        <time>2017-10-16T18:17:47Z</time>
      </trkpt>
      <trkpt lat="62.636191492945" lon="17.984329865586">
        <ele>84.6</ele>
        <time>2017-10-16T18:17:48Z</time>
      </trkpt>
      <trkpt lat="62.636192247316" lon="17.984380240805">
        <ele>84.6</ele>
        <time>2017-10-16T18:17:49Z</time>
      </trkpt>
      <trkpt lat="62.636192666411" lon="17.984421312115">
        <ele>84.8</ele>
        <time>2017-10-16T18:17:50Z</time>
      </trkpt>
      <trkpt lat="62.636190738574" lon="17.984473447533">
        <ele>84.8</ele>
        <time>2017-10-16T18:17:51Z</time>
      </trkpt>
      <trkpt lat="62.63618772109" lon="17.984515105576">
        <ele>84.8</ele>
        <time>2017-10-16T18:17:52Z</time>
      </trkpt>
      <trkpt lat="62.63618436833" lon="17.984562295673">
        <ele>85</ele>
        <time>2017-10-16T18:17:53Z</time>
      </trkpt>
      <trkpt lat="62.63618269195" lon="17.984619460231">
        <ele>85</ele>
        <time>2017-10-16T18:17:54Z</time>
      </trkpt>
      <trkpt lat="62.636182775769" lon="17.984661369731">
        <ele>85.2</ele>
        <time>2017-10-16T18:17:55Z</time>
      </trkpt>
      <trkpt lat="62.636180009742" lon="17.984714846253">
        <ele>85.2</ele>
        <time>2017-10-16T18:17:56Z</time>
      </trkpt>
      <trkpt lat="62.636178081905" lon="17.984768322775">
        <ele>85.4</ele>
        <time>2017-10-16T18:17:57Z</time>
      </trkpt>
      <trkpt lat="62.636172801308" lon="17.984820122917">
        <ele>85.4</ele>
        <time>2017-10-16T18:17:58Z</time>
      </trkpt>
      <trkpt lat="62.636169700005" lon="17.984865888091">
        <ele>85.6</ele>
        <time>2017-10-16T18:17:59Z</time>
      </trkpt>
      <trkpt lat="62.636168610358" lon="17.984920538079">
        <ele>85.6</ele>
        <time>2017-10-16T18:18:00Z</time>
      </trkpt>
      <trkpt lat="62.636167101616" lon="17.984969991289">
        <ele>85.8</ele>
        <time>2017-10-16T18:18:01Z</time>
      </trkpt>
      <trkpt lat="62.636163832675" lon="17.985022294345">
        <ele>85.8</ele>
        <time>2017-10-16T18:18:02Z</time>
      </trkpt>
      <trkpt lat="62.63616341358" lon="17.985074848858">
        <ele>86</ele>
        <time>2017-10-16T18:18:03Z</time>
      </trkpt>
      <trkpt lat="62.636160396096" lon="17.985126397543">
        <ele>86</ele>
        <time>2017-10-16T18:18:04Z</time>
      </trkpt>
      <trkpt lat="62.636157127155" lon="17.985165038102">
        <ele>85.8</ele>
        <time>2017-10-16T18:18:05Z</time>
      </trkpt>
      <trkpt lat="62.636147990884" lon="17.985211725285">
        <ele>85.8</ele>
        <time>2017-10-16T18:18:06Z</time>
      </trkpt>
      <trkpt lat="62.636142961744" lon="17.985251036396">
        <ele>86</ele>
        <time>2017-10-16T18:18:07Z</time>
      </trkpt>
      <trkpt lat="62.636138184061" lon="17.985296717751">
        <ele>86</ele>
        <time>2017-10-16T18:18:08Z</time>
      </trkpt>
      <trkpt lat="62.636128796333" lon="17.985355893965">
        <ele>86</ele>
        <time>2017-10-16T18:18:09Z</time>
      </trkpt>
      <trkpt lat="62.636118318958" lon="17.985408364659">
        <ele>86</ele>
        <time>2017-10-16T18:18:10Z</time>
      </trkpt>
      <trkpt lat="62.636109434144" lon="17.985460919172">
        <ele>86.2</ele>
        <time>2017-10-16T18:18:11Z</time>
      </trkpt>
      <trkpt lat="62.636096023104" lon="17.985513725142">
        <ele>86.2</ele>
        <time>2017-10-16T18:18:12Z</time>
      </trkpt>
      <trkpt lat="62.636083869349" lon="17.985557897755">
        <ele>86.2</ele>
        <time>2017-10-16T18:18:13Z</time>
      </trkpt>
      <trkpt lat="62.636073308155" lon="17.985595616305">
        <ele>86.2</ele>
        <time>2017-10-16T18:18:14Z</time>
      </trkpt>
      <trkpt lat="62.636065177712" lon="17.985618750349">
        <ele>86.2</ele>
        <time>2017-10-16T18:18:15Z</time>
      </trkpt>
      <trkpt lat="62.636059980934" lon="17.985651188302">
        <ele>86.2</ele>
        <time>2017-10-16T18:18:16Z</time>
      </trkpt>
      <trkpt lat="62.636049252102" lon="17.985679351486">
        <ele>86.4</ele>
        <time>2017-10-16T18:18:17Z</time>
      </trkpt>
      <trkpt lat="62.636038104175" lon="17.985704748643">
        <ele>86.4</ele>
        <time>2017-10-16T18:18:18Z</time>
      </trkpt>
      <trkpt lat="62.636026620972" lon="17.985731989818">
        <ele>86.6</ele>
        <time>2017-10-16T18:18:19Z</time>
      </trkpt>
      <trkpt lat="62.636016311235" lon="17.985749759446">
        <ele>86.8</ele>
        <time>2017-10-16T18:18:20Z</time>
      </trkpt>
      <trkpt lat="62.636003654566" lon="17.985760823554">
        <ele>87</ele>
        <time>2017-10-16T18:18:21Z</time>
      </trkpt>
      <trkpt lat="62.635985549662" lon="17.985773312585">
        <ele>87.2</ele>
        <time>2017-10-16T18:18:22Z</time>
      </trkpt>
      <trkpt lat="62.635972473898" lon="17.985797871552">
        <ele>87.2</ele>
        <time>2017-10-16T18:18:23Z</time>
      </trkpt>
      <trkpt lat="62.635952273519" lon="17.985822849614">
        <ele>87.4</ele>
        <time>2017-10-16T18:18:24Z</time>
      </trkpt>
      <trkpt lat="62.635936599366" lon="17.985849671694">
        <ele>87.4</ele>
        <time>2017-10-16T18:18:25Z</time>
      </trkpt>
      <trkpt lat="62.635917320996" lon="17.985875571765">
        <ele>87.6</ele>
        <time>2017-10-16T18:18:26Z</time>
      </trkpt>
      <trkpt lat="62.635884966862" lon="17.985910021374">
        <ele>87.6</ele>
        <time>2017-10-16T18:18:27Z</time>
      </trkpt>
      <trkpt lat="62.635862419551" lon="17.985946650277">
        <ele>87.6</ele>
        <time>2017-10-16T18:18:28Z</time>
      </trkpt>
      <trkpt lat="62.635839285507" lon="17.985989565605">
        <ele>87.6</ele>
        <time>2017-10-16T18:18:29Z</time>
      </trkpt>
      <trkpt lat="62.635815983825" lon="17.986032313295">
        <ele>87.6</ele>
        <time>2017-10-16T18:18:30Z</time>
      </trkpt>
      <trkpt lat="62.635793687971" lon="17.986075312442">
        <ele>87.8</ele>
        <time>2017-10-16T18:18:31Z</time>
      </trkpt>
      <trkpt lat="62.635780109293" lon="17.986125687661">
        <ele>88</ele>
        <time>2017-10-16T18:18:32Z</time>
      </trkpt>
      <trkpt lat="62.635760830923" lon="17.986174805595">
        <ele>88.2</ele>
        <time>2017-10-16T18:18:33Z</time>
      </trkpt>
      <trkpt lat="62.635742809838" lon="17.986217469466">
        <ele>88.4</ele>
        <time>2017-10-16T18:18:34Z</time>
      </trkpt>
      <trkpt lat="62.635728728246" lon="17.986257702586">
        <ele>88.6</ele>
        <time>2017-10-16T18:18:35Z</time>
      </trkpt>
      <trkpt lat="62.635708024953" lon="17.986306904339">
        <ele>88.6</ele>
        <time>2017-10-16T18:18:36Z</time>
      </trkpt>
      <trkpt lat="62.635690171506" lon="17.986348897658">
        <ele>88.6</ele>
        <time>2017-10-16T18:18:37Z</time>
      </trkpt>
      <trkpt lat="62.635674832629" lon="17.986389885149">
        <ele>88.8</ele>
        <time>2017-10-16T18:18:38Z</time>
      </trkpt>
      <trkpt lat="62.635659912847" lon="17.986445792422">
        <ele>88.8</ele>
        <time>2017-10-16T18:18:39Z</time>
      </trkpt>
      <trkpt lat="62.635646501807" lon="17.986503627532">
        <ele>89</ele>
        <time>2017-10-16T18:18:40Z</time>
      </trkpt>
      <trkpt lat="62.635630660016" lon="17.986538328598">
        <ele>89</ele>
        <time>2017-10-16T18:18:41Z</time>
      </trkpt>
      <trkpt lat="62.635611297827" lon="17.98657504132">
        <ele>89</ele>
        <time>2017-10-16T18:18:42Z</time>
      </trkpt>
      <trkpt lat="62.635591600362" lon="17.98661527444">
        <ele>89</ele>
        <time>2017-10-16T18:18:43Z</time>
      </trkpt>
      <trkpt lat="62.635572908725" lon="17.986655423741">
        <ele>89</ele>
        <time>2017-10-16T18:18:44Z</time>
      </trkpt>
      <trkpt lat="62.635551953975" lon="17.986693896662">
        <ele>89.2</ele>
        <time>2017-10-16T18:18:45Z</time>
      </trkpt>
      <trkpt lat="62.63553225651" lon="17.986743936605">
        <ele>89.4</ele>
        <time>2017-10-16T18:18:46Z</time>
      </trkpt>
      <trkpt lat="62.635512810502" lon="17.986785175553">
        <ele>89.6</ele>
        <time>2017-10-16T18:18:47Z</time>
      </trkpt>
      <trkpt lat="62.635492945399" lon="17.986838819713">
        <ele>89.6</ele>
        <time>2017-10-16T18:18:48Z</time>
      </trkpt>
      <trkpt lat="62.635474086124" lon="17.986883746697">
        <ele>89.8</ele>
        <time>2017-10-16T18:18:49Z</time>
      </trkpt>
      <trkpt lat="62.635459417799" lon="17.986931104432">
        <ele>89.8</ele>
        <time>2017-10-16T18:18:50Z</time>
      </trkpt>
      <trkpt lat="62.635441648171" lon="17.986977288701">
        <ele>90</ele>
        <time>2017-10-16T18:18:51Z</time>
      </trkpt>
      <trkpt lat="62.635421196335" lon="17.987024646436">
        <ele>90.2</ele>
        <time>2017-10-16T18:18:52Z</time>
      </trkpt>
      <trkpt lat="62.635405438363" lon="17.987070076334">
        <ele>90.2</ele>
        <time>2017-10-16T18:18:53Z</time>
      </trkpt>
      <trkpt lat="62.635388506925" lon="17.987109722721">
        <ele>90.2</ele>
        <time>2017-10-16T18:18:54Z</time>
      </trkpt>
      <trkpt lat="62.635368893279" lon="17.987156996637">
        <ele>90.4</ele>
        <time>2017-10-16T18:18:55Z</time>
      </trkpt>
      <trkpt lat="62.635349279633" lon="17.987199576689">
        <ele>90.6</ele>
        <time>2017-10-16T18:18:56Z</time>
      </trkpt>
      <trkpt lat="62.635326229408" lon="17.987243414026">
        <ele>90.6</ele>
        <time>2017-10-16T18:18:57Z</time>
      </trkpt>
      <trkpt lat="62.635305526115" lon="17.987282306042">
        <ele>90.6</ele>
        <time>2017-10-16T18:18:58Z</time>
      </trkpt>
      <trkpt lat="62.635287169754" lon="17.987320862782">
        <ele>90.8</ele>
        <time>2017-10-16T18:18:59Z</time>
      </trkpt>
      <trkpt lat="62.635270657411" lon="17.987363610472">
        <ele>90.8</ele>
        <time>2017-10-16T18:19:00Z</time>
      </trkpt>
      <trkpt lat="62.635251714317" lon="17.987407196352">
        <ele>91</ele>
        <time>2017-10-16T18:19:01Z</time>
      </trkpt>
      <trkpt lat="62.635232938861" lon="17.98745430263">
        <ele>91</ele>
        <time>2017-10-16T18:19:02Z</time>
      </trkpt>
      <trkpt lat="62.635213073758" lon="17.987497385596">
        <ele>91.2</ele>
        <time>2017-10-16T18:19:03Z</time>
      </trkpt>
      <trkpt lat="62.635193711569" lon="17.987532086662">
        <ele>91.2</ele>
        <time>2017-10-16T18:19:04Z</time>
      </trkpt>
      <trkpt lat="62.63517602576" lon="17.987555472163">
        <ele>91.4</ele>
        <time>2017-10-16T18:19:05Z</time>
      </trkpt>
      <trkpt lat="62.635155993019" lon="17.987584389718">
        <ele>91.4</ele>
        <time>2017-10-16T18:19:06Z</time>
      </trkpt>
      <trkpt lat="62.63514920368" lon="17.987614899834">
        <ele>91.6</ele>
        <time>2017-10-16T18:19:07Z</time>
      </trkpt>
      <trkpt lat="62.635128919482" lon="17.987647589244">
        <ele>91.6</ele>
        <time>2017-10-16T18:19:08Z</time>
      </trkpt>
      <trkpt lat="62.635113832062" lon="17.987677512627">
        <ele>91.6</ele>
        <time>2017-10-16T18:19:09Z</time>
      </trkpt>
      <trkpt lat="62.635105031067" lon="17.987713135702">
        <ele>91.8</ele>
        <time>2017-10-16T18:19:10Z</time>
      </trkpt>
      <trkpt lat="62.635087764353" lon="17.987742388533">
        <ele>92</ele>
        <time>2017-10-16T18:19:11Z</time>
      </trkpt>
      <trkpt lat="62.635065636137" lon="17.987774239753">
        <ele>92</ele>
        <time>2017-10-16T18:19:12Z</time>
      </trkpt>
      <trkpt lat="62.635050464898" lon="17.987806007154">
        <ele>92</ele>
        <time>2017-10-16T18:19:13Z</time>
      </trkpt>
      <trkpt lat="62.635030013062" lon="17.987848838663">
        <ele>92.2</ele>
        <time>2017-10-16T18:19:14Z</time>
      </trkpt>
      <trkpt lat="62.635008723036" lon="17.987879600236">
        <ele>92.4</ele>
        <time>2017-10-16T18:19:15Z</time>
      </trkpt>
      <trkpt lat="62.634984415526" lon="17.987912541103">
        <ele>92.4</ele>
        <time>2017-10-16T18:19:16Z</time>
      </trkpt>
      <trkpt lat="62.634958515455" lon="17.987943973228">
        <ele>92.4</ele>
        <time>2017-10-16T18:19:17Z</time>
      </trkpt>
      <trkpt lat="62.634936471058" lon="17.98796895129">
        <ele>92.8</ele>
        <time>2017-10-16T18:19:18Z</time>
      </trkpt>
      <trkpt lat="62.634919371982" lon="17.987987642927">
        <ele>92.8</ele>
        <time>2017-10-16T18:19:19Z</time>
      </trkpt>
      <trkpt lat="62.634895818843" lon="17.988009854962">
        <ele>93</ele>
        <time>2017-10-16T18:19:20Z</time>
      </trkpt>
      <trkpt lat="62.634866985107" lon="17.988023685097">
        <ele>93.2</ele>
        <time>2017-10-16T18:19:21Z</time>
      </trkpt>
      <trkpt lat="62.634844856891" lon="17.988033324282">
        <ele>93.4</ele>
        <time>2017-10-16T18:19:22Z</time>
      </trkpt>
      <trkpt lat="62.634829098919" lon="17.98805025572">
        <ele>93.4</ele>
        <time>2017-10-16T18:19:23Z</time>
      </trkpt>
      <trkpt lat="62.634802947391" lon="17.988065594597">
        <ele>93.6</ele>
        <time>2017-10-16T18:19:24Z</time>
      </trkpt>
      <trkpt lat="62.6347787237" lon="17.988073892678">
        <ele>93.8</ele>
        <time>2017-10-16T18:19:25Z</time>
      </trkpt>
      <trkpt lat="62.634753410362" lon="17.988083699501">
        <ele>93.8</ele>
        <time>2017-10-16T18:19:26Z</time>
      </trkpt>
      <trkpt lat="62.634728348481" lon="17.988095853256">
        <ele>94</ele>
        <time>2017-10-16T18:19:27Z</time>
      </trkpt>
      <trkpt lat="62.634707561369" lon="17.988111862685">
        <ele>94</ele>
        <time>2017-10-16T18:19:28Z</time>
      </trkpt>
      <trkpt lat="62.634684343506" lon="17.988111862685">
        <ele>94.2</ele>
        <time>2017-10-16T18:19:29Z</time>
      </trkpt>
      <trkpt lat="62.634659197806" lon="17.988114293436">
        <ele>94.2</ele>
        <time>2017-10-16T18:19:30Z</time>
      </trkpt>
      <trkpt lat="62.634629777337" lon="17.988120160766">
        <ele>94.2</ele>
        <time>2017-10-16T18:19:31Z</time>
      </trkpt>
      <trkpt lat="62.634603961085" lon="17.988129799951">
        <ele>94.2</ele>
        <time>2017-10-16T18:19:32Z</time>
      </trkpt>
      <trkpt lat="62.634576216996" lon="17.98814329481">
        <ele>94.2</ele>
        <time>2017-10-16T18:19:33Z</time>
      </trkpt>
      <trkpt lat="62.63455576516" lon="17.98815000033">
        <ele>94.4</ele>
        <time>2017-10-16T18:19:34Z</time>
      </trkpt>
      <trkpt lat="62.634532966392" lon="17.988162321723">
        <ele>94.4</ele>
        <time>2017-10-16T18:19:35Z</time>
      </trkpt>
      <trkpt lat="62.63450547376" lon="17.98817095508">
        <ele>94.6</ele>
        <time>2017-10-16T18:19:36Z</time>
      </trkpt>
      <trkpt lat="62.63447865168" lon="17.988183695568">
        <ele>94.6</ele>
        <time>2017-10-16T18:19:37Z</time>
      </trkpt>
      <trkpt lat="62.634453003066" lon="17.988191155459">
        <ele>94.8</ele>
        <time>2017-10-16T18:19:38Z</time>
      </trkpt>
      <trkpt lat="62.634431964497" lon="17.988194759676">
        <ele>94.8</ele>
        <time>2017-10-16T18:19:39Z</time>
      </trkpt>
      <trkpt lat="62.634401957295" lon="17.988202554843">
        <ele>94.8</ele>
        <time>2017-10-16T18:19:40Z</time>
      </trkpt>
      <trkpt lat="62.634368178238" lon="17.988215546788">
        <ele>95</ele>
        <time>2017-10-16T18:19:41Z</time>
      </trkpt>
      <trkpt lat="62.634338338674" lon="17.98823130476">
        <ele>95.2</ele>
        <time>2017-10-16T18:19:42Z</time>
      </trkpt>
      <trkpt lat="62.634313360612" lon="17.988229879837">
        <ele>95.2</ele>
        <time>2017-10-16T18:19:43Z</time>
      </trkpt>
      <trkpt lat="62.634280587383" lon="17.9882447158">
        <ele>95.4</ele>
        <time>2017-10-16T18:19:44Z</time>
      </trkpt>
      <trkpt lat="62.634255274045" lon="17.988241865954">
        <ele>95.2</ele>
        <time>2017-10-16T18:19:45Z</time>
      </trkpt>
      <trkpt lat="62.63422887106" lon="17.988240105755">
        <ele>95.4</ele>
        <time>2017-10-16T18:19:46Z</time>
      </trkpt>
      <trkpt lat="62.634203138627" lon="17.988249158207">
        <ele>95.4</ele>
        <time>2017-10-16T18:19:47Z</time>
      </trkpt>
      <trkpt lat="62.634180675135" lon="17.988248320017">
        <ele>95.4</ele>
        <time>2017-10-16T18:19:48Z</time>
      </trkpt>
      <trkpt lat="62.634157205815" lon="17.988246643637">
        <ele>95.4</ele>
        <time>2017-10-16T18:19:49Z</time>
      </trkpt>
      <trkpt lat="62.634131892477" lon="17.988238177918">
        <ele>95.4</ele>
        <time>2017-10-16T18:19:50Z</time>
      </trkpt>
      <trkpt lat="62.634105070397" lon="17.988227784362">
        <ele>95.4</ele>
        <time>2017-10-16T18:19:51Z</time>
      </trkpt>
      <trkpt lat="62.634077577765" lon="17.988223677231">
        <ele>95.6</ele>
        <time>2017-10-16T18:19:52Z</time>
      </trkpt>
      <trkpt lat="62.634048492572" lon="17.988216133521">
        <ele>95.6</ele>
        <time>2017-10-16T18:19:53Z</time>
      </trkpt>
      <trkpt lat="62.634022508682" lon="17.988214121865">
        <ele>95.6</ele>
        <time>2017-10-16T18:19:54Z</time>
      </trkpt>
      <trkpt lat="62.633997279163" lon="17.988207248707">
        <ele>95.8</ele>
        <time>2017-10-16T18:19:55Z</time>
      </trkpt>
      <trkpt lat="62.633966266133" lon="17.988203812128">
        <ele>95.8</ele>
        <time>2017-10-16T18:19:56Z</time>
      </trkpt>
      <trkpt lat="62.633942880632" lon="17.988199704997">
        <ele>95.8</ele>
        <time>2017-10-16T18:19:57Z</time>
      </trkpt>
      <trkpt lat="62.633921422968" lon="17.988184701396">
        <ele>95.8</ele>
        <time>2017-10-16T18:19:58Z</time>
      </trkpt>
      <trkpt lat="62.633896696363" lon="17.988168943424">
        <ele>95.8</ele>
        <time>2017-10-16T18:19:59Z</time>
      </trkpt>
      <trkpt lat="62.633870293378" lon="17.988146899027">
        <ele>95.8</ele>
        <time>2017-10-16T18:20:00Z</time>
      </trkpt>
      <trkpt lat="62.6338399509" lon="17.988128542666">
        <ele>95.8</ele>
        <time>2017-10-16T18:20:01Z</time>
      </trkpt>
      <trkpt lat="62.63381396701" lon="17.988108761382">
        <ele>95.8</ele>
        <time>2017-10-16T18:20:02Z</time>
      </trkpt>
      <trkpt lat="62.633786139102" lon="17.988085040605">
        <ele>96</ele>
        <time>2017-10-16T18:20:03Z</time>
      </trkpt>
      <trkpt lat="62.633762166868" lon="17.988053776118">
        <ele>96</ele>
        <time>2017-10-16T18:20:04Z</time>
      </trkpt>
      <trkpt lat="62.633738110815" lon="17.988032569911">
        <ele>96</ele>
        <time>2017-10-16T18:20:05Z</time>
      </trkpt>
      <trkpt lat="62.633711456373" lon="17.988003484718">
        <ele>96.2</ele>
        <time>2017-10-16T18:20:06Z</time>
      </trkpt>
      <trkpt lat="62.633690501623" lon="17.987976578819">
        <ele>96.2</ele>
        <time>2017-10-16T18:20:07Z</time>
      </trkpt>
      <trkpt lat="62.633671809986" lon="17.987948247997">
        <ele>96.4</ele>
        <time>2017-10-16T18:20:08Z</time>
      </trkpt>
      <trkpt lat="62.633653453625" lon="17.987914385121">
        <ele>96.4</ele>
        <time>2017-10-16T18:20:09Z</time>
      </trkpt>
      <trkpt lat="62.633637528015" lon="17.987880606064">
        <ele>96.4</ele>
        <time>2017-10-16T18:20:10Z</time>
      </trkpt>
      <trkpt lat="62.633619087835" lon="17.987852861975">
        <ele>96.4</ele>
        <time>2017-10-16T18:20:11Z</time>
      </trkpt>
      <trkpt lat="62.633594528868" lon="17.987830147026">
        <ele>96.6</ele>
        <time>2017-10-16T18:20:12Z</time>
      </trkpt>
      <trkpt lat="62.633568628797" lon="17.987807934991">
        <ele>96.8</ele>
        <time>2017-10-16T18:20:13Z</time>
      </trkpt>
      <trkpt lat="62.633541639079" lon="17.987784214214">
        <ele>97.2</ele>
        <time>2017-10-16T18:20:14Z</time>
      </trkpt>
      <trkpt lat="62.633517499207" lon="17.987753033546">
        <ele>97.4</ele>
        <time>2017-10-16T18:20:15Z</time>
      </trkpt>
      <trkpt lat="62.633491599136" lon="17.987720092679">
        <ele>97.6</ele>
        <time>2017-10-16T18:20:16Z</time>
      </trkpt>
      <trkpt lat="62.633467207807" lon="17.987690588391">
        <ele>97.8</ele>
        <time>2017-10-16T18:20:17Z</time>
      </trkpt>
      <trkpt lat="62.633445498686" lon="17.987664604501">
        <ele>97.8</ele>
        <time>2017-10-16T18:20:18Z</time>
      </trkpt>
      <trkpt lat="62.633426555592" lon="17.987637111869">
        <ele>98</ele>
        <time>2017-10-16T18:20:19Z</time>
      </trkpt>
      <trkpt lat="62.633406187575" lon="17.987612133807">
        <ele>98</ele>
        <time>2017-10-16T18:20:20Z</time>
      </trkpt>
      <trkpt lat="62.63338397554" lon="17.987576091637">
        <ele>98</ele>
        <time>2017-10-16T18:20:21Z</time>
      </trkpt>
      <trkpt lat="62.633363775161" lon="17.987537953992">
        <ele>98.4</ele>
        <time>2017-10-16T18:20:22Z</time>
      </trkpt>
      <trkpt lat="62.63334625699" lon="17.987507360057">
        <ele>98.6</ele>
        <time>2017-10-16T18:20:23Z</time>
      </trkpt>
      <trkpt lat="62.633324212593" lon="17.987457403933">
        <ele>98.8</ele>
        <time>2017-10-16T18:20:24Z</time>
      </trkpt>
      <trkpt lat="62.633309795725" lon="17.98741574589">
        <ele>98.8</ele>
        <time>2017-10-16T18:20:25Z</time>
      </trkpt>
      <trkpt lat="62.63329428921" lon="17.987369561621">
        <ele>99</ele>
        <time>2017-10-16T18:20:26Z</time>
      </trkpt>
      <trkpt lat="62.633275094659" lon="17.987326227198">
        <ele>98.8</ele>
        <time>2017-10-16T18:20:27Z</time>
      </trkpt>
      <trkpt lat="62.633256738298" lon="17.98726654807">
        <ele>98.8</ele>
        <time>2017-10-16T18:20:28Z</time>
      </trkpt>
      <trkpt lat="62.633243830172" lon="17.987208210046">
        <ele>98.4</ele>
        <time>2017-10-16T18:20:29Z</time>
      </trkpt>
      <trkpt lat="62.633234442444" lon="17.987148279461">
        <ele>98</ele>
        <time>2017-10-16T18:20:30Z</time>
      </trkpt>
      <trkpt lat="62.633227485467" lon="17.987076362759">
        <ele>97.8</ele>
        <time>2017-10-16T18:20:31Z</time>
      </trkpt>
      <trkpt lat="62.633221618137" lon="17.987021461314">
        <ele>97.6</ele>
        <time>2017-10-16T18:20:32Z</time>
      </trkpt>
      <trkpt lat="62.633212900961" lon="17.986966643688">
        <ele>97.2</ele>
        <time>2017-10-16T18:20:33Z</time>
      </trkpt>
      <trkpt lat="62.633199406102" lon="17.986910233501">
        <ele>97.2</ele>
        <time>2017-10-16T18:20:34Z</time>
      </trkpt>
      <trkpt lat="62.633190269831" lon="17.986859020092">
        <ele>97</ele>
        <time>2017-10-16T18:20:35Z</time>
      </trkpt>
      <trkpt lat="62.63318448632" lon="17.986785510829">
        <ele>97</ele>
        <time>2017-10-16T18:20:36Z</time>
      </trkpt>
      <trkpt lat="62.63318029537" lon="17.986723903864">
        <ele>97</ele>
        <time>2017-10-16T18:20:37Z</time>
      </trkpt>
      <trkpt lat="62.633169650357" lon="17.986664392374">
        <ele>96.8</ele>
        <time>2017-10-16T18:20:38Z</time>
      </trkpt>
      <trkpt lat="62.633162525742" lon="17.986604797065">
        <ele>96.4</ele>
        <time>2017-10-16T18:20:39Z</time>
      </trkpt>
      <trkpt lat="62.633155652584" lon="17.986546626679">
        <ele>96.2</ele>
        <time>2017-10-16T18:20:40Z</time>
      </trkpt>
      <trkpt lat="62.633150455806" lon="17.986493233976">
        <ele>95.8</ele>
        <time>2017-10-16T18:20:41Z</time>
      </trkpt>
      <trkpt lat="62.633145678123" lon="17.986428777165">
        <ele>95.6</ele>
        <time>2017-10-16T18:20:42Z</time>
      </trkpt>
      <trkpt lat="62.633142828277" lon="17.986361135232">
        <ele>95.6</ele>
        <time>2017-10-16T18:20:43Z</time>
      </trkpt>
      <trkpt lat="62.633143247372" lon="17.98629257129">
        <ele>95.6</ele>
        <time>2017-10-16T18:20:44Z</time>
      </trkpt>
      <trkpt lat="62.633143666467" lon="17.9862246779">
        <ele>95.6</ele>
        <time>2017-10-16T18:20:45Z</time>
      </trkpt>
      <trkpt lat="62.633141822449" lon="17.986153934664">
        <ele>95.4</ele>
        <time>2017-10-16T18:20:46Z</time>
      </trkpt>
      <trkpt lat="62.633133859644" lon="17.986086544188">
        <ele>95.4</ele>
        <time>2017-10-16T18:20:47Z</time>
      </trkpt>
      <trkpt lat="62.63312581302" lon="17.986011442364">
        <ele>95.4</ele>
        <time>2017-10-16T18:20:48Z</time>
      </trkpt>
      <trkpt lat="62.633118101672" lon="17.985945392992">
        <ele>95.2</ele>
        <time>2017-10-16T18:20:49Z</time>
      </trkpt>
      <trkpt lat="62.633115503283" lon="17.985887306425">
        <ele>95</ele>
        <time>2017-10-16T18:20:50Z</time>
      </trkpt>
      <trkpt lat="62.633113994541" lon="17.985823436347">
        <ele>94.8</ele>
        <time>2017-10-16T18:20:51Z</time>
      </trkpt>
      <trkpt lat="62.633116173835" lon="17.985757051699">
        <ele>94.6</ele>
        <time>2017-10-16T18:20:52Z</time>
      </trkpt>
      <trkpt lat="62.633118185491" lon="17.985698378399">
        <ele>94.4</ele>
        <time>2017-10-16T18:20:53Z</time>
      </trkpt>
      <trkpt lat="62.633120280966" lon="17.985638447814">
        <ele>94.2</ele>
        <time>2017-10-16T18:20:54Z</time>
      </trkpt>
      <trkpt lat="62.633121789708" lon="17.985578517229">
        <ele>94.2</ele>
        <time>2017-10-16T18:20:55Z</time>
      </trkpt>
      <trkpt lat="62.633124052821" lon="17.985516072074">
        <ele>94.2</ele>
        <time>2017-10-16T18:20:56Z</time>
      </trkpt>
      <trkpt lat="62.633125729201" lon="17.985451615263">
        <ele>94.2</ele>
        <time>2017-10-16T18:20:57Z</time>
      </trkpt>
      <trkpt lat="62.633127992314" lon="17.985385314434">
        <ele>94</ele>
        <time>2017-10-16T18:20:58Z</time>
      </trkpt>
      <trkpt lat="62.633132267083" lon="17.985313816827">
        <ele>93.8</ele>
        <time>2017-10-16T18:20:59Z</time>
      </trkpt>
      <trkpt lat="62.633139391698" lon="17.985244498514">
        <ele>93.6</ele>
        <time>2017-10-16T18:21:00Z</time>
      </trkpt>
      <trkpt lat="62.633147438322" lon="17.98516604393">
        <ele>93.2</ele>
        <time>2017-10-16T18:21:01Z</time>
      </trkpt>
      <trkpt lat="62.633156490774" lon="17.985094965418">
        <ele>92.8</ele>
        <time>2017-10-16T18:21:02Z</time>
      </trkpt>
      <trkpt lat="62.633162106647" lon="17.985020953241">
        <ele>92.4</ele>
        <time>2017-10-16T18:21:03Z</time>
      </trkpt>
      <trkpt lat="62.633169482719" lon="17.984950461462">
        <ele>91.8</ele>
        <time>2017-10-16T18:21:04Z</time>
      </trkpt>
      <trkpt lat="62.633177026429" lon="17.984899918605">
        <ele>91.6</ele>
        <time>2017-10-16T18:21:05Z</time>
      </trkpt>
      <trkpt lat="62.633187671442" lon="17.984830935568">
        <ele>91.4</ele>
        <time>2017-10-16T18:21:06Z</time>
      </trkpt>
      <trkpt lat="62.633199825197" lon="17.984768658051">
        <ele>91.4</ele>
        <time>2017-10-16T18:21:07Z</time>
      </trkpt>
      <trkpt lat="62.633208374735" lon="17.984710739122">
        <ele>91.2</ele>
        <time>2017-10-16T18:21:08Z</time>
      </trkpt>
      <trkpt lat="62.633219103567" lon="17.984658268428">
        <ele>91.2</ele>
        <time>2017-10-16T18:21:09Z</time>
      </trkpt>
      <trkpt lat="62.633229580942" lon="17.984601858241">
        <ele>91.4</ele>
        <time>2017-10-16T18:21:10Z</time>
      </trkpt>
      <trkpt lat="62.63324315962" lon="17.984547040615">
        <ele>91.4</ele>
        <time>2017-10-16T18:21:11Z</time>
      </trkpt>
      <trkpt lat="62.633256486841" lon="17.984489708419">
        <ele>91.6</ele>
        <time>2017-10-16T18:21:12Z</time>
      </trkpt>
      <trkpt lat="62.633268472958" lon="17.984435309888">
        <ele>91.4</ele>
        <time>2017-10-16T18:21:13Z</time>
      </trkpt>
      <trkpt lat="62.633281129627" lon="17.984378564425">
        <ele>91.4</ele>
        <time>2017-10-16T18:21:14Z</time>
      </trkpt>
      <trkpt lat="62.633290182079" lon="17.984321651324">
        <ele>91.4</ele>
        <time>2017-10-16T18:21:15Z</time>
      </trkpt>
      <trkpt lat="62.633300072721" lon="17.98425744597">
        <ele>91.4</ele>
        <time>2017-10-16T18:21:16Z</time>
      </trkpt>
      <trkpt lat="62.633308873716" lon="17.984201371059">
        <ele>91.4</ele>
        <time>2017-10-16T18:21:17Z</time>
      </trkpt>
      <trkpt lat="62.633315830693" lon="17.98414093756">
        <ele>91.6</ele>
        <time>2017-10-16T18:21:18Z</time>
      </trkpt>
      <trkpt lat="62.6333202731" lon="17.984072792713">
        <ele>91.6</ele>
        <time>2017-10-16T18:21:19Z</time>
      </trkpt>
      <trkpt lat="62.633327062439" lon="17.984021746942">
        <ele>91.6</ele>
        <time>2017-10-16T18:21:20Z</time>
      </trkpt>
      <trkpt lat="62.633332762131" lon="17.983957457769">
        <ele>91.6</ele>
        <time>2017-10-16T18:21:21Z</time>
      </trkpt>
      <trkpt lat="62.633338294185" lon="17.983895264071">
        <ele>91.6</ele>
        <time>2017-10-16T18:21:22Z</time>
      </trkpt>
      <trkpt lat="62.633342988049" lon="17.983840446445">
        <ele>91.6</ele>
        <time>2017-10-16T18:21:23Z</time>
      </trkpt>
      <trkpt lat="62.633348017189" lon="17.983780851136">
        <ele>91.6</ele>
        <time>2017-10-16T18:21:24Z</time>
      </trkpt>
      <trkpt lat="62.633355309442" lon="17.983724189492">
        <ele>91.6</ele>
        <time>2017-10-16T18:21:25Z</time>
      </trkpt>
      <trkpt lat="62.633367379378" lon="17.983661911975">
        <ele>91.6</ele>
        <time>2017-10-16T18:21:26Z</time>
      </trkpt>
      <trkpt lat="62.633380538961" lon="17.983606423797">
        <ele>91.6</ele>
        <time>2017-10-16T18:21:27Z</time>
      </trkpt>
      <trkpt lat="62.633390848698" lon="17.983548001954">
        <ele>91.6</ele>
        <time>2017-10-16T18:21:28Z</time>
      </trkpt>
      <trkpt lat="62.633402583358" lon="17.983492849052">
        <ele>91.6</ele>
        <time>2017-10-16T18:21:29Z</time>
      </trkpt>
      <trkpt lat="62.633413731285" lon="17.983439037254">
        <ele>91.6</ele>
        <time>2017-10-16T18:21:30Z</time>
      </trkpt>
      <trkpt lat="62.633422951375" lon="17.983374999538">
        <ele>91.6</ele>
        <time>2017-10-16T18:21:31Z</time>
      </trkpt>
      <trkpt lat="62.633431668551" lon="17.983315990962">
        <ele>91.6</ele>
        <time>2017-10-16T18:21:32Z</time>
      </trkpt>
      <trkpt lat="62.633438206433" lon="17.983261005698">
        <ele>91.4</ele>
        <time>2017-10-16T18:21:33Z</time>
      </trkpt>
      <trkpt lat="62.633451952749" lon="17.983212390678">
        <ele>91.6</ele>
        <time>2017-10-16T18:21:34Z</time>
      </trkpt>
      <trkpt lat="62.633465112332" lon="17.983171235549">
        <ele>91.6</ele>
        <time>2017-10-16T18:21:35Z</time>
      </trkpt>
      <trkpt lat="62.633479696838" lon="17.983109628584">
        <ele>91.8</ele>
        <time>2017-10-16T18:21:36Z</time>
      </trkpt>
      <trkpt lat="62.633494029887" lon="17.983052631664">
        <ele>91.8</ele>
        <time>2017-10-16T18:21:37Z</time>
      </trkpt>
      <trkpt lat="62.633508195298" lon="17.983000412427">
        <ele>91.8</ele>
        <time>2017-10-16T18:21:38Z</time>
      </trkpt>
      <trkpt lat="62.633522779804" lon="17.982947355">
        <ele>92</ele>
        <time>2017-10-16T18:21:39Z</time>
      </trkpt>
      <trkpt lat="62.633540549432" lon="17.982899242894">
        <ele>92</ele>
        <time>2017-10-16T18:21:40Z</time>
      </trkpt>
      <trkpt lat="62.633555469214" lon="17.982846856019">
        <ele>91.8</ele>
        <time>2017-10-16T18:21:41Z</time>
      </trkpt>
      <trkpt lat="62.6335633482" lon="17.982782734484">
        <ele>91.8</ele>
        <time>2017-10-16T18:21:42Z</time>
      </trkpt>
      <trkpt lat="62.633573071204" lon="17.982724899374">
        <ele>91.8</ele>
        <time>2017-10-16T18:21:43Z</time>
      </trkpt>
      <trkpt lat="62.633580866371" lon="17.98266823773">
        <ele>91.6</ele>
        <time>2017-10-16T18:21:44Z</time>
      </trkpt>
      <trkpt lat="62.633591176108" lon="17.982615934674">
        <ele>91.8</ele>
        <time>2017-10-16T18:21:45Z</time>
      </trkpt>
      <trkpt lat="62.633603078406" lon="17.982558602478">
        <ele>91.8</ele>
        <time>2017-10-16T18:21:46Z</time>
      </trkpt>
      <trkpt lat="62.633610957392" lon="17.982505461232">
        <ele>91.8</ele>
        <time>2017-10-16T18:21:47Z</time>
      </trkpt>
      <trkpt lat="62.633624955165" lon="17.982441339697">
        <ele>91.8</ele>
        <time>2017-10-16T18:21:48Z</time>
      </trkpt>
      <trkpt lat="62.63363459435" lon="17.982379816551">
        <ele>92</ele>
        <time>2017-10-16T18:21:49Z</time>
      </trkpt>
      <trkpt lat="62.633639036757" lon="17.982326507667">
        <ele>91.8</ele>
        <time>2017-10-16T18:21:50Z</time>
      </trkpt>
      <trkpt lat="62.633650017046" lon="17.982259536286">
        <ele>91.8</ele>
        <time>2017-10-16T18:21:51Z</time>
      </trkpt>
      <trkpt lat="62.633658734222" lon="17.982203964289">
        <ele>91.8</ele>
        <time>2017-10-16T18:21:52Z</time>
      </trkpt>
      <trkpt lat="62.633665523561" lon="17.982144871894">
        <ele>91.8</ele>
        <time>2017-10-16T18:21:53Z</time>
      </trkpt>
      <trkpt lat="62.63367315109" lon="17.982080415083">
        <ele>92</ele>
        <time>2017-10-16T18:21:54Z</time>
      </trkpt>
      <trkpt lat="62.633676084755" lon="17.982037164479">
        <ele>92</ele>
        <time>2017-10-16T18:21:55Z</time>
      </trkpt>
      <trkpt lat="62.633679688972" lon="17.981969522546">
        <ele>92</ele>
        <time>2017-10-16T18:21:56Z</time>
      </trkpt>
      <trkpt lat="62.633685137207" lon="17.981908921409">
        <ele>92</ele>
        <time>2017-10-16T18:21:57Z</time>
      </trkpt>
      <trkpt lat="62.633687651777" lon="17.981849912833">
        <ele>92.2</ele>
        <time>2017-10-16T18:21:58Z</time>
      </trkpt>
      <trkpt lat="62.633692513279" lon="17.981797609777">
        <ele>92.2</ele>
        <time>2017-10-16T18:21:59Z</time>
      </trkpt>
      <trkpt lat="62.633698380609" lon="17.981737092459">
        <ele>92.2</ele>
        <time>2017-10-16T18:22:00Z</time>
      </trkpt>
      <trkpt lat="62.633699889351" lon="17.981678083883">
        <ele>92.2</ele>
        <time>2017-10-16T18:22:01Z</time>
      </trkpt>
      <trkpt lat="62.633705337586" lon="17.981616560737">
        <ele>92.2</ele>
        <time>2017-10-16T18:22:02Z</time>
      </trkpt>
      <trkpt lat="62.633714473857" lon="17.981553864125">
        <ele>92.4</ele>
        <time>2017-10-16T18:22:03Z</time>
      </trkpt>
      <trkpt lat="62.633723777766" lon="17.981498208309">
        <ele>92.4</ele>
        <time>2017-10-16T18:22:04Z</time>
      </trkpt>
      <trkpt lat="62.633730902381" lon="17.98144196576">
        <ele>92.2</ele>
        <time>2017-10-16T18:22:05Z</time>
      </trkpt>
      <trkpt lat="62.633741295937" lon="17.981374742922">
        <ele>92.4</ele>
        <time>2017-10-16T18:22:06Z</time>
      </trkpt>
      <trkpt lat="62.633749342561" lon="17.981326798454">
        <ele>92.2</ele>
        <time>2017-10-16T18:22:07Z</time>
      </trkpt>
      <trkpt lat="62.633757556823" lon="17.981277009968">
        <ele>92.2</ele>
        <time>2017-10-16T18:22:08Z</time>
      </trkpt>
      <trkpt lat="62.633769794397" lon="17.981224790731">
        <ele>92.4</ele>
        <time>2017-10-16T18:22:09Z</time>
      </trkpt>
      <trkpt lat="62.633782283428" lon="17.98118128867">
        <ele>92.4</ele>
        <time>2017-10-16T18:22:10Z</time>
      </trkpt>
      <trkpt lat="62.633798963409" lon="17.981126219587">
        <ele>92.4</ele>
        <time>2017-10-16T18:22:11Z</time>
      </trkpt>
      <trkpt lat="62.633815894847" lon="17.981071569599">
        <ele>92.4</ele>
        <time>2017-10-16T18:22:12Z</time>
      </trkpt>
      <trkpt lat="62.633833915932" lon="17.981023122217">
        <ele>92.4</ele>
        <time>2017-10-16T18:22:13Z</time>
      </trkpt>
      <trkpt lat="62.633853529578" lon="17.980978614328">
        <ele>92.4</ele>
        <time>2017-10-16T18:22:14Z</time>
      </trkpt>
      <trkpt lat="62.633869706645" lon="17.980942069244">
        <ele>92.4</ele>
        <time>2017-10-16T18:22:15Z</time>
      </trkpt>
      <trkpt lat="62.633888314463" lon="17.98089630407">
        <ele>92.6</ele>
        <time>2017-10-16T18:22:16Z</time>
      </trkpt>
      <trkpt lat="62.633905664996" lon="17.980852215276">
        <ele>92.8</ele>
        <time>2017-10-16T18:22:17Z</time>
      </trkpt>
      <trkpt lat="62.633921422968" lon="17.980809886681">
        <ele>93</ele>
        <time>2017-10-16T18:22:18Z</time>
      </trkpt>
      <trkpt lat="62.633938773501" lon="17.980767474267">
        <ele>93</ele>
        <time>2017-10-16T18:22:19Z</time>
      </trkpt>
      <trkpt lat="62.633954699111" lon="17.980723301654">
        <ele>93.2</ele>
        <time>2017-10-16T18:22:20Z</time>
      </trkpt>
      <trkpt lat="62.633969535074" lon="17.980663538707">
        <ele>93.2</ele>
        <time>2017-10-16T18:22:21Z</time>
      </trkpt>
      <trkpt lat="62.633989316358" lon="17.980615426601">
        <ele>93</ele>
        <time>2017-10-16T18:22:22Z</time>
      </trkpt>
      <trkpt lat="62.63401010347" lon="17.980577372775">
        <ele>93</ele>
        <time>2017-10-16T18:22:23Z</time>
      </trkpt>
      <trkpt lat="62.634026112899" lon="17.980524482986">
        <ele>93</ele>
        <time>2017-10-16T18:22:24Z</time>
      </trkpt>
      <trkpt lat="62.634042122328" lon="17.980472096111">
        <ele>93</ele>
        <time>2017-10-16T18:22:25Z</time>
      </trkpt>
      <trkpt lat="62.634058969947" lon="17.980416691752">
        <ele>93</ele>
        <time>2017-10-16T18:22:26Z</time>
      </trkpt>
      <trkpt lat="62.634073554453" lon="17.980373944062">
        <ele>93</ele>
        <time>2017-10-16T18:22:27Z</time>
      </trkpt>
      <trkpt lat="62.634090234434" lon="17.980334968227">
        <ele>93</ele>
        <time>2017-10-16T18:22:28Z</time>
      </trkpt>
      <trkpt lat="62.634110183356" lon="17.980301775903">
        <ele>93</ele>
        <time>2017-10-16T18:22:29Z</time>
      </trkpt>
      <trkpt lat="62.634124516405" lon="17.980263638258">
        <ele>93</ele>
        <time>2017-10-16T18:22:30Z</time>
      </trkpt>
      <trkpt lat="62.634144884422" lon="17.980212424849">
        <ele>93</ele>
        <time>2017-10-16T18:22:31Z</time>
      </trkpt>
      <trkpt lat="62.634160223299" lon="17.980159786517">
        <ele>93.2</ele>
        <time>2017-10-16T18:22:32Z</time>
      </trkpt>
      <trkpt lat="62.634179585488" lon="17.980116703551">
        <ele>93.4</ele>
        <time>2017-10-16T18:22:33Z</time>
      </trkpt>
      <trkpt lat="62.634198612401" lon="17.980064987228">
        <ele>93.4</ele>
        <time>2017-10-16T18:22:34Z</time>
      </trkpt>
      <trkpt lat="62.634216884943" lon="17.980021317529">
        <ele>93.4</ele>
        <time>2017-10-16T18:22:35Z</time>
      </trkpt>
      <trkpt lat="62.634239935168" lon="17.979971026129">
        <ele>93.4</ele>
        <time>2017-10-16T18:22:36Z</time>
      </trkpt>
      <trkpt lat="62.634259800271" lon="17.979916124684">
        <ele>93.2</ele>
        <time>2017-10-16T18:22:37Z</time>
      </trkpt>
      <trkpt lat="62.634275474424" lon="17.979861307058">
        <ele>93</ele>
        <time>2017-10-16T18:22:38Z</time>
      </trkpt>
      <trkpt lat="62.634289053102" lon="17.979819816653">
        <ele>93</ele>
        <time>2017-10-16T18:22:39Z</time>
      </trkpt>
      <trkpt lat="62.634303721427" lon="17.979763238828">
        <ele>93</ele>
        <time>2017-10-16T18:22:40Z</time>
      </trkpt>
      <trkpt lat="62.634316797191" lon="17.979706996279">
        <ele>93</ele>
        <time>2017-10-16T18:22:41Z</time>
      </trkpt>
      <trkpt lat="62.634329537679" lon="17.979643545296">
        <ele>93</ele>
        <time>2017-10-16T18:22:42Z</time>
      </trkpt>
      <trkpt lat="62.634341439977" lon="17.979575484268">
        <ele>93</ele>
        <time>2017-10-16T18:22:43Z</time>
      </trkpt>
      <trkpt lat="62.634349905696" lon="17.979518571167">
        <ele>93</ele>
        <time>2017-10-16T18:22:44Z</time>
      </trkpt>
      <trkpt lat="62.634358874329" lon="17.979470961975">
        <ele>93</ele>
        <time>2017-10-16T18:22:45Z</time>
      </trkpt>
      <trkpt lat="62.63437220155" lon="17.979410444657">
        <ele>92.8</ele>
        <time>2017-10-16T18:22:46Z</time>
      </trkpt>
      <trkpt lat="62.634380834907" lon="17.979357303411">
        <ele>92.8</ele>
        <time>2017-10-16T18:22:47Z</time>
      </trkpt>
      <trkpt lat="62.634392066653" lon="17.979304413622">
        <ele>92.8</ele>
        <time>2017-10-16T18:22:48Z</time>
      </trkpt>
      <trkpt lat="62.634402460209" lon="17.979244315399">
        <ele>92.8</ele>
        <time>2017-10-16T18:22:49Z</time>
      </trkpt>
      <trkpt lat="62.634406986435" lon="17.979184887728">
        <ele>92.8</ele>
        <time>2017-10-16T18:22:50Z</time>
      </trkpt>
      <trkpt lat="62.634417799086" lon="17.979126130609">
        <ele>92.8</ele>
        <time>2017-10-16T18:22:51Z</time>
      </trkpt>
      <trkpt lat="62.634429952841" lon="17.979067205852">
        <ele>92.8</ele>
        <time>2017-10-16T18:22:52Z</time>
      </trkpt>
      <trkpt lat="62.634436909818" lon="17.979016914452">
        <ele>93</ele>
        <time>2017-10-16T18:22:53Z</time>
      </trkpt>
      <trkpt lat="62.634444956442" lon="17.978964108482">
        <ele>93</ele>
        <time>2017-10-16T18:22:54Z</time>
      </trkpt>
      <trkpt lat="62.634452248695" lon="17.978928653045">
        <ele>93</ele>
        <time>2017-10-16T18:22:55Z</time>
      </trkpt>
      <trkpt lat="62.634461384966" lon="17.978896885644">
        <ele>93</ele>
        <time>2017-10-16T18:22:56Z</time>
      </trkpt>
      <trkpt lat="62.634480076603" lon="17.978855059963">
        <ele>93</ele>
        <time>2017-10-16T18:22:58Z</time>
      </trkpt>
      <trkpt lat="62.634488123227" lon="17.978840726914">
        <ele>93</ele>
        <time>2017-10-16T18:22:59Z</time>
      </trkpt>
      <trkpt lat="62.634493320005" lon="17.97882429839">
        <ele>93</ele>
        <time>2017-10-16T18:23:00Z</time>
      </trkpt>
      <trkpt lat="62.634503294466" lon="17.978810216798">
        <ele>93</ele>
        <time>2017-10-16T18:23:01Z</time>
      </trkpt>
      <trkpt lat="62.634513604203" lon="17.978812815187">
        <ele>93</ele>
        <time>2017-10-16T18:23:02Z</time>
      </trkpt>
      <trkpt lat="62.63452223756" lon="17.978825471856">
        <ele>93</ele>
        <time>2017-10-16T18:23:03Z</time>
      </trkpt>
      <trkpt lat="62.634524835949" lon="17.978825052761">
        <ele>93</ele>
        <time>2017-10-16T18:23:04Z</time>
      </trkpt>
      <trkpt lat="62.634522740474" lon="17.978826393865">
        <ele>93</ele>
        <time>2017-10-16T18:23:05Z</time>
      </trkpt>
      <trkpt lat="62.634519806809" lon="17.978813904834">
        <ele>93</ele>
        <time>2017-10-16T18:23:06Z</time>
      </trkpt>
      <trkpt lat="62.634523327207" lon="17.978850617556">
        <ele>93</ele>
        <time>2017-10-16T18:23:07Z</time>
      </trkpt>
      <trkpt lat="62.634772353456" lon="17.978816419404">
        <ele>92</ele>
        <time>2017-10-16T18:24:10Z</time>
      </trkpt>
      <trkpt lat="62.634787859971" lon="17.978828656978">
        <ele>91.8</ele>
        <time>2017-10-16T18:24:11Z</time>
      </trkpt>
      <trkpt lat="62.634800265183" lon="17.978842403294">
        <ele>91.8</ele>
        <time>2017-10-16T18:24:12Z</time>
      </trkpt>
      <trkpt lat="62.634796828604" lon="17.978843744398">
        <ele>91.6</ele>
        <time>2017-10-16T18:24:13Z</time>
      </trkpt>
      <trkpt lat="62.63480973673" lon="17.978860843474">
        <ele>91.4</ele>
        <time>2017-10-16T18:24:14Z</time>
      </trkpt>
      <trkpt lat="62.634820465562" lon="17.978869225374">
        <ele>91.4</ele>
        <time>2017-10-16T18:24:15Z</time>
      </trkpt>
      <trkpt lat="62.634831864946" lon="17.978878361645">
        <ele>91.2</ele>
        <time>2017-10-16T18:24:16Z</time>
      </trkpt>
      <trkpt lat="62.634840582122" lon="17.978884899527">
        <ele>91.2</ele>
        <time>2017-10-16T18:24:17Z</time>
      </trkpt>
      <trkpt lat="62.634848964022" lon="17.978891437409">
        <ele>91.4</ele>
        <time>2017-10-16T18:24:18Z</time>
      </trkpt>
      <trkpt lat="62.634854579895" lon="17.978896131273">
        <ele>91.4</ele>
        <time>2017-10-16T18:24:19Z</time>
      </trkpt>
      <trkpt lat="62.634860363406" lon="17.978900825137">
        <ele>91.6</ele>
        <time>2017-10-16T18:24:20Z</time>
      </trkpt>
      <trkpt lat="62.634867320383" lon="17.978908033571">
        <ele>91.6</ele>
        <time>2017-10-16T18:24:21Z</time>
      </trkpt>
      <trkpt lat="62.634874193541" lon="17.978912559797">
        <ele>91.6</ele>
        <time>2017-10-16T18:24:22Z</time>
      </trkpt>
      <trkpt lat="62.634882407803" lon="17.978917421299">
        <ele>91.6</ele>
        <time>2017-10-16T18:24:23Z</time>
      </trkpt>
      <trkpt lat="62.634889029504" lon="17.978922618077">
        <ele>91.6</ele>
        <time>2017-10-16T18:24:24Z</time>
      </trkpt>
      <trkpt lat="62.634894561558" lon="17.978930077968">
        <ele>91.4</ele>
        <time>2017-10-16T18:24:25Z</time>
      </trkpt>
      <trkpt lat="62.634900680345" lon="17.978933514547">
        <ele>91.4</ele>
        <time>2017-10-16T18:24:26Z</time>
      </trkpt>
      <trkpt lat="62.634901183259" lon="17.978929658873">
        <ele>91.2</ele>
        <time>2017-10-16T18:24:27Z</time>
      </trkpt>
      <trkpt lat="62.634901853811" lon="17.978928988321">
        <ele>91.2</ele>
        <time>2017-10-16T18:24:28Z</time>
      </trkpt>
      <trkpt lat="62.634750057602" lon="17.978860424379">
        <ele>91</ele>
        <time>2017-10-16T18:24:37Z</time>
      </trkpt>
      <trkpt lat="62.634728599938" lon="17.978853467402">
        <ele>91</ele>
        <time>2017-10-16T18:24:38Z</time>
      </trkpt>
      <trkpt lat="62.634705214437" lon="17.97883770943">
        <ele>91.2</ele>
        <time>2017-10-16T18:24:39Z</time>
      </trkpt>
      <trkpt lat="62.634685936067" lon="17.978832596471">
        <ele>91.6</ele>
        <time>2017-10-16T18:24:40Z</time>
      </trkpt>
      <trkpt lat="62.634662382928" lon="17.97882681296">
        <ele>91.6</ele>
        <time>2017-10-16T18:24:41Z</time>
      </trkpt>
      <trkpt lat="62.634639500341" lon="17.978815413576">
        <ele>91.6</ele>
        <time>2017-10-16T18:24:42Z</time>
      </trkpt>
      <trkpt lat="62.634624832016" lon="17.978804936201">
        <ele>91.8</ele>
        <time>2017-10-16T18:24:43Z</time>
      </trkpt>
      <trkpt lat="62.634611001881" lon="17.978797811586">
        <ele>92</ele>
        <time>2017-10-16T18:24:44Z</time>
      </trkpt>
      <trkpt lat="62.63460354199" lon="17.978791357523">
        <ele>92.2</ele>
        <time>2017-10-16T18:24:45Z</time>
      </trkpt>
      <trkpt lat="62.634601111239" lon="17.978776102465">
        <ele>92.2</ele>
        <time>2017-10-16T18:24:46Z</time>
      </trkpt>
      <trkpt lat="62.634609325501" lon="17.978775851008">
        <ele>92.2</ele>
        <time>2017-10-16T18:24:47Z</time>
      </trkpt>
      <trkpt lat="62.634619970514" lon="17.978786328383">
        <ele>92.4</ele>
        <time>2017-10-16T18:24:48Z</time>
      </trkpt>
      <trkpt lat="62.634631956631" lon="17.978811390264">
        <ele>92.4</ele>
        <time>2017-10-16T18:24:49Z</time>
      </trkpt>
      <trkpt lat="62.634642685463" lon="17.978817006137">
        <ele>92.4</ele>
        <time>2017-10-16T18:24:50Z</time>
      </trkpt>
      <trkpt lat="62.634656599417" lon="17.978822454372">
        <ele>92.4</ele>
        <time>2017-10-16T18:24:51Z</time>
      </trkpt>
      <trkpt lat="62.634670848647" lon="17.978832177376">
        <ele>92.4</ele>
        <time>2017-10-16T18:24:52Z</time>
      </trkpt>
      <trkpt lat="62.634686355162" lon="17.978839134353">
        <ele>92.4</ele>
        <time>2017-10-16T18:24:53Z</time>
      </trkpt>
      <trkpt lat="62.634704040971" lon="17.978842906208">
        <ele>92.2</ele>
        <time>2017-10-16T18:24:54Z</time>
      </trkpt>
      <trkpt lat="62.634721475323" lon="17.978847935348">
        <ele>92</ele>
        <time>2017-10-16T18:24:55Z</time>
      </trkpt>
      <trkpt lat="62.63474351972" lon="17.978858328904">
        <ele>92</ele>
        <time>2017-10-16T18:24:56Z</time>
      </trkpt>
      <trkpt lat="62.634761624624" lon="17.978866459347">
        <ele>91.6</ele>
        <time>2017-10-16T18:24:57Z</time>
      </trkpt>
      <trkpt lat="62.634783669021" lon="17.978880960034">
        <ele>91.6</ele>
        <time>2017-10-16T18:24:58Z</time>
      </trkpt>
      <trkpt lat="62.634806048694" lon="17.978895460721">
        <ele>91.6</ele>
        <time>2017-10-16T18:24:59Z</time>
      </trkpt>
      <trkpt lat="62.634828931281" lon="17.978907530657">
        <ele>91.6</ele>
        <time>2017-10-16T18:25:00Z</time>
      </trkpt>
      <trkpt lat="62.634851813868" lon="17.978922031344">
        <ele>91.4</ele>
        <time>2017-10-16T18:25:01Z</time>
      </trkpt>
      <trkpt lat="62.634870589324" lon="17.978935526203">
        <ele>91.4</ele>
        <time>2017-10-16T18:25:02Z</time>
      </trkpt>
      <trkpt lat="62.634888023676" lon="17.978948266691">
        <ele>91.4</ele>
        <time>2017-10-16T18:25:03Z</time>
      </trkpt>
      <trkpt lat="62.634904955114" lon="17.97896176155">
        <ele>91.2</ele>
        <time>2017-10-16T18:25:04Z</time>
      </trkpt>
      <trkpt lat="62.634921048362" lon="17.978975675504">
        <ele>90.8</ele>
        <time>2017-10-16T18:25:05Z</time>
      </trkpt>
      <trkpt lat="62.634938231257" lon="17.978988080716">
        <ele>90.8</ele>
        <time>2017-10-16T18:25:06Z</time>
      </trkpt>
      <trkpt lat="62.634951474659" lon="17.978996797892">
        <ele>90.6</ele>
        <time>2017-10-16T18:25:07Z</time>
      </trkpt>
      <trkpt lat="62.6349631255" lon="17.978999815376">
        <ele>90.8</ele>
        <time>2017-10-16T18:25:08Z</time>
      </trkpt>
      <trkpt lat="62.634968573735" lon="17.978989254182">
        <ele>90.8</ele>
        <time>2017-10-16T18:25:09Z</time>
      </trkpt>
      <trkpt lat="62.634967484088" lon="17.978978441531">
        <ele>91</ele>
        <time>2017-10-16T18:25:10Z</time>
      </trkpt>
      <trkpt lat="62.634961784396" lon="17.978966958328">
        <ele>91</ele>
        <time>2017-10-16T18:25:11Z</time>
      </trkpt>
      <trkpt lat="62.634948457175" lon="17.978952876736">
        <ele>91.2</ele>
        <time>2017-10-16T18:25:12Z</time>
      </trkpt>
      <trkpt lat="62.634924904036" lon="17.978937956954">
        <ele>91.4</ele>
        <time>2017-10-16T18:25:13Z</time>
      </trkpt>
      <trkpt lat="62.634897579042" lon="17.97891985205">
        <ele>91.6</ele>
        <time>2017-10-16T18:25:14Z</time>
      </trkpt>
      <trkpt lat="62.634869667315" lon="17.978905099906">
        <ele>92</ele>
        <time>2017-10-16T18:25:15Z</time>
      </trkpt>
      <trkpt lat="62.634840079208" lon="17.978894957807">
        <ele>92.4</ele>
        <time>2017-10-16T18:25:16Z</time>
      </trkpt>
      <trkpt lat="62.634814346775" lon="17.978886827364">
        <ele>92.2</ele>
        <time>2017-10-16T18:25:17Z</time>
      </trkpt>
      <trkpt lat="62.634785345401" lon="17.978879367473">
        <ele>92</ele>
        <time>2017-10-16T18:25:18Z</time>
      </trkpt>
      <trkpt lat="62.634760367339" lon="17.978872997229">
        <ele>91.8</ele>
        <time>2017-10-16T18:25:19Z</time>
      </trkpt>
      <trkpt lat="62.634735054001" lon="17.978868219546">
        <ele>91.8</ele>
        <time>2017-10-16T18:25:20Z</time>
      </trkpt>
      <trkpt lat="62.634710746491" lon="17.978866962261">
        <ele>91.4</ele>
        <time>2017-10-16T18:25:21Z</time>
      </trkpt>
      <trkpt lat="62.634689205008" lon="17.978865202062">
        <ele>91.4</ele>
        <time>2017-10-16T18:25:22Z</time>
      </trkpt>
      <trkpt lat="62.63467143538" lon="17.97885950237">
        <ele>91.4</ele>
        <time>2017-10-16T18:25:23Z</time>
      </trkpt>
      <trkpt lat="62.634655342132" lon="17.978853551221">
        <ele>91.4</ele>
        <time>2017-10-16T18:25:24Z</time>
      </trkpt>
      <trkpt lat="62.634639416522" lon="17.978842570932">
        <ele>91.8</ele>
        <time>2017-10-16T18:25:25Z</time>
      </trkpt>
      <trkpt lat="62.634628352414" lon="17.978820777992">
        <ele>92</ele>
        <time>2017-10-16T18:25:26Z</time>
      </trkpt>
      <trkpt lat="62.634619635238" lon="17.97878825622">
        <ele>92.4</ele>
        <time>2017-10-16T18:25:27Z</time>
      </trkpt>
      <trkpt lat="62.634605888922" lon="17.978763529615">
        <ele>92.6</ele>
        <time>2017-10-16T18:25:28Z</time>
      </trkpt>
      <trkpt lat="62.634590801502" lon="17.978743161598">
        <ele>93</ele>
        <time>2017-10-16T18:25:29Z</time>
      </trkpt>
      <trkpt lat="62.634575378806" lon="17.978723045038">
        <ele>93.2</ele>
        <time>2017-10-16T18:25:30Z</time>
      </trkpt>
      <trkpt lat="62.634562973594" lon="17.97871114274">
        <ele>93</ele>
        <time>2017-10-16T18:25:31Z</time>
      </trkpt>
      <trkpt lat="62.634551155115" lon="17.978698150795">
        <ele>93</ele>
        <time>2017-10-16T18:25:32Z</time>
      </trkpt>
      <trkpt lat="62.634542940853" lon="17.978684823574">
        <ele>93</ele>
        <time>2017-10-16T18:25:33Z</time>
      </trkpt>
      <trkpt lat="62.634533050211" lon="17.978671328715">
        <ele>92.8</ele>
        <time>2017-10-16T18:25:34Z</time>
      </trkpt>
      <trkpt lat="62.634523411026" lon="17.978663617367">
        <ele>92.6</ele>
        <time>2017-10-16T18:25:35Z</time>
      </trkpt>
      <trkpt lat="62.634516705506" lon="17.978656241295">
        <ele>92.4</ele>
        <time>2017-10-16T18:25:36Z</time>
      </trkpt>
      <trkpt lat="62.634515615859" lon="17.978652301802">
        <ele>92</ele>
        <time>2017-10-16T18:25:37Z</time>
      </trkpt>
      <trkpt lat="62.634517459877" lon="17.978661102797">
        <ele>91.8</ele>
        <time>2017-10-16T18:25:38Z</time>
      </trkpt>
      <trkpt lat="62.634606559474" lon="17.978839804905">
        <ele>92.6</ele>
        <time>2017-10-16T18:27:05Z</time>
      </trkpt>
      <trkpt lat="62.634619802876" lon="17.978853551221">
        <ele>92.6</ele>
        <time>2017-10-16T18:27:06Z</time>
      </trkpt>
      <trkpt lat="62.634634219744" lon="17.978865453519">
        <ele>92.6</ele>
        <time>2017-10-16T18:27:07Z</time>
      </trkpt>
      <trkpt lat="62.634649810078" lon="17.978866040252">
        <ele>92.6</ele>
        <time>2017-10-16T18:27:08Z</time>
      </trkpt>
      <trkpt lat="62.63466724443" lon="17.978867800451">
        <ele>92.6</ele>
        <time>2017-10-16T18:27:09Z</time>
      </trkpt>
      <trkpt lat="62.634686858076" lon="17.978871907582">
        <ele>92.6</ele>
        <time>2017-10-16T18:27:10Z</time>
      </trkpt>
      <trkpt lat="62.634705382075" lon="17.978880876215">
        <ele>92.8</ele>
        <time>2017-10-16T18:27:11Z</time>
      </trkpt>
      <trkpt lat="62.634731114508" lon="17.978887665554">
        <ele>92.6</ele>
        <time>2017-10-16T18:27:12Z</time>
      </trkpt>
      <trkpt lat="62.634751650163" lon="17.978901663327">
        <ele>92.8</ele>
        <time>2017-10-16T18:27:13Z</time>
      </trkpt>
      <trkpt lat="62.634773526922" lon="17.978908704123">
        <ele>92.6</ele>
        <time>2017-10-16T18:27:14Z</time>
      </trkpt>
      <trkpt lat="62.634795738957" lon="17.978921947525">
        <ele>92.6</ele>
        <time>2017-10-16T18:27:15Z</time>
      </trkpt>
      <trkpt lat="62.634817867173" lon="17.978932341081">
        <ele>92.4</ele>
        <time>2017-10-16T18:27:16Z</time>
      </trkpt>
      <trkpt lat="62.634835133887" lon="17.978941561171">
        <ele>92</ele>
        <time>2017-10-16T18:27:17Z</time>
      </trkpt>
      <trkpt lat="62.634853993162" lon="17.97895254146">
        <ele>91.8</ele>
        <time>2017-10-16T18:27:18Z</time>
      </trkpt>
      <trkpt lat="62.634866314555" lon="17.978953714926">
        <ele>91.6</ele>
        <time>2017-10-16T18:27:19Z</time>
      </trkpt>
      <trkpt lat="62.634876372835" lon="17.978961510093">
        <ele>91.4</ele>
        <time>2017-10-16T18:27:20Z</time>
      </trkpt>
      <trkpt lat="62.634888442771" lon="17.978965449586">
        <ele>91.4</ele>
        <time>2017-10-16T18:27:21Z</time>
      </trkpt>
      <trkpt lat="62.634894477739" lon="17.978969556717">
        <ele>91.4</ele>
        <time>2017-10-16T18:27:22Z</time>
      </trkpt>
      <trkpt lat="62.634889700056" lon="17.978955307487">
        <ele>91.4</ele>
        <time>2017-10-16T18:27:23Z</time>
      </trkpt>
      <trkpt lat="62.634631872812" lon="17.978845169321">
        <ele>92</ele>
        <time>2017-10-16T18:28:08Z</time>
      </trkpt>
      <trkpt lat="62.634622065989" lon="17.978841732742">
        <ele>92</ele>
        <time>2017-10-16T18:28:09Z</time>
      </trkpt>
      <trkpt lat="62.634609157863" lon="17.978833686118">
        <ele>92.2</ele>
        <time>2017-10-16T18:28:10Z</time>
      </trkpt>
      <trkpt lat="62.634600775963" lon="17.978827818788">
        <ele>92.4</ele>
        <time>2017-10-16T18:28:11Z</time>
      </trkpt>
      <trkpt lat="62.63459096914" lon="17.978823376381">
        <ele>92.4</ele>
        <time>2017-10-16T18:28:12Z</time>
      </trkpt>
      <trkpt lat="62.63458342543" lon="17.978808959513">
        <ele>92.6</ele>
        <time>2017-10-16T18:28:13Z</time>
      </trkpt>
      <trkpt lat="62.634579821213" lon="17.978804600925">
        <ele>92.6</ele>
        <time>2017-10-16T18:28:14Z</time>
      </trkpt>
      <trkpt lat="62.634578144833" lon="17.97880418183">
        <ele>92.6</ele>
        <time>2017-10-16T18:28:15Z</time>
      </trkpt>
      <trkpt lat="62.634586023819" lon="17.978804517106">
        <ele>92.8</ele>
        <time>2017-10-16T18:28:16Z</time>
      </trkpt>
      <trkpt lat="62.634534642772" lon="17.979092770647">
        <ele>93.6</ele>
        <time>2017-10-16T18:28:52Z</time>
      </trkpt>
      <trkpt lat="62.634526260872" lon="17.979160328761">
        <ele>93.4</ele>
        <time>2017-10-16T18:28:53Z</time>
      </trkpt>
      <trkpt lat="62.634512095461" lon="17.979248171073">
        <ele>93.6</ele>
        <time>2017-10-16T18:28:54Z</time>
      </trkpt>
      <trkpt lat="62.634508072149" lon="17.979313717531">
        <ele>93.4</ele>
        <time>2017-10-16T18:28:55Z</time>
      </trkpt>
      <trkpt lat="62.634496756584" lon="17.979407846268">
        <ele>93.4</ele>
        <time>2017-10-16T18:28:56Z</time>
      </trkpt>
      <trkpt lat="62.634488793779" lon="17.979473476545">
        <ele>93.2</ele>
        <time>2017-10-16T18:28:57Z</time>
      </trkpt>
      <trkpt lat="62.634475801834" lon="17.979532233664">
        <ele>93.6</ele>
        <time>2017-10-16T18:28:58Z</time>
      </trkpt>
      <trkpt lat="62.634460295319" lon="17.97960130052">
        <ele>93.6</ele>
        <time>2017-10-16T18:28:59Z</time>
      </trkpt>
      <trkpt lat="62.634450237039" lon="17.979673887774">
        <ele>93.6</ele>
        <time>2017-10-16T18:29:00Z</time>
      </trkpt>
      <trkpt lat="62.634432299773" lon="17.979739685689">
        <ele>93.6</ele>
        <time>2017-10-16T18:29:01Z</time>
      </trkpt>
      <trkpt lat="62.634421570941" lon="17.979813949323">
        <ele>93.6</ele>
        <time>2017-10-16T18:29:02Z</time>
      </trkpt>
      <trkpt lat="62.634397766345" lon="17.979877400306">
        <ele>93.6</ele>
        <time>2017-10-16T18:29:03Z</time>
      </trkpt>
      <trkpt lat="62.634377649785" lon="17.979947556809">
        <ele>93.6</ele>
        <time>2017-10-16T18:29:04Z</time>
      </trkpt>
      <trkpt lat="62.634364574021" lon="17.980000865693">
        <ele>93.6</ele>
        <time>2017-10-16T18:29:05Z</time>
      </trkpt>
      <trkpt lat="62.634330711145" lon="17.980075296965">
        <ele>93.6</ele>
        <time>2017-10-16T18:29:07Z</time>
      </trkpt>
      <trkpt lat="62.634304559617" lon="17.980134808455">
        <ele>93.6</ele>
        <time>2017-10-16T18:29:08Z</time>
      </trkpt>
      <trkpt lat="62.634265080868" lon="17.980235475074">
        <ele>93.6</ele>
        <time>2017-10-16T18:29:10Z</time>
      </trkpt>
      <trkpt lat="62.63423725296" lon="17.980291382347">
        <ele>93.6</ele>
        <time>2017-10-16T18:29:11Z</time>
      </trkpt>
      <trkpt lat="62.634217890771" lon="17.980334297675">
        <ele>93.6</ele>
        <time>2017-10-16T18:29:12Z</time>
      </trkpt>
      <trkpt lat="62.634200959333" lon="17.98038668455">
        <ele>93.6</ele>
        <time>2017-10-16T18:29:13Z</time>
      </trkpt>
      <trkpt lat="62.63417690328" lon="17.980432785">
        <ele>93.6</ele>
        <time>2017-10-16T18:29:14Z</time>
      </trkpt>
      <trkpt lat="62.634162905507" lon="17.980496152164">
        <ele>93.6</ele>
        <time>2017-10-16T18:29:15Z</time>
      </trkpt>
      <trkpt lat="62.634143794775" lon="17.98055767531">
        <ele>93.6</ele>
        <time>2017-10-16T18:29:16Z</time>
      </trkpt>
      <trkpt lat="62.634130886649" lon="17.98060629033">
        <ele>93.6</ele>
        <time>2017-10-16T18:29:17Z</time>
      </trkpt>
      <trkpt lat="62.634110015718" lon="17.980679799593">
        <ele>93.6</ele>
        <time>2017-10-16T18:29:18Z</time>
      </trkpt>
      <trkpt lat="62.634093335737" lon="17.980735958323">
        <ele>93.6</ele>
        <time>2017-10-16T18:29:19Z</time>
      </trkpt>
      <trkpt lat="62.634075314652" lon="17.980805863369">
        <ele>93.6</ele>
        <time>2017-10-16T18:29:20Z</time>
      </trkpt>
      <trkpt lat="62.63405871849" lon="17.980862608832">
        <ele>93.4</ele>
        <time>2017-10-16T18:29:21Z</time>
      </trkpt>
      <trkpt lat="62.63404614564" lon="17.980930334584">
        <ele>93.4</ele>
        <time>2017-10-16T18:29:22Z</time>
      </trkpt>
      <trkpt lat="62.634026615813" lon="17.980998060336">
        <ele>93.4</ele>
        <time>2017-10-16T18:29:23Z</time>
      </trkpt>
      <trkpt lat="62.634004068502" lon="17.981052626505">
        <ele>93.4</ele>
        <time>2017-10-16T18:29:24Z</time>
      </trkpt>
      <trkpt lat="62.633983365209" lon="17.981113060004">
        <ele>93.2</ele>
        <time>2017-10-16T18:29:25Z</time>
      </trkpt>
      <trkpt lat="62.633962242821" lon="17.981180282842">
        <ele>93</ele>
        <time>2017-10-16T18:29:26Z</time>
      </trkpt>
      <trkpt lat="62.633942293899" lon="17.981237615038">
        <ele>93</ele>
        <time>2017-10-16T18:29:27Z</time>
      </trkpt>
      <trkpt lat="62.633931397429" lon="17.981292181207">
        <ele>93</ele>
        <time>2017-10-16T18:29:28Z</time>
      </trkpt>
      <trkpt lat="62.633914968905" lon="17.981354207267">
        <ele>92.6</ele>
        <time>2017-10-16T18:29:29Z</time>
      </trkpt>
      <trkpt lat="62.633907676652" lon="17.981413886395">
        <ele>92.6</ele>
        <time>2017-10-16T18:29:30Z</time>
      </trkpt>
      <trkpt lat="62.633898456562" lon="17.981501309612">
        <ele>92.6</ele>
        <time>2017-10-16T18:29:31Z</time>
      </trkpt>
      <trkpt lat="62.633892505413" lon="17.981558809446">
        <ele>92.6</ele>
        <time>2017-10-16T18:29:32Z</time>
      </trkpt>
      <trkpt lat="62.633890326119" lon="17.981622092791">
        <ele>92.4</ele>
        <time>2017-10-16T18:29:33Z</time>
      </trkpt>
      <trkpt lat="62.633884291151" lon="17.981692500751">
        <ele>92.2</ele>
        <time>2017-10-16T18:29:34Z</time>
      </trkpt>
      <trkpt lat="62.633876663622" lon="17.981755029725">
        <ele>92.4</ele>
        <time>2017-10-16T18:29:35Z</time>
      </trkpt>
      <trkpt lat="62.633861324745" lon="17.981827197884">
        <ele>92.2</ele>
        <time>2017-10-16T18:29:36Z</time>
      </trkpt>
      <trkpt lat="62.633846488782" lon="17.981891989971">
        <ele>92</ele>
        <time>2017-10-16T18:29:37Z</time>
      </trkpt>
      <trkpt lat="62.633836346683" lon="17.981960470094">
        <ele>92.2</ele>
        <time>2017-10-16T18:29:38Z</time>
      </trkpt>
      <trkpt lat="62.63382989262" lon="17.982017383195">
        <ele>92.2</ele>
        <time>2017-10-16T18:29:39Z</time>
      </trkpt>
      <trkpt lat="62.633827126593" lon="17.982060130885">
        <ele>92.2</ele>
        <time>2017-10-16T18:29:40Z</time>
      </trkpt>
      <trkpt lat="62.633817571227" lon="17.982122156945">
        <ele>92.2</ele>
        <time>2017-10-16T18:29:41Z</time>
      </trkpt>
      <trkpt lat="62.633810111336" lon="17.982205305393">
        <ele>92</ele>
        <time>2017-10-16T18:29:42Z</time>
      </trkpt>
      <trkpt lat="62.633801310341" lon="17.982283592339">
        <ele>92.2</ele>
        <time>2017-10-16T18:29:43Z</time>
      </trkpt>
      <trkpt lat="62.633800639789" lon="17.982366824606">
        <ele>92.2</ele>
        <time>2017-10-16T18:29:44Z</time>
      </trkpt>
      <trkpt lat="62.633794269545" lon="17.982434215082">
        <ele>92.2</ele>
        <time>2017-10-16T18:29:45Z</time>
      </trkpt>
      <trkpt lat="62.633779265944" lon="17.982504958318">
        <ele>92.2</ele>
        <time>2017-10-16T18:29:46Z</time>
      </trkpt>
      <trkpt lat="62.633765687266" lon="17.982562541971">
        <ele>92.2</ele>
        <time>2017-10-16T18:29:47Z</time>
      </trkpt>
      <trkpt lat="62.633747247086" lon="17.982635213044">
        <ele>92</ele>
        <time>2017-10-16T18:29:48Z</time>
      </trkpt>
      <trkpt lat="62.63372763344" lon="17.982712326524">
        <ele>92</ele>
        <time>2017-10-16T18:29:49Z</time>
      </trkpt>
      <trkpt lat="62.633715312047" lon="17.982774771679">
        <ele>92</ele>
        <time>2017-10-16T18:29:50Z</time>
      </trkpt>
      <trkpt lat="62.633704415577" lon="17.982832020056">
        <ele>92</ele>
        <time>2017-10-16T18:29:51Z</time>
      </trkpt>
      <trkpt lat="62.633689160519" lon="17.982891783003">
        <ele>92</ele>
        <time>2017-10-16T18:29:52Z</time>
      </trkpt>
      <trkpt lat="62.633675581841" lon="17.982941571489">
        <ele>92</ele>
        <time>2017-10-16T18:29:53Z</time>
      </trkpt>
      <trkpt lat="62.633661332611" lon="17.98300099916">
        <ele>92</ele>
        <time>2017-10-16T18:29:54Z</time>
      </trkpt>
      <trkpt lat="62.633648927399" lon="17.983059085727">
        <ele>91.8</ele>
        <time>2017-10-16T18:29:55Z</time>
      </trkpt>
      <trkpt lat="62.633639958766" lon="17.983123458719">
        <ele>91.8</ele>
        <time>2017-10-16T18:29:56Z</time>
      </trkpt>
      <trkpt lat="62.633624619889" lon="17.983189256634">
        <ele>92</ele>
        <time>2017-10-16T18:29:57Z</time>
      </trkpt>
      <trkpt lat="62.633610119202" lon="17.983250193047">
        <ele>92</ele>
        <time>2017-10-16T18:29:58Z</time>
      </trkpt>
      <trkpt lat="62.633593355402" lon="17.983311800012">
        <ele>91.8</ele>
        <time>2017-10-16T18:29:59Z</time>
      </trkpt>
      <trkpt lat="62.633579692905" lon="17.983375753909">
        <ele>91.8</ele>
        <time>2017-10-16T18:30:00Z</time>
      </trkpt>
      <trkpt lat="62.633566114227" lon="17.983438869616">
        <ele>91.8</ele>
        <time>2017-10-16T18:30:01Z</time>
      </trkpt>
      <trkpt lat="62.633550691531" lon="17.983497962011">
        <ele>91.8</ele>
        <time>2017-10-16T18:30:02Z</time>
      </trkpt>
      <trkpt lat="62.633539375966" lon="17.983553534008">
        <ele>91.8</ele>
        <time>2017-10-16T18:30:03Z</time>
      </trkpt>
      <trkpt lat="62.633528730953" lon="17.983623941968">
        <ele>91.8</ele>
        <time>2017-10-16T18:30:04Z</time>
      </trkpt>
      <trkpt lat="62.633524204727" lon="17.983686722399">
        <ele>91.8</ele>
        <time>2017-10-16T18:30:05Z</time>
      </trkpt>
      <trkpt lat="62.633512386248" lon="17.983762578594">
        <ele>91.8</ele>
        <time>2017-10-16T18:30:06Z</time>
      </trkpt>
      <trkpt lat="62.633505764547" lon="17.983840362626">
        <ele>91.4</ele>
        <time>2017-10-16T18:30:07Z</time>
      </trkpt>
      <trkpt lat="62.633495203353" lon="17.983918901029">
        <ele>91.6</ele>
        <time>2017-10-16T18:30:08Z</time>
      </trkpt>
      <trkpt lat="62.633483552512" lon="17.984002887667">
        <ele>91.6</ele>
        <time>2017-10-16T18:30:09Z</time>
      </trkpt>
      <trkpt lat="62.633475254431" lon="17.984070613419">
        <ele>91.6</ele>
        <time>2017-10-16T18:30:10Z</time>
      </trkpt>
      <trkpt lat="62.633464190323" lon="17.984148900365">
        <ele>91.6</ele>
        <time>2017-10-16T18:30:11Z</time>
      </trkpt>
      <trkpt lat="62.633450779283" lon="17.984217129031">
        <ele>91.6</ele>
        <time>2017-10-16T18:30:12Z</time>
      </trkpt>
      <trkpt lat="62.633438374071" lon="17.984280412376">
        <ele>91.4</ele>
        <time>2017-10-16T18:30:13Z</time>
      </trkpt>
      <trkpt lat="62.633422448461" lon="17.984342857531">
        <ele>91.4</ele>
        <time>2017-10-16T18:30:14Z</time>
      </trkpt>
      <trkpt lat="62.633410127068" lon="17.984398848623">
        <ele>91.4</ele>
        <time>2017-10-16T18:30:15Z</time>
      </trkpt>
      <trkpt lat="62.633397805675" lon="17.984460874683">
        <ele>91.4</ele>
        <time>2017-10-16T18:30:16Z</time>
      </trkpt>
      <trkpt lat="62.633379533133" lon="17.98452063763">
        <ele>91.4</ele>
        <time>2017-10-16T18:30:17Z</time>
      </trkpt>
      <trkpt lat="62.63336721174" lon="17.984577131636">
        <ele>91.2</ele>
        <time>2017-10-16T18:30:18Z</time>
      </trkpt>
      <trkpt lat="62.633351202311" lon="17.984631949262">
        <ele>91.2</ele>
        <time>2017-10-16T18:30:19Z</time>
      </trkpt>
      <trkpt lat="62.633337288357" lon="17.984687185983">
        <ele>91.2</ele>
        <time>2017-10-16T18:30:20Z</time>
      </trkpt>
      <trkpt lat="62.633325553697" lon="17.98473437608">
        <ele>91</ele>
        <time>2017-10-16T18:30:21Z</time>
      </trkpt>
      <trkpt lat="62.633316417426" lon="17.98477377101">
        <ele>91</ele>
        <time>2017-10-16T18:30:22Z</time>
      </trkpt>
      <trkpt lat="62.633304515128" lon="17.984829007731">
        <ele>91</ele>
        <time>2017-10-16T18:30:24Z</time>
      </trkpt>
      <trkpt lat="62.633299821264" lon="17.984854069612">
        <ele>91</ele>
        <time>2017-10-16T18:30:25Z</time>
      </trkpt>
      <trkpt lat="62.633296552323" lon="17.984870833412">
        <ele>91</ele>
        <time>2017-10-16T18:30:26Z</time>
      </trkpt>
      <trkpt lat="62.633287918966" lon="17.984898577501">
        <ele>91.2</ele>
        <time>2017-10-16T18:30:27Z</time>
      </trkpt>
      <trkpt lat="62.633283979473" lon="17.984928752341">
        <ele>91.2</ele>
        <time>2017-10-16T18:30:28Z</time>
      </trkpt>
      <trkpt lat="62.633277106315" lon="17.984966051796">
        <ele>91.4</ele>
        <time>2017-10-16T18:30:29Z</time>
      </trkpt>
      <trkpt lat="62.63326914351" lon="17.985000166129">
        <ele>91.4</ele>
        <time>2017-10-16T18:30:30Z</time>
      </trkpt>
      <trkpt lat="62.633262354171" lon="17.985028916046">
        <ele>91.4</ele>
        <time>2017-10-16T18:30:31Z</time>
      </trkpt>
      <trkpt lat="62.633256067746" lon="17.985056743954">
        <ele>91.4</ele>
        <time>2017-10-16T18:30:32Z</time>
      </trkpt>
      <trkpt lat="62.633251038606" lon="17.98509144502">
        <ele>91.4</ele>
        <time>2017-10-16T18:30:33Z</time>
      </trkpt>
      <trkpt lat="62.633250870968" lon="17.985114243788">
        <ele>91.4</ele>
        <time>2017-10-16T18:30:34Z</time>
      </trkpt>
      <trkpt lat="62.633244333086" lon="17.985137294013">
        <ele>91.6</ele>
        <time>2017-10-16T18:30:35Z</time>
      </trkpt>
      <trkpt lat="62.6332364541" lon="17.98516352936">
        <ele>91.6</ele>
        <time>2017-10-16T18:30:36Z</time>
      </trkpt>
      <trkpt lat="62.633235280634" lon="17.985190854354">
        <ele>91.6</ele>
        <time>2017-10-16T18:30:37Z</time>
      </trkpt>
      <trkpt lat="62.633235532091" lon="17.985213401665">
        <ele>91.8</ele>
        <time>2017-10-16T18:30:38Z</time>
      </trkpt>
      <trkpt lat="62.633234274806" lon="17.985231674207">
        <ele>92</ele>
        <time>2017-10-16T18:30:39Z</time>
      </trkpt>
      <trkpt lat="62.633233520435" lon="17.985249108559">
        <ele>92</ele>
        <time>2017-10-16T18:30:40Z</time>
      </trkpt>
      <trkpt lat="62.633231927874" lon="17.985273499888">
        <ele>92.2</ele>
        <time>2017-10-16T18:30:41Z</time>
      </trkpt>
      <trkpt lat="62.633229832399" lon="17.985306356936">
        <ele>92.2</ele>
        <time>2017-10-16T18:30:42Z</time>
      </trkpt>
      <trkpt lat="62.633227736924" lon="17.985333346654">
        <ele>92.4</ele>
        <time>2017-10-16T18:30:43Z</time>
      </trkpt>
      <trkpt lat="62.633226814915" lon="17.985328401333">
        <ele>92.4</ele>
        <time>2017-10-16T18:30:44Z</time>
      </trkpt>
      <trkpt lat="62.633223545974" lon="17.985360084915">
        <ele>92.6</ele>
        <time>2017-10-16T18:30:45Z</time>
      </trkpt>
      <trkpt lat="62.633220779947" lon="17.985386236443">
        <ele>92.6</ele>
        <time>2017-10-16T18:30:46Z</time>
      </trkpt>
      <trkpt lat="62.633220779947" lon="17.985410124858">
        <ele>92.8</ele>
        <time>2017-10-16T18:30:47Z</time>
      </trkpt>
      <trkpt lat="62.633226228182" lon="17.985375507611">
        <ele>93</ele>
        <time>2017-10-16T18:30:49Z</time>
      </trkpt>
      <trkpt lat="62.633223713612" lon="17.985319013605">
        <ele>93.2</ele>
        <time>2017-10-16T18:30:50Z</time>
      </trkpt>
      <trkpt lat="62.633227401648" lon="17.985239385555">
        <ele>93.4</ele>
        <time>2017-10-16T18:30:51Z</time>
      </trkpt>
      <trkpt lat="62.633231341141" lon="17.985139808583">
        <ele>93.4</ele>
        <time>2017-10-16T18:30:52Z</time>
      </trkpt>
      <trkpt lat="62.63323477772" lon="17.985055570488">
        <ele>93.2</ele>
        <time>2017-10-16T18:30:53Z</time>
      </trkpt>
      <trkpt lat="62.63324064505" lon="17.98497409842">
        <ele>92.8</ele>
        <time>2017-10-16T18:30:54Z</time>
      </trkpt>
      <trkpt lat="62.633249110769" lon="17.984892877809">
        <ele>92.4</ele>
        <time>2017-10-16T18:30:55Z</time>
      </trkpt>
      <trkpt lat="62.633254307547" lon="17.984811405741">
        <ele>91.8</ele>
        <time>2017-10-16T18:30:56Z</time>
      </trkpt>
      <trkpt lat="62.633269562605" lon="17.984746865111">
        <ele>91.4</ele>
        <time>2017-10-16T18:30:57Z</time>
      </trkpt>
      <trkpt lat="62.633275681392" lon="17.984680396644">
        <ele>91.2</ele>
        <time>2017-10-16T18:30:58Z</time>
      </trkpt>
      <trkpt lat="62.633289595346" lon="17.984634547651">
        <ele>91</ele>
        <time>2017-10-16T18:30:59Z</time>
      </trkpt>
      <trkpt lat="62.633305269499" lon="17.98455081247">
        <ele>90.8</ele>
        <time>2017-10-16T18:31:00Z</time>
      </trkpt>
      <trkpt lat="62.63331608215" lon="17.984491887713">
        <ele>90.8</ele>
        <time>2017-10-16T18:31:01Z</time>
      </trkpt>
      <trkpt lat="62.633331085751" lon="17.984414858052">
        <ele>90.8</ele>
        <time>2017-10-16T18:31:02Z</time>
      </trkpt>
      <trkpt lat="62.633345670257" lon="17.984352664354">
        <ele>91</ele>
        <time>2017-10-16T18:31:03Z</time>
      </trkpt>
      <trkpt lat="62.633351956682" lon="17.984277813987">
        <ele>90.8</ele>
        <time>2017-10-16T18:31:04Z</time>
      </trkpt>
      <trkpt lat="62.633363439885" lon="17.984217967221">
        <ele>90.8</ele>
        <time>2017-10-16T18:31:05Z</time>
      </trkpt>
      <trkpt lat="62.633371151233" lon="17.984145463786">
        <ele>90.8</ele>
        <time>2017-10-16T18:31:06Z</time>
      </trkpt>
      <trkpt lat="62.633379700771" lon="17.984062650614">
        <ele>90.8</ele>
        <time>2017-10-16T18:31:07Z</time>
      </trkpt>
      <trkpt lat="62.633387663576" lon="17.983987464971">
        <ele>91</ele>
        <time>2017-10-16T18:31:08Z</time>
      </trkpt>
      <trkpt lat="62.633392022164" lon="17.983922840522">
        <ele>90.8</ele>
        <time>2017-10-16T18:31:09Z</time>
      </trkpt>
      <trkpt lat="62.633398392408" lon="17.983859640996">
        <ele>90.8</ele>
        <time>2017-10-16T18:31:10Z</time>
      </trkpt>
      <trkpt lat="62.633408534507" lon="17.983803733723">
        <ele>90.6</ele>
        <time>2017-10-16T18:31:11Z</time>
      </trkpt>
      <trkpt lat="62.633419263339" lon="17.983718154524">
        <ele>90.6</ele>
        <time>2017-10-16T18:31:12Z</time>
      </trkpt>
      <trkpt lat="62.633414737113" lon="17.983641292501">
        <ele>90.6</ele>
        <time>2017-10-16T18:31:13Z</time>
      </trkpt>
      <trkpt lat="62.633425633583" lon="17.983567196505">
        <ele>90.6</ele>
        <time>2017-10-16T18:31:14Z</time>
      </trkpt>
      <trkpt lat="62.633440050451" lon="17.983496872364">
        <ele>90.8</ele>
        <time>2017-10-16T18:31:15Z</time>
      </trkpt>
      <trkpt lat="62.633457652441" lon="17.983444988403">
        <ele>90.8</ele>
        <time>2017-10-16T18:31:16Z</time>
      </trkpt>
      <trkpt lat="62.633468800368" lon="17.983378939031">
        <ele>90.8</ele>
        <time>2017-10-16T18:31:17Z</time>
      </trkpt>
      <trkpt lat="62.63348036739" lon="17.983317164428">
        <ele>91</ele>
        <time>2017-10-16T18:31:18Z</time>
      </trkpt>
      <trkpt lat="62.633490928584" lon="17.983248097572">
        <ele>91</ele>
        <time>2017-10-16T18:31:19Z</time>
      </trkpt>
      <trkpt lat="62.633500986864" lon="17.983179198354">
        <ele>91</ele>
        <time>2017-10-16T18:31:20Z</time>
      </trkpt>
      <trkpt lat="62.633514984637" lon="17.983108119842">
        <ele>91</ele>
        <time>2017-10-16T18:31:21Z</time>
      </trkpt>
      <trkpt lat="62.633529736781" lon="17.983039891176">
        <ele>91.2</ele>
        <time>2017-10-16T18:31:22Z</time>
      </trkpt>
      <trkpt lat="62.633538789233" lon="17.982984738274">
        <ele>91.2</ele>
        <time>2017-10-16T18:31:23Z</time>
      </trkpt>
      <trkpt lat="62.633558151422" lon="17.982915252323">
        <ele>91.2</ele>
        <time>2017-10-16T18:31:24Z</time>
      </trkpt>
      <trkpt lat="62.633573071204" lon="17.982852974806">
        <ele>91</ele>
        <time>2017-10-16T18:31:25Z</time>
      </trkpt>
      <trkpt lat="62.633587739529" lon="17.982779884638">
        <ele>91</ele>
        <time>2017-10-16T18:31:26Z</time>
      </trkpt>
      <trkpt lat="62.633602407854" lon="17.982712075067">
        <ele>91</ele>
        <time>2017-10-16T18:31:27Z</time>
      </trkpt>
      <trkpt lat="62.633611208849" lon="17.982653066491">
        <ele>91.2</ele>
        <time>2017-10-16T18:31:28Z</time>
      </trkpt>
      <trkpt lat="62.633626380088" lon="17.982589783146">
        <ele>91.2</ele>
        <time>2017-10-16T18:31:29Z</time>
      </trkpt>
      <trkpt lat="62.63363794711" lon="17.982516692978">
        <ele>91.2</ele>
        <time>2017-10-16T18:31:30Z</time>
      </trkpt>
      <trkpt lat="62.6336471672" lon="17.982447542303">
        <ele>91.2</ele>
        <time>2017-10-16T18:31:31Z</time>
      </trkpt>
      <trkpt lat="62.63366057824" lon="17.982378140171">
        <ele>91.4</ele>
        <time>2017-10-16T18:31:32Z</time>
      </trkpt>
      <trkpt lat="62.633669965968" lon="17.982308905677">
        <ele>91.2</ele>
        <time>2017-10-16T18:31:33Z</time>
      </trkpt>
      <trkpt lat="62.633683628465" lon="17.982242101934">
        <ele>91</ele>
        <time>2017-10-16T18:31:34Z</time>
      </trkpt>
      <trkpt lat="62.633690082528" lon="17.982177477485">
        <ele>91</ele>
        <time>2017-10-16T18:31:35Z</time>
      </trkpt>
      <trkpt lat="62.633702655378" lon="17.982119810013">
        <ele>91.2</ele>
        <time>2017-10-16T18:31:36Z</time>
      </trkpt>
      <trkpt lat="62.633699554075" lon="17.982055353202">
        <ele>91</ele>
        <time>2017-10-16T18:31:37Z</time>
      </trkpt>
      <trkpt lat="62.63370248774" lon="17.981990812572">
        <ele>91</ele>
        <time>2017-10-16T18:31:38Z</time>
      </trkpt>
      <trkpt lat="62.633706930147" lon="17.981914537282">
        <ele>91.2</ele>
        <time>2017-10-16T18:31:39Z</time>
      </trkpt>
      <trkpt lat="62.633707684518" lon="17.981854690516">
        <ele>91.2</ele>
        <time>2017-10-16T18:31:40Z</time>
      </trkpt>
      <trkpt lat="62.633707935975" lon="17.981790317524">
        <ele>91</ele>
        <time>2017-10-16T18:31:41Z</time>
      </trkpt>
      <trkpt lat="62.633710953459" lon="17.981711779121">
        <ele>91.2</ele>
        <time>2017-10-16T18:31:42Z</time>
      </trkpt>
      <trkpt lat="62.633717826617" lon="17.981643047541">
        <ele>91.4</ele>
        <time>2017-10-16T18:31:43Z</time>
      </trkpt>
      <trkpt lat="62.633731740571" lon="17.981585715345">
        <ele>91.4</ele>
        <time>2017-10-16T18:31:44Z</time>
      </trkpt>
      <trkpt lat="62.633740541566" lon="17.981519414516">
        <ele>91.4</ele>
        <time>2017-10-16T18:31:45Z</time>
      </trkpt>
      <trkpt lat="62.633744816335" lon="17.981451269669">
        <ele>91.6</ele>
        <time>2017-10-16T18:31:46Z</time>
      </trkpt>
      <trkpt lat="62.633753701149" lon="17.981377006035">
        <ele>91.6</ele>
        <time>2017-10-16T18:31:47Z</time>
      </trkpt>
      <trkpt lat="62.633760490488" lon="17.98131539907">
        <ele>91.8</ele>
        <time>2017-10-16T18:31:48Z</time>
      </trkpt>
      <trkpt lat="62.633769459121" lon="17.981244739653">
        <ele>91.8</ele>
        <time>2017-10-16T18:31:49Z</time>
      </trkpt>
      <trkpt lat="62.633779182125" lon="17.981184473792">
        <ele>91.8</ele>
        <time>2017-10-16T18:31:50Z</time>
      </trkpt>
      <trkpt lat="62.633795023916" lon="17.981124543207">
        <ele>91.8</ele>
        <time>2017-10-16T18:31:51Z</time>
      </trkpt>
      <trkpt lat="62.633808518775" lon="17.981053129419">
        <ele>91.8</ele>
        <time>2017-10-16T18:31:52Z</time>
      </trkpt>
      <trkpt lat="62.633827210412" lon="17.9810111361">
        <ele>91.8</ele>
        <time>2017-10-16T18:31:53Z</time>
      </trkpt>
      <trkpt lat="62.633852356112" lon="17.980960509424">
        <ele>91.8</ele>
        <time>2017-10-16T18:31:54Z</time>
      </trkpt>
      <trkpt lat="62.633870628654" lon="17.980898399545">
        <ele>91.8</ele>
        <time>2017-10-16T18:31:55Z</time>
      </trkpt>
      <trkpt lat="62.633891164309" lon="17.980844420109">
        <ele>91.8</ele>
        <time>2017-10-16T18:31:56Z</time>
      </trkpt>
      <trkpt lat="62.633904323892" lon="17.980776945814">
        <ele>91.8</ele>
        <time>2017-10-16T18:31:57Z</time>
      </trkpt>
      <trkpt lat="62.63391371162" lon="17.980718859247">
        <ele>92</ele>
        <time>2017-10-16T18:31:58Z</time>
      </trkpt>
      <trkpt lat="62.633926033013" lon="17.980674351358">
        <ele>92</ele>
        <time>2017-10-16T18:31:59Z</time>
      </trkpt>
      <trkpt lat="62.633950675799" lon="17.980621293931">
        <ele>92</ele>
        <time>2017-10-16T18:32:00Z</time>
      </trkpt>
      <trkpt lat="62.633975821499" lon="17.980564716106">
        <ele>92.2</ele>
        <time>2017-10-16T18:32:01Z</time>
      </trkpt>
      <trkpt lat="62.633987556159" lon="17.980511323403">
        <ele>92.2</ele>
        <time>2017-10-16T18:32:02Z</time>
      </trkpt>
      <trkpt lat="62.634005158149" lon="17.980444435841">
        <ele>92.2</ele>
        <time>2017-10-16T18:32:03Z</time>
      </trkpt>
      <trkpt lat="62.634027118727" lon="17.980387019826">
        <ele>92.2</ele>
        <time>2017-10-16T18:32:04Z</time>
      </trkpt>
      <trkpt lat="62.634035752084" lon="17.980320886635">
        <ele>92</ele>
        <time>2017-10-16T18:32:05Z</time>
      </trkpt>
      <trkpt lat="62.634052180608" lon="17.980277300755">
        <ele>92</ele>
        <time>2017-10-16T18:32:06Z</time>
      </trkpt>
      <trkpt lat="62.634074141186" lon="17.980231451762">
        <ele>91.8</ele>
        <time>2017-10-16T18:32:07Z</time>
      </trkpt>
      <trkpt lat="62.634098281058" lon="17.980176969412">
        <ele>91.8</ele>
        <time>2017-10-16T18:32:08Z</time>
      </trkpt>
      <trkpt lat="62.634121918016" lon="17.980140089052">
        <ele>92</ele>
        <time>2017-10-16T18:32:09Z</time>
      </trkpt>
      <trkpt lat="62.634136251065" lon="17.980095162068">
        <ele>92</ele>
        <time>2017-10-16T18:32:10Z</time>
      </trkpt>
      <trkpt lat="62.634156954358" lon="17.980043697202">
        <ele>92</ele>
        <time>2017-10-16T18:32:11Z</time>
      </trkpt>
      <trkpt lat="62.634173131425" lon="17.979983934255">
        <ele>92</ele>
        <time>2017-10-16T18:32:12Z</time>
      </trkpt>
      <trkpt lat="62.63419953441" lon="17.979933894312">
        <ele>92</ele>
        <time>2017-10-16T18:32:13Z</time>
      </trkpt>
      <trkpt lat="62.634216549667" lon="17.979869605139">
        <ele>92</ele>
        <time>2017-10-16T18:32:14Z</time>
      </trkpt>
      <trkpt lat="62.634236917684" lon="17.97982425906">
        <ele>91.8</ele>
        <time>2017-10-16T18:32:15Z</time>
      </trkpt>
      <trkpt lat="62.63425401676" lon="17.979776733687">
        <ele>91.8</ele>
        <time>2017-10-16T18:32:16Z</time>
      </trkpt>
      <trkpt lat="62.634265080868" lon="17.979708337383">
        <ele>91.6</ele>
        <time>2017-10-16T18:32:17Z</time>
      </trkpt>
      <trkpt lat="62.634283269591" lon="17.979660057639">
        <ele>91.6</ele>
        <time>2017-10-16T18:32:18Z</time>
      </trkpt>
      <trkpt lat="62.634301123038" lon="17.979595014095">
        <ele>91.6</ele>
        <time>2017-10-16T18:32:19Z</time>
      </trkpt>
      <trkpt lat="62.634310762223" lon="17.97955855283">
        <ele>91.6</ele>
        <time>2017-10-16T18:32:20Z</time>
      </trkpt>
      <trkpt lat="62.634322329245" lon="17.979521756289">
        <ele>91.4</ele>
        <time>2017-10-16T18:32:21Z</time>
      </trkpt>
      <trkpt lat="62.634337751941" lon="17.979483702463">
        <ele>91.8</ele>
        <time>2017-10-16T18:32:23Z</time>
      </trkpt>
      <trkpt lat="62.634345295651" lon="17.979452521795">
        <ele>92</ele>
        <time>2017-10-16T18:32:24Z</time>
      </trkpt>
      <trkpt lat="62.634352420266" lon="17.979431315588">
        <ele>92</ele>
        <time>2017-10-16T18:32:25Z</time>
      </trkpt>
      <trkpt lat="62.634356611216" lon="17.979403068585">
        <ele>92.2</ele>
        <time>2017-10-16T18:32:26Z</time>
      </trkpt>
      <trkpt lat="62.634366166582" lon="17.979367110234">
        <ele>92.2</ele>
        <time>2017-10-16T18:32:27Z</time>
      </trkpt>
      <trkpt lat="62.634371782455" lon="17.979355291755">
        <ele>92.2</ele>
        <time>2017-10-16T18:32:28Z</time>
      </trkpt>
      <trkpt lat="62.634382930382" lon="17.979314974816">
        <ele>92.2</ele>
        <time>2017-10-16T18:32:29Z</time>
      </trkpt>
      <trkpt lat="62.634388462436" lon="17.979303575432">
        <ele>92.2</ele>
        <time>2017-10-16T18:32:30Z</time>
      </trkpt>
      <trkpt lat="62.634402963123" lon="17.9792677009">
        <ele>92.2</ele>
        <time>2017-10-16T18:32:31Z</time>
      </trkpt>
      <trkpt lat="62.634404388046" lon="17.979257558801">
        <ele>92.4</ele>
        <time>2017-10-16T18:32:32Z</time>
      </trkpt>
      <trkpt lat="62.6344099201" lon="17.979235262947">
        <ele>92.2</ele>
        <time>2017-10-16T18:32:33Z</time>
      </trkpt>
      <trkpt lat="62.634412937584" lon="17.979203663184">
        <ele>92.4</ele>
        <time>2017-10-16T18:32:34Z</time>
      </trkpt>
      <trkpt lat="62.634418302" lon="17.979173404525">
        <ele>92.2</ele>
        <time>2017-10-16T18:32:35Z</time>
      </trkpt>
      <trkpt lat="62.634426600081" lon="17.979145492798">
        <ele>92.2</ele>
        <time>2017-10-16T18:32:36Z</time>
      </trkpt>
      <trkpt lat="62.634435149619" lon="17.979116742881">
        <ele>92.2</ele>
        <time>2017-10-16T18:32:37Z</time>
      </trkpt>
      <trkpt lat="62.634440514035" lon="17.979088747335">
        <ele>92</ele>
        <time>2017-10-16T18:32:38Z</time>
      </trkpt>
      <trkpt lat="62.634448644478" lon="17.97905563883">
        <ele>92</ele>
        <time>2017-10-16T18:32:39Z</time>
      </trkpt>
      <trkpt lat="62.634455517636" lon="17.979032840062">
        <ele>92</ele>
        <time>2017-10-16T18:32:40Z</time>
      </trkpt>
      <trkpt lat="62.634462055518" lon="17.979005515068">
        <ele>92</ele>
        <time>2017-10-16T18:32:41Z</time>
      </trkpt>
      <trkpt lat="62.634468174305" lon="17.978966455414">
        <ele>92.2</ele>
        <time>2017-10-16T18:32:43Z</time>
      </trkpt>
      <trkpt lat="62.634474628368" lon="17.978936112936">
        <ele>92.2</ele>
        <time>2017-10-16T18:32:44Z</time>
      </trkpt>
      <trkpt lat="62.634481333888" lon="17.978913733263">
        <ele>92.2</ele>
        <time>2017-10-16T18:32:45Z</time>
      </trkpt>
      <trkpt lat="62.63448787177" lon="17.978885570079">
        <ele>92.2</ele>
        <time>2017-10-16T18:32:46Z</time>
      </trkpt>
      <trkpt lat="62.634493236186" lon="17.978868973917">
        <ele>92.2</ele>
        <time>2017-10-16T18:32:47Z</time>
      </trkpt>
      <trkpt lat="62.634494242014" lon="17.978890263943">
        <ele>92.2</ele>
        <time>2017-10-16T18:32:48Z</time>
      </trkpt>
      <trkpt lat="62.634487117399" lon="17.978981626653">
        <ele>92.2</ele>
        <time>2017-10-16T18:32:50Z</time>
      </trkpt>
      <trkpt lat="62.634472281436" lon="17.979029990216">
        <ele>92.2</ele>
        <time>2017-10-16T18:32:51Z</time>
      </trkpt>
      <trkpt lat="62.634457529292" lon="17.979092016276">
        <ele>92.2</ele>
        <time>2017-10-16T18:32:52Z</time>
      </trkpt>
      <trkpt lat="62.634448225383" lon="17.9791503543">
        <ele>92.2</ele>
        <time>2017-10-16T18:32:53Z</time>
      </trkpt>
      <trkpt lat="62.63443758037" lon="17.979226713409">
        <ele>92.2</ele>
        <time>2017-10-16T18:32:54Z</time>
      </trkpt>
      <trkpt lat="62.634431042488" lon="17.979289158564">
        <ele>92.2</ele>
        <time>2017-10-16T18:32:55Z</time>
      </trkpt>
      <trkpt lat="62.634419056371" lon="17.979354369746">
        <ele>92.2</ele>
        <time>2017-10-16T18:32:56Z</time>
      </trkpt>
      <trkpt lat="62.63440908191" lon="17.979414216512">
        <ele>92.2</ele>
        <time>2017-10-16T18:32:57Z</time>
      </trkpt>
      <trkpt lat="62.634396676698" lon="17.979475069106">
        <ele>92.2</ele>
        <time>2017-10-16T18:32:58Z</time>
      </trkpt>
      <trkpt lat="62.634386618418" lon="17.979537095166">
        <ele>92.2</ele>
        <time>2017-10-16T18:32:59Z</time>
      </trkpt>
      <trkpt lat="62.634378320337" lon="17.979597193389">
        <ele>92</ele>
        <time>2017-10-16T18:33:00Z</time>
      </trkpt>
      <trkpt lat="62.634366920953" lon="17.9796700321">
        <ele>92</ele>
        <time>2017-10-16T18:33:01Z</time>
      </trkpt>
      <trkpt lat="62.634355353931" lon="17.979732812531">
        <ele>92</ele>
        <time>2017-10-16T18:33:02Z</time>
      </trkpt>
      <trkpt lat="62.634338757769" lon="17.979796347333">
        <ele>92.2</ele>
        <time>2017-10-16T18:33:03Z</time>
      </trkpt>
      <trkpt lat="62.634324005625" lon="17.979861223239">
        <ele>92</ele>
        <time>2017-10-16T18:33:04Z</time>
      </trkpt>
      <trkpt lat="62.634308163834" lon="17.979919645082">
        <ele>92</ele>
        <time>2017-10-16T18:33:05Z</time>
      </trkpt>
      <trkpt lat="62.634285951799" lon="17.979978821296">
        <ele>92.2</ele>
        <time>2017-10-16T18:33:06Z</time>
      </trkpt>
      <trkpt lat="62.634264242678" lon="17.980028525963">
        <ele>92.4</ele>
        <time>2017-10-16T18:33:07Z</time>
      </trkpt>
      <trkpt lat="62.634242617376" lon="17.98006649597">
        <ele>92.4</ele>
        <time>2017-10-16T18:33:08Z</time>
      </trkpt>
      <trkpt lat="62.634230463621" lon="17.980119134302">
        <ele>92.4</ele>
        <time>2017-10-16T18:33:09Z</time>
      </trkpt>
      <trkpt lat="62.634213029269" lon="17.980174957756">
        <ele>92.4</ele>
        <time>2017-10-16T18:33:10Z</time>
      </trkpt>
      <trkpt lat="62.634198360944" lon="17.980216783437">
        <ele>92.6</ele>
        <time>2017-10-16T18:33:11Z</time>
      </trkpt>
      <trkpt lat="62.634182854429" lon="17.98027688166">
        <ele>92.4</ele>
        <time>2017-10-16T18:33:12Z</time>
      </trkpt>
      <trkpt lat="62.634171790321" lon="17.980344188317">
        <ele>92.4</ele>
        <time>2017-10-16T18:33:13Z</time>
      </trkpt>
      <trkpt lat="62.634154858883" lon="17.980404370359">
        <ele>92.6</ele>
        <time>2017-10-16T18:33:14Z</time>
      </trkpt>
      <trkpt lat="62.634136167246" lon="17.980461451098">
        <ele>92.6</ele>
        <time>2017-10-16T18:33:15Z</time>
      </trkpt>
      <trkpt lat="62.634120241636" lon="17.980527332832">
        <ele>92.4</ele>
        <time>2017-10-16T18:33:16Z</time>
      </trkpt>
      <trkpt lat="62.634104567483" lon="17.980579300612">
        <ele>92.6</ele>
        <time>2017-10-16T18:33:17Z</time>
      </trkpt>
      <trkpt lat="62.634085289113" lon="17.980641410491">
        <ele>92.6</ele>
        <time>2017-10-16T18:33:18Z</time>
      </trkpt>
      <trkpt lat="62.634069363503" lon="17.980706370216">
        <ele>92.6</ele>
        <time>2017-10-16T18:33:19Z</time>
      </trkpt>
      <trkpt lat="62.634054946635" lon="17.980770994665">
        <ele>92.6</ele>
        <time>2017-10-16T18:33:20Z</time>
      </trkpt>
      <trkpt lat="62.634037093188" lon="17.980840564435">
        <ele>92.4</ele>
        <time>2017-10-16T18:33:21Z</time>
      </trkpt>
      <trkpt lat="62.634017898637" lon="17.980898064269">
        <ele>92.4</ele>
        <time>2017-10-16T18:33:22Z</time>
      </trkpt>
      <trkpt lat="62.633996524792" lon="17.980951373153">
        <ele>92.4</ele>
        <time>2017-10-16T18:33:23Z</time>
      </trkpt>
      <trkpt lat="62.633970457083" lon="17.981009794996">
        <ele>92.2</ele>
        <time>2017-10-16T18:33:24Z</time>
      </trkpt>
      <trkpt lat="62.633946652487" lon="17.981064109708">
        <ele>92.2</ele>
        <time>2017-10-16T18:33:25Z</time>
      </trkpt>
      <trkpt lat="62.633931397429" lon="17.981128398881">
        <ele>92.2</ele>
        <time>2017-10-16T18:33:26Z</time>
      </trkpt>
      <trkpt lat="62.633918237846" lon="17.981191598407">
        <ele>91.8</ele>
        <time>2017-10-16T18:33:27Z</time>
      </trkpt>
      <trkpt lat="62.633904826806" lon="17.981279692176">
        <ele>91.8</ele>
        <time>2017-10-16T18:33:28Z</time>
      </trkpt>
      <trkpt lat="62.633896864001" lon="17.981343478435">
        <ele>91.6</ele>
        <time>2017-10-16T18:33:29Z</time>
      </trkpt>
      <trkpt lat="62.633893008327" lon="17.98141430549">
        <ele>91.4</ele>
        <time>2017-10-16T18:33:30Z</time>
      </trkpt>
      <trkpt lat="62.633887057178" lon="17.981491838065">
        <ele>91.4</ele>
        <time>2017-10-16T18:33:31Z</time>
      </trkpt>
      <trkpt lat="62.633883788237" lon="17.981558809446">
        <ele>91.4</ele>
        <time>2017-10-16T18:33:32Z</time>
      </trkpt>
      <trkpt lat="62.633881357486" lon="17.981620332592">
        <ele>91</ele>
        <time>2017-10-16T18:33:33Z</time>
      </trkpt>
      <trkpt lat="62.633879764925" lon="17.981688812715">
        <ele>91</ele>
        <time>2017-10-16T18:33:34Z</time>
      </trkpt>
      <trkpt lat="62.63387766945" lon="17.981745474359">
        <ele>91.2</ele>
        <time>2017-10-16T18:33:35Z</time>
      </trkpt>
      <trkpt lat="62.63386593479" lon="17.981825772961">
        <ele>91</ele>
        <time>2017-10-16T18:33:36Z</time>
      </trkpt>
      <trkpt lat="62.633859061632" lon="17.981898024939">
        <ele>91</ele>
        <time>2017-10-16T18:33:37Z</time>
      </trkpt>
      <trkpt lat="62.633853697216" lon="17.981961475922">
        <ele>91.2</ele>
        <time>2017-10-16T18:33:38Z</time>
      </trkpt>
      <trkpt lat="62.633845231497" lon="17.982033476443">
        <ele>91.2</ele>
        <time>2017-10-16T18:33:39Z</time>
      </trkpt>
      <trkpt lat="62.633837771606" lon="17.982098939082">
        <ele>91</ele>
        <time>2017-10-16T18:33:40Z</time>
      </trkpt>
      <trkpt lat="62.633832910104" lon="17.982164066445">
        <ele>91.2</ele>
        <time>2017-10-16T18:33:41Z</time>
      </trkpt>
      <trkpt lat="62.633824528204" lon="17.982240593192">
        <ele>91</ele>
        <time>2017-10-16T18:33:42Z</time>
      </trkpt>
      <trkpt lat="62.633813045001" lon="17.982309743867">
        <ele>91</ele>
        <time>2017-10-16T18:33:43Z</time>
      </trkpt>
      <trkpt lat="62.633801226522" lon="17.982388030813">
        <ele>91</ele>
        <time>2017-10-16T18:33:44Z</time>
      </trkpt>
      <trkpt lat="62.633791000604" lon="17.982456091841">
        <ele>91</ele>
        <time>2017-10-16T18:33:45Z</time>
      </trkpt>
      <trkpt lat="62.633775242632" lon="17.982533959692">
        <ele>90.8</ele>
        <time>2017-10-16T18:33:46Z</time>
      </trkpt>
      <trkpt lat="62.633762585963" lon="17.982589615508">
        <ele>90.8</ele>
        <time>2017-10-16T18:33:47Z</time>
      </trkpt>
      <trkpt lat="62.633742804679" lon="17.982651641568">
        <ele>90.8</ele>
        <time>2017-10-16T18:33:48Z</time>
      </trkpt>
      <trkpt lat="62.633725705603" lon="17.982710733963">
        <ele>90.6</ele>
        <time>2017-10-16T18:33:49Z</time>
      </trkpt>
      <trkpt lat="62.633708690346" lon="17.982767479426">
        <ele>90.6</ele>
        <time>2017-10-16T18:33:50Z</time>
      </trkpt>
      <trkpt lat="62.633688406148" lon="17.982833612617">
        <ele>90.6</ele>
        <time>2017-10-16T18:33:51Z</time>
      </trkpt>
      <trkpt lat="62.633673737823" lon="17.982888849338">
        <ele>90.6</ele>
        <time>2017-10-16T18:33:52Z</time>
      </trkpt>
      <trkpt lat="62.633662086982" lon="17.98293813491">
        <ele>90.6</ele>
        <time>2017-10-16T18:33:53Z</time>
      </trkpt>
      <trkpt lat="62.63364549082" lon="17.983000244789">
        <ele>90.6</ele>
        <time>2017-10-16T18:33:54Z</time>
      </trkpt>
      <trkpt lat="62.63362788883" lon="17.983062606125">
        <ele>90.8</ele>
        <time>2017-10-16T18:33:55Z</time>
      </trkpt>
      <trkpt lat="62.633613891057" lon="17.98313343318">
        <ele>90.8</ele>
        <time>2017-10-16T18:33:56Z</time>
      </trkpt>
      <trkpt lat="62.633603497501" lon="17.983201829484">
        <ele>90.8</ele>
        <time>2017-10-16T18:33:57Z</time>
      </trkpt>
      <trkpt lat="62.633593439221" lon="17.983266789209">
        <ele>90.8</ele>
        <time>2017-10-16T18:33:58Z</time>
      </trkpt>
      <trkpt lat="62.633583967674" lon="17.983321103921">
        <ele>90.8</ele>
        <time>2017-10-16T18:33:59Z</time>
      </trkpt>
      <trkpt lat="62.633573993213" lon="17.983380280135">
        <ele>90.8</ele>
        <time>2017-10-16T18:34:00Z</time>
      </trkpt>
      <trkpt lat="62.633566114227" lon="17.983441468005">
        <ele>90.6</ele>
        <time>2017-10-16T18:34:01Z</time>
      </trkpt>
      <trkpt lat="62.633557145594" lon="17.983502823513">
        <ele>90.8</ele>
        <time>2017-10-16T18:34:02Z</time>
      </trkpt>
      <trkpt lat="62.633541052346" lon="17.98356510103">
        <ele>90.8</ele>
        <time>2017-10-16T18:34:03Z</time>
      </trkpt>
      <trkpt lat="62.633527892763" lon="17.98362461252">
        <ele>90.8</ele>
        <time>2017-10-16T18:34:04Z</time>
      </trkpt>
      <trkpt lat="62.633517415388" lon="17.983692002996">
        <ele>90.6</ele>
        <time>2017-10-16T18:34:05Z</time>
      </trkpt>
      <trkpt lat="62.633507776203" lon="17.983759142015">
        <ele>90.8</ele>
        <time>2017-10-16T18:34:06Z</time>
      </trkpt>
      <trkpt lat="62.633499729579" lon="17.98381152889">
        <ele>90.8</ele>
        <time>2017-10-16T18:34:07Z</time>
      </trkpt>
      <trkpt lat="62.633497717923" lon="17.983868693448">
        <ele>90.8</ele>
        <time>2017-10-16T18:34:08Z</time>
      </trkpt>
      <trkpt lat="62.633491515317" lon="17.983935413372">
        <ele>90.8</ele>
        <time>2017-10-16T18:34:09Z</time>
      </trkpt>
      <trkpt lat="62.633484474521" lon="17.983997690889">
        <ele>90.6</ele>
        <time>2017-10-16T18:34:10Z</time>
      </trkpt>
      <trkpt lat="62.633476595535" lon="17.984069272315">
        <ele>90.6</ele>
        <time>2017-10-16T18:34:11Z</time>
      </trkpt>
      <trkpt lat="62.633467123988" lon="17.98413004109">
        <ele>90.4</ele>
        <time>2017-10-16T18:34:12Z</time>
      </trkpt>
      <trkpt lat="62.633458322993" lon="17.984193659711">
        <ele>90.2</ele>
        <time>2017-10-16T18:34:13Z</time>
      </trkpt>
      <trkpt lat="62.633443067935" lon="17.984269012992">
        <ele>90.2</ele>
        <time>2017-10-16T18:34:14Z</time>
      </trkpt>
      <trkpt lat="62.633430159809" lon="17.984331793423">
        <ele>90.2</ele>
        <time>2017-10-16T18:34:15Z</time>
      </trkpt>
      <trkpt lat="62.63341582676" lon="17.984398848623">
        <ele>90</ele>
        <time>2017-10-16T18:34:16Z</time>
      </trkpt>
      <trkpt lat="62.63340073934" lon="17.984461042321">
        <ele>90</ele>
        <time>2017-10-16T18:34:17Z</time>
      </trkpt>
      <trkpt lat="62.633372157061" lon="17.984555422515">
        <ele>89.8</ele>
        <time>2017-10-16T18:34:19Z</time>
      </trkpt>
      <trkpt lat="62.633365367722" lon="17.984579143292">
        <ele>89.8</ele>
        <time>2017-10-16T18:34:20Z</time>
      </trkpt>
      <trkpt lat="62.633358243107" lon="17.984598505481">
        <ele>90</ele>
        <time>2017-10-16T18:34:21Z</time>
      </trkpt>
      <trkpt lat="62.63334793337" lon="17.984615269281">
        <ele>90</ele>
        <time>2017-10-16T18:34:22Z</time>
      </trkpt>
      <trkpt lat="62.633333516502" lon="17.984625998113">
        <ele>90</ele>
        <time>2017-10-16T18:34:23Z</time>
      </trkpt>
      <trkpt lat="62.633319183453" lon="17.984617448575">
        <ele>90</ele>
        <time>2017-10-16T18:34:24Z</time>
      </trkpt>
      <trkpt lat="62.633314908684" lon="17.984600936232">
        <ele>90</ele>
        <time>2017-10-16T18:34:25Z</time>
      </trkpt>
      <trkpt lat="62.633317171797" lon="17.984590877952">
        <ele>90.2</ele>
        <time>2017-10-16T18:34:26Z</time>
      </trkpt>
      <trkpt lat="62.633322368575" lon="17.984582412233">
        <ele>90.2</ele>
        <time>2017-10-16T18:34:27Z</time>
      </trkpt>
      <trkpt lat="62.63332614043" lon="17.984575455256">
        <ele>90.4</ele>
        <time>2017-10-16T18:34:28Z</time>
      </trkpt>
      <trkpt lat="62.633326559525" lon="17.984567743908">
        <ele>90.4</ele>
        <time>2017-10-16T18:34:29Z</time>
      </trkpt>
      <trkpt lat="62.633320859833" lon="17.984561457483">
        <ele>90.4</ele>
        <time>2017-10-16T18:34:30Z</time>
      </trkpt>
      <trkpt lat="62.633278698876" lon="17.984553410859">
        <ele>90.4</ele>
        <time>2017-10-16T18:34:51Z</time>
      </trkpt>
      <trkpt lat="62.633292529011" lon="17.984487696763">
        <ele>90.2</ele>
        <time>2017-10-16T18:34:52Z</time>
      </trkpt>
      <trkpt lat="62.633304766585" lon="17.984428017635">
        <ele>90</ele>
        <time>2017-10-16T18:34:53Z</time>
      </trkpt>
      <trkpt lat="62.633320021643" lon="17.984351826164">
        <ele>89.8</ele>
        <time>2017-10-16T18:34:54Z</time>
      </trkpt>
      <trkpt lat="62.633328655" lon="17.984290554475">
        <ele>89.6</ele>
        <time>2017-10-16T18:34:55Z</time>
      </trkpt>
      <trkpt lat="62.633339467651" lon="17.984208495674">
        <ele>89.8</ele>
        <time>2017-10-16T18:34:56Z</time>
      </trkpt>
      <trkpt lat="62.633345083524" lon="17.984145044691">
        <ele>89.8</ele>
        <time>2017-10-16T18:34:57Z</time>
      </trkpt>
      <trkpt lat="62.633361595867" lon="17.984070948695">
        <ele>89.8</ele>
        <time>2017-10-16T18:34:58Z</time>
      </trkpt>
      <trkpt lat="62.633377521477" lon="17.984014873784">
        <ele>89.8</ele>
        <time>2017-10-16T18:34:59Z</time>
      </trkpt>
      <trkpt lat="62.633387915033" lon="17.983950081697">
        <ele>89.8</ele>
        <time>2017-10-16T18:35:00Z</time>
      </trkpt>
      <trkpt lat="62.633398979141" lon="17.983865424507">
        <ele>90</ele>
        <time>2017-10-16T18:35:01Z</time>
      </trkpt>
      <trkpt lat="62.633402834815" lon="17.983785461181">
        <ele>89.8</ele>
        <time>2017-10-16T18:35:02Z</time>
      </trkpt>
      <trkpt lat="62.633408534507" lon="17.983717232515">
        <ele>89.8</ele>
        <time>2017-10-16T18:35:03Z</time>
      </trkpt>
      <trkpt lat="62.633418173692" lon="17.983646070184">
        <ele>90</ele>
        <time>2017-10-16T18:35:04Z</time>
      </trkpt>
      <trkpt lat="62.633430662723" lon="17.983589911454">
        <ele>90.2</ele>
        <time>2017-10-16T18:35:05Z</time>
      </trkpt>
      <trkpt lat="62.63344516341" lon="17.983507182101">
        <ele>90</ele>
        <time>2017-10-16T18:35:06Z</time>
      </trkpt>
      <trkpt lat="62.633461172839" lon="17.983447335335">
        <ele>90.2</ele>
        <time>2017-10-16T18:35:07Z</time>
      </trkpt>
      <trkpt lat="62.633471901671" lon="17.983393523537">
        <ele>90.4</ele>
        <time>2017-10-16T18:35:08Z</time>
      </trkpt>
      <trkpt lat="62.633487743462" lon="17.983314733677">
        <ele>90.4</ele>
        <time>2017-10-16T18:35:09Z</time>
      </trkpt>
      <trkpt lat="62.633495957724" lon="17.983245918278">
        <ele>90.4</ele>
        <time>2017-10-16T18:35:10Z</time>
      </trkpt>
      <trkpt lat="62.633508698212" lon="17.983159333251">
        <ele>90.4</ele>
        <time>2017-10-16T18:35:11Z</time>
      </trkpt>
      <trkpt lat="62.633515655189" lon="17.983112310792">
        <ele>90.2</ele>
        <time>2017-10-16T18:35:12Z</time>
      </trkpt>
      <trkpt lat="62.633529066229" lon="17.983051709655">
        <ele>90.4</ele>
        <time>2017-10-16T18:35:13Z</time>
      </trkpt>
      <trkpt lat="62.63354071707" lon="17.982988174853">
        <ele>90.4</ele>
        <time>2017-10-16T18:35:14Z</time>
      </trkpt>
      <trkpt lat="62.633556391223" lon="17.982930675019">
        <ele>90.4</ele>
        <time>2017-10-16T18:35:15Z</time>
      </trkpt>
      <trkpt lat="62.633573071204" lon="17.982863787457">
        <ele>90.6</ele>
        <time>2017-10-16T18:35:16Z</time>
      </trkpt>
      <trkpt lat="62.633592601031" lon="17.98280653908">
        <ele>90.8</ele>
        <time>2017-10-16T18:35:17Z</time>
      </trkpt>
      <trkpt lat="62.633605928252" lon="17.982751302359">
        <ele>90.8</ele>
        <time>2017-10-16T18:35:18Z</time>
      </trkpt>
      <trkpt lat="62.633617746731" lon="17.982675446164">
        <ele>91</ele>
        <time>2017-10-16T18:35:19Z</time>
      </trkpt>
      <trkpt lat="62.633631995961" lon="17.982621131452">
        <ele>91</ele>
        <time>2017-10-16T18:35:20Z</time>
      </trkpt>
      <trkpt lat="62.633641886603" lon="17.982547286913">
        <ele>90.8</ele>
        <time>2017-10-16T18:35:21Z</time>
      </trkpt>
      <trkpt lat="62.633655716738" lon="17.982467994139">
        <ele>90.8</ele>
        <time>2017-10-16T18:35:22Z</time>
      </trkpt>
      <trkpt lat="62.633664014819" lon="17.982414601436">
        <ele>90.8</ele>
        <time>2017-10-16T18:35:23Z</time>
      </trkpt>
      <trkpt lat="62.633674408375" lon="17.982346288951">
        <ele>90.8</ele>
        <time>2017-10-16T18:35:24Z</time>
      </trkpt>
      <trkpt lat="62.633682957913" lon="17.982284179072">
        <ele>90.6</ele>
        <time>2017-10-16T18:35:25Z</time>
      </trkpt>
      <trkpt lat="62.633688992881" lon="17.982214693121">
        <ele>90.4</ele>
        <time>2017-10-16T18:35:26Z</time>
      </trkpt>
      <trkpt lat="62.633697290962" lon="17.982152331785">
        <ele>90.4</ele>
        <time>2017-10-16T18:35:27Z</time>
      </trkpt>
      <trkpt lat="62.633703828844" lon="17.982081672368">
        <ele>90.4</ele>
        <time>2017-10-16T18:35:28Z</time>
      </trkpt>
      <trkpt lat="62.633713803305" lon="17.982028782579">
        <ele>90.4</ele>
        <time>2017-10-16T18:35:29Z</time>
      </trkpt>
      <trkpt lat="62.63371841335" lon="17.981961475922">
        <ele>90.2</ele>
        <time>2017-10-16T18:35:30Z</time>
      </trkpt>
      <trkpt lat="62.63371925154" lon="17.981903305536">
        <ele>90.2</ele>
        <time>2017-10-16T18:35:31Z</time>
      </trkpt>
      <trkpt lat="62.633716317875" lon="17.981820660002">
        <ele>90.2</ele>
        <time>2017-10-16T18:35:32Z</time>
      </trkpt>
      <trkpt lat="62.633725202689" lon="17.981746899282">
        <ele>90.4</ele>
        <time>2017-10-16T18:35:33Z</time>
      </trkpt>
      <trkpt lat="62.633733333132" lon="17.981689567086">
        <ele>90.4</ele>
        <time>2017-10-16T18:35:34Z</time>
      </trkpt>
      <trkpt lat="62.633735763883" lon="17.981631480519">
        <ele>90.6</ele>
        <time>2017-10-16T18:35:35Z</time>
      </trkpt>
      <trkpt lat="62.633741212118" lon="17.981560737283">
        <ele>90.6</ele>
        <time>2017-10-16T18:35:36Z</time>
      </trkpt>
      <trkpt lat="62.633747498543" lon="17.981492340979">
        <ele>90.8</ele>
        <time>2017-10-16T18:35:37Z</time>
      </trkpt>
      <trkpt lat="62.633761496316" lon="17.981423441761">
        <ele>90.8</ele>
        <time>2017-10-16T18:35:38Z</time>
      </trkpt>
      <trkpt lat="62.633769291483" lon="17.981363594995">
        <ele>90.8</ele>
        <time>2017-10-16T18:35:39Z</time>
      </trkpt>
      <trkpt lat="62.633781026143" lon="17.981298216175">
        <ele>90.8</ele>
        <time>2017-10-16T18:35:40Z</time>
      </trkpt>
      <trkpt lat="62.633790330052" lon="17.98122655093">
        <ele>90.8</ele>
        <time>2017-10-16T18:35:41Z</time>
      </trkpt>
      <trkpt lat="62.633803657273" lon="17.981164273413">
        <ele>90.8</ele>
        <time>2017-10-16T18:35:42Z</time>
      </trkpt>
      <trkpt lat="62.633826456041" lon="17.981121860999">
        <ele>90.6</ele>
        <time>2017-10-16T18:35:43Z</time>
      </trkpt>
      <trkpt lat="62.633842130194" lon="17.98107483854">
        <ele>90.8</ele>
        <time>2017-10-16T18:35:44Z</time>
      </trkpt>
      <trkpt lat="62.633857217614" lon="17.981027480805">
        <ele>91</ele>
        <time>2017-10-16T18:35:45Z</time>
      </trkpt>
      <trkpt lat="62.633879262011" lon="17.980965119469">
        <ele>91.2</ele>
        <time>2017-10-16T18:35:46Z</time>
      </trkpt>
      <trkpt lat="62.633893846517" lon="17.980909212196">
        <ele>91.2</ele>
        <time>2017-10-16T18:35:47Z</time>
      </trkpt>
      <trkpt lat="62.633916645285" lon="17.980861770642">
        <ele>91.4</ele>
        <time>2017-10-16T18:35:48Z</time>
      </trkpt>
      <trkpt lat="62.63393634275" lon="17.980791949415">
        <ele>91.6</ele>
        <time>2017-10-16T18:35:49Z</time>
      </trkpt>
      <trkpt lat="62.633951178713" lon="17.980744675499">
        <ele>91.6</ele>
        <time>2017-10-16T18:35:50Z</time>
      </trkpt>
      <trkpt lat="62.633970037988" lon="17.980680302507">
        <ele>91.6</ele>
        <time>2017-10-16T18:35:51Z</time>
      </trkpt>
      <trkpt lat="62.633982527019" lon="17.980603105208">
        <ele>91.6</ele>
        <time>2017-10-16T18:35:52Z</time>
      </trkpt>
      <trkpt lat="62.633998787905" lon="17.980553065265">
        <ele>91.6</ele>
        <time>2017-10-16T18:35:53Z</time>
      </trkpt>
      <trkpt lat="62.634016641352" lon="17.98047972364">
        <ele>91.6</ele>
        <time>2017-10-16T18:35:54Z</time>
      </trkpt>
      <trkpt lat="62.634034997713" lon="17.980429348421">
        <ele>91.6</ele>
        <time>2017-10-16T18:35:55Z</time>
      </trkpt>
      <trkpt lat="62.634054192264" lon="17.980364807791">
        <ele>91.4</ele>
        <time>2017-10-16T18:35:56Z</time>
      </trkpt>
      <trkpt lat="62.634067435666" lon="17.980313678201">
        <ele>91.6</ele>
        <time>2017-10-16T18:35:57Z</time>
      </trkpt>
      <trkpt lat="62.634082523086" lon="17.980256262186">
        <ele>91.6</ele>
        <time>2017-10-16T18:35:58Z</time>
      </trkpt>
      <trkpt lat="62.634100795628" lon="17.980209994098">
        <ele>91.6</ele>
        <time>2017-10-16T18:35:59Z</time>
      </trkpt>
      <trkpt lat="62.634114206668" lon="17.980172359367">
        <ele>91.8</ele>
        <time>2017-10-16T18:36:00Z</time>
      </trkpt>
      <trkpt lat="62.634136837798" lon="17.980124247261">
        <ele>91.8</ele>
        <time>2017-10-16T18:36:01Z</time>
      </trkpt>
      <trkpt lat="62.634158295462" lon="17.980082505399">
        <ele>91.8</ele>
        <time>2017-10-16T18:36:02Z</time>
      </trkpt>
      <trkpt lat="62.634171119769" lon="17.980021066072">
        <ele>91.8</ele>
        <time>2017-10-16T18:36:03Z</time>
      </trkpt>
      <trkpt lat="62.634185620456" lon="17.979956106347">
        <ele>91.8</ele>
        <time>2017-10-16T18:36:04Z</time>
      </trkpt>
      <trkpt lat="62.634202468075" lon="17.979899863798">
        <ele>91.8</ele>
        <time>2017-10-16T18:36:05Z</time>
      </trkpt>
      <trkpt lat="62.634227949051" lon="17.979844291801">
        <ele>91.6</ele>
        <time>2017-10-16T18:36:06Z</time>
      </trkpt>
      <trkpt lat="62.634252256561" lon="17.979790312365">
        <ele>91.4</ele>
        <time>2017-10-16T18:36:07Z</time>
      </trkpt>
      <trkpt lat="62.634268517447" lon="17.979727448115">
        <ele>91.2</ele>
        <time>2017-10-16T18:36:08Z</time>
      </trkpt>
      <trkpt lat="62.634283772505" lon="17.979670786471">
        <ele>91</ele>
        <time>2017-10-16T18:36:09Z</time>
      </trkpt>
      <trkpt lat="62.634301123038" lon="17.97961806432">
        <ele>91</ele>
        <time>2017-10-16T18:36:10Z</time>
      </trkpt>
      <trkpt lat="62.634313444431" lon="17.979559642477">
        <ele>90.8</ele>
        <time>2017-10-16T18:36:11Z</time>
      </trkpt>
      <trkpt lat="62.634326268738" lon="17.979500214806">
        <ele>91</ele>
        <time>2017-10-16T18:36:12Z</time>
      </trkpt>
      <trkpt lat="62.634341523796" lon="17.979436260909">
        <ele>90.8</ele>
        <time>2017-10-16T18:36:13Z</time>
      </trkpt>
      <trkpt lat="62.634354431922" lon="17.979369289528">
        <ele>91</ele>
        <time>2017-10-16T18:36:14Z</time>
      </trkpt>
      <trkpt lat="62.634365412211" lon="17.979309023667">
        <ele>91</ele>
        <time>2017-10-16T18:36:15Z</time>
      </trkpt>
      <trkpt lat="62.634381756916" lon="17.979235346766">
        <ele>91</ele>
        <time>2017-10-16T18:36:16Z</time>
      </trkpt>
      <trkpt lat="62.634394078309" lon="17.979185055366">
        <ele>91.2</ele>
        <time>2017-10-16T18:36:17Z</time>
      </trkpt>
      <trkpt lat="62.634412099394" lon="17.979136356527">
        <ele>91.2</ele>
        <time>2017-10-16T18:36:18Z</time>
      </trkpt>
      <trkpt lat="62.634424672244" lon="17.979075084838">
        <ele>91.2</ele>
        <time>2017-10-16T18:36:19Z</time>
      </trkpt>
      <trkpt lat="62.634446465184" lon="17.978968215613">
        <ele>91.4</ele>
        <time>2017-10-16T18:36:21Z</time>
      </trkpt>
      <trkpt lat="62.634451410505" lon="17.978940471524">
        <ele>91.6</ele>
        <time>2017-10-16T18:36:22Z</time>
      </trkpt>
      <trkpt lat="62.63446104969" lon="17.978908285028">
        <ele>92</ele>
        <time>2017-10-16T18:36:24Z</time>
      </trkpt>
      <trkpt lat="62.634467336115" lon="17.978896215092">
        <ele>91.8</ele>
        <time>2017-10-16T18:36:25Z</time>
      </trkpt>
      <trkpt lat="62.634471359427" lon="17.97887961893">
        <ele>92.2</ele>
        <time>2017-10-16T18:36:26Z</time>
      </trkpt>
      <trkpt lat="62.63447781349" lon="17.978861346388">
        <ele>92.4</ele>
        <time>2017-10-16T18:36:27Z</time>
      </trkpt>
      <trkpt lat="62.634487201218" lon="17.978844079674">
        <ele>92.4</ele>
        <time>2017-10-16T18:36:28Z</time>
      </trkpt>
      <trkpt lat="62.634497846231" lon="17.978834775765">
        <ele>92.4</ele>
        <time>2017-10-16T18:36:29Z</time>
      </trkpt>
      <trkpt lat="62.634506731045" lon="17.978833937575">
        <ele>92.4</ele>
        <time>2017-10-16T18:36:30Z</time>
      </trkpt>
      <trkpt lat="62.634516034954" lon="17.978831339186">
        <ele>92.4</ele>
        <time>2017-10-16T18:36:31Z</time>
      </trkpt>
      <trkpt lat="62.634525087406" lon="17.97882597477">
        <ele>92</ele>
        <time>2017-10-16T18:36:32Z</time>
      </trkpt>
      <trkpt lat="62.634531960564" lon="17.97881843106">
        <ele>92</ele>
        <time>2017-10-16T18:36:33Z</time>
      </trkpt>
      <trkpt lat="62.634538833722" lon="17.97881172554">
        <ele>91.8</ele>
        <time>2017-10-16T18:36:34Z</time>
      </trkpt>
      <trkpt lat="62.634541264473" lon="17.978808959513">
        <ele>91.8</ele>
        <time>2017-10-16T18:36:35Z</time>
      </trkpt>
      <trkpt lat="62.634551071296" lon="17.978794291188">
        <ele>91.8</ele>
        <time>2017-10-16T18:36:36Z</time>
      </trkpt>
      <trkpt lat="62.634558363549" lon="17.978787669487">
        <ele>91.8</ele>
        <time>2017-10-16T18:36:37Z</time>
      </trkpt>
      <trkpt lat="62.634564063241" lon="17.978777024474">
        <ele>91.6</ele>
        <time>2017-10-16T18:36:38Z</time>
      </trkpt>
      <trkpt lat="62.634561213395" lon="17.978773504076">
        <ele>91.6</ele>
        <time>2017-10-16T18:36:39Z</time>
      </trkpt>
      <trkpt lat="62.634556854807" lon="17.978778784673">
        <ele>91.8</ele>
        <time>2017-10-16T18:36:40Z</time>
      </trkpt>
      <trkpt lat="62.634481417707" lon="17.97916125077">
        <ele>91.8</ele>
        <time>2017-10-16T18:36:53Z</time>
      </trkpt>
      <trkpt lat="62.634475885653" lon="17.979223025373">
        <ele>91.8</ele>
        <time>2017-10-16T18:36:54Z</time>
      </trkpt>
      <trkpt lat="62.634469263952" lon="17.97929955212">
        <ele>91.6</ele>
        <time>2017-10-16T18:36:55Z</time>
      </trkpt>
      <trkpt lat="62.634456439645" lon="17.979375324496">
        <ele>91.6</ele>
        <time>2017-10-16T18:36:56Z</time>
      </trkpt>
      <trkpt lat="62.634456523464" lon="17.979422430774">
        <ele>91.8</ele>
        <time>2017-10-16T18:36:57Z</time>
      </trkpt>
      <trkpt lat="62.634445878451" lon="17.979514212579">
        <ele>92</ele>
        <time>2017-10-16T18:36:58Z</time>
      </trkpt>
      <trkpt lat="62.634437999465" lon="17.979573975526">
        <ele>92</ele>
        <time>2017-10-16T18:36:59Z</time>
      </trkpt>
      <trkpt lat="62.634429366108" lon="17.979616974673">
        <ele>92</ele>
        <time>2017-10-16T18:37:00Z</time>
      </trkpt>
      <trkpt lat="62.634412853765" lon="17.979678497819">
        <ele>91.8</ele>
        <time>2017-10-16T18:37:01Z</time>
      </trkpt>
      <trkpt lat="62.634393323938" lon="17.979742032621">
        <ele>91.8</ele>
        <time>2017-10-16T18:37:02Z</time>
      </trkpt>
      <trkpt lat="62.634385528771" lon="17.979811183296">
        <ele>91.8</ele>
        <time>2017-10-16T18:37:03Z</time>
      </trkpt>
      <trkpt lat="62.634366837134" lon="17.979881339799">
        <ele>91.8</ele>
        <time>2017-10-16T18:37:04Z</time>
      </trkpt>
      <trkpt lat="62.634348648411" lon="17.979927440249">
        <ele>91.8</ele>
        <time>2017-10-16T18:37:05Z</time>
      </trkpt>
      <trkpt lat="62.634328280394" lon="17.979980497676">
        <ele>91.8</ele>
        <time>2017-10-16T18:37:06Z</time>
      </trkpt>
      <trkpt lat="62.634314450259" lon="17.980030705257">
        <ele>92</ele>
        <time>2017-10-16T18:37:07Z</time>
      </trkpt>
      <trkpt lat="62.634295171889" lon="17.98008493615">
        <ele>92</ele>
        <time>2017-10-16T18:37:08Z</time>
      </trkpt>
      <trkpt lat="62.6342674278" lon="17.980136820111">
        <ele>91.8</ele>
        <time>2017-10-16T18:37:09Z</time>
      </trkpt>
      <trkpt lat="62.634245718679" lon="17.9801897099">
        <ele>92</ele>
        <time>2017-10-16T18:37:10Z</time>
      </trkpt>
      <trkpt lat="62.63422132735" lon="17.980257435652">
        <ele>92</ele>
        <time>2017-10-16T18:37:11Z</time>
      </trkpt>
      <trkpt lat="62.634206826663" lon="17.980293561641">
        <ele>92</ele>
        <time>2017-10-16T18:37:12Z</time>
      </trkpt>
      <trkpt lat="62.63418947613" lon="17.9803573479">
        <ele>92</ele>
        <time>2017-10-16T18:37:13Z</time>
      </trkpt>
      <trkpt lat="62.63416600681" lon="17.980412249345">
        <ele>92</ele>
        <time>2017-10-16T18:37:14Z</time>
      </trkpt>
      <trkpt lat="62.634149159191" lon="17.980460361451">
        <ele>91.8</ele>
        <time>2017-10-16T18:37:15Z</time>
      </trkpt>
      <trkpt lat="62.63413834654" lon="17.98051828038">
        <ele>92</ele>
        <time>2017-10-16T18:37:16Z</time>
      </trkpt>
      <trkpt lat="62.634121331283" lon="17.980566979219">
        <ele>92</ele>
        <time>2017-10-16T18:37:17Z</time>
      </trkpt>
      <trkpt lat="62.634105992406" lon="17.980625233424">
        <ele>92</ele>
        <time>2017-10-16T18:37:18Z</time>
      </trkpt>
      <trkpt lat="62.634087049312" lon="17.98068340381">
        <ele>92</ele>
        <time>2017-10-16T18:37:19Z</time>
      </trkpt>
      <trkpt lat="62.634073302996" lon="17.980740568368">
        <ele>92</ele>
        <time>2017-10-16T18:37:20Z</time>
      </trkpt>
      <trkpt lat="62.634049917495" lon="17.980806785378">
        <ele>92</ele>
        <time>2017-10-16T18:37:21Z</time>
      </trkpt>
      <trkpt lat="62.634030303849" lon="17.98086529104">
        <ele>92</ele>
        <time>2017-10-16T18:37:22Z</time>
      </trkpt>
      <trkpt lat="62.63401261804" lon="17.980920779218">
        <ele>91.8</ele>
        <time>2017-10-16T18:37:23Z</time>
      </trkpt>
      <trkpt lat="62.633990908919" lon="17.98097677031">
        <ele>91.8</ele>
        <time>2017-10-16T18:37:24Z</time>
      </trkpt>
      <trkpt lat="62.63396903216" lon="17.981026726434">
        <ele>91.6</ele>
        <time>2017-10-16T18:37:25Z</time>
      </trkpt>
      <trkpt lat="62.633946820125" lon="17.981082214612">
        <ele>91.6</ele>
        <time>2017-10-16T18:37:26Z</time>
      </trkpt>
      <trkpt lat="62.63393382818" lon="17.981136780781">
        <ele>91.4</ele>
        <time>2017-10-16T18:37:27Z</time>
      </trkpt>
      <trkpt lat="62.633920836235" lon="17.981208026931">
        <ele>91.2</ele>
        <time>2017-10-16T18:37:28Z</time>
      </trkpt>
      <trkpt lat="62.63390616791" lon="17.981274663036">
        <ele>91.2</ele>
        <time>2017-10-16T18:37:29Z</time>
      </trkpt>
      <trkpt lat="62.633899630028" lon="17.981327720463">
        <ele>91.2</ele>
        <time>2017-10-16T18:37:30Z</time>
      </trkpt>
      <trkpt lat="62.63388353678" lon="17.981405253038">
        <ele>90.8</ele>
        <time>2017-10-16T18:37:31Z</time>
      </trkpt>
      <trkpt lat="62.63387180212" lon="17.981481779785">
        <ele>90.8</ele>
        <time>2017-10-16T18:37:32Z</time>
      </trkpt>
      <trkpt lat="62.633861660021" lon="17.981546571872">
        <ele>90.8</ele>
        <time>2017-10-16T18:37:33Z</time>
      </trkpt>
      <trkpt lat="62.633851517922" lon="17.981621506058">
        <ele>90.4</ele>
        <time>2017-10-16T18:37:34Z</time>
      </trkpt>
      <trkpt lat="62.633843471298" lon="17.981683196842">
        <ele>90.6</ele>
        <time>2017-10-16T18:37:35Z</time>
      </trkpt>
      <trkpt lat="62.633834335027" lon="17.9817571252">
        <ele>90.6</ele>
        <time>2017-10-16T18:37:36Z</time>
      </trkpt>
      <trkpt lat="62.633825953127" lon="17.981828036074">
        <ele>90.4</ele>
        <time>2017-10-16T18:37:37Z</time>
      </trkpt>
      <trkpt lat="62.633817822684" lon="17.981889307763">
        <ele>90.4</ele>
        <time>2017-10-16T18:37:38Z</time>
      </trkpt>
      <trkpt lat="62.633800053056" lon="17.981953932212">
        <ele>90.4</ele>
        <time>2017-10-16T18:37:39Z</time>
      </trkpt>
      <trkpt lat="62.633789575681" lon="17.982014617168">
        <ele>90.4</ele>
        <time>2017-10-16T18:37:40Z</time>
      </trkpt>
      <trkpt lat="62.633775074994" lon="17.982079576893">
        <ele>90.4</ele>
        <time>2017-10-16T18:37:41Z</time>
      </trkpt>
      <trkpt lat="62.633769375302" lon="17.982145877722">
        <ele>90.4</ele>
        <time>2017-10-16T18:37:42Z</time>
      </trkpt>
      <trkpt lat="62.633761244859" lon="17.982215531311">
        <ele>90.4</ele>
        <time>2017-10-16T18:37:43Z</time>
      </trkpt>
      <trkpt lat="62.633748252914" lon="17.982288872936">
        <ele>90.4</ele>
        <time>2017-10-16T18:37:44Z</time>
      </trkpt>
      <trkpt lat="62.633738865186" lon="17.98234050544">
        <ele>90.4</ele>
        <time>2017-10-16T18:37:45Z</time>
      </trkpt>
      <trkpt lat="62.633726627612" lon="17.982423821526">
        <ele>90.2</ele>
        <time>2017-10-16T18:37:46Z</time>
      </trkpt>
      <trkpt lat="62.633721095558" lon="17.982485093215">
        <ele>90.4</ele>
        <time>2017-10-16T18:37:47Z</time>
      </trkpt>
      <trkpt lat="62.633717156065" lon="17.982544688524">
        <ele>90.2</ele>
        <time>2017-10-16T18:37:48Z</time>
      </trkpt>
      <trkpt lat="62.633703661206" lon="17.98261040262">
        <ele>90.2</ele>
        <time>2017-10-16T18:37:49Z</time>
      </trkpt>
      <trkpt lat="62.633695111668" lon="17.982665890798">
        <ele>90.2</ele>
        <time>2017-10-16T18:37:50Z</time>
      </trkpt>
      <trkpt lat="62.633683377008" lon="17.982737556043">
        <ele>90.2</ele>
        <time>2017-10-16T18:37:51Z</time>
      </trkpt>
      <trkpt lat="62.633667870493" lon="17.982803940691">
        <ele>90</ele>
        <time>2017-10-16T18:37:52Z</time>
      </trkpt>
      <trkpt lat="62.633656554928" lon="17.982862194896">
        <ele>90.2</ele>
        <time>2017-10-16T18:37:53Z</time>
      </trkpt>
      <trkpt lat="62.633652112521" lon="17.982901506007">
        <ele>90.2</ele>
        <time>2017-10-16T18:37:54Z</time>
      </trkpt>
      <trkpt lat="62.633629732848" lon="17.982977110745">
        <ele>90.4</ele>
        <time>2017-10-16T18:37:56Z</time>
      </trkpt>
      <trkpt lat="62.633623194966" lon="17.983006531214">
        <ele>90.4</ele>
        <time>2017-10-16T18:37:57Z</time>
      </trkpt>
      <trkpt lat="62.633613555781" lon="17.983048356895">
        <ele>90.4</ele>
        <time>2017-10-16T18:37:58Z</time>
      </trkpt>
      <trkpt lat="62.633592768669" lon="17.983117339932">
        <ele>90.4</ele>
        <time>2017-10-16T18:37:59Z</time>
      </trkpt>
      <trkpt lat="62.633582878027" lon="17.983158075966">
        <ele>90.4</ele>
        <time>2017-10-16T18:38:00Z</time>
      </trkpt>
      <trkpt lat="62.633572065376" lon="17.983205936615">
        <ele>90.6</ele>
        <time>2017-10-16T18:38:01Z</time>
      </trkpt>
      <trkpt lat="62.633565778951" lon="17.983256982386">
        <ele>90.4</ele>
        <time>2017-10-16T18:38:02Z</time>
      </trkpt>
      <trkpt lat="62.633556726499" lon="17.983292521642">
        <ele>90.4</ele>
        <time>2017-10-16T18:38:03Z</time>
      </trkpt>
      <trkpt lat="62.633549685703" lon="17.983339376463">
        <ele>90.4</ele>
        <time>2017-10-16T18:38:04Z</time>
      </trkpt>
      <trkpt lat="62.633545830029" lon="17.983366533819">
        <ele>90.2</ele>
        <time>2017-10-16T18:38:05Z</time>
      </trkpt>
      <trkpt lat="62.633541974355" lon="17.983396541021">
        <ele>90.2</ele>
        <time>2017-10-16T18:38:06Z</time>
      </trkpt>
      <trkpt lat="62.633535185016" lon="17.983419088332">
        <ele>90</ele>
        <time>2017-10-16T18:38:07Z</time>
      </trkpt>
      <trkpt lat="62.633529401505" lon="17.983444485489">
        <ele>90</ele>
        <time>2017-10-16T18:38:08Z</time>
      </trkpt>
      <trkpt lat="62.633519846139" lon="17.983473067768">
        <ele>89.8</ele>
        <time>2017-10-16T18:38:09Z</time>
      </trkpt>
      <trkpt lat="62.633516744836" lon="17.983495782717">
        <ele>89.8</ele>
        <time>2017-10-16T18:38:10Z</time>
      </trkpt>
      <trkpt lat="62.633513392076" lon="17.983515312544">
        <ele>89.6</ele>
        <time>2017-10-16T18:38:11Z</time>
      </trkpt>
      <trkpt lat="62.633511296601" lon="17.983536267294">
        <ele>89.6</ele>
        <time>2017-10-16T18:38:12Z</time>
      </trkpt>
      <trkpt lat="62.633511045144" lon="17.983560155709">
        <ele>89.6</ele>
        <time>2017-10-16T18:38:13Z</time>
      </trkpt>
      <trkpt lat="62.633511715696" lon="17.983577422423">
        <ele>89.6</ele>
        <time>2017-10-16T18:38:14Z</time>
      </trkpt>
      <trkpt lat="62.633520349053" lon="17.98354330809">
        <ele>89.6</ele>
        <time>2017-10-16T18:38:15Z</time>
      </trkpt>
      <trkpt lat="62.633556726499" lon="17.983313141116">
        <ele>90</ele>
        <time>2017-10-16T18:38:21Z</time>
      </trkpt>
      <trkpt lat="62.633567120055" lon="17.983250276866">
        <ele>89.8</ele>
        <time>2017-10-16T18:38:22Z</time>
      </trkpt>
      <trkpt lat="62.633579525267" lon="17.983177102879">
        <ele>89.6</ele>
        <time>2017-10-16T18:38:23Z</time>
      </trkpt>
      <trkpt lat="62.633585727873" lon="17.983107952204">
        <ele>89.6</ele>
        <time>2017-10-16T18:38:24Z</time>
      </trkpt>
      <trkpt lat="62.633596456705" lon="17.983049362723">
        <ele>89.6</ele>
        <time>2017-10-16T18:38:25Z</time>
      </trkpt>
      <trkpt lat="62.633606179709" lon="17.982968142112">
        <ele>89.4</ele>
        <time>2017-10-16T18:38:26Z</time>
      </trkpt>
      <trkpt lat="62.633617495274" lon="17.982913492124">
        <ele>89.4</ele>
        <time>2017-10-16T18:38:27Z</time>
      </trkpt>
      <trkpt lat="62.633633169427" lon="17.982843670897">
        <ele>89.6</ele>
        <time>2017-10-16T18:38:28Z</time>
      </trkpt>
      <trkpt lat="62.633643143888" lon="17.982787679805">
        <ele>89.6</ele>
        <time>2017-10-16T18:38:29Z</time>
      </trkpt>
      <trkpt lat="62.633653453625" lon="17.982724564098">
        <ele>89.4</ele>
        <time>2017-10-16T18:38:30Z</time>
      </trkpt>
      <trkpt lat="62.633660745878" lon="17.982654072319">
        <ele>89.4</ele>
        <time>2017-10-16T18:38:31Z</time>
      </trkpt>
      <trkpt lat="62.633668792502" lon="17.982608810059">
        <ele>89.6</ele>
        <time>2017-10-16T18:38:32Z</time>
      </trkpt>
      <trkpt lat="62.633685053388" lon="17.982536977176">
        <ele>89.6</ele>
        <time>2017-10-16T18:38:33Z</time>
      </trkpt>
      <trkpt lat="62.633694524935" lon="17.982465479569">
        <ele>89.4</ele>
        <time>2017-10-16T18:38:34Z</time>
      </trkpt>
      <trkpt lat="62.633704499396" lon="17.982394401057">
        <ele>89.6</ele>
        <time>2017-10-16T18:38:35Z</time>
      </trkpt>
      <trkpt lat="62.633721179377" lon="17.982322568174">
        <ele>89.6</ele>
        <time>2017-10-16T18:38:36Z</time>
      </trkpt>
      <trkpt lat="62.633720676463" lon="17.982257273173">
        <ele>89.8</ele>
        <time>2017-10-16T18:38:37Z</time>
      </trkpt>
      <trkpt lat="62.633723945404" lon="17.982182003711">
        <ele>89.8</ele>
        <time>2017-10-16T18:38:38Z</time>
      </trkpt>
      <trkpt lat="62.633730483286" lon="17.982120732022">
        <ele>89.6</ele>
        <time>2017-10-16T18:38:39Z</time>
      </trkpt>
      <trkpt lat="62.633736266797" lon="17.982052084261">
        <ele>89.6</ele>
        <time>2017-10-16T18:38:40Z</time>
      </trkpt>
      <trkpt lat="62.633740793023" lon="17.981968684356">
        <ele>89.6</ele>
        <time>2017-10-16T18:38:41Z</time>
      </trkpt>
      <trkpt lat="62.633741631213" lon="17.981885955003">
        <ele>89.6</ele>
        <time>2017-10-16T18:38:42Z</time>
      </trkpt>
      <trkpt lat="62.633748420552" lon="17.981816888147">
        <ele>89.6</ele>
        <time>2017-10-16T18:38:43Z</time>
      </trkpt>
      <trkpt lat="62.633746576534" lon="17.981753101888">
        <ele>89.8</ele>
        <time>2017-10-16T18:38:44Z</time>
      </trkpt>
      <trkpt lat="62.633746744172" lon="17.981687387792">
        <ele>89.8</ele>
        <time>2017-10-16T18:38:45Z</time>
      </trkpt>
      <trkpt lat="62.6337561319" lon="17.981617398927">
        <ele>90.2</ele>
        <time>2017-10-16T18:38:46Z</time>
      </trkpt>
      <trkpt lat="62.633756215719" lon="17.981563000396">
        <ele>90.2</ele>
        <time>2017-10-16T18:38:47Z</time>
      </trkpt>
      <trkpt lat="62.633756718633" lon="17.981480187224">
        <ele>90.2</ele>
        <time>2017-10-16T18:38:48Z</time>
      </trkpt>
      <trkpt lat="62.633761831592" lon="17.98141179092">
        <ele>90.4</ele>
        <time>2017-10-16T18:38:49Z</time>
      </trkpt>
      <trkpt lat="62.633772728062" lon="17.981349848679">
        <ele>90.4</ele>
        <time>2017-10-16T18:38:50Z</time>
      </trkpt>
      <trkpt lat="62.633785803826" lon="17.981285308049">
        <ele>90.4</ele>
        <time>2017-10-16T18:38:51Z</time>
      </trkpt>
      <trkpt lat="62.633795694468" lon="17.981225126007">
        <ele>90.6</ele>
        <time>2017-10-16T18:38:52Z</time>
      </trkpt>
      <trkpt lat="62.633811284802" lon="17.981159244273">
        <ele>90.6</ele>
        <time>2017-10-16T18:38:53Z</time>
      </trkpt>
      <trkpt lat="62.633828467697" lon="17.981094703643">
        <ele>90.6</ele>
        <time>2017-10-16T18:38:54Z</time>
      </trkpt>
      <trkpt lat="62.633841711099" lon="17.981039802198">
        <ele>90.6</ele>
        <time>2017-10-16T18:38:55Z</time>
      </trkpt>
      <trkpt lat="62.633856379424" lon="17.980973669007">
        <ele>90.6</ele>
        <time>2017-10-16T18:38:56Z</time>
      </trkpt>
      <trkpt lat="62.633873143224" lon="17.980932849154">
        <ele>90.8</ele>
        <time>2017-10-16T18:38:57Z</time>
      </trkpt>
      <trkpt lat="62.63389610963" lon="17.980898986278">
        <ele>90.8</ele>
        <time>2017-10-16T18:38:58Z</time>
      </trkpt>
      <trkpt lat="62.633913376344" lon="17.980854729846">
        <ele>90.8</ele>
        <time>2017-10-16T18:38:59Z</time>
      </trkpt>
      <trkpt lat="62.63392963723" lon="17.980811395423">
        <ele>91</ele>
        <time>2017-10-16T18:39:00Z</time>
      </trkpt>
      <trkpt lat="62.633948496505" lon="17.980763702412">
        <ele>91.2</ele>
        <time>2017-10-16T18:39:01Z</time>
      </trkpt>
      <trkpt lat="62.633964505934" lon="17.98071274046">
        <ele>91.2</ele>
        <time>2017-10-16T18:39:02Z</time>
      </trkpt>
      <trkpt lat="62.6339824432" lon="17.980657503739">
        <ele>91.2</ele>
        <time>2017-10-16T18:39:03Z</time>
      </trkpt>
      <trkpt lat="62.634000296647" lon="17.98060377576">
        <ele>91.2</ele>
        <time>2017-10-16T18:39:04Z</time>
      </trkpt>
      <trkpt lat="62.634009013823" lon="17.980543006985">
        <ele>91.2</ele>
        <time>2017-10-16T18:39:05Z</time>
      </trkpt>
      <trkpt lat="62.634029968573" lon="17.980470838826">
        <ele>91.2</ele>
        <time>2017-10-16T18:39:06Z</time>
      </trkpt>
      <trkpt lat="62.634045894183" lon="17.980424654557">
        <ele>91</ele>
        <time>2017-10-16T18:39:07Z</time>
      </trkpt>
      <trkpt lat="62.634061484517" lon="17.980374446976">
        <ele>91.2</ele>
        <time>2017-10-16T18:39:08Z</time>
      </trkpt>
      <trkpt lat="62.634080427611" lon="17.980323987938">
        <ele>91.4</ele>
        <time>2017-10-16T18:39:09Z</time>
      </trkpt>
      <trkpt lat="62.634103477836" lon="17.980276294927">
        <ele>91.6</ele>
        <time>2017-10-16T18:39:10Z</time>
      </trkpt>
      <trkpt lat="62.634117727066" lon="17.980210161736">
        <ele>91.8</ele>
        <time>2017-10-16T18:39:11Z</time>
      </trkpt>
      <trkpt lat="62.634133568857" lon="17.980167749322">
        <ele>92</ele>
        <time>2017-10-16T18:39:12Z</time>
      </trkpt>
      <trkpt lat="62.634155194159" lon="17.980114943352">
        <ele>91.8</ele>
        <time>2017-10-16T18:39:13Z</time>
      </trkpt>
      <trkpt lat="62.634173885796" lon="17.980059036079">
        <ele>91.8</ele>
        <time>2017-10-16T18:39:14Z</time>
      </trkpt>
      <trkpt lat="62.634199366772" lon="17.980022490995">
        <ele>91.6</ele>
        <time>2017-10-16T18:39:15Z</time>
      </trkpt>
      <trkpt lat="62.634220824436" lon="17.97996423679">
        <ele>91.6</ele>
        <time>2017-10-16T18:39:16Z</time>
      </trkpt>
      <trkpt lat="62.634236917684" lon="17.979922075833">
        <ele>91.4</ele>
        <time>2017-10-16T18:39:17Z</time>
      </trkpt>
      <trkpt lat="62.634257704796" lon="17.979859798316">
        <ele>91.4</ele>
        <time>2017-10-16T18:39:18Z</time>
      </trkpt>
      <trkpt lat="62.634269020361" lon="17.979804393957">
        <ele>91.4</ele>
        <time>2017-10-16T18:39:19Z</time>
      </trkpt>
      <trkpt lat="62.634276312614" lon="17.979753934919">
        <ele>91.2</ele>
        <time>2017-10-16T18:39:20Z</time>
      </trkpt>
      <trkpt lat="62.634297015907" lon="17.979699620207">
        <ele>91</ele>
        <time>2017-10-16T18:39:21Z</time>
      </trkpt>
      <trkpt lat="62.634307241825" lon="17.979629547523">
        <ele>91</ele>
        <time>2017-10-16T18:39:22Z</time>
      </trkpt>
      <trkpt lat="62.634319479399" lon="17.979568946386">
        <ele>91</ele>
        <time>2017-10-16T18:39:23Z</time>
      </trkpt>
      <trkpt lat="62.634333393353" lon="17.979514715493">
        <ele>91</ele>
        <time>2017-10-16T18:39:24Z</time>
      </trkpt>
      <trkpt lat="62.634345128013" lon="17.979458724401">
        <ele>90.8</ele>
        <time>2017-10-16T18:39:25Z</time>
      </trkpt>
      <trkpt lat="62.634351917352" lon="17.979389154631">
        <ele>90.8</ele>
        <time>2017-10-16T18:39:26Z</time>
      </trkpt>
      <trkpt lat="62.634364909297" lon="17.979335845747">
        <ele>91</ele>
        <time>2017-10-16T18:39:27Z</time>
      </trkpt>
      <trkpt lat="62.63438058345" lon="17.97926686271">
        <ele>90.8</ele>
        <time>2017-10-16T18:39:29Z</time>
      </trkpt>
      <trkpt lat="62.634386618418" lon="17.979243309571">
        <ele>91</ele>
        <time>2017-10-16T18:39:30Z</time>
      </trkpt>
      <trkpt lat="62.63439147992" lon="17.979217912414">
        <ele>91.2</ele>
        <time>2017-10-16T18:39:31Z</time>
      </trkpt>
      <trkpt lat="62.634391899015" lon="17.979197712035">
        <ele>91.2</ele>
        <time>2017-10-16T18:39:32Z</time>
      </trkpt>
      <trkpt lat="62.634395335594" lon="17.979173739801">
        <ele>91.4</ele>
        <time>2017-10-16T18:39:33Z</time>
      </trkpt>
      <trkpt lat="62.63440321458" lon="17.97915119249">
        <ele>91.6</ele>
        <time>2017-10-16T18:39:34Z</time>
      </trkpt>
      <trkpt lat="62.634407154073" lon="17.979137027079">
        <ele>91.4</ele>
        <time>2017-10-16T18:39:35Z</time>
      </trkpt>
      <trkpt lat="62.634410925928" lon="17.979115401777">
        <ele>91.4</ele>
        <time>2017-10-16T18:39:36Z</time>
      </trkpt>
      <trkpt lat="62.634412350851" lon="17.9791000629">
        <ele>91.2</ele>
        <time>2017-10-16T18:39:37Z</time>
      </trkpt>
      <trkpt lat="62.634411847937" lon="17.97908749005">
        <ele>91.2</ele>
        <time>2017-10-16T18:39:38Z</time>
      </trkpt>
      <trkpt lat="62.634415116878" lon="17.979072654087">
        <ele>91</ele>
        <time>2017-10-16T18:39:39Z</time>
      </trkpt>
      <trkpt lat="62.634418553457" lon="17.979060751789">
        <ele>91</ele>
        <time>2017-10-16T18:39:40Z</time>
      </trkpt>
      <trkpt lat="62.634427270633" lon="17.97905647702">
        <ele>91</ele>
        <time>2017-10-16T18:39:41Z</time>
      </trkpt>
      <trkpt lat="62.634425678072" lon="17.979058237219">
        <ele>91</ele>
        <time>2017-10-16T18:39:42Z</time>
      </trkpt>
      <trkpt lat="62.63442500752" lon="17.979055890287">
        <ele>91</ele>
        <time>2017-10-16T18:39:43Z</time>
      </trkpt>
      <trkpt lat="62.634395922327" lon="17.979407008078">
        <ele>91.4</ele>
        <time>2017-10-16T18:39:52Z</time>
      </trkpt>
      <trkpt lat="62.634389132988" lon="17.979468195948">
        <ele>91.2</ele>
        <time>2017-10-16T18:39:53Z</time>
      </trkpt>
      <trkpt lat="62.634382008373" lon="17.979542208125">
        <ele>91.2</ele>
        <time>2017-10-16T18:39:54Z</time>
      </trkpt>
      <trkpt lat="62.634374632301" lon="17.979592583344">
        <ele>91.4</ele>
        <time>2017-10-16T18:39:55Z</time>
      </trkpt>
      <trkpt lat="62.634368764971" lon="17.979647233332">
        <ele>91.4</ele>
        <time>2017-10-16T18:39:56Z</time>
      </trkpt>
      <trkpt lat="62.634361221261" lon="17.9797119416">
        <ele>91.2</ele>
        <time>2017-10-16T18:39:57Z</time>
      </trkpt>
      <trkpt lat="62.634350324791" lon="17.979767848873">
        <ele>91.4</ele>
        <time>2017-10-16T18:39:58Z</time>
      </trkpt>
      <trkpt lat="62.634341104701" lon="17.979806321794">
        <ele>91.4</ele>
        <time>2017-10-16T18:39:59Z</time>
      </trkpt>
      <trkpt lat="62.634330208231" lon="17.979873041718">
        <ele>91.2</ele>
        <time>2017-10-16T18:40:00Z</time>
      </trkpt>
      <trkpt lat="62.634311348956" lon="17.979934564864">
        <ele>91.4</ele>
        <time>2017-10-16T18:40:01Z</time>
      </trkpt>
      <trkpt lat="62.6343093373" lon="17.979973624518">
        <ele>91.4</ele>
        <time>2017-10-16T18:40:02Z</time>
      </trkpt>
      <trkpt lat="62.634298273192" lon="17.980013438543">
        <ele>91.2</ele>
        <time>2017-10-16T18:40:03Z</time>
      </trkpt>
      <trkpt lat="62.634281928487" lon="17.980044954487">
        <ele>91.2</ele>
        <time>2017-10-16T18:40:04Z</time>
      </trkpt>
      <trkpt lat="62.634260889918" lon="17.980101197036">
        <ele>91.4</ele>
        <time>2017-10-16T18:40:05Z</time>
      </trkpt>
      <trkpt lat="62.634232810553" lon="17.980151572255">
        <ele>91.4</ele>
        <time>2017-10-16T18:40:06Z</time>
      </trkpt>
      <trkpt lat="62.634217890771" lon="17.980197085972">
        <ele>91.2</ele>
        <time>2017-10-16T18:40:07Z</time>
      </trkpt>
      <trkpt lat="62.634203892998" lon="17.980243521698">
        <ele>91.4</ele>
        <time>2017-10-16T18:40:08Z</time>
      </trkpt>
      <trkpt lat="62.63419282889" lon="17.980282916628">
        <ele>91.4</ele>
        <time>2017-10-16T18:40:09Z</time>
      </trkpt>
      <trkpt lat="62.634177322375" lon="17.980331615467">
        <ele>91.4</ele>
        <time>2017-10-16T18:40:10Z</time>
      </trkpt>
      <trkpt lat="62.63416265405" lon="17.980394312079">
        <ele>91.4</ele>
        <time>2017-10-16T18:40:11Z</time>
      </trkpt>
      <trkpt lat="62.634143208042" lon="17.980475281233">
        <ele>91.4</ele>
        <time>2017-10-16T18:40:12Z</time>
      </trkpt>
      <trkpt lat="62.63412577369" lon="17.980539570406">
        <ele>91.4</ele>
        <time>2017-10-16T18:40:13Z</time>
      </trkpt>
      <trkpt lat="62.63410481894" lon="17.98060377576">
        <ele>91.4</ele>
        <time>2017-10-16T18:40:14Z</time>
      </trkpt>
      <trkpt lat="62.634098867791" lon="17.980660521223">
        <ele>91.4</ele>
        <time>2017-10-16T18:40:15Z</time>
      </trkpt>
      <trkpt lat="62.634086043484" lon="17.980716512315">
        <ele>91.2</ele>
        <time>2017-10-16T18:40:16Z</time>
      </trkpt>
      <trkpt lat="62.634075733747" lon="17.980767390448">
        <ele>91.2</ele>
        <time>2017-10-16T18:40:17Z</time>
      </trkpt>
      <trkpt lat="62.63406290944" lon="17.980822794807">
        <ele>91.4</ele>
        <time>2017-10-16T18:40:18Z</time>
      </trkpt>
      <trkpt lat="62.634052934979" lon="17.980874343492">
        <ele>91.4</ele>
        <time>2017-10-16T18:40:19Z</time>
      </trkpt>
      <trkpt lat="62.634035835903" lon="17.980933268249">
        <ele>91.2</ele>
        <time>2017-10-16T18:40:20Z</time>
      </trkpt>
      <trkpt lat="62.634005828701" lon="17.98103209085">
        <ele>91.2</ele>
        <time>2017-10-16T18:40:21Z</time>
      </trkpt>
      <trkpt lat="62.63399417786" lon="17.981091434702">
        <ele>91.2</ele>
        <time>2017-10-16T18:40:22Z</time>
      </trkpt>
      <trkpt lat="62.633980934458" lon="17.981162345576">
        <ele>91</ele>
        <time>2017-10-16T18:40:23Z</time>
      </trkpt>
      <trkpt lat="62.633965930857" lon="17.981226215654">
        <ele>90.8</ele>
        <time>2017-10-16T18:40:24Z</time>
      </trkpt>
      <trkpt lat="62.633959057699" lon="17.981282793479">
        <ele>90.8</ele>
        <time>2017-10-16T18:40:25Z</time>
      </trkpt>
      <trkpt lat="62.633944054098" lon="17.981353285258">
        <ele>90.8</ele>
        <time>2017-10-16T18:40:26Z</time>
      </trkpt>
      <trkpt lat="62.633923015529" lon="17.981425621055">
        <ele>90.4</ele>
        <time>2017-10-16T18:40:27Z</time>
      </trkpt>
      <trkpt lat="62.63390952067" lon="17.981493430626">
        <ele>90.4</ele>
        <time>2017-10-16T18:40:28Z</time>
      </trkpt>
      <trkpt lat="62.633903904797" lon="17.981572471943">
        <ele>90.4</ele>
        <time>2017-10-16T18:40:29Z</time>
      </trkpt>
      <trkpt lat="62.633902647512" lon="17.981652099993">
        <ele>90.4</ele>
        <time>2017-10-16T18:40:30Z</time>
      </trkpt>
      <trkpt lat="62.633890912852" lon="17.981735080803">
        <ele>90.2</ele>
        <time>2017-10-16T18:40:31Z</time>
      </trkpt>
      <trkpt lat="62.633880016382" lon="17.981809428256">
        <ele>90.2</ele>
        <time>2017-10-16T18:40:32Z</time>
      </trkpt>
      <trkpt lat="62.633867778808" lon="17.981884194804">
        <ele>90.2</ele>
        <time>2017-10-16T18:40:33Z</time>
      </trkpt>
      <trkpt lat="62.633855960329" lon="17.98196080537">
        <ele>90.4</ele>
        <time>2017-10-16T18:40:34Z</time>
      </trkpt>
      <trkpt lat="62.633847829886" lon="17.982025178362">
        <ele>90.4</ele>
        <time>2017-10-16T18:40:35Z</time>
      </trkpt>
      <trkpt lat="62.633837017235" lon="17.982108745905">
        <ele>90.2</ele>
        <time>2017-10-16T18:40:36Z</time>
      </trkpt>
      <trkpt lat="62.633832574828" lon="17.982162138608">
        <ele>90.4</ele>
        <time>2017-10-16T18:40:37Z</time>
      </trkpt>
      <trkpt lat="62.633819163788" lon="17.982223494116">
        <ele>90.4</ele>
        <time>2017-10-16T18:40:38Z</time>
      </trkpt>
      <trkpt lat="62.633814721381" lon="17.98228686128">
        <ele>90</ele>
        <time>2017-10-16T18:40:39Z</time>
      </trkpt>
      <trkpt lat="62.633806255662" lon="17.98235140191">
        <ele>90</ele>
        <time>2017-10-16T18:40:40Z</time>
      </trkpt>
      <trkpt lat="62.633794101907" lon="17.982421306956">
        <ele>90.2</ele>
        <time>2017-10-16T18:40:41Z</time>
      </trkpt>
      <trkpt lat="62.633777841021" lon="17.982482913921">
        <ele>90</ele>
        <time>2017-10-16T18:40:42Z</time>
      </trkpt>
      <trkpt lat="62.633763759429" lon="17.98255508208">
        <ele>90</ele>
        <time>2017-10-16T18:40:43Z</time>
      </trkpt>
      <trkpt lat="62.633753952606" lon="17.982604367652">
        <ele>90</ele>
        <time>2017-10-16T18:40:44Z</time>
      </trkpt>
      <trkpt lat="62.633733752227" lon="17.982662705676">
        <ele>90</ele>
        <time>2017-10-16T18:40:45Z</time>
      </trkpt>
      <trkpt lat="62.633717910436" lon="17.982716182198">
        <ele>90</ele>
        <time>2017-10-16T18:40:46Z</time>
      </trkpt>
      <trkpt lat="62.633707433061" lon="17.982766557417">
        <ele>90</ele>
        <time>2017-10-16T18:40:47Z</time>
      </trkpt>
      <trkpt lat="62.633696871867" lon="17.982815926808">
        <ele>90</ele>
        <time>2017-10-16T18:40:48Z</time>
      </trkpt>
      <trkpt lat="62.633682035904" lon="17.982880970352">
        <ele>90</ele>
        <time>2017-10-16T18:40:49Z</time>
      </trkpt>
      <trkpt lat="62.633666529389" lon="17.982930339743">
        <ele>89.8</ele>
        <time>2017-10-16T18:40:50Z</time>
      </trkpt>
      <trkpt lat="62.633652112521" lon="17.982992533441">
        <ele>90</ele>
        <time>2017-10-16T18:40:51Z</time>
      </trkpt>
      <trkpt lat="62.633636019273" lon="17.983053302216">
        <ele>90</ele>
        <time>2017-10-16T18:40:52Z</time>
      </trkpt>
      <trkpt lat="62.633625625717" lon="17.983106694919">
        <ele>90</ele>
        <time>2017-10-16T18:40:53Z</time>
      </trkpt>
      <trkpt lat="62.633608442822" lon="17.983162937468">
        <ele>90</ele>
        <time>2017-10-16T18:40:54Z</time>
      </trkpt>
      <trkpt lat="62.633596205248" lon="17.983222029863">
        <ele>90</ele>
        <time>2017-10-16T18:40:55Z</time>
      </trkpt>
      <trkpt lat="62.633580782552" lon="17.983282547181">
        <ele>90.2</ele>
        <time>2017-10-16T18:40:56Z</time>
      </trkpt>
      <trkpt lat="62.633568796435" lon="17.983341891033">
        <ele>90</ele>
        <time>2017-10-16T18:40:57Z</time>
      </trkpt>
      <trkpt lat="62.633553625196" lon="17.98342093235">
        <ele>90</ele>
        <time>2017-10-16T18:40:58Z</time>
      </trkpt>
      <trkpt lat="62.633539375966" lon="17.983468206266">
        <ele>90</ele>
        <time>2017-10-16T18:40:59Z</time>
      </trkpt>
      <trkpt lat="62.633529485324" lon="17.983509612852">
        <ele>90</ele>
        <time>2017-10-16T18:41:01Z</time>
      </trkpt>
      <trkpt lat="62.633531580799" lon="17.983504080798">
        <ele>90.2</ele>
        <time>2017-10-16T18:41:02Z</time>
      </trkpt>
      <trkpt lat="62.633538873052" lon="17.983531405792">
        <ele>90.4</ele>
        <time>2017-10-16T18:41:05Z</time>
      </trkpt>
      <trkpt lat="62.63354490802" lon="17.983547834316">
        <ele>90.4</ele>
        <time>2017-10-16T18:41:06Z</time>
      </trkpt>
      <trkpt lat="62.63354490802" lon="17.983561329175">
        <ele>90.2</ele>
        <time>2017-10-16T18:41:07Z</time>
      </trkpt>
      <trkpt lat="62.633541890536" lon="17.983576332776">
        <ele>90.2</ele>
        <time>2017-10-16T18:41:08Z</time>
      </trkpt>
      <trkpt lat="62.633542896364" lon="17.983579014984">
        <ele>90.2</ele>
        <time>2017-10-16T18:41:09Z</time>
      </trkpt>
      <trkpt lat="62.63354071707" lon="17.983589324721">
        <ele>90.2</ele>
        <time>2017-10-16T18:41:10Z</time>
      </trkpt>
      <trkpt lat="62.633542225812" lon="17.983544230099">
        <ele>90.2</ele>
        <time>2017-10-16T18:41:11Z</time>
      </trkpt>
      <trkpt lat="62.633584973502" lon="17.983179785087">
        <ele>92</ele>
        <time>2017-10-16T18:41:23Z</time>
      </trkpt>
      <trkpt lat="62.633593774497" lon="17.983109712403">
        <ele>89.6</ele>
        <time>2017-10-16T18:41:24Z</time>
      </trkpt>
      <trkpt lat="62.633602324035" lon="17.983046512877">
        <ele>89.8</ele>
        <time>2017-10-16T18:41:25Z</time>
      </trkpt>
      <trkpt lat="62.63361028684" lon="17.98297166251">
        <ele>89.6</ele>
        <time>2017-10-16T18:41:26Z</time>
      </trkpt>
      <trkpt lat="62.633622189138" lon="17.982913911219">
        <ele>89.6</ele>
        <time>2017-10-16T18:41:27Z</time>
      </trkpt>
      <trkpt lat="62.633634426712" lon="17.982845514915">
        <ele>89.8</ele>
        <time>2017-10-16T18:41:28Z</time>
      </trkpt>
      <trkpt lat="62.633644149716" lon="17.982794552963">
        <ele>89.8</ele>
        <time>2017-10-16T18:41:29Z</time>
      </trkpt>
      <trkpt lat="62.63366141643" lon="17.982727330125">
        <ele>89.8</ele>
        <time>2017-10-16T18:41:30Z</time>
      </trkpt>
      <trkpt lat="62.633669882149" lon="17.982657760355">
        <ele>89.8</ele>
        <time>2017-10-16T18:41:31Z</time>
      </trkpt>
      <trkpt lat="62.633681868266" lon="17.982595147562">
        <ele>90</ele>
        <time>2017-10-16T18:41:32Z</time>
      </trkpt>
      <trkpt lat="62.633690501623" lon="17.982544688524">
        <ele>90</ele>
        <time>2017-10-16T18:41:33Z</time>
      </trkpt>
      <trkpt lat="62.633705589043" lon="17.982470927804">
        <ele>90</ele>
        <time>2017-10-16T18:41:34Z</time>
      </trkpt>
      <trkpt lat="62.633711624011" lon="17.982398759645">
        <ele>89.8</ele>
        <time>2017-10-16T18:41:35Z</time>
      </trkpt>
      <trkpt lat="62.633720425006" lon="17.982329022237">
        <ele>89.8</ele>
        <time>2017-10-16T18:41:36Z</time>
      </trkpt>
      <trkpt lat="62.633725873241" lon="17.982254842422">
        <ele>89.8</ele>
        <time>2017-10-16T18:41:37Z</time>
      </trkpt>
      <trkpt lat="62.633733416951" lon="17.982189128326">
        <ele>89.8</ele>
        <time>2017-10-16T18:41:38Z</time>
      </trkpt>
      <trkpt lat="62.633737859358" lon="17.982126347895">
        <ele>90</ele>
        <time>2017-10-16T18:41:39Z</time>
      </trkpt>
      <trkpt lat="62.633741295937" lon="17.982059544152">
        <ele>90</ele>
        <time>2017-10-16T18:41:40Z</time>
      </trkpt>
      <trkpt lat="62.63374523543" lon="17.981993410961">
        <ele>89.8</ele>
        <time>2017-10-16T18:41:41Z</time>
      </trkpt>
      <trkpt lat="62.633749342561" lon="17.981913615273">
        <ele>89.8</ele>
        <time>2017-10-16T18:41:42Z</time>
      </trkpt>
      <trkpt lat="62.633753533511" lon="17.981842369123">
        <ele>89.8</ele>
        <time>2017-10-16T18:41:43Z</time>
      </trkpt>
      <trkpt lat="62.633753784968" lon="17.981775313923">
        <ele>89.6</ele>
        <time>2017-10-16T18:41:44Z</time>
      </trkpt>
      <trkpt lat="62.633757556823" lon="17.98170096647">
        <ele>89.6</ele>
        <time>2017-10-16T18:41:45Z</time>
      </trkpt>
      <trkpt lat="62.63376283742" lon="17.981635084736">
        <ele>89.8</ele>
        <time>2017-10-16T18:41:46Z</time>
      </trkpt>
      <trkpt lat="62.633766609275" lon="17.981572807219">
        <ele>89.8</ele>
        <time>2017-10-16T18:41:47Z</time>
      </trkpt>
      <trkpt lat="62.633765687266" lon="17.981494017359">
        <ele>89.6</ele>
        <time>2017-10-16T18:41:48Z</time>
      </trkpt>
      <trkpt lat="62.633767279827" lon="17.981438277724">
        <ele>89.8</ele>
        <time>2017-10-16T18:41:49Z</time>
      </trkpt>
      <trkpt lat="62.633774823537" lon="17.981364517004">
        <ele>90</ele>
        <time>2017-10-16T18:41:50Z</time>
      </trkpt>
      <trkpt lat="62.633784797998" lon="17.981291259198">
        <ele>89.8</ele>
        <time>2017-10-16T18:41:51Z</time>
      </trkpt>
      <trkpt lat="62.633793347536" lon="17.981234513735">
        <ele>89.8</ele>
        <time>2017-10-16T18:41:52Z</time>
      </trkpt>
      <trkpt lat="62.633805501291" lon="17.981176678625">
        <ele>90</ele>
        <time>2017-10-16T18:41:53Z</time>
      </trkpt>
      <trkpt lat="62.633818577055" lon="17.981124124112">
        <ele>90</ele>
        <time>2017-10-16T18:41:54Z</time>
      </trkpt>
      <trkpt lat="62.63383240719" lon="17.981072575427">
        <ele>90.2</ele>
        <time>2017-10-16T18:41:55Z</time>
      </trkpt>
      <trkpt lat="62.633853697216" lon="17.981017338706">
        <ele>90.2</ele>
        <time>2017-10-16T18:41:56Z</time>
      </trkpt>
      <trkpt lat="62.633871131568" lon="17.98095749194">
        <ele>90.4</ele>
        <time>2017-10-16T18:41:57Z</time>
      </trkpt>
      <trkpt lat="62.633886302807" lon="17.980905021246">
        <ele>90.8</ele>
        <time>2017-10-16T18:41:58Z</time>
      </trkpt>
      <trkpt lat="62.633901893141" lon="17.980866213049">
        <ele>90.8</ele>
        <time>2017-10-16T18:41:59Z</time>
      </trkpt>
      <trkpt lat="62.633917818751" lon="17.980813658536">
        <ele>91</ele>
        <time>2017-10-16T18:42:00Z</time>
      </trkpt>
      <trkpt lat="62.633932570895" lon="17.980766636077">
        <ele>91</ele>
        <time>2017-10-16T18:42:01Z</time>
      </trkpt>
      <trkpt lat="62.633944473193" lon="17.980719697437">
        <ele>91</ele>
        <time>2017-10-16T18:42:02Z</time>
      </trkpt>
      <trkpt lat="62.633953190369" lon="17.980652726056">
        <ele>91</ele>
        <time>2017-10-16T18:42:03Z</time>
      </trkpt>
      <trkpt lat="62.633971714368" lon="17.980600423">
        <ele>90.8</ele>
        <time>2017-10-16T18:42:04Z</time>
      </trkpt>
      <trkpt lat="62.633991160376" lon="17.980559519328">
        <ele>91</ele>
        <time>2017-10-16T18:42:05Z</time>
      </trkpt>
      <trkpt lat="62.634014881153" lon="17.980497074173">
        <ele>91</ele>
        <time>2017-10-16T18:42:06Z</time>
      </trkpt>
      <trkpt lat="62.634036003541" lon="17.98044619604">
        <ele>91.2</ele>
        <time>2017-10-16T18:42:07Z</time>
      </trkpt>
      <trkpt lat="62.63405536573" lon="17.980402023427">
        <ele>91.2</ele>
        <time>2017-10-16T18:42:08Z</time>
      </trkpt>
      <trkpt lat="62.634071207521" lon="17.980361790307">
        <ele>91.2</ele>
        <time>2017-10-16T18:42:09Z</time>
      </trkpt>
      <trkpt lat="62.634082523086" lon="17.980318288246">
        <ele>91.4</ele>
        <time>2017-10-16T18:42:10Z</time>
      </trkpt>
      <trkpt lat="62.634099873619" lon="17.980266236647">
        <ele>91.4</ele>
        <time>2017-10-16T18:42:11Z</time>
      </trkpt>
      <trkpt lat="62.634118649075" lon="17.980216951075">
        <ele>91.4</ele>
        <time>2017-10-16T18:42:12Z</time>
      </trkpt>
      <trkpt lat="62.634137005436" lon="17.980168419874">
        <ele>91.6</ele>
        <time>2017-10-16T18:42:13Z</time>
      </trkpt>
      <trkpt lat="62.634155445616" lon="17.980118044655">
        <ele>91.6</ele>
        <time>2017-10-16T18:42:14Z</time>
      </trkpt>
      <trkpt lat="62.6341752269" lon="17.980059622812">
        <ele>91.6</ele>
        <time>2017-10-16T18:42:15Z</time>
      </trkpt>
      <trkpt lat="62.63419115251" lon="17.980000027503">
        <ele>91.4</ele>
        <time>2017-10-16T18:42:16Z</time>
      </trkpt>
      <trkpt lat="62.634203306265" lon="17.979953172682">
        <ele>91.4</ele>
        <time>2017-10-16T18:42:17Z</time>
      </trkpt>
      <trkpt lat="62.634215962934" lon="17.979889218785">
        <ele>91.4</ele>
        <time>2017-10-16T18:42:18Z</time>
      </trkpt>
      <trkpt lat="62.634235828037" lon="17.979835406987">
        <ele>91.2</ele>
        <time>2017-10-16T18:42:19Z</time>
      </trkpt>
      <trkpt lat="62.634254603493" lon="17.979786121415">
        <ele>91</ele>
        <time>2017-10-16T18:42:20Z</time>
      </trkpt>
      <trkpt lat="62.634270864379" lon="17.979723340984">
        <ele>91</ele>
        <time>2017-10-16T18:42:21Z</time>
      </trkpt>
      <trkpt lat="62.634284778333" lon="17.979665422055">
        <ele>91</ele>
        <time>2017-10-16T18:42:22Z</time>
      </trkpt>
      <trkpt lat="62.634297351183" lon="17.979610101515">
        <ele>91</ele>
        <time>2017-10-16T18:42:23Z</time>
      </trkpt>
      <trkpt lat="62.634308918205" lon="17.979558469011">
        <ele>91</ele>
        <time>2017-10-16T18:42:24Z</time>
      </trkpt>
      <trkpt lat="62.634316461915" lon="17.979507842335">
        <ele>91</ele>
        <time>2017-10-16T18:42:25Z</time>
      </trkpt>
      <trkpt lat="62.634329537679" lon="17.979441541506">
        <ele>91.2</ele>
        <time>2017-10-16T18:42:26Z</time>
      </trkpt>
      <trkpt lat="62.63434202671" lon="17.979379012532">
        <ele>91</ele>
        <time>2017-10-16T18:42:27Z</time>
      </trkpt>
      <trkpt lat="62.634353174637" lon="17.979332995901">
        <ele>91</ele>
        <time>2017-10-16T18:42:28Z</time>
      </trkpt>
      <trkpt lat="62.634366250401" lon="17.979293517152">
        <ele>91</ele>
        <time>2017-10-16T18:42:30Z</time>
      </trkpt>
      <trkpt lat="62.63436717241" lon="17.97927692099">
        <ele>91</ele>
        <time>2017-10-16T18:42:31Z</time>
      </trkpt>
      <trkpt lat="62.634373458835" lon="17.979261917389">
        <ele>91</ele>
        <time>2017-10-16T18:42:32Z</time>
      </trkpt>
      <trkpt lat="62.634376308681" lon="17.97924842253">
        <ele>91.2</ele>
        <time>2017-10-16T18:42:33Z</time>
      </trkpt>
      <trkpt lat="62.634382762744" lon="17.979231407273">
        <ele>91.2</ele>
        <time>2017-10-16T18:42:34Z</time>
      </trkpt>
      <trkpt lat="62.6343847744" lon="17.979220259346">
        <ele>91.2</ele>
        <time>2017-10-16T18:42:35Z</time>
      </trkpt>
      <trkpt lat="62.634388294798" lon="17.97920735122">
        <ele>91</ele>
        <time>2017-10-16T18:42:36Z</time>
      </trkpt>
      <trkpt lat="62.634396844336" lon="17.979200478062">
        <ele>91</ele>
        <time>2017-10-16T18:42:37Z</time>
      </trkpt>
      <trkpt lat="62.634396592879" lon="17.979208105591">
        <ele>90.8</ele>
        <time>2017-10-16T18:42:38Z</time>
      </trkpt>
      <trkpt lat="62.634394413585" lon="17.979200561881">
        <ele>90.8</ele>
        <time>2017-10-16T18:42:39Z</time>
      </trkpt>
      <trkpt lat="62.634371195722" lon="17.979592331887">
        <ele>91.4</ele>
        <time>2017-10-16T18:42:53Z</time>
      </trkpt>
      <trkpt lat="62.634365244573" lon="17.979658967992">
        <ele>91.2</ele>
        <time>2017-10-16T18:42:54Z</time>
      </trkpt>
      <trkpt lat="62.634355270112" lon="17.979719317672">
        <ele>91.2</ele>
        <time>2017-10-16T18:42:55Z</time>
      </trkpt>
      <trkpt lat="62.634344708918" lon="17.979781008456">
        <ele>91.2</ele>
        <time>2017-10-16T18:42:56Z</time>
      </trkpt>
      <trkpt lat="62.634337332846" lon="17.979819900472">
        <ele>91.2</ele>
        <time>2017-10-16T18:42:57Z</time>
      </trkpt>
      <trkpt lat="62.634322329245" lon="17.97988041779">
        <ele>91.2</ele>
        <time>2017-10-16T18:42:58Z</time>
      </trkpt>
      <trkpt lat="62.634316629553" lon="17.979913610114">
        <ele>91.4</ele>
        <time>2017-10-16T18:42:59Z</time>
      </trkpt>
      <trkpt lat="62.634303302332" lon="17.979967338093">
        <ele>91.4</ele>
        <time>2017-10-16T18:43:00Z</time>
      </trkpt>
      <trkpt lat="62.634288466369" lon="17.980008996136">
        <ele>91.4</ele>
        <time>2017-10-16T18:43:01Z</time>
      </trkpt>
      <trkpt lat="62.634274049501" lon="17.980052665835">
        <ele>91.4</ele>
        <time>2017-10-16T18:43:02Z</time>
      </trkpt>
      <trkpt lat="62.634251921285" lon="17.980116955008">
        <ele>91.6</ele>
        <time>2017-10-16T18:43:03Z</time>
      </trkpt>
      <trkpt lat="62.634231888544" lon="17.980161127621">
        <ele>91.4</ele>
        <time>2017-10-16T18:43:04Z</time>
      </trkpt>
      <trkpt lat="62.634213196907" lon="17.980222902224">
        <ele>91.4</ele>
        <time>2017-10-16T18:43:05Z</time>
      </trkpt>
      <trkpt lat="62.634203809179" lon="17.980269673226">
        <ele>91.6</ele>
        <time>2017-10-16T18:43:06Z</time>
      </trkpt>
      <trkpt lat="62.634190481958" lon="17.980332788933">
        <ele>91.6</ele>
        <time>2017-10-16T18:43:07Z</time>
      </trkpt>
      <trkpt lat="62.634179669307" lon="17.980366484171">
        <ele>91.4</ele>
        <time>2017-10-16T18:43:08Z</time>
      </trkpt>
      <trkpt lat="62.634150584114" lon="17.98045038699">
        <ele>91.4</ele>
        <time>2017-10-16T18:43:09Z</time>
      </trkpt>
      <trkpt lat="62.634134742323" lon="17.980527416651">
        <ele>91.6</ele>
        <time>2017-10-16T18:43:10Z</time>
      </trkpt>
      <trkpt lat="62.634123091482" lon="17.98058617377">
        <ele>91.6</ele>
        <time>2017-10-16T18:43:11Z</time>
      </trkpt>
      <trkpt lat="62.634103896931" lon="17.980648954201">
        <ele>91.4</ele>
        <time>2017-10-16T18:43:12Z</time>
      </trkpt>
      <trkpt lat="62.634084283285" lon="17.980706789311">
        <ele>91.6</ele>
        <time>2017-10-16T18:43:13Z</time>
      </trkpt>
      <trkpt lat="62.634066848933" lon="17.980750542829">
        <ele>91.6</ele>
        <time>2017-10-16T18:43:14Z</time>
      </trkpt>
      <trkpt lat="62.634051510056" lon="17.980826147567">
        <ele>91.4</ele>
        <time>2017-10-16T18:43:15Z</time>
      </trkpt>
      <trkpt lat="62.634036590274" lon="17.980872080379">
        <ele>91.4</ele>
        <time>2017-10-16T18:43:16Z</time>
      </trkpt>
      <trkpt lat="62.63400842709" lon="17.980940644321">
        <ele>91.6</ele>
        <time>2017-10-16T18:43:17Z</time>
      </trkpt>
      <trkpt lat="62.63398328139" lon="17.981002335105">
        <ele>91.6</ele>
        <time>2017-10-16T18:43:18Z</time>
      </trkpt>
      <trkpt lat="62.633955453482" lon="17.981069390305">
        <ele>91.4</ele>
        <time>2017-10-16T18:43:19Z</time>
      </trkpt>
      <trkpt lat="62.633944221736" lon="17.981112389452">
        <ele>91.4</ele>
        <time>2017-10-16T18:43:20Z</time>
      </trkpt>
      <trkpt lat="62.633922512615" lon="17.981176175711">
        <ele>91.4</ele>
        <time>2017-10-16T18:43:21Z</time>
      </trkpt>
      <trkpt lat="62.633911532326" lon="17.981234681373">
        <ele>91.2</ele>
        <time>2017-10-16T18:43:22Z</time>
      </trkpt>
      <trkpt lat="62.633919746588" lon="17.981295366329">
        <ele>91.2</ele>
        <time>2017-10-16T18:43:23Z</time>
      </trkpt>
      <trkpt lat="62.63390365334" lon="17.981359320226">
        <ele>91</ele>
        <time>2017-10-16T18:43:24Z</time>
      </trkpt>
      <trkpt lat="62.633893511241" lon="17.981409443988">
        <ele>91</ele>
        <time>2017-10-16T18:43:25Z</time>
      </trkpt>
      <trkpt lat="62.633888314463" lon="17.98147800793">
        <ele>90.8</ele>
        <time>2017-10-16T18:43:26Z</time>
      </trkpt>
      <trkpt lat="62.63388437497" lon="17.981543219112">
        <ele>90.6</ele>
        <time>2017-10-16T18:43:27Z</time>
      </trkpt>
      <trkpt lat="62.63387096393" lon="17.981614129986">
        <ele>90.6</ele>
        <time>2017-10-16T18:43:28Z</time>
      </trkpt>
      <trkpt lat="62.63387012574" lon="17.981656374762">
        <ele>90.4</ele>
        <time>2017-10-16T18:43:29Z</time>
      </trkpt>
      <trkpt lat="62.63386593479" lon="17.981719909564">
        <ele>90.4</ele>
        <time>2017-10-16T18:43:30Z</time>
      </trkpt>
      <trkpt lat="62.633864593686" lon="17.981795933397">
        <ele>90.4</ele>
        <time>2017-10-16T18:43:31Z</time>
      </trkpt>
      <trkpt lat="62.633855792691" lon="17.981868101556">
        <ele>90.4</ele>
        <time>2017-10-16T18:43:32Z</time>
      </trkpt>
      <trkpt lat="62.633844560945" lon="17.981939096249">
        <ele>90.4</ele>
        <time>2017-10-16T18:43:33Z</time>
      </trkpt>
      <trkpt lat="62.633830982267" lon="17.982008917476">
        <ele>90.4</ele>
        <time>2017-10-16T18:43:34Z</time>
      </trkpt>
      <trkpt lat="62.633825198756" lon="17.982077984332">
        <ele>90.4</ele>
        <time>2017-10-16T18:43:35Z</time>
      </trkpt>
      <trkpt lat="62.633809440784" lon="17.982157696201">
        <ele>90.4</ele>
        <time>2017-10-16T18:43:36Z</time>
      </trkpt>
      <trkpt lat="62.633800975065" lon="17.982229361446">
        <ele>90.4</ele>
        <time>2017-10-16T18:43:37Z</time>
      </trkpt>
      <trkpt lat="62.633788905129" lon="17.982306810202">
        <ele>90.2</ele>
        <time>2017-10-16T18:43:38Z</time>
      </trkpt>
      <trkpt lat="62.633772476605" lon="17.982375877058">
        <ele>90</ele>
        <time>2017-10-16T18:43:39Z</time>
      </trkpt>
      <trkpt lat="62.63376199923" lon="17.982437651661">
        <ele>90.2</ele>
        <time>2017-10-16T18:43:40Z</time>
      </trkpt>
      <trkpt lat="62.633753365873" lon="17.982497163151">
        <ele>90.2</ele>
        <time>2017-10-16T18:43:41Z</time>
      </trkpt>
      <trkpt lat="62.633735512426" lon="17.982588274404">
        <ele>90</ele>
        <time>2017-10-16T18:43:42Z</time>
      </trkpt>
      <trkpt lat="62.633738026996" lon="17.982614258294">
        <ele>90</ele>
        <time>2017-10-16T18:43:43Z</time>
      </trkpt>
      <trkpt lat="62.633724029223" lon="17.982677960734">
        <ele>90</ele>
        <time>2017-10-16T18:43:44Z</time>
      </trkpt>
      <trkpt lat="62.63370919326" lon="17.982720037872">
        <ele>90</ele>
        <time>2017-10-16T18:43:45Z</time>
      </trkpt>
      <trkpt lat="62.633699051161" lon="17.982773682032">
        <ele>90</ele>
        <time>2017-10-16T18:43:46Z</time>
      </trkpt>
      <trkpt lat="62.633689160519" lon="17.982804946519">
        <ele>90.2</ele>
        <time>2017-10-16T18:43:47Z</time>
      </trkpt>
      <trkpt lat="62.633677928773" lon="17.982826739459">
        <ele>90</ele>
        <time>2017-10-16T18:43:48Z</time>
      </trkpt>
      <trkpt lat="62.633650687598" lon="17.982846353105">
        <ele>90.2</ele>
        <time>2017-10-16T18:43:50Z</time>
      </trkpt>
      <trkpt lat="62.633657057842" lon="17.982851968978">
        <ele>90.2</ele>
        <time>2017-10-16T18:43:51Z</time>
      </trkpt>
      <trkpt lat="62.63364297625" lon="17.982850544055">
        <ele>90.2</ele>
        <time>2017-10-16T18:43:52Z</time>
      </trkpt>
      <trkpt lat="62.633644736449" lon="17.982852807168">
        <ele>90.4</ele>
        <time>2017-10-16T18:43:53Z</time>
      </trkpt>
      <trkpt lat="62.633631995961" lon="17.982831014228">
        <ele>90.2</ele>
        <time>2017-10-16T18:43:56Z</time>
      </trkpt>
      <trkpt lat="62.633627805011" lon="17.982822045595">
        <ele>90.2</ele>
        <time>2017-10-16T18:43:57Z</time>
      </trkpt>
      <trkpt lat="62.633624368432" lon="17.982806874356">
        <ele>90</ele>
        <time>2017-10-16T18:43:58Z</time>
      </trkpt>
      <trkpt lat="62.633627805011" lon="17.982805449433">
        <ele>89.8</ele>
        <time>2017-10-16T18:43:59Z</time>
      </trkpt>
      <trkpt lat="62.633736602073" lon="17.982476208401">
        <ele>85.8</ele>
        <time>2017-10-16T18:44:23Z</time>
      </trkpt>
      <trkpt lat="62.633748001457" lon="17.982389874831">
        <ele>85.8</ele>
        <time>2017-10-16T18:44:24Z</time>
      </trkpt>
      <trkpt lat="62.633750851303" lon="17.982326088572">
        <ele>90</ele>
        <time>2017-10-16T18:44:25Z</time>
      </trkpt>
      <trkpt lat="62.633752695321" lon="17.982249561825">
        <ele>89.8</ele>
        <time>2017-10-16T18:44:26Z</time>
      </trkpt>
      <trkpt lat="62.633755628986" lon="17.982181919892">
        <ele>89.8</ele>
        <time>2017-10-16T18:44:27Z</time>
      </trkpt>
      <trkpt lat="62.633750935122" lon="17.982103381489">
        <ele>89.8</ele>
        <time>2017-10-16T18:44:28Z</time>
      </trkpt>
      <trkpt lat="62.633752443864" lon="17.982041523067">
        <ele>89.8</ele>
        <time>2017-10-16T18:44:29Z</time>
      </trkpt>
      <trkpt lat="62.633757305366" lon="17.981960553913">
        <ele>89.8</ele>
        <time>2017-10-16T18:44:30Z</time>
      </trkpt>
      <trkpt lat="62.633758059737" lon="17.981880758225">
        <ele>89.6</ele>
        <time>2017-10-16T18:44:31Z</time>
      </trkpt>
      <trkpt lat="62.633761496316" lon="17.981796855406">
        <ele>89.6</ele>
        <time>2017-10-16T18:44:32Z</time>
      </trkpt>
      <trkpt lat="62.633763340334" lon="17.981730722215">
        <ele>89.4</ele>
        <time>2017-10-16T18:44:33Z</time>
      </trkpt>
      <trkpt lat="62.633768201836" lon="17.981678083883">
        <ele>89.4</ele>
        <time>2017-10-16T18:44:34Z</time>
      </trkpt>
      <trkpt lat="62.633768620931" lon="17.981579931834">
        <ele>89.6</ele>
        <time>2017-10-16T18:44:35Z</time>
      </trkpt>
      <trkpt lat="62.633769710578" lon="17.981496280472">
        <ele>89.8</ele>
        <time>2017-10-16T18:44:36Z</time>
      </trkpt>
      <trkpt lat="62.633772560424" lon="17.981423274123">
        <ele>89.8</ele>
        <time>2017-10-16T18:44:37Z</time>
      </trkpt>
      <trkpt lat="62.633778846849" lon="17.98134976486">
        <ele>89.8</ele>
        <time>2017-10-16T18:44:38Z</time>
      </trkpt>
      <trkpt lat="62.633793766631" lon="17.981272567561">
        <ele>89.8</ele>
        <time>2017-10-16T18:44:39Z</time>
      </trkpt>
      <trkpt lat="62.633806507119" lon="17.981204925628">
        <ele>90</ele>
        <time>2017-10-16T18:44:40Z</time>
      </trkpt>
      <trkpt lat="62.63381396701" lon="17.981153125486">
        <ele>90</ele>
        <time>2017-10-16T18:44:41Z</time>
      </trkpt>
      <trkpt lat="62.633828132421" lon="17.981103504638">
        <ele>90</ele>
        <time>2017-10-16T18:44:42Z</time>
      </trkpt>
      <trkpt lat="62.633837603968" lon="17.981047513546">
        <ele>90.2</ele>
        <time>2017-10-16T18:44:43Z</time>
      </trkpt>
      <trkpt lat="62.633854032492" lon="17.981011219919">
        <ele>90.4</ele>
        <time>2017-10-16T18:44:44Z</time>
      </trkpt>
      <trkpt lat="62.63387012574" lon="17.980964532736">
        <ele>90.4</ele>
        <time>2017-10-16T18:44:45Z</time>
      </trkpt>
      <trkpt lat="62.633886135169" lon="17.980910218024">
        <ele>90.4</ele>
        <time>2017-10-16T18:44:46Z</time>
      </trkpt>
      <trkpt lat="62.633897534553" lon="17.980847605231">
        <ele>90.4</ele>
        <time>2017-10-16T18:44:47Z</time>
      </trkpt>
      <trkpt lat="62.633923015529" lon="17.980808713215">
        <ele>90.4</ele>
        <time>2017-10-16T18:44:48Z</time>
      </trkpt>
      <trkpt lat="62.633937851492" lon="17.980767138991">
        <ele>90.4</ele>
        <time>2017-10-16T18:44:49Z</time>
      </trkpt>
      <trkpt lat="62.633952016903" lon="17.980731013002">
        <ele>90.4</ele>
        <time>2017-10-16T18:44:50Z</time>
      </trkpt>
      <trkpt lat="62.633969199798" lon="17.980683152353">
        <ele>90.4</ele>
        <time>2017-10-16T18:44:51Z</time>
      </trkpt>
      <trkpt lat="62.633993172032" lon="17.980616097153">
        <ele>90.6</ele>
        <time>2017-10-16T18:44:52Z</time>
      </trkpt>
      <trkpt lat="62.634008007995" lon="17.980557842948">
        <ele>90.6</ele>
        <time>2017-10-16T18:44:53Z</time>
      </trkpt>
      <trkpt lat="62.634023682148" lon="17.98049229649">
        <ele>90.6</ele>
        <time>2017-10-16T18:44:54Z</time>
      </trkpt>
      <trkpt lat="62.634047570563" lon="17.980439993434">
        <ele>90.8</ele>
        <time>2017-10-16T18:44:55Z</time>
      </trkpt>
      <trkpt lat="62.634070369331" lon="17.980393976803">
        <ele>90.8</ele>
        <time>2017-10-16T18:44:56Z</time>
      </trkpt>
      <trkpt lat="62.634093419556" lon="17.980324323214">
        <ele>90.8</ele>
        <time>2017-10-16T18:44:57Z</time>
      </trkpt>
      <trkpt lat="62.634115463953" lon="17.980264727905">
        <ele>90.8</ele>
        <time>2017-10-16T18:44:58Z</time>
      </trkpt>
      <trkpt lat="62.634131473382" lon="17.980208317718">
        <ele>90.8</ele>
        <time>2017-10-16T18:44:59Z</time>
      </trkpt>
      <trkpt lat="62.634157038177" lon="17.980158193956">
        <ele>90.6</ele>
        <time>2017-10-16T18:45:00Z</time>
      </trkpt>
      <trkpt lat="62.634179250212" lon="17.980100358846">
        <ele>90.8</ele>
        <time>2017-10-16T18:45:01Z</time>
      </trkpt>
      <trkpt lat="62.634196349288" lon="17.980044954487">
        <ele>90.8</ele>
        <time>2017-10-16T18:45:02Z</time>
      </trkpt>
      <trkpt lat="62.634214873287" lon="17.979981671142">
        <ele>90.8</ele>
        <time>2017-10-16T18:45:03Z</time>
      </trkpt>
      <trkpt lat="62.634238510245" lon="17.979923249299">
        <ele>91</ele>
        <time>2017-10-16T18:45:04Z</time>
      </trkpt>
      <trkpt lat="62.634258878262" lon="17.97987790322">
        <ele>91.2</ele>
        <time>2017-10-16T18:45:05Z</time>
      </trkpt>
      <trkpt lat="62.634283185772" lon="17.979818978463">
        <ele>91.2</ele>
        <time>2017-10-16T18:45:06Z</time>
      </trkpt>
      <trkpt lat="62.634299781934" lon="17.979766172493">
        <ele>91.2</ele>
        <time>2017-10-16T18:45:07Z</time>
      </trkpt>
      <trkpt lat="62.634319227942" lon="17.979695932171">
        <ele>91.2</ele>
        <time>2017-10-16T18:45:08Z</time>
      </trkpt>
      <trkpt lat="62.634356527397" lon="17.979631223903">
        <ele>91.2</ele>
        <time>2017-10-16T18:45:09Z</time>
      </trkpt>
      <trkpt lat="62.634357197949" lon="17.979562576142">
        <ele>90.8</ele>
        <time>2017-10-16T18:45:10Z</time>
      </trkpt>
      <trkpt lat="62.634369519342" lon="17.97950323229">
        <ele>90.8</ele>
        <time>2017-10-16T18:45:11Z</time>
      </trkpt>
      <trkpt lat="62.634382930382" lon="17.979445313361">
        <ele>90.6</ele>
        <time>2017-10-16T18:45:12Z</time>
      </trkpt>
      <trkpt lat="62.63439147992" lon="17.979391166287">
        <ele>90.4</ele>
        <time>2017-10-16T18:45:13Z</time>
      </trkpt>
      <trkpt lat="62.634400616191" lon="17.97931966868">
        <ele>90.4</ele>
        <time>2017-10-16T18:45:14Z</time>
      </trkpt>
      <trkpt lat="62.634410003919" lon="17.979262839398">
        <ele>90.4</ele>
        <time>2017-10-16T18:45:15Z</time>
      </trkpt>
      <trkpt lat="62.634426432443" lon="17.979202405899">
        <ele>90.4</ele>
        <time>2017-10-16T18:45:16Z</time>
      </trkpt>
      <trkpt lat="62.634439340569" lon="17.979138116726">
        <ele>90.4</ele>
        <time>2017-10-16T18:45:17Z</time>
      </trkpt>
      <trkpt lat="62.634448057745" lon="17.979081706539">
        <ele>90.6</ele>
        <time>2017-10-16T18:45:19Z</time>
      </trkpt>
      <trkpt lat="62.634447303374" lon="17.979109534447">
        <ele>90.6</ele>
        <time>2017-10-16T18:45:20Z</time>
      </trkpt>
      <trkpt lat="62.634466749382" lon="17.979125543876">
        <ele>91</ele>
        <time>2017-10-16T18:45:23Z</time>
      </trkpt>
      <trkpt lat="62.634467587572" lon="17.979135937432">
        <ele>91</ele>
        <time>2017-10-16T18:45:24Z</time>
      </trkpt>
      <trkpt lat="62.634467922848" lon="17.979133925776">
        <ele>91.2</ele>
        <time>2017-10-16T18:45:25Z</time>
      </trkpt>
      <trkpt lat="62.634446632822" lon="17.979547823998">
        <ele>90.8</ele>
        <time>2017-10-16T18:45:53Z</time>
      </trkpt>
      <trkpt lat="62.634440765492" lon="17.979624518383">
        <ele>90.8</ele>
        <time>2017-10-16T18:45:54Z</time>
      </trkpt>
      <trkpt lat="62.634431796859" lon="17.9796951778">
        <ele>90.8</ele>
        <time>2017-10-16T18:45:55Z</time>
      </trkpt>
      <trkpt lat="62.634418469638" lon="17.979770866357">
        <ele>91</ele>
        <time>2017-10-16T18:45:56Z</time>
      </trkpt>
      <trkpt lat="62.634408830453" lon="17.979817134445">
        <ele>90.8</ele>
        <time>2017-10-16T18:45:57Z</time>
      </trkpt>
      <trkpt lat="62.634391815196" lon="17.979879495781">
        <ele>90.6</ele>
        <time>2017-10-16T18:45:58Z</time>
      </trkpt>
      <trkpt lat="62.634374967577" lon="17.979921321462">
        <ele>90.6</ele>
        <time>2017-10-16T18:45:59Z</time>
      </trkpt>
      <trkpt lat="62.634357784682" lon="17.979989550128">
        <ele>90.8</ele>
        <time>2017-10-16T18:46:00Z</time>
      </trkpt>
      <trkpt lat="62.63434370309" lon="17.980040176804">
        <ele>90.8</ele>
        <time>2017-10-16T18:46:01Z</time>
      </trkpt>
      <trkpt lat="62.634327274566" lon="17.980082840675">
        <ele>90.8</ele>
        <time>2017-10-16T18:46:02Z</time>
      </trkpt>
      <trkpt lat="62.634308415291" lon="17.980114188981">
        <ele>91</ele>
        <time>2017-10-16T18:46:03Z</time>
      </trkpt>
      <trkpt lat="62.634288969283" lon="17.98015869687">
        <ele>91</ele>
        <time>2017-10-16T18:46:04Z</time>
      </trkpt>
      <trkpt lat="62.634268517447" lon="17.980213430677">
        <ele>90.8</ele>
        <time>2017-10-16T18:46:05Z</time>
      </trkpt>
      <trkpt lat="62.634244293756" lon="17.980282162257">
        <ele>91</ele>
        <time>2017-10-16T18:46:06Z</time>
      </trkpt>
      <trkpt lat="62.634234486933" lon="17.980334800589">
        <ele>91.2</ele>
        <time>2017-10-16T18:46:07Z</time>
      </trkpt>
      <trkpt lat="62.63421797459" lon="17.980415015372">
        <ele>91</ele>
        <time>2017-10-16T18:46:08Z</time>
      </trkpt>
      <trkpt lat="62.634201881342" lon="17.98047050355">
        <ele>91</ele>
        <time>2017-10-16T18:46:09Z</time>
      </trkpt>
      <trkpt lat="62.634182938248" lon="17.980536804379">
        <ele>91</ele>
        <time>2017-10-16T18:46:10Z</time>
      </trkpt>
      <trkpt lat="62.634160055661" lon="17.980599920086">
        <ele>91.4</ele>
        <time>2017-10-16T18:46:11Z</time>
      </trkpt>
      <trkpt lat="62.634138765635" lon="17.980659180119">
        <ele>91.2</ele>
        <time>2017-10-16T18:46:12Z</time>
      </trkpt>
      <trkpt lat="62.634119487265" lon="17.980710980261">
        <ele>91.4</ele>
        <time>2017-10-16T18:46:13Z</time>
      </trkpt>
      <trkpt lat="62.634100879447" lon="17.980760852566">
        <ele>91.2</ele>
        <time>2017-10-16T18:46:14Z</time>
      </trkpt>
      <trkpt lat="62.634078583593" lon="17.980826566662">
        <ele>91.2</ele>
        <time>2017-10-16T18:46:15Z</time>
      </trkpt>
      <trkpt lat="62.634063160897" lon="17.980878869718">
        <ele>91.2</ele>
        <time>2017-10-16T18:46:16Z</time>
      </trkpt>
      <trkpt lat="62.634042206147" lon="17.980942153063">
        <ele>91</ele>
        <time>2017-10-16T18:46:17Z</time>
      </trkpt>
      <trkpt lat="62.634017144266" lon="17.981009375901">
        <ele>91</ele>
        <time>2017-10-16T18:46:18Z</time>
      </trkpt>
      <trkpt lat="62.633996021878" lon="17.981062936242">
        <ele>91</ele>
        <time>2017-10-16T18:46:19Z</time>
      </trkpt>
      <trkpt lat="62.633968361608" lon="17.981131667822">
        <ele>90.8</ele>
        <time>2017-10-16T18:46:20Z</time>
      </trkpt>
      <trkpt lat="62.633948245048" lon="17.98119637609">
        <ele>90.6</ele>
        <time>2017-10-16T18:46:21Z</time>
      </trkpt>
      <trkpt lat="62.633934079637" lon="17.981252618639">
        <ele>90.6</ele>
        <time>2017-10-16T18:46:22Z</time>
      </trkpt>
      <trkpt lat="62.633916561466" lon="17.981325541169">
        <ele>90.4</ele>
        <time>2017-10-16T18:46:23Z</time>
      </trkpt>
      <trkpt lat="62.633908431023" lon="17.981382286632">
        <ele>90.4</ele>
        <time>2017-10-16T18:46:24Z</time>
      </trkpt>
      <trkpt lat="62.633900552037" lon="17.981451269669">
        <ele>90</ele>
        <time>2017-10-16T18:46:25Z</time>
      </trkpt>
      <trkpt lat="62.633892170137" lon="17.981512289901">
        <ele>90</ele>
        <time>2017-10-16T18:46:26Z</time>
      </trkpt>
      <trkpt lat="62.633883872056" lon="17.98157859073">
        <ele>90</ele>
        <time>2017-10-16T18:46:27Z</time>
      </trkpt>
      <trkpt lat="62.633876244527" lon="17.981645143016">
        <ele>89.8</ele>
        <time>2017-10-16T18:46:28Z</time>
      </trkpt>
      <trkpt lat="62.633873646138" lon="17.981684370308">
        <ele>89.8</ele>
        <time>2017-10-16T18:46:29Z</time>
      </trkpt>
      <trkpt lat="62.633863001125" lon="17.981782354719">
        <ele>89.8</ele>
        <time>2017-10-16T18:46:30Z</time>
      </trkpt>
      <trkpt lat="62.63385420013" lon="17.981843961684">
        <ele>89.8</ele>
        <time>2017-10-16T18:46:31Z</time>
      </trkpt>
      <trkpt lat="62.633848584257" lon="17.981904562821">
        <ele>89.6</ele>
        <time>2017-10-16T18:46:32Z</time>
      </trkpt>
      <trkpt lat="62.633841375823" lon="17.981971869478">
        <ele>89.6</ele>
        <time>2017-10-16T18:46:33Z</time>
      </trkpt>
      <trkpt lat="62.633831988095" lon="17.982036158651">
        <ele>89.6</ele>
        <time>2017-10-16T18:46:34Z</time>
      </trkpt>
      <trkpt lat="62.633822181272" lon="17.982119474737">
        <ele>89.6</ele>
        <time>2017-10-16T18:46:35Z</time>
      </trkpt>
      <trkpt lat="62.633813799372" lon="17.982189715059">
        <ele>89.6</ele>
        <time>2017-10-16T18:46:36Z</time>
      </trkpt>
      <trkpt lat="62.633798711952" lon="17.982262386132">
        <ele>89.8</ele>
        <time>2017-10-16T18:46:37Z</time>
      </trkpt>
      <trkpt lat="62.633785887645" lon="17.982336063033">
        <ele>89.6</ele>
        <time>2017-10-16T18:46:38Z</time>
      </trkpt>
      <trkpt lat="62.633779349763" lon="17.982402615319">
        <ele>89.6</ele>
        <time>2017-10-16T18:46:39Z</time>
      </trkpt>
      <trkpt lat="62.6337728957" lon="17.982470173433">
        <ele>89.6</ele>
        <time>2017-10-16T18:46:40Z</time>
      </trkpt>
      <trkpt lat="62.633755796624" lon="17.982546448723">
        <ele>89.8</ele>
        <time>2017-10-16T18:46:41Z</time>
      </trkpt>
      <trkpt lat="62.633739200462" lon="17.982608642421">
        <ele>89.6</ele>
        <time>2017-10-16T18:46:42Z</time>
      </trkpt>
      <trkpt lat="62.633731321476" lon="17.982663962961">
        <ele>89.4</ele>
        <time>2017-10-16T18:46:43Z</time>
      </trkpt>
      <trkpt lat="62.633727801078" lon="17.982712829438">
        <ele>89.4</ele>
        <time>2017-10-16T18:46:44Z</time>
      </trkpt>
      <trkpt lat="62.633712210744" lon="17.982808383098">
        <ele>89.4</ele>
        <time>2017-10-16T18:46:45Z</time>
      </trkpt>
      <trkpt lat="62.633707265423" lon="17.982864877104">
        <ele>89.4</ele>
        <time>2017-10-16T18:46:46Z</time>
      </trkpt>
      <trkpt lat="62.633690250166" lon="17.982896141591">
        <ele>89.4</ele>
        <time>2017-10-16T18:46:48Z</time>
      </trkpt>
      <trkpt lat="62.633690585442" lon="17.9829054455">
        <ele>89.6</ele>
        <time>2017-10-16T18:46:49Z</time>
      </trkpt>
      <trkpt lat="62.633690669261" lon="17.982903685301">
        <ele>89.6</ele>
        <time>2017-10-16T18:46:50Z</time>
      </trkpt>
      <trkpt lat="62.633687316501" lon="17.982893627021">
        <ele>89.8</ele>
        <time>2017-10-16T18:46:51Z</time>
      </trkpt>
      <trkpt lat="62.633686226854" lon="17.982885412759">
        <ele>89.8</ele>
        <time>2017-10-16T18:46:52Z</time>
      </trkpt>
      <trkpt lat="62.633680778619" lon="17.982873845737">
        <ele>90</ele>
        <time>2017-10-16T18:46:53Z</time>
      </trkpt>
      <trkpt lat="62.633681113895" lon="17.982864709466">
        <ele>89.8</ele>
        <time>2017-10-16T18:46:54Z</time>
      </trkpt>
      <trkpt lat="62.633676922945" lon="17.982857417213">
        <ele>89.6</ele>
        <time>2017-10-16T18:46:55Z</time>
      </trkpt>
      <trkpt lat="62.633741379756" lon="17.982509316906">
        <ele>90.8</ele>
        <time>2017-10-16T18:47:22Z</time>
      </trkpt>
      <trkpt lat="62.633746408896" lon="17.982442010249">
        <ele>90.8</ele>
        <time>2017-10-16T18:47:23Z</time>
      </trkpt>
      <trkpt lat="62.63375529371" lon="17.982356933964">
        <ele>90.8</ele>
        <time>2017-10-16T18:47:24Z</time>
      </trkpt>
      <trkpt lat="62.633762418325" lon="17.982279149932">
        <ele>89.4</ele>
        <time>2017-10-16T18:47:25Z</time>
      </trkpt>
      <trkpt lat="62.633774488261" lon="17.982210669809">
        <ele>89.4</ele>
        <time>2017-10-16T18:47:26Z</time>
      </trkpt>
      <trkpt lat="62.6337728957" lon="17.98213766346">
        <ele>89.4</ele>
        <time>2017-10-16T18:47:27Z</time>
      </trkpt>
      <trkpt lat="62.63378211579" lon="17.982071697907">
        <ele>89.4</ele>
        <time>2017-10-16T18:47:28Z</time>
      </trkpt>
      <trkpt lat="62.633787564025" lon="17.982010593856">
        <ele>89.6</ele>
        <time>2017-10-16T18:47:29Z</time>
      </trkpt>
      <trkpt lat="62.633786809654" lon="17.98192141044">
        <ele>89.6</ele>
        <time>2017-10-16T18:47:30Z</time>
      </trkpt>
      <trkpt lat="62.633785300912" lon="17.981851756851">
        <ele>89.4</ele>
        <time>2017-10-16T18:47:31Z</time>
      </trkpt>
      <trkpt lat="62.633784211265" lon="17.981776655027">
        <ele>89.4</ele>
        <time>2017-10-16T18:47:32Z</time>
      </trkpt>
      <trkpt lat="62.633790330052" lon="17.981707169076">
        <ele>89.6</ele>
        <time>2017-10-16T18:47:33Z</time>
      </trkpt>
      <trkpt lat="62.633800975065" lon="17.981646148844">
        <ele>89.6</ele>
        <time>2017-10-16T18:47:34Z</time>
      </trkpt>
      <trkpt lat="62.6337980414" lon="17.981570544106">
        <ele>89.6</ele>
        <time>2017-10-16T18:47:35Z</time>
      </trkpt>
      <trkpt lat="62.633803657273" lon="17.981498627404">
        <ele>89.8</ele>
        <time>2017-10-16T18:47:36Z</time>
      </trkpt>
      <trkpt lat="62.633808015861" lon="17.981424196132">
        <ele>89.8</ele>
        <time>2017-10-16T18:47:37Z</time>
      </trkpt>
      <trkpt lat="62.633816900675" lon="17.981350938326">
        <ele>89.8</ele>
        <time>2017-10-16T18:47:38Z</time>
      </trkpt>
      <trkpt lat="62.633830227896" lon="17.981282961117">
        <ele>90</ele>
        <time>2017-10-16T18:47:39Z</time>
      </trkpt>
      <trkpt lat="62.633836346683" lon="17.98123241826">
        <ele>90</ele>
        <time>2017-10-16T18:47:40Z</time>
      </trkpt>
      <trkpt lat="62.633852188474" lon="17.981170727476">
        <ele>90</ele>
        <time>2017-10-16T18:47:41Z</time>
      </trkpt>
      <trkpt lat="62.633868868455" lon="17.981113479099">
        <ele>90</ele>
        <time>2017-10-16T18:47:42Z</time>
      </trkpt>
      <trkpt lat="62.633888985015" lon="17.981063355337">
        <ele>90</ele>
        <time>2017-10-16T18:47:43Z</time>
      </trkpt>
      <trkpt lat="62.633905162082" lon="17.980996132499">
        <ele>90</ele>
        <time>2017-10-16T18:47:44Z</time>
      </trkpt>
      <trkpt lat="62.633921339149" lon="17.980929664032">
        <ele>89.8</ele>
        <time>2017-10-16T18:47:45Z</time>
      </trkpt>
      <trkpt lat="62.633941958623" lon="17.980877612433">
        <ele>90</ele>
        <time>2017-10-16T18:47:46Z</time>
      </trkpt>
      <trkpt lat="62.633955788758" lon="17.980822459531">
        <ele>90.2</ele>
        <time>2017-10-16T18:47:47Z</time>
      </trkpt>
      <trkpt lat="62.633975653861" lon="17.980760265833">
        <ele>90.2</ele>
        <time>2017-10-16T18:47:48Z</time>
      </trkpt>
      <trkpt lat="62.633995938059" lon="17.980708214234">
        <ele>90.2</ele>
        <time>2017-10-16T18:47:49Z</time>
      </trkpt>
      <trkpt lat="62.634015216429" lon="17.980651301133">
        <ele>90.4</ele>
        <time>2017-10-16T18:47:50Z</time>
      </trkpt>
      <trkpt lat="62.634031477315" lon="17.980596567326">
        <ele>90.4</ele>
        <time>2017-10-16T18:47:51Z</time>
      </trkpt>
      <trkpt lat="62.634046480916" lon="17.980546611202">
        <ele>90.4</ele>
        <time>2017-10-16T18:47:52Z</time>
      </trkpt>
      <trkpt lat="62.634066010743" lon="17.980469078627">
        <ele>90.6</ele>
        <time>2017-10-16T18:47:53Z</time>
      </trkpt>
      <trkpt lat="62.634086211122" lon="17.980414428639">
        <ele>90.8</ele>
        <time>2017-10-16T18:47:54Z</time>
      </trkpt>
      <trkpt lat="62.634105154216" lon="17.980346870525">
        <ele>91</ele>
        <time>2017-10-16T18:47:55Z</time>
      </trkpt>
      <trkpt lat="62.634128707355" lon="17.980288113406">
        <ele>91</ele>
        <time>2017-10-16T18:47:56Z</time>
      </trkpt>
      <trkpt lat="62.634147985725" lon="17.980231451762">
        <ele>91.2</ele>
        <time>2017-10-16T18:47:57Z</time>
      </trkpt>
      <trkpt lat="62.634165503896" lon="17.980182836742">
        <ele>91</ele>
        <time>2017-10-16T18:47:58Z</time>
      </trkpt>
      <trkpt lat="62.634187464474" lon="17.980146459296">
        <ele>91</ele>
        <time>2017-10-16T18:47:59Z</time>
      </trkpt>
      <trkpt lat="62.634212777812" lon="17.980079655553">
        <ele>90.8</ele>
        <time>2017-10-16T18:48:00Z</time>
      </trkpt>
      <trkpt lat="62.63423138563" lon="17.98001788095">
        <ele>90.8</ele>
        <time>2017-10-16T18:48:01Z</time>
      </trkpt>
      <trkpt lat="62.634246556869" lon="17.979953843234">
        <ele>90.8</ele>
        <time>2017-10-16T18:48:02Z</time>
      </trkpt>
      <trkpt lat="62.634263991221" lon="17.979890811346">
        <ele>90.6</ele>
        <time>2017-10-16T18:48:03Z</time>
      </trkpt>
      <trkpt lat="62.634282263763" lon="17.979837921557">
        <ele>90.6</ele>
        <time>2017-10-16T18:48:04Z</time>
      </trkpt>
      <trkpt lat="62.634297518821" lon="17.979790647641">
        <ele>90.6</ele>
        <time>2017-10-16T18:48:05Z</time>
      </trkpt>
      <trkpt lat="62.634317132467" lon="17.979708253564">
        <ele>90.4</ele>
        <time>2017-10-16T18:48:06Z</time>
      </trkpt>
      <trkpt lat="62.634331800792" lon="17.979641449821">
        <ele>90.2</ele>
        <time>2017-10-16T18:48:07Z</time>
      </trkpt>
      <trkpt lat="62.634345463289" lon="17.979574813716">
        <ele>90.4</ele>
        <time>2017-10-16T18:48:08Z</time>
      </trkpt>
      <trkpt lat="62.634359880157" lon="17.979517565339">
        <ele>90.4</ele>
        <time>2017-10-16T18:48:09Z</time>
      </trkpt>
      <trkpt lat="62.634367591505" lon="17.979460903695">
        <ele>90.4</ele>
        <time>2017-10-16T18:48:10Z</time>
      </trkpt>
      <trkpt lat="62.634381589278" lon="17.979404242051">
        <ele>90.4</ele>
        <time>2017-10-16T18:48:11Z</time>
      </trkpt>
      <trkpt lat="62.634396173784" lon="17.979342635086">
        <ele>90.4</ele>
        <time>2017-10-16T18:48:12Z</time>
      </trkpt>
      <trkpt lat="62.634409584824" lon="17.979279519379">
        <ele>90.4</ele>
        <time>2017-10-16T18:48:13Z</time>
      </trkpt>
      <trkpt lat="62.63442081657" lon="17.979221097536">
        <ele>90.6</ele>
        <time>2017-10-16T18:48:14Z</time>
      </trkpt>
      <trkpt lat="62.634434730524" lon="17.979150605757">
        <ele>90.4</ele>
        <time>2017-10-16T18:48:15Z</time>
      </trkpt>
      <trkpt lat="62.634464234812" lon="17.979031498958">
        <ele>90.4</ele>
        <time>2017-10-16T18:48:17Z</time>
      </trkpt>
      <trkpt lat="62.634472616712" lon="17.97899193639">
        <ele>90.6</ele>
        <time>2017-10-16T18:48:18Z</time>
      </trkpt>
      <trkpt lat="62.634476640024" lon="17.978964946672">
        <ele>90.6</ele>
        <time>2017-10-16T18:48:19Z</time>
      </trkpt>
      <trkpt lat="62.634478316404" lon="17.978955642763">
        <ele>91.2</ele>
        <time>2017-10-16T18:48:20Z</time>
      </trkpt>
      <trkpt lat="62.634485608657" lon="17.978941561171">
        <ele>91.8</ele>
        <time>2017-10-16T18:48:21Z</time>
      </trkpt>
      <trkpt lat="62.634490134883" lon="17.978930077968">
        <ele>91.8</ele>
        <time>2017-10-16T18:48:22Z</time>
      </trkpt>
      <trkpt lat="62.63448870996" lon="17.978947763777">
        <ele>91.8</ele>
        <time>2017-10-16T18:48:23Z</time>
      </trkpt>
      <trkpt lat="62.634487620313" lon="17.978962180645">
        <ele>91.8</ele>
        <time>2017-10-16T18:48:24Z</time>
      </trkpt>
      <trkpt lat="62.634486446847" lon="17.978979279721">
        <ele>91</ele>
        <time>2017-10-16T18:48:25Z</time>
      </trkpt>
      <trkpt lat="62.634482507354" lon="17.978994618598">
        <ele>90.8</ele>
        <time>2017-10-16T18:48:26Z</time>
      </trkpt>
      <trkpt lat="62.634484435191" lon="17.979002497584">
        <ele>90.6</ele>
        <time>2017-10-16T18:48:27Z</time>
      </trkpt>
      <trkpt lat="62.634484938105" lon="17.97901372933">
        <ele>90.6</ele>
        <time>2017-10-16T18:48:28Z</time>
      </trkpt>
      <trkpt lat="62.634482591173" lon="17.979018926108">
        <ele>90.6</ele>
        <time>2017-10-16T18:48:29Z</time>
      </trkpt>
      <trkpt lat="62.634484267553" lon="17.979020937764">
        <ele>90.6</ele>
        <time>2017-10-16T18:48:30Z</time>
      </trkpt>
      <trkpt lat="62.634433137963" lon="17.979427879009">
        <ele>90.8</ele>
        <time>2017-10-16T18:48:51Z</time>
      </trkpt>
      <trkpt lat="62.634429701384" lon="17.9794940122">
        <ele>91</ele>
        <time>2017-10-16T18:48:52Z</time>
      </trkpt>
      <trkpt lat="62.634420481294" lon="17.979582944159">
        <ele>90.8</ele>
        <time>2017-10-16T18:48:53Z</time>
      </trkpt>
      <trkpt lat="62.634410674471" lon="17.979654274128">
        <ele>91</ele>
        <time>2017-10-16T18:48:54Z</time>
      </trkpt>
      <trkpt lat="62.634395251775" lon="17.979731303789">
        <ele>91</ele>
        <time>2017-10-16T18:48:55Z</time>
      </trkpt>
      <trkpt lat="62.634378236518" lon="17.979793832763">
        <ele>91</ele>
        <time>2017-10-16T18:48:56Z</time>
      </trkpt>
      <trkpt lat="62.634366837134" lon="17.979860720325">
        <ele>91</ele>
        <time>2017-10-16T18:48:57Z</time>
      </trkpt>
      <trkpt lat="62.634351665895" lon="17.979919980358">
        <ele>91</ele>
        <time>2017-10-16T18:48:58Z</time>
      </trkpt>
      <trkpt lat="62.634335488828" lon="17.979974462708">
        <ele>91</ele>
        <time>2017-10-16T18:48:59Z</time>
      </trkpt>
      <trkpt lat="62.634319982313" lon="17.980028274506">
        <ele>91</ele>
        <time>2017-10-16T18:49:00Z</time>
      </trkpt>
      <trkpt lat="62.634300368667" lon="17.980081499571">
        <ele>91</ele>
        <time>2017-10-16T18:49:01Z</time>
      </trkpt>
      <trkpt lat="62.634280168288" lon="17.980143022717">
        <ele>91</ele>
        <time>2017-10-16T18:49:02Z</time>
      </trkpt>
      <trkpt lat="62.634266002877" lon="17.980204126768">
        <ele>91</ele>
        <time>2017-10-16T18:49:03Z</time>
      </trkpt>
      <trkpt lat="62.634254771131" lon="17.980257435652">
        <ele>91</ele>
        <time>2017-10-16T18:49:04Z</time>
      </trkpt>
      <trkpt lat="62.63424312029" lon="17.980307978509">
        <ele>91.2</ele>
        <time>2017-10-16T18:49:05Z</time>
      </trkpt>
      <trkpt lat="62.634224428653" lon="17.980377967374">
        <ele>91.2</ele>
        <time>2017-10-16T18:49:06Z</time>
      </trkpt>
      <trkpt lat="62.634208335405" lon="17.980445776945">
        <ele>91.2</ele>
        <time>2017-10-16T18:49:07Z</time>
      </trkpt>
      <trkpt lat="62.63418779975" lon="17.98052833866">
        <ele>91.4</ele>
        <time>2017-10-16T18:49:08Z</time>
      </trkpt>
      <trkpt lat="62.634166258267" lon="17.980601512647">
        <ele>91.2</ele>
        <time>2017-10-16T18:49:09Z</time>
      </trkpt>
      <trkpt lat="62.634145974069" lon="17.980660688861">
        <ele>91.2</ele>
        <time>2017-10-16T18:49:10Z</time>
      </trkpt>
      <trkpt lat="62.634124432586" lon="17.980717937238">
        <ele>91.2</ele>
        <time>2017-10-16T18:49:11Z</time>
      </trkpt>
      <trkpt lat="62.634098867791" lon="17.980787004094">
        <ele>91.4</ele>
        <time>2017-10-16T18:49:12Z</time>
      </trkpt>
      <trkpt lat="62.634072716263" lon="17.980853472561">
        <ele>91</ele>
        <time>2017-10-16T18:49:13Z</time>
      </trkpt>
      <trkpt lat="62.634049246943" lon="17.980903177228">
        <ele>91</ele>
        <time>2017-10-16T18:49:14Z</time>
      </trkpt>
      <trkpt lat="62.634024604157" lon="17.980965119469">
        <ele>91</ele>
        <time>2017-10-16T18:49:15Z</time>
      </trkpt>
      <trkpt lat="62.633999039362" lon="17.981028151357">
        <ele>91</ele>
        <time>2017-10-16T18:49:16Z</time>
      </trkpt>
      <trkpt lat="62.633972887834" lon="17.981090931788">
        <ele>90.8</ele>
        <time>2017-10-16T18:49:17Z</time>
      </trkpt>
      <trkpt lat="62.633951513989" lon="17.981169470191">
        <ele>90.6</ele>
        <time>2017-10-16T18:49:18Z</time>
      </trkpt>
      <trkpt lat="62.633935420741" lon="17.981248679146">
        <ele>90.6</ele>
        <time>2017-10-16T18:49:19Z</time>
      </trkpt>
      <trkpt lat="62.633917734932" lon="17.981328223377">
        <ele>90.4</ele>
        <time>2017-10-16T18:49:20Z</time>
      </trkpt>
      <trkpt lat="62.633903318064" lon="17.981402235554">
        <ele>90.4</ele>
        <time>2017-10-16T18:49:21Z</time>
      </trkpt>
      <trkpt lat="62.633896277268" lon="17.981469290754">
        <ele>90.2</ele>
        <time>2017-10-16T18:49:22Z</time>
      </trkpt>
      <trkpt lat="62.633884794065" lon="17.981545314587">
        <ele>90</ele>
        <time>2017-10-16T18:49:23Z</time>
      </trkpt>
      <trkpt lat="62.633876160708" lon="17.981611112502">
        <ele>90</ele>
        <time>2017-10-16T18:49:24Z</time>
      </trkpt>
      <trkpt lat="62.633868616998" lon="17.981679089711">
        <ele>89.8</ele>
        <time>2017-10-16T18:49:25Z</time>
      </trkpt>
      <trkpt lat="62.633860989469" lon="17.981742959789">
        <ele>89.6</ele>
        <time>2017-10-16T18:49:26Z</time>
      </trkpt>
      <trkpt lat="62.633854619225" lon="17.981805488763">
        <ele>89.8</ele>
        <time>2017-10-16T18:49:27Z</time>
      </trkpt>
      <trkpt lat="62.633847159334" lon="17.981862820959">
        <ele>89.6</ele>
        <time>2017-10-16T18:49:28Z</time>
      </trkpt>
      <trkpt lat="62.633840118538" lon="17.981923757372">
        <ele>89.6</ele>
        <time>2017-10-16T18:49:29Z</time>
      </trkpt>
      <trkpt lat="62.633833580656" lon="17.981991566943">
        <ele>89.8</ele>
        <time>2017-10-16T18:49:30Z</time>
      </trkpt>
      <trkpt lat="62.633818325598" lon="17.982107656258">
        <ele>89.6</ele>
        <time>2017-10-16T18:49:32Z</time>
      </trkpt>
      <trkpt lat="62.633816146304" lon="17.982127437542">
        <ele>89.6</ele>
        <time>2017-10-16T18:49:33Z</time>
      </trkpt>
      <trkpt lat="62.633817235951" lon="17.982140513306">
        <ele>89.8</ele>
        <time>2017-10-16T18:49:34Z</time>
      </trkpt>
      <trkpt lat="62.633815978666" lon="17.982125174429">
        <ele>90</ele>
        <time>2017-10-16T18:49:35Z</time>
      </trkpt>
      <trkpt lat="62.633806339481" lon="17.982106231335">
        <ele>90</ele>
        <time>2017-10-16T18:49:36Z</time>
      </trkpt>
      <trkpt lat="62.633802399988" lon="17.982093826123">
        <ele>90</ele>
        <time>2017-10-16T18:49:37Z</time>
      </trkpt>
      <trkpt lat="62.63380139416" lon="17.982080498902">
        <ele>90</ele>
        <time>2017-10-16T18:49:38Z</time>
      </trkpt>
      <trkpt lat="62.633804411644" lon="17.982072452278">
        <ele>90</ele>
        <time>2017-10-16T18:49:39Z</time>
      </trkpt>
      <trkpt lat="62.63380390873" lon="17.982063232188">
        <ele>90</ele>
        <time>2017-10-16T18:49:40Z</time>
      </trkpt>
      <trkpt lat="62.633803741092" lon="17.982043031809">
        <ele>89.8</ele>
        <time>2017-10-16T18:49:41Z</time>
      </trkpt>
      <trkpt lat="62.633807764404" lon="17.982039511411">
        <ele>89.6</ele>
        <time>2017-10-16T18:49:42Z</time>
      </trkpt>
      <trkpt lat="62.63381145244" lon="17.982035991013">
        <ele>89.6</ele>
        <time>2017-10-16T18:49:43Z</time>
      </trkpt>
      <trkpt lat="62.63381564339" lon="17.982025513638">
        <ele>89.4</ele>
        <time>2017-10-16T18:49:44Z</time>
      </trkpt>
      <trkpt lat="62.633824695842" lon="17.981973713496">
        <ele>89.2</ele>
        <time>2017-10-16T18:49:46Z</time>
      </trkpt>
      <trkpt lat="62.633827042774" lon="17.981908334676">
        <ele>89.2</ele>
        <time>2017-10-16T18:49:47Z</time>
      </trkpt>
      <trkpt lat="62.633824528204" lon="17.981829544816">
        <ele>88.8</ele>
        <time>2017-10-16T18:49:48Z</time>
      </trkpt>
      <trkpt lat="62.633823019462" lon="17.981754945906">
        <ele>88.8</ele>
        <time>2017-10-16T18:49:49Z</time>
      </trkpt>
      <trkpt lat="62.633823690014" lon="17.98168336448">
        <ele>88.6</ele>
        <time>2017-10-16T18:49:50Z</time>
      </trkpt>
      <trkpt lat="62.633826707498" lon="17.981610777226">
        <ele>88.6</ele>
        <time>2017-10-16T18:49:51Z</time>
      </trkpt>
      <trkpt lat="62.633829976439" lon="17.98154590132">
        <ele>88.8</ele>
        <time>2017-10-16T18:49:52Z</time>
      </trkpt>
      <trkpt lat="62.633834167389" lon="17.981467865831">
        <ele>89.2</ele>
        <time>2017-10-16T18:49:53Z</time>
      </trkpt>
      <trkpt lat="62.633840369995" lon="17.981400726812">
        <ele>89.2</ele>
        <time>2017-10-16T18:49:54Z</time>
      </trkpt>
      <trkpt lat="62.633848248981" lon="17.981327636644">
        <ele>89.4</ele>
        <time>2017-10-16T18:49:55Z</time>
      </trkpt>
      <trkpt lat="62.633856630881" lon="17.981263347471">
        <ele>89.6</ele>
        <time>2017-10-16T18:49:56Z</time>
      </trkpt>
      <trkpt lat="62.633867443532" lon="17.9812039198">
        <ele>89.8</ele>
        <time>2017-10-16T18:49:57Z</time>
      </trkpt>
      <trkpt lat="62.633878423821" lon="17.981146000871">
        <ele>89.8</ele>
        <time>2017-10-16T18:49:58Z</time>
      </trkpt>
      <trkpt lat="62.633892337775" lon="17.98108238225">
        <ele>89.8</ele>
        <time>2017-10-16T18:49:59Z</time>
      </trkpt>
      <trkpt lat="62.6339070061" lon="17.98101448886">
        <ele>90</ele>
        <time>2017-10-16T18:50:00Z</time>
      </trkpt>
      <trkpt lat="62.633921925882" lon="17.980950283506">
        <ele>90</ele>
        <time>2017-10-16T18:50:01Z</time>
      </trkpt>
      <trkpt lat="62.63393885732" lon="17.980895046785">
        <ele>90.2</ele>
        <time>2017-10-16T18:50:02Z</time>
      </trkpt>
      <trkpt lat="62.633957800414" lon="17.98084601267">
        <ele>90.4</ele>
        <time>2017-10-16T18:50:03Z</time>
      </trkpt>
      <trkpt lat="62.633978336069" lon="17.980803348799">
        <ele>90.4</ele>
        <time>2017-10-16T18:50:04Z</time>
      </trkpt>
      <trkpt lat="62.634002056846" lon="17.980753141218">
        <ele>90.6</ele>
        <time>2017-10-16T18:50:05Z</time>
      </trkpt>
      <trkpt lat="62.634022341044" lon="17.980691953348">
        <ele>90.8</ele>
        <time>2017-10-16T18:50:06Z</time>
      </trkpt>
      <trkpt lat="62.634041703233" lon="17.980635710799">
        <ele>90.8</ele>
        <time>2017-10-16T18:50:07Z</time>
      </trkpt>
      <trkpt lat="62.634056539196" lon="17.980579971164">
        <ele>90.6</ele>
        <time>2017-10-16T18:50:08Z</time>
      </trkpt>
      <trkpt lat="62.634071626616" lon="17.98053169142">
        <ele>90.8</ele>
        <time>2017-10-16T18:50:09Z</time>
      </trkpt>
      <trkpt lat="62.634087803683" lon="17.980477628165">
        <ele>91</ele>
        <time>2017-10-16T18:50:10Z</time>
      </trkpt>
      <trkpt lat="62.634104902759" lon="17.98042188853">
        <ele>91.2</ele>
        <time>2017-10-16T18:50:11Z</time>
      </trkpt>
      <trkpt lat="62.634125522233" lon="17.98036153885">
        <ele>91.4</ele>
        <time>2017-10-16T18:50:12Z</time>
      </trkpt>
      <trkpt lat="62.634144968241" lon="17.980298758419">
        <ele>91.4</ele>
        <time>2017-10-16T18:50:13Z</time>
      </trkpt>
      <trkpt lat="62.63416433043" lon="17.980249305209">
        <ele>91.4</ele>
        <time>2017-10-16T18:50:14Z</time>
      </trkpt>
      <trkpt lat="62.634184363171" lon="17.980197002153">
        <ele>91.4</ele>
        <time>2017-10-16T18:50:15Z</time>
      </trkpt>
      <trkpt lat="62.634200540238" lon="17.980147884219">
        <ele>91.8</ele>
        <time>2017-10-16T18:50:16Z</time>
      </trkpt>
      <trkpt lat="62.634222333178" lon="17.980097089905">
        <ele>91.6</ele>
        <time>2017-10-16T18:50:17Z</time>
      </trkpt>
      <trkpt lat="62.634236833865" lon="17.980037243139">
        <ele>91.4</ele>
        <time>2017-10-16T18:50:18Z</time>
      </trkpt>
      <trkpt lat="62.634250412543" lon="17.979972283414">
        <ele>91.4</ele>
        <time>2017-10-16T18:50:19Z</time>
      </trkpt>
      <trkpt lat="62.634266338153" lon="17.979906904594">
        <ele>91.4</ele>
        <time>2017-10-16T18:50:20Z</time>
      </trkpt>
      <trkpt lat="62.634284862152" lon="17.979845465267">
        <ele>91.4</ele>
        <time>2017-10-16T18:50:21Z</time>
      </trkpt>
      <trkpt lat="62.634301290676" lon="17.979791066736">
        <ele>91</ele>
        <time>2017-10-16T18:50:22Z</time>
      </trkpt>
      <trkpt lat="62.634317132467" lon="17.979727615753">
        <ele>91</ele>
        <time>2017-10-16T18:50:23Z</time>
      </trkpt>
      <trkpt lat="62.634326268738" lon="17.979669277729">
        <ele>90.6</ele>
        <time>2017-10-16T18:50:24Z</time>
      </trkpt>
      <trkpt lat="62.634340601787" lon="17.979601216701">
        <ele>90.4</ele>
        <time>2017-10-16T18:50:25Z</time>
      </trkpt>
      <trkpt lat="62.634355605388" lon="17.979536256976">
        <ele>90.2</ele>
        <time>2017-10-16T18:50:26Z</time>
      </trkpt>
      <trkpt lat="62.634369100247" lon="17.979476661667">
        <ele>90.2</ele>
        <time>2017-10-16T18:50:27Z</time>
      </trkpt>
      <trkpt lat="62.634381924554" lon="17.979426202629">
        <ele>90.2</ele>
        <time>2017-10-16T18:50:28Z</time>
      </trkpt>
      <trkpt lat="62.634394078309" lon="17.97937079827">
        <ele>90.4</ele>
        <time>2017-10-16T18:50:29Z</time>
      </trkpt>
      <trkpt lat="62.634406734978" lon="17.979315645368">
        <ele>90.2</ele>
        <time>2017-10-16T18:50:30Z</time>
      </trkpt>
      <trkpt lat="62.63441997838" lon="17.979260492466">
        <ele>90.4</ele>
        <time>2017-10-16T18:50:31Z</time>
      </trkpt>
      <trkpt lat="62.634435568714" lon="17.979194191637">
        <ele>90.4</ele>
        <time>2017-10-16T18:50:33Z</time>
      </trkpt>
      <trkpt lat="62.634440346397" lon="17.979171057593">
        <ele>90.4</ele>
        <time>2017-10-16T18:50:34Z</time>
      </trkpt>
      <trkpt lat="62.63444596227" lon="17.979157227458">
        <ele>90.6</ele>
        <time>2017-10-16T18:50:35Z</time>
      </trkpt>
      <trkpt lat="62.634446213727" lon="17.979142726771">
        <ele>90.6</ele>
        <time>2017-10-16T18:50:36Z</time>
      </trkpt>
      <trkpt lat="62.634449147392" lon="17.979127639351">
        <ele>90.8</ele>
        <time>2017-10-16T18:50:37Z</time>
      </trkpt>
      <trkpt lat="62.634453589799" lon="17.97911347394">
        <ele>90.8</ele>
        <time>2017-10-16T18:50:38Z</time>
      </trkpt>
      <trkpt lat="62.634454847084" lon="17.979111378465">
        <ele>90.6</ele>
        <time>2017-10-16T18:50:39Z</time>
      </trkpt>
      <trkpt lat="62.634448812116" lon="17.979120933831">
        <ele>90.4</ele>
        <time>2017-10-16T18:50:40Z</time>
      </trkpt>
      <trkpt lat="62.634431126307" lon="17.97949652677">
        <ele>91.4</ele>
        <time>2017-10-16T18:50:52Z</time>
      </trkpt>
      <trkpt lat="62.634420732751" lon="17.979557547002">
        <ele>91.6</ele>
        <time>2017-10-16T18:50:53Z</time>
      </trkpt>
      <trkpt lat="62.634407824625" lon="17.9796197407">
        <ele>90.6</ele>
        <time>2017-10-16T18:50:54Z</time>
      </trkpt>
      <trkpt lat="62.634394665042" lon="17.979683107864">
        <ele>90.6</ele>
        <time>2017-10-16T18:50:55Z</time>
      </trkpt>
      <trkpt lat="62.634381086364" lon="17.979740691517">
        <ele>90.6</ele>
        <time>2017-10-16T18:50:56Z</time>
      </trkpt>
      <trkpt lat="62.634373291197" lon="17.979805315966">
        <ele>90.6</ele>
        <time>2017-10-16T18:50:57Z</time>
      </trkpt>
      <trkpt lat="62.634362813822" lon="17.979852003149">
        <ele>90.6</ele>
        <time>2017-10-16T18:50:58Z</time>
      </trkpt>
      <trkpt lat="62.63434621766" lon="17.979911933734">
        <ele>90.6</ele>
        <time>2017-10-16T18:50:59Z</time>
      </trkpt>
      <trkpt lat="62.634328028937" lon="17.97997764783">
        <ele>90.6</ele>
        <time>2017-10-16T18:51:00Z</time>
      </trkpt>
      <trkpt lat="62.634313947345" lon="17.980026514307">
        <ele>90.6</ele>
        <time>2017-10-16T18:51:01Z</time>
      </trkpt>
      <trkpt lat="62.634296680631" lon="17.980073369128">
        <ele>90.6</ele>
        <time>2017-10-16T18:51:02Z</time>
      </trkpt>
      <trkpt lat="62.634284862152" lon="17.98011594918">
        <ele>90.8</ele>
        <time>2017-10-16T18:51:03Z</time>
      </trkpt>
      <trkpt lat="62.634274887691" lon="17.98014947678">
        <ele>91</ele>
        <time>2017-10-16T18:51:04Z</time>
      </trkpt>
      <trkpt lat="62.634255860778" lon="17.980209910279">
        <ele>91</ele>
        <time>2017-10-16T18:51:05Z</time>
      </trkpt>
      <trkpt lat="62.634236079494" lon="17.980259028213">
        <ele>91</ele>
        <time>2017-10-16T18:51:06Z</time>
      </trkpt>
      <trkpt lat="62.634211520527" lon="17.98032298211">
        <ele>91</ele>
        <time>2017-10-16T18:51:07Z</time>
      </trkpt>
      <trkpt lat="62.634184866085" lon="17.980387019826">
        <ele>91</ele>
        <time>2017-10-16T18:51:09Z</time>
      </trkpt>
      <trkpt lat="62.634169694846" lon="17.980434880475">
        <ele>91</ele>
        <time>2017-10-16T18:51:10Z</time>
      </trkpt>
      <trkpt lat="62.634158379281" lon="17.980499085829">
        <ele>91</ele>
        <time>2017-10-16T18:51:11Z</time>
      </trkpt>
      <trkpt lat="62.634143291861" lon="17.980552813808">
        <ele>91</ele>
        <time>2017-10-16T18:51:12Z</time>
      </trkpt>
      <trkpt lat="62.63412661188" lon="17.980615426601">
        <ele>91</ele>
        <time>2017-10-16T18:51:13Z</time>
      </trkpt>
      <trkpt lat="62.634108926071" lon="17.980684242">
        <ele>91.2</ele>
        <time>2017-10-16T18:51:14Z</time>
      </trkpt>
      <trkpt lat="62.634087719864" lon="17.980738975807">
        <ele>91.2</ele>
        <time>2017-10-16T18:51:15Z</time>
      </trkpt>
      <trkpt lat="62.6340662622" lon="17.980802342971">
        <ele>91</ele>
        <time>2017-10-16T18:51:16Z</time>
      </trkpt>
      <trkpt lat="62.634044636898" lon="17.980876522786">
        <ele>91.2</ele>
        <time>2017-10-16T18:51:17Z</time>
      </trkpt>
      <trkpt lat="62.634015803162" lon="17.980948523307">
        <ele>91.2</ele>
        <time>2017-10-16T18:51:18Z</time>
      </trkpt>
      <trkpt lat="62.633992333842" lon="17.981010717005">
        <ele>91</ele>
        <time>2017-10-16T18:51:19Z</time>
      </trkpt>
      <trkpt lat="62.633974145119" lon="17.981060505491">
        <ele>91</ele>
        <time>2017-10-16T18:51:20Z</time>
      </trkpt>
      <trkpt lat="62.633952100722" lon="17.981120603714">
        <ele>91</ele>
        <time>2017-10-16T18:51:21Z</time>
      </trkpt>
      <trkpt lat="62.63392460809" lon="17.981185731077">
        <ele>91</ele>
        <time>2017-10-16T18:51:22Z</time>
      </trkpt>
      <trkpt lat="62.633904575349" lon="17.981240967798">
        <ele>90.8</ele>
        <time>2017-10-16T18:51:23Z</time>
      </trkpt>
      <trkpt lat="62.633886386626" lon="17.981330737947">
        <ele>90.6</ele>
        <time>2017-10-16T18:51:24Z</time>
      </trkpt>
      <trkpt lat="62.633878256183" lon="17.9813967035">
        <ele>90.6</ele>
        <time>2017-10-16T18:51:25Z</time>
      </trkpt>
      <trkpt lat="62.633871718301" lon="17.981446491986">
        <ele>90.4</ele>
        <time>2017-10-16T18:51:26Z</time>
      </trkpt>
      <trkpt lat="62.633861157107" lon="17.981518324869">
        <ele>90.4</ele>
        <time>2017-10-16T18:51:27Z</time>
      </trkpt>
      <trkpt lat="62.633858139623" lon="17.981587391725">
        <ele>90.2</ele>
        <time>2017-10-16T18:51:28Z</time>
      </trkpt>
      <trkpt lat="62.633852607569" lon="17.981648831052">
        <ele>90</ele>
        <time>2017-10-16T18:51:29Z</time>
      </trkpt>
      <trkpt lat="62.633840956728" lon="17.981716389166">
        <ele>90.2</ele>
        <time>2017-10-16T18:51:30Z</time>
      </trkpt>
      <trkpt lat="62.633832742466" lon="17.981785120746">
        <ele>90</ele>
        <time>2017-10-16T18:51:31Z</time>
      </trkpt>
      <trkpt lat="62.633824360566" lon="17.981896516197">
        <ele>90</ele>
        <time>2017-10-16T18:51:33Z</time>
      </trkpt>
      <trkpt lat="62.633820840168" lon="17.981923505915">
        <ele>90.2</ele>
        <time>2017-10-16T18:51:34Z</time>
      </trkpt>
      <trkpt lat="62.633818241779" lon="17.981938006602">
        <ele>90</ele>
        <time>2017-10-16T18:51:35Z</time>
      </trkpt>
      <trkpt lat="62.633813715553" lon="17.981960050999">
        <ele>91</ele>
        <time>2017-10-16T18:51:36Z</time>
      </trkpt>
      <trkpt lat="62.63381145244" lon="17.981980754292">
        <ele>91</ele>
        <time>2017-10-16T18:51:37Z</time>
      </trkpt>
      <trkpt lat="62.633811368621" lon="17.981998607739">
        <ele>91.2</ele>
        <time>2017-10-16T18:51:38Z</time>
      </trkpt>
      <trkpt lat="62.633810865707" lon="17.982018724299">
        <ele>91</ele>
        <time>2017-10-16T18:51:39Z</time>
      </trkpt>
      <trkpt lat="62.633810111336" lon="17.982032135339">
        <ele>90.8</ele>
        <time>2017-10-16T18:51:40Z</time>
      </trkpt>
      <trkpt lat="62.633811368621" lon="17.982048396225">
        <ele>89.8</ele>
        <time>2017-10-16T18:51:41Z</time>
      </trkpt>
      <trkpt lat="62.633809692241" lon="17.982064405654">
        <ele>89.6</ele>
        <time>2017-10-16T18:51:42Z</time>
      </trkpt>
      <trkpt lat="62.63380726149" lon="17.982080079807">
        <ele>89.2</ele>
        <time>2017-10-16T18:51:43Z</time>
      </trkpt>
      <trkpt lat="62.633806842395" lon="17.982078906341">
        <ele>89.2</ele>
        <time>2017-10-16T18:51:44Z</time>
      </trkpt>
      <trkpt lat="62.633808518775" lon="17.982074212477">
        <ele>89.2</ele>
        <time>2017-10-16T18:51:45Z</time>
      </trkpt>
      <trkpt lat="62.633825869308" lon="17.981743965617">
        <ele>85.6</ele>
        <time>2017-10-16T18:51:52Z</time>
      </trkpt>
      <trkpt lat="62.633828802973" lon="17.981681185186">
        <ele>85.6</ele>
        <time>2017-10-16T18:51:53Z</time>
      </trkpt>
      <trkpt lat="62.633827629507" lon="17.981601305679">
        <ele>89.4</ele>
        <time>2017-10-16T18:51:54Z</time>
      </trkpt>
      <trkpt lat="62.633828048602" lon="17.981533915203">
        <ele>89.4</ele>
        <time>2017-10-16T18:51:55Z</time>
      </trkpt>
      <trkpt lat="62.633828551516" lon="17.98146962603">
        <ele>89.4</ele>
        <time>2017-10-16T18:51:56Z</time>
      </trkpt>
      <trkpt lat="62.633828802973" lon="17.981402151735">
        <ele>89.6</ele>
        <time>2017-10-16T18:51:57Z</time>
      </trkpt>
      <trkpt lat="62.633834418846" lon="17.98133048649">
        <ele>89.4</ele>
        <time>2017-10-16T18:51:58Z</time>
      </trkpt>
      <trkpt lat="62.633841124366" lon="17.981274160122">
        <ele>89.4</ele>
        <time>2017-10-16T18:51:59Z</time>
      </trkpt>
      <trkpt lat="62.633851601741" lon="17.981217833754">
        <ele>89.6</ele>
        <time>2017-10-16T18:52:00Z</time>
      </trkpt>
      <trkpt lat="62.633865515695" lon="17.981166620345">
        <ele>89.6</ele>
        <time>2017-10-16T18:52:01Z</time>
      </trkpt>
      <trkpt lat="62.633876328346" lon="17.98111926261">
        <ele>89.4</ele>
        <time>2017-10-16T18:52:02Z</time>
      </trkpt>
      <trkpt lat="62.633886805721" lon="17.981064361165">
        <ele>89.6</ele>
        <time>2017-10-16T18:52:03Z</time>
      </trkpt>
      <trkpt lat="62.633900803494" lon="17.981007280426">
        <ele>89.8</ele>
        <time>2017-10-16T18:52:04Z</time>
      </trkpt>
      <trkpt lat="62.633914885086" lon="17.980945422004">
        <ele>89.8</ele>
        <time>2017-10-16T18:52:05Z</time>
      </trkpt>
      <trkpt lat="62.633934163456" lon="17.980888592722">
        <ele>90</ele>
        <time>2017-10-16T18:52:06Z</time>
      </trkpt>
      <trkpt lat="62.633956543129" lon="17.980830506155">
        <ele>90.2</ele>
        <time>2017-10-16T18:52:07Z</time>
      </trkpt>
      <trkpt lat="62.633973055472" lon="17.980776861995">
        <ele>90.2</ele>
        <time>2017-10-16T18:52:08Z</time>
      </trkpt>
      <trkpt lat="62.633987388521" lon="17.980717685781">
        <ele>90.4</ele>
        <time>2017-10-16T18:52:09Z</time>
      </trkpt>
      <trkpt lat="62.63400172157" lon="17.980662029965">
        <ele>90.4</ele>
        <time>2017-10-16T18:52:10Z</time>
      </trkpt>
      <trkpt lat="62.634022173406" lon="17.980609056357">
        <ele>90.4</ele>
        <time>2017-10-16T18:52:11Z</time>
      </trkpt>
      <trkpt lat="62.634041535595" lon="17.980556753301">
        <ele>90.4</ele>
        <time>2017-10-16T18:52:12Z</time>
      </trkpt>
      <trkpt lat="62.634059221404" lon="17.980503276779">
        <ele>90.4</ele>
        <time>2017-10-16T18:52:13Z</time>
      </trkpt>
      <trkpt lat="62.634075147014" lon="17.980450219352">
        <ele>90.4</ele>
        <time>2017-10-16T18:52:14Z</time>
      </trkpt>
      <trkpt lat="62.63408721695" lon="17.980392719518">
        <ele>90.4</ele>
        <time>2017-10-16T18:52:15Z</time>
      </trkpt>
      <trkpt lat="62.634105740949" lon="17.980336812245">
        <ele>90.6</ele>
        <time>2017-10-16T18:52:16Z</time>
      </trkpt>
      <trkpt lat="62.634127282432" lon="17.980294399831">
        <ele>90.6</ele>
        <time>2017-10-16T18:52:17Z</time>
      </trkpt>
      <trkpt lat="62.634147734268" lon="17.980242012956">
        <ele>90.6</ele>
        <time>2017-10-16T18:52:18Z</time>
      </trkpt>
      <trkpt lat="62.634166342086" lon="17.98019725361">
        <ele>90.6</ele>
        <time>2017-10-16T18:52:19Z</time>
      </trkpt>
      <trkpt lat="62.634187380655" lon="17.980154338282">
        <ele>90.6</ele>
        <time>2017-10-16T18:52:20Z</time>
      </trkpt>
      <trkpt lat="62.634208083948" lon="17.980113937524">
        <ele>90.4</ele>
        <time>2017-10-16T18:52:21Z</time>
      </trkpt>
      <trkpt lat="62.634230379802" lon="17.980062640296">
        <ele>90.4</ele>
        <time>2017-10-16T18:52:22Z</time>
      </trkpt>
      <trkpt lat="62.634248400887" lon="17.980005140462">
        <ele>90.4</ele>
        <time>2017-10-16T18:52:23Z</time>
      </trkpt>
      <trkpt lat="62.634265416144" lon="17.979937330891">
        <ele>90.4</ele>
        <time>2017-10-16T18:52:24Z</time>
      </trkpt>
      <trkpt lat="62.634278743365" lon="17.97987790322">
        <ele>90.2</ele>
        <time>2017-10-16T18:52:25Z</time>
      </trkpt>
      <trkpt lat="62.634293663147" lon="17.979802549939">
        <ele>90.2</ele>
        <time>2017-10-16T18:52:26Z</time>
      </trkpt>
      <trkpt lat="62.634309002024" lon="17.979733650721">
        <ele>90.4</ele>
        <time>2017-10-16T18:52:27Z</time>
      </trkpt>
      <trkpt lat="62.634319814675" lon="17.979675228878">
        <ele>90.2</ele>
        <time>2017-10-16T18:52:28Z</time>
      </trkpt>
      <trkpt lat="62.634332387525" lon="17.979622003813">
        <ele>90</ele>
        <time>2017-10-16T18:52:29Z</time>
      </trkpt>
      <trkpt lat="62.634343619271" lon="17.979562576142">
        <ele>90</ele>
        <time>2017-10-16T18:52:30Z</time>
      </trkpt>
      <trkpt lat="62.634354851017" lon="17.979498538426">
        <ele>90</ele>
        <time>2017-10-16T18:52:31Z</time>
      </trkpt>
      <trkpt lat="62.634367340048" lon="17.97943114795">
        <ele>90</ele>
        <time>2017-10-16T18:52:32Z</time>
      </trkpt>
      <trkpt lat="62.634377063052" lon="17.979331654797">
        <ele>90.2</ele>
        <time>2017-10-16T18:52:34Z</time>
      </trkpt>
      <trkpt lat="62.634381756916" lon="17.979308436934">
        <ele>89</ele>
        <time>2017-10-16T18:52:35Z</time>
      </trkpt>
      <trkpt lat="62.63439231811" lon="17.979288990926">
        <ele>89</ele>
        <time>2017-10-16T18:52:36Z</time>
      </trkpt>
      <trkpt lat="62.634404304227" lon="17.9792677009">
        <ele>89.2</ele>
        <time>2017-10-16T18:52:37Z</time>
      </trkpt>
      <trkpt lat="62.634409165729" lon="17.979259989552">
        <ele>89.2</ele>
        <time>2017-10-16T18:52:38Z</time>
      </trkpt>
      <trkpt lat="62.634412853765" lon="17.979251356195">
        <ele>89.4</ele>
        <time>2017-10-16T18:52:39Z</time>
      </trkpt>
      <trkpt lat="62.634414781602" lon="17.979250266548">
        <ele>90.6</ele>
        <time>2017-10-16T18:52:40Z</time>
      </trkpt>
      <trkpt lat="62.634376141043" lon="17.979671037928">
        <ele>90.8</ele>
        <time>2017-10-16T18:52:54Z</time>
      </trkpt>
      <trkpt lat="62.634371782455" lon="17.979725185002">
        <ele>90.4</ele>
        <time>2017-10-16T18:52:55Z</time>
      </trkpt>
      <trkpt lat="62.634362730003" lon="17.979784109759">
        <ele>90.4</ele>
        <time>2017-10-16T18:52:56Z</time>
      </trkpt>
      <trkpt lat="62.634352504085" lon="17.979834652616">
        <ele>90.4</ele>
        <time>2017-10-16T18:52:57Z</time>
      </trkpt>
      <trkpt lat="62.634337249027" lon="17.979901288721">
        <ele>90.6</ele>
        <time>2017-10-16T18:52:58Z</time>
      </trkpt>
      <trkpt lat="62.634325598186" lon="17.97996507498">
        <ele>90.6</ele>
        <time>2017-10-16T18:52:59Z</time>
      </trkpt>
      <trkpt lat="62.634311265137" lon="17.980025089384">
        <ele>90.6</ele>
        <time>2017-10-16T18:53:00Z</time>
      </trkpt>
      <trkpt lat="62.634297183545" lon="17.980082253942">
        <ele>90.6</ele>
        <time>2017-10-16T18:53:01Z</time>
      </trkpt>
      <trkpt lat="62.63428083884" lon="17.980127600021">
        <ele>90.8</ele>
        <time>2017-10-16T18:53:02Z</time>
      </trkpt>
      <trkpt lat="62.634262566298" lon="17.98017462248">
        <ele>90.6</ele>
        <time>2017-10-16T18:53:03Z</time>
      </trkpt>
      <trkpt lat="62.63424144391" lon="17.980234217789">
        <ele>90.6</ele>
        <time>2017-10-16T18:53:04Z</time>
      </trkpt>
      <trkpt lat="62.634230295983" lon="17.980267158656">
        <ele>90.8</ele>
        <time>2017-10-16T18:53:05Z</time>
      </trkpt>
      <trkpt lat="62.634212693993" lon="17.980320048445">
        <ele>90.8</ele>
        <time>2017-10-16T18:53:06Z</time>
      </trkpt>
      <trkpt lat="62.634204228274" lon="17.980363550506">
        <ele>90.8</ele>
        <time>2017-10-16T18:53:07Z</time>
      </trkpt>
      <trkpt lat="62.634192912709" lon="17.980402358703">
        <ele>90.8</ele>
        <time>2017-10-16T18:53:08Z</time>
      </trkpt>
      <trkpt lat="62.634173047606" lon="17.980460948184">
        <ele>90.8</ele>
        <time>2017-10-16T18:53:09Z</time>
      </trkpt>
      <trkpt lat="62.634152511951" lon="17.980517945104">
        <ele>90.8</ele>
        <time>2017-10-16T18:53:10Z</time>
      </trkpt>
      <trkpt lat="62.634134909961" lon="17.980578797698">
        <ele>90.8</ele>
        <time>2017-10-16T18:53:11Z</time>
      </trkpt>
      <trkpt lat="62.634121247464" lon="17.980639231197">
        <ele>90.8</ele>
        <time>2017-10-16T18:53:12Z</time>
      </trkpt>
      <trkpt lat="62.634107584967" lon="17.980689438778">
        <ele>90.8</ele>
        <time>2017-10-16T18:53:13Z</time>
      </trkpt>
      <trkpt lat="62.634086881674" lon="17.980762528946">
        <ele>90.8</ele>
        <time>2017-10-16T18:53:14Z</time>
      </trkpt>
      <trkpt lat="62.634070872245" lon="17.980824890282">
        <ele>90.8</ele>
        <time>2017-10-16T18:53:15Z</time>
      </trkpt>
      <trkpt lat="62.634050504228" lon="17.980884066496">
        <ele>90.8</ele>
        <time>2017-10-16T18:53:16Z</time>
      </trkpt>
      <trkpt lat="62.634032566962" lon="17.980927987652">
        <ele>90.6</ele>
        <time>2017-10-16T18:53:17Z</time>
      </trkpt>
      <trkpt lat="62.634000631923" lon="17.980976267396">
        <ele>90.6</ele>
        <time>2017-10-16T18:53:19Z</time>
      </trkpt>
      <trkpt lat="62.634001134837" lon="17.980975596844">
        <ele>90.4</ele>
        <time>2017-10-16T18:53:20Z</time>
      </trkpt>
      <trkpt lat="62.633999039362" lon="17.980968053134">
        <ele>90.4</ele>
        <time>2017-10-16T18:53:21Z</time>
      </trkpt>
      <trkpt lat="62.633987388521" lon="17.980983392011">
        <ele>90.4</ele>
        <time>2017-10-16T18:53:22Z</time>
      </trkpt>
      <trkpt lat="62.633985963598" lon="17.980975848301">
        <ele>90.4</ele>
        <time>2017-10-16T18:53:23Z</time>
      </trkpt>
      <trkpt lat="62.634086546398" lon="17.980606206511">
        <ele>91.2</ele>
        <time>2017-10-16T18:53:39Z</time>
      </trkpt>
      <trkpt lat="62.634101549999" lon="17.980545605374">
        <ele>90.8</ele>
        <time>2017-10-16T18:53:40Z</time>
      </trkpt>
      <trkpt lat="62.634120241636" lon="17.980480478011">
        <ele>90.6</ele>
        <time>2017-10-16T18:53:41Z</time>
      </trkpt>
      <trkpt lat="62.634134490866" lon="17.980427001489">
        <ele>90.6</ele>
        <time>2017-10-16T18:53:42Z</time>
      </trkpt>
      <trkpt lat="62.634153182503" lon="17.980370004569">
        <ele>90.6</ele>
        <time>2017-10-16T18:53:43Z</time>
      </trkpt>
      <trkpt lat="62.634170952131" lon="17.980309235794">
        <ele>90.6</ele>
        <time>2017-10-16T18:53:44Z</time>
      </trkpt>
      <trkpt lat="62.634186207189" lon="17.980258776756">
        <ele>90.6</ele>
        <time>2017-10-16T18:53:45Z</time>
      </trkpt>
      <trkpt lat="62.634207581034" lon="17.980206725157">
        <ele>90.4</ele>
        <time>2017-10-16T18:53:46Z</time>
      </trkpt>
      <trkpt lat="62.634228619603" lon="17.980162552544">
        <ele>90.4</ele>
        <time>2017-10-16T18:53:47Z</time>
      </trkpt>
      <trkpt lat="62.634250496362" lon="17.980112847877">
        <ele>90.2</ele>
        <time>2017-10-16T18:53:48Z</time>
      </trkpt>
      <trkpt lat="62.634270193827" lon="17.980057527337">
        <ele>90.2</ele>
        <time>2017-10-16T18:53:49Z</time>
      </trkpt>
      <trkpt lat="62.634284694514" lon="17.97999273525">
        <ele>90</ele>
        <time>2017-10-16T18:53:50Z</time>
      </trkpt>
      <trkpt lat="62.634301709771" lon="17.979913693933">
        <ele>89.8</ele>
        <time>2017-10-16T18:53:51Z</time>
      </trkpt>
      <trkpt lat="62.634319311761" lon="17.9798544339">
        <ele>89.8</ele>
        <time>2017-10-16T18:53:52Z</time>
      </trkpt>
      <trkpt lat="62.634332136068" lon="17.979792072564">
        <ele>89.8</ele>
        <time>2017-10-16T18:53:53Z</time>
      </trkpt>
      <trkpt lat="62.63434705585" lon="17.979722335156">
        <ele>89.8</ele>
        <time>2017-10-16T18:53:54Z</time>
      </trkpt>
      <trkpt lat="62.634358539053" lon="17.979657040155">
        <ele>89.6</ele>
        <time>2017-10-16T18:53:55Z</time>
      </trkpt>
      <trkpt lat="62.634377901242" lon="17.979585961643">
        <ele>89.6</ele>
        <time>2017-10-16T18:53:56Z</time>
      </trkpt>
      <trkpt lat="62.634393826852" lon="17.979517649158">
        <ele>89.8</ele>
        <time>2017-10-16T18:53:57Z</time>
      </trkpt>
      <trkpt lat="62.634405812969" lon="17.979444894266">
        <ele>89.8</ele>
        <time>2017-10-16T18:53:58Z</time>
      </trkpt>
      <trkpt lat="62.634416793258" lon="17.979383119663">
        <ele>89.8</ele>
        <time>2017-10-16T18:53:59Z</time>
      </trkpt>
      <trkpt lat="62.634435820171" lon="17.979327128571">
        <ele>90</ele>
        <time>2017-10-16T18:54:00Z</time>
      </trkpt>
      <trkpt lat="62.634453673618" lon="17.979256720611">
        <ele>90</ele>
        <time>2017-10-16T18:54:01Z</time>
      </trkpt>
      <trkpt lat="62.634473706359" lon="17.97915454525">
        <ele>90</ele>
        <time>2017-10-16T18:54:03Z</time>
      </trkpt>
      <trkpt lat="62.634474041635" lon="17.979132919948">
        <ele>89.8</ele>
        <time>2017-10-16T18:54:04Z</time>
      </trkpt>
      <trkpt lat="62.634473371083" lon="17.979117413433">
        <ele>90.4</ele>
        <time>2017-10-16T18:54:05Z</time>
      </trkpt>
      <trkpt lat="62.634476723843" lon="17.979108612438">
        <ele>90.4</ele>
        <time>2017-10-16T18:54:06Z</time>
      </trkpt>
      <trkpt lat="62.634479741327" lon="17.979092267733">
        <ele>90.6</ele>
        <time>2017-10-16T18:54:07Z</time>
      </trkpt>
      <trkpt lat="62.634484602829" lon="17.979080868349">
        <ele>90.6</ele>
        <time>2017-10-16T18:54:08Z</time>
      </trkpt>
      <trkpt lat="62.634490302521" lon="17.979075839209">
        <ele>90.8</ele>
        <time>2017-10-16T18:54:09Z</time>
      </trkpt>
      <trkpt lat="62.634489464331" lon="17.979079024331">
        <ele>90.4</ele>
        <time>2017-10-16T18:54:10Z</time>
      </trkpt>
      <trkpt lat="62.634460630595" lon="17.979497616417">
        <ele>90.2</ele>
        <time>2017-10-16T18:54:23Z</time>
      </trkpt>
      <trkpt lat="62.63444512408" lon="17.979588979127">
        <ele>90.2</ele>
        <time>2017-10-16T18:54:24Z</time>
      </trkpt>
      <trkpt lat="62.634436406904" lon="17.979638264699">
        <ele>90.4</ele>
        <time>2017-10-16T18:54:25Z</time>
      </trkpt>
      <trkpt lat="62.634421906217" lon="17.979722502794">
        <ele>90.2</ele>
        <time>2017-10-16T18:54:26Z</time>
      </trkpt>
      <trkpt lat="62.634412602308" lon="17.979780505542">
        <ele>90.4</ele>
        <time>2017-10-16T18:54:27Z</time>
      </trkpt>
      <trkpt lat="62.634404974779" lon="17.979823672327">
        <ele>90.4</ele>
        <time>2017-10-16T18:54:28Z</time>
      </trkpt>
      <trkpt lat="62.634387121332" lon="17.97988209417">
        <ele>90.2</ele>
        <time>2017-10-16T18:54:29Z</time>
      </trkpt>
      <trkpt lat="62.634372453007" lon="17.979938085262">
        <ele>90.2</ele>
        <time>2017-10-16T18:54:30Z</time>
      </trkpt>
      <trkpt lat="62.634353929008" lon="17.980019138235">
        <ele>90.4</ele>
        <time>2017-10-16T18:54:31Z</time>
      </trkpt>
      <trkpt lat="62.634343954547" lon="17.980072782395">
        <ele>90.4</ele>
        <time>2017-10-16T18:54:32Z</time>
      </trkpt>
      <trkpt lat="62.634326687833" lon="17.980131371876">
        <ele>90.4</ele>
        <time>2017-10-16T18:54:33Z</time>
      </trkpt>
      <trkpt lat="62.63430766092" lon="17.980174371023">
        <ele>90.4</ele>
        <time>2017-10-16T18:54:34Z</time>
      </trkpt>
      <trkpt lat="62.634295423346" lon="17.980198427076">
        <ele>90.4</ele>
        <time>2017-10-16T18:54:35Z</time>
      </trkpt>
      <trkpt lat="62.634281509392" lon="17.980241426223">
        <ele>90.6</ele>
        <time>2017-10-16T18:54:36Z</time>
      </trkpt>
      <trkpt lat="62.634256698968" lon="17.980305799215">
        <ele>90.4</ele>
        <time>2017-10-16T18:54:37Z</time>
      </trkpt>
      <trkpt lat="62.634233397286" lon="17.980365143067">
        <ele>90.4</ele>
        <time>2017-10-16T18:54:38Z</time>
      </trkpt>
      <trkpt lat="62.634213616002" lon="17.980419122503">
        <ele>90.4</ele>
        <time>2017-10-16T18:54:39Z</time>
      </trkpt>
      <trkpt lat="62.63419366708" lon="17.980481064744">
        <ele>90.6</ele>
        <time>2017-10-16T18:54:40Z</time>
      </trkpt>
      <trkpt lat="62.634173969615" lon="17.980549963962">
        <ele>90.6</ele>
        <time>2017-10-16T18:54:41Z</time>
      </trkpt>
      <trkpt lat="62.634151589942" lon="17.980620120465">
        <ele>90.6</ele>
        <time>2017-10-16T18:54:42Z</time>
      </trkpt>
      <trkpt lat="62.634136083427" lon="17.980678207032">
        <ele>90.6</ele>
        <time>2017-10-16T18:54:43Z</time>
      </trkpt>
      <trkpt lat="62.634130635192" lon="17.980729923355">
        <ele>90.8</ele>
        <time>2017-10-16T18:54:44Z</time>
      </trkpt>
      <trkpt lat="62.634115547772" lon="17.980785746809">
        <ele>90.6</ele>
        <time>2017-10-16T18:54:45Z</time>
      </trkpt>
      <trkpt lat="62.634095850307" lon="17.980849113973">
        <ele>90.4</ele>
        <time>2017-10-16T18:54:46Z</time>
      </trkpt>
      <trkpt lat="62.634053605531" lon="17.980947936574">
        <ele>90.6</ele>
        <time>2017-10-16T18:54:48Z</time>
      </trkpt>
      <trkpt lat="62.634038518111" lon="17.980970567704">
        <ele>90.4</ele>
        <time>2017-10-16T18:54:49Z</time>
      </trkpt>
      <trkpt lat="62.634028040736" lon="17.980993282653">
        <ele>91.4</ele>
        <time>2017-10-16T18:54:50Z</time>
      </trkpt>
      <trkpt lat="62.634025107071" lon="17.980994288481">
        <ele>91.4</ele>
        <time>2017-10-16T18:54:51Z</time>
      </trkpt>
      <trkpt lat="62.634022508682" lon="17.980977943776">
        <ele>91.4</ele>
        <time>2017-10-16T18:54:52Z</time>
      </trkpt>
      <trkpt lat="62.634032231686" lon="17.980986577133">
        <ele>91.2</ele>
        <time>2017-10-16T18:54:53Z</time>
      </trkpt>
      <trkpt lat="62.634039272482" lon="17.98099185773">
        <ele>91.2</ele>
        <time>2017-10-16T18:54:54Z</time>
      </trkpt>
      <trkpt lat="62.634001134837" lon="17.980967885496">
        <ele>89.8</ele>
        <time>2017-10-16T18:54:57Z</time>
      </trkpt>
      <trkpt lat="62.634002308303" lon="17.980969980971">
        <ele>89.8</ele>
        <time>2017-10-16T18:54:58Z</time>
      </trkpt>
      <trkpt lat="62.633998536448" lon="17.980967047306">
        <ele>89.6</ele>
        <time>2017-10-16T18:54:59Z</time>
      </trkpt>
      <trkpt lat="62.634106830596" lon="17.980588436883">
        <ele>90</ele>
        <time>2017-10-16T18:55:09Z</time>
      </trkpt>
      <trkpt lat="62.634124432586" lon="17.980529763583">
        <ele>90</ele>
        <time>2017-10-16T18:55:10Z</time>
      </trkpt>
      <trkpt lat="62.634140358196" lon="17.980482657305">
        <ele>90</ele>
        <time>2017-10-16T18:55:11Z</time>
      </trkpt>
      <trkpt lat="62.634157792548" lon="17.980420463607">
        <ele>90</ele>
        <time>2017-10-16T18:55:12Z</time>
      </trkpt>
      <trkpt lat="62.63417103595" lon="17.980361119755">
        <ele>90</ele>
        <time>2017-10-16T18:55:13Z</time>
      </trkpt>
      <trkpt lat="62.634192074519" lon="17.980295405659">
        <ele>90</ele>
        <time>2017-10-16T18:55:14Z</time>
      </trkpt>
      <trkpt lat="62.634205317921" lon="17.980238995472">
        <ele>90.2</ele>
        <time>2017-10-16T18:55:15Z</time>
      </trkpt>
      <trkpt lat="62.634221494988" lon="17.98018048981">
        <ele>90.2</ele>
        <time>2017-10-16T18:55:16Z</time>
      </trkpt>
      <trkpt lat="62.634236833865" lon="17.98011678737">
        <ele>90.2</ele>
        <time>2017-10-16T18:55:17Z</time>
      </trkpt>
      <trkpt lat="62.634258459167" lon="17.980056940604">
        <ele>90.2</ele>
        <time>2017-10-16T18:55:18Z</time>
      </trkpt>
      <trkpt lat="62.634277569899" lon="17.979996004191">
        <ele>90</ele>
        <time>2017-10-16T18:55:19Z</time>
      </trkpt>
      <trkpt lat="62.634293914604" lon="17.979927775525">
        <ele>90</ele>
        <time>2017-10-16T18:55:20Z</time>
      </trkpt>
      <trkpt lat="62.634312606241" lon="17.97985191933">
        <ele>90</ele>
        <time>2017-10-16T18:55:21Z</time>
      </trkpt>
      <trkpt lat="62.634329956774" lon="17.979789138899">
        <ele>90</ele>
        <time>2017-10-16T18:55:22Z</time>
      </trkpt>
      <trkpt lat="62.63434202671" lon="17.979718730939">
        <ele>90</ele>
        <time>2017-10-16T18:55:23Z</time>
      </trkpt>
      <trkpt lat="62.634356778854" lon="17.979651089006">
        <ele>90</ele>
        <time>2017-10-16T18:55:24Z</time>
      </trkpt>
      <trkpt lat="62.634366669496" lon="17.979584201444">
        <ele>89.8</ele>
        <time>2017-10-16T18:55:25Z</time>
      </trkpt>
      <trkpt lat="62.634374799939" lon="17.979500885358">
        <ele>89.8</ele>
        <time>2017-10-16T18:55:26Z</time>
      </trkpt>
      <trkpt lat="62.634385361133" lon="17.97943701528">
        <ele>89.4</ele>
        <time>2017-10-16T18:55:27Z</time>
      </trkpt>
      <trkpt lat="62.634395167956" lon="17.979382365292">
        <ele>89.4</ele>
        <time>2017-10-16T18:55:28Z</time>
      </trkpt>
      <trkpt lat="62.634410842109" lon="17.979310029495">
        <ele>89.4</ele>
        <time>2017-10-16T18:55:29Z</time>
      </trkpt>
      <trkpt lat="62.634418302" lon="17.979242219924">
        <ele>89.4</ele>
        <time>2017-10-16T18:55:30Z</time>
      </trkpt>
      <trkpt lat="62.63442919847" lon="17.979167034281">
        <ele>89.4</ele>
        <time>2017-10-16T18:55:31Z</time>
      </trkpt>
      <trkpt lat="62.634448728297" lon="17.979085143118">
        <ele>89.6</ele>
        <time>2017-10-16T18:55:33Z</time>
      </trkpt>
      <trkpt lat="62.634453338342" lon="17.979063433997">
        <ele>89.8</ele>
        <time>2017-10-16T18:55:34Z</time>
      </trkpt>
      <trkpt lat="62.634459205672" lon="17.979044239446">
        <ele>90</ele>
        <time>2017-10-16T18:55:35Z</time>
      </trkpt>
      <trkpt lat="62.634460714414" lon="17.979016662995">
        <ele>90.2</ele>
        <time>2017-10-16T18:55:36Z</time>
      </trkpt>
      <trkpt lat="62.63446691702" lon="17.978996714073">
        <ele>90.6</ele>
        <time>2017-10-16T18:55:37Z</time>
      </trkpt>
      <trkpt lat="62.634472281436" lon="17.978977016608">
        <ele>90.4</ele>
        <time>2017-10-16T18:55:38Z</time>
      </trkpt>
      <trkpt lat="62.634475718015" lon="17.978955307487">
        <ele>90.8</ele>
        <time>2017-10-16T18:55:39Z</time>
      </trkpt>
      <trkpt lat="62.634480663336" lon="17.97893996861">
        <ele>90</ele>
        <time>2017-10-16T18:55:40Z</time>
      </trkpt>
      <trkpt lat="62.63448619539" lon="17.978921109335">
        <ele>90</ele>
        <time>2017-10-16T18:55:41Z</time>
      </trkpt>
      <trkpt lat="62.634486782123" lon="17.978906273372">
        <ele>89.8</ele>
        <time>2017-10-16T18:55:42Z</time>
      </trkpt>
      <trkpt lat="62.634491392168" lon="17.97890895558">
        <ele>89.8</ele>
        <time>2017-10-16T18:55:43Z</time>
      </trkpt>
      <trkpt lat="62.634476807662" lon="17.979228054513">
        <ele>90</ele>
        <time>2017-10-16T18:55:51Z</time>
      </trkpt>
      <trkpt lat="62.634468090486" lon="17.979303156337">
        <ele>90</ele>
        <time>2017-10-16T18:55:52Z</time>
      </trkpt>
      <trkpt lat="62.634458954215" lon="17.979377336152">
        <ele>90</ele>
        <time>2017-10-16T18:55:53Z</time>
      </trkpt>
      <trkpt lat="62.634444621166" lon="17.979436763823">
        <ele>90</ele>
        <time>2017-10-16T18:55:54Z</time>
      </trkpt>
      <trkpt lat="62.6344350658" lon="17.97949904134">
        <ele>90.2</ele>
        <time>2017-10-16T18:55:55Z</time>
      </trkpt>
      <trkpt lat="62.634422912045" lon="17.979562324685">
        <ele>90.2</ele>
        <time>2017-10-16T18:55:56Z</time>
      </trkpt>
      <trkpt lat="62.634412937584" lon="17.979621333261">
        <ele>90</ele>
        <time>2017-10-16T18:55:57Z</time>
      </trkpt>
      <trkpt lat="62.63440070001" lon="17.979691070669">
        <ele>90</ele>
        <time>2017-10-16T18:55:58Z</time>
      </trkpt>
      <trkpt lat="62.634386283142" lon="17.97976810033">
        <ele>90</ele>
        <time>2017-10-16T18:55:59Z</time>
      </trkpt>
      <trkpt lat="62.634377649785" lon="17.979828198553">
        <ele>89.8</ele>
        <time>2017-10-16T18:56:00Z</time>
      </trkpt>
      <trkpt lat="62.634365998944" lon="17.97988879969">
        <ele>89.8</ele>
        <time>2017-10-16T18:56:01Z</time>
      </trkpt>
      <trkpt lat="62.634348816049" lon="17.979949652284">
        <ele>90</ele>
        <time>2017-10-16T18:56:02Z</time>
      </trkpt>
      <trkpt lat="62.634327861299" lon="17.980015282561">
        <ele>90</ele>
        <time>2017-10-16T18:56:03Z</time>
      </trkpt>
      <trkpt lat="62.634314198802" lon="17.980071692748">
        <ele>90</ele>
        <time>2017-10-16T18:56:04Z</time>
      </trkpt>
      <trkpt lat="62.634293998423" lon="17.980135898102">
        <ele>90</ele>
        <time>2017-10-16T18:56:05Z</time>
      </trkpt>
      <trkpt lat="62.634266924886" lon="17.980200019637">
        <ele>90.2</ele>
        <time>2017-10-16T18:56:06Z</time>
      </trkpt>
      <trkpt lat="62.634237169141" lon="17.980266571923">
        <ele>90.2</ele>
        <time>2017-10-16T18:56:08Z</time>
      </trkpt>
      <trkpt lat="62.634229038698" lon="17.98028274899">
        <ele>90.2</ele>
        <time>2017-10-16T18:56:09Z</time>
      </trkpt>
      <trkpt lat="62.634227278499" lon="17.980284341551">
        <ele>89.2</ele>
        <time>2017-10-16T18:56:10Z</time>
      </trkpt>
      <trkpt lat="62.634213532183" lon="17.980318120608">
        <ele>89.4</ele>
        <time>2017-10-16T18:56:11Z</time>
      </trkpt>
      <trkpt lat="62.634212358717" lon="17.980323401205">
        <ele>89.2</ele>
        <time>2017-10-16T18:56:12Z</time>
      </trkpt>
      <trkpt lat="62.634201629885" lon="17.980352821674">
        <ele>89.2</ele>
        <time>2017-10-16T18:56:13Z</time>
      </trkpt>
      <trkpt lat="62.634193415623" lon="17.980365981257">
        <ele>89.2</ele>
        <time>2017-10-16T18:56:14Z</time>
      </trkpt>
      <trkpt lat="62.634185871913" lon="17.980377967374">
        <ele>90.2</ele>
        <time>2017-10-16T18:56:15Z</time>
      </trkpt>
      <trkpt lat="62.634159720385" lon="17.980413003716">
        <ele>90.2</ele>
        <time>2017-10-16T18:56:17Z</time>
      </trkpt>
      <trkpt lat="62.634144465327" lon="17.980465055315">
        <ele>90.2</ele>
        <time>2017-10-16T18:56:18Z</time>
      </trkpt>
      <trkpt lat="62.634126276604" lon="17.980523812434">
        <ele>91</ele>
        <time>2017-10-16T18:56:19Z</time>
      </trkpt>
      <trkpt lat="62.634111021546" lon="17.980573852377">
        <ele>91</ele>
        <time>2017-10-16T18:56:20Z</time>
      </trkpt>
      <trkpt lat="62.634094090108" lon="17.980630430202">
        <ele>91.2</ele>
        <time>2017-10-16T18:56:21Z</time>
      </trkpt>
      <trkpt lat="62.634080762887" lon="17.980677285023">
        <ele>91.2</ele>
        <time>2017-10-16T18:56:22Z</time>
      </trkpt>
      <trkpt lat="62.634067351847" lon="17.980730929183">
        <ele>91.2</ele>
        <time>2017-10-16T18:56:23Z</time>
      </trkpt>
      <trkpt lat="62.634045558907" lon="17.980796894736">
        <ele>91.2</ele>
        <time>2017-10-16T18:56:24Z</time>
      </trkpt>
      <trkpt lat="62.63402351451" lon="17.980855651855">
        <ele>90.2</ele>
        <time>2017-10-16T18:56:25Z</time>
      </trkpt>
      <trkpt lat="62.633995686602" lon="17.980927820014">
        <ele>90</ele>
        <time>2017-10-16T18:56:26Z</time>
      </trkpt>
      <trkpt lat="62.633983616666" lon="17.980971238256">
        <ele>89.8</ele>
        <time>2017-10-16T18:56:27Z</time>
      </trkpt>
      <trkpt lat="62.633969199798" lon="17.981024128045">
        <ele>89.8</ele>
        <time>2017-10-16T18:56:28Z</time>
      </trkpt>
      <trkpt lat="62.633949167057" lon="17.981093697815">
        <ele>89.8</ele>
        <time>2017-10-16T18:56:29Z</time>
      </trkpt>
      <trkpt lat="62.633927457936" lon="17.981155053323">
        <ele>89.8</ele>
        <time>2017-10-16T18:56:30Z</time>
      </trkpt>
      <trkpt lat="62.633910442679" lon="17.981213475166">
        <ele>89.6</ele>
        <time>2017-10-16T18:56:31Z</time>
      </trkpt>
      <trkpt lat="62.633895690535" lon="17.981278853986">
        <ele>89.6</ele>
        <time>2017-10-16T18:56:32Z</time>
      </trkpt>
      <trkpt lat="62.633879513468" lon="17.981347501747">
        <ele>89.4</ele>
        <time>2017-10-16T18:56:33Z</time>
      </trkpt>
      <trkpt lat="62.633865264238" lon="17.981412964386">
        <ele>89.2</ele>
        <time>2017-10-16T18:56:34Z</time>
      </trkpt>
      <trkpt lat="62.633858558718" lon="17.981458226646">
        <ele>89.2</ele>
        <time>2017-10-16T18:56:35Z</time>
      </trkpt>
      <trkpt lat="62.633851601741" lon="17.981528634606">
        <ele>89.2</ele>
        <time>2017-10-16T18:56:36Z</time>
      </trkpt>
      <trkpt lat="62.633843974212" lon="17.981600635127">
        <ele>89</ele>
        <time>2017-10-16T18:56:37Z</time>
      </trkpt>
      <trkpt lat="62.633830479353" lon="17.981699793004">
        <ele>89</ele>
        <time>2017-10-16T18:56:39Z</time>
      </trkpt>
      <trkpt lat="62.633826036946" lon="17.981730973672">
        <ele>89.2</ele>
        <time>2017-10-16T18:56:40Z</time>
      </trkpt>
      <trkpt lat="62.633824109109" lon="17.981757041381">
        <ele>89.4</ele>
        <time>2017-10-16T18:56:41Z</time>
      </trkpt>
      <trkpt lat="62.63382570167" lon="17.981779337235">
        <ele>89.2</ele>
        <time>2017-10-16T18:56:42Z</time>
      </trkpt>
      <trkpt lat="62.633826372222" lon="17.981801381632">
        <ele>89.4</ele>
        <time>2017-10-16T18:56:43Z</time>
      </trkpt>
      <trkpt lat="62.633822600367" lon="17.981833232852">
        <ele>89.6</ele>
        <time>2017-10-16T18:56:44Z</time>
      </trkpt>
      <trkpt lat="62.633819666702" lon="17.981857372724">
        <ele>89.6</ele>
        <time>2017-10-16T18:56:45Z</time>
      </trkpt>
      <trkpt lat="62.633819415245" lon="17.981907580305">
        <ele>89.6</ele>
        <time>2017-10-16T18:56:47Z</time>
      </trkpt>
      <trkpt lat="62.633814721381" lon="17.981961727379">
        <ele>89.6</ele>
        <time>2017-10-16T18:56:48Z</time>
      </trkpt>
      <trkpt lat="62.633807512947" lon="17.982018053747">
        <ele>86.4</ele>
        <time>2017-10-16T18:56:49Z</time>
      </trkpt>
      <trkpt lat="62.633807932042" lon="17.982086030956">
        <ele>86.2</ele>
        <time>2017-10-16T18:56:50Z</time>
      </trkpt>
      <trkpt lat="62.633805166015" lon="17.982169766137">
        <ele>86</ele>
        <time>2017-10-16T18:56:51Z</time>
      </trkpt>
      <trkpt lat="62.633797622305" lon="17.982249645644">
        <ele>86</ele>
        <time>2017-10-16T18:56:52Z</time>
      </trkpt>
      <trkpt lat="62.633789156586" lon="17.982317455215">
        <ele>85.8</ele>
        <time>2017-10-16T18:56:53Z</time>
      </trkpt>
      <trkpt lat="62.633776583736" lon="17.982396077437">
        <ele>88.8</ele>
        <time>2017-10-16T18:56:54Z</time>
      </trkpt>
      <trkpt lat="62.633759819936" lon="17.982475286392">
        <ele>88.8</ele>
        <time>2017-10-16T18:56:55Z</time>
      </trkpt>
      <trkpt lat="62.633737607901" lon="17.98256597855">
        <ele>88.8</ele>
        <time>2017-10-16T18:56:56Z</time>
      </trkpt>
      <trkpt lat="62.633723274852" lon="17.982635213044">
        <ele>88.8</ele>
        <time>2017-10-16T18:56:57Z</time>
      </trkpt>
      <trkpt lat="62.63371589878" lon="17.982716182198">
        <ele>88.6</ele>
        <time>2017-10-16T18:56:58Z</time>
      </trkpt>
      <trkpt lat="62.633701565731" lon="17.98279061347">
        <ele>88.6</ele>
        <time>2017-10-16T18:56:59Z</time>
      </trkpt>
      <trkpt lat="62.63368740032" lon="17.98285180134">
        <ele>88.6</ele>
        <time>2017-10-16T18:57:00Z</time>
      </trkpt>
      <trkpt lat="62.633674324556" lon="17.982909133536">
        <ele>88.6</ele>
        <time>2017-10-16T18:57:01Z</time>
      </trkpt>
      <trkpt lat="62.63365806367" lon="17.982972835976">
        <ele>88.4</ele>
        <time>2017-10-16T18:57:02Z</time>
      </trkpt>
      <trkpt lat="62.633647921571" lon="17.983053386035">
        <ele>88.6</ele>
        <time>2017-10-16T18:57:03Z</time>
      </trkpt>
      <trkpt lat="62.633628894658" lon="17.983142569451">
        <ele>88.8</ele>
        <time>2017-10-16T18:57:04Z</time>
      </trkpt>
      <trkpt lat="62.633612130858" lon="17.983204176416">
        <ele>88.6</ele>
        <time>2017-10-16T18:57:05Z</time>
      </trkpt>
      <trkpt lat="62.633590421737" lon="17.983276344575">
        <ele>88.6</ele>
        <time>2017-10-16T18:57:06Z</time>
      </trkpt>
      <trkpt lat="62.633572903566" lon="17.983367707285">
        <ele>88.8</ele>
        <time>2017-10-16T18:57:07Z</time>
      </trkpt>
      <trkpt lat="62.633543064002" lon="17.983474073596">
        <ele>88.8</ele>
        <time>2017-10-16T18:57:09Z</time>
      </trkpt>
      <trkpt lat="62.633535604111" lon="17.983505338083">
        <ele>88.8</ele>
        <time>2017-10-16T18:57:10Z</time>
      </trkpt>
      <trkpt lat="62.633529652962" lon="17.98351900058">
        <ele>88.8</ele>
        <time>2017-10-16T18:57:11Z</time>
      </trkpt>
      <trkpt lat="62.633531999894" lon="17.98352235334">
        <ele>88.8</ele>
        <time>2017-10-16T18:57:12Z</time>
      </trkpt>
      <trkpt lat="62.633521690157" lon="17.983542302262">
        <ele>88.8</ele>
        <time>2017-10-16T18:57:13Z</time>
      </trkpt>
      <trkpt lat="62.633515822827" lon="17.983562335003">
        <ele>88.8</ele>
        <time>2017-10-16T18:57:14Z</time>
      </trkpt>
      <trkpt lat="62.633513140619" lon="17.983576751871">
        <ele>88.8</ele>
        <time>2017-10-16T18:57:15Z</time>
      </trkpt>
      <trkpt lat="62.633514230266" lon="17.983563340831">
        <ele>88.8</ele>
        <time>2017-10-16T18:57:17Z</time>
      </trkpt>
      <trkpt lat="62.633521690157" lon="17.983526460471">
        <ele>88.8</ele>
        <time>2017-10-16T18:57:18Z</time>
      </trkpt>
      <trkpt lat="62.633526551659" lon="17.983447083878">
        <ele>88.8</ele>
        <time>2017-10-16T18:57:19Z</time>
      </trkpt>
      <trkpt lat="62.633536609939" lon="17.98338656656">
        <ele>88.8</ele>
        <time>2017-10-16T18:57:20Z</time>
      </trkpt>
      <trkpt lat="62.633547338771" lon="17.98330945308">
        <ele>88.8</ele>
        <time>2017-10-16T18:57:21Z</time>
      </trkpt>
      <trkpt lat="62.633551110626" lon="17.983237787835">
        <ele>88.6</ele>
        <time>2017-10-16T18:57:22Z</time>
      </trkpt>
      <trkpt lat="62.633563683476" lon="17.983167212237">
        <ele>88.8</ele>
        <time>2017-10-16T18:57:23Z</time>
      </trkpt>
      <trkpt lat="62.633576591602" lon="17.983087165092">
        <ele>88.6</ele>
        <time>2017-10-16T18:57:24Z</time>
      </trkpt>
      <trkpt lat="62.633585560235" lon="17.982998987504">
        <ele>88.6</ele>
        <time>2017-10-16T18:57:25Z</time>
      </trkpt>
      <trkpt lat="62.633598300723" lon="17.982908882079">
        <ele>88.4</ele>
        <time>2017-10-16T18:57:26Z</time>
      </trkpt>
      <trkpt lat="62.633609532469" lon="17.982828248201">
        <ele>88.4</ele>
        <time>2017-10-16T18:57:27Z</time>
      </trkpt>
      <trkpt lat="62.633623446423" lon="17.982747279047">
        <ele>88.2</ele>
        <time>2017-10-16T18:57:28Z</time>
      </trkpt>
      <trkpt lat="62.633641886603" lon="17.982677038725">
        <ele>88.2</ele>
        <time>2017-10-16T18:57:29Z</time>
      </trkpt>
      <trkpt lat="62.633655800557" lon="17.98261375538">
        <ele>88</ele>
        <time>2017-10-16T18:57:30Z</time>
      </trkpt>
      <trkpt lat="62.63366896014" lon="17.982541922497">
        <ele>88</ele>
        <time>2017-10-16T18:57:31Z</time>
      </trkpt>
      <trkpt lat="62.633679772791" lon="17.982472771822">
        <ele>88.2</ele>
        <time>2017-10-16T18:57:32Z</time>
      </trkpt>
      <trkpt lat="62.633684718112" lon="17.982392557039">
        <ele>88.2</ele>
        <time>2017-10-16T18:57:33Z</time>
      </trkpt>
      <trkpt lat="62.633695530763" lon="17.982313012808">
        <ele>88.4</ele>
        <time>2017-10-16T18:57:34Z</time>
      </trkpt>
      <trkpt lat="62.63370248774" lon="17.982248891273">
        <ele>88.4</ele>
        <time>2017-10-16T18:57:35Z</time>
      </trkpt>
      <trkpt lat="62.633704415577" lon="17.982164820816">
        <ele>88.4</ele>
        <time>2017-10-16T18:57:36Z</time>
      </trkpt>
      <trkpt lat="62.633715479685" lon="17.982071278812">
        <ele>88.4</ele>
        <time>2017-10-16T18:57:38Z</time>
      </trkpt>
      <trkpt lat="62.633723610128" lon="17.982040181963">
        <ele>88.4</ele>
        <time>2017-10-16T18:57:39Z</time>
      </trkpt>
      <trkpt lat="62.633726040879" lon="17.982015371539">
        <ele>88.4</ele>
        <time>2017-10-16T18:57:40Z</time>
      </trkpt>
      <trkpt lat="62.633728974544" lon="17.982016461186">
        <ele>88.6</ele>
        <time>2017-10-16T18:57:41Z</time>
      </trkpt>
      <trkpt lat="62.633724113042" lon="17.98202115505">
        <ele>88.8</ele>
        <time>2017-10-16T18:57:42Z</time>
      </trkpt>
      <trkpt lat="62.63372511887" lon="17.982019730127">
        <ele>89</ele>
        <time>2017-10-16T18:57:43Z</time>
      </trkpt>
      <trkpt lat="62.63373433896" lon="17.981925936666">
        <ele>89.2</ele>
        <time>2017-10-16T18:57:47Z</time>
      </trkpt>
      <trkpt lat="62.633736099159" lon="17.981865503167">
        <ele>89.2</ele>
        <time>2017-10-16T18:57:48Z</time>
      </trkpt>
      <trkpt lat="62.633738278453" lon="17.981805237306">
        <ele>89.4</ele>
        <time>2017-10-16T18:57:49Z</time>
      </trkpt>
      <trkpt lat="62.633740122471" lon="17.981735667536">
        <ele>89.4</ele>
        <time>2017-10-16T18:57:50Z</time>
      </trkpt>
      <trkpt lat="62.633745570706" lon="17.981656961495">
        <ele>89.4</ele>
        <time>2017-10-16T18:57:51Z</time>
      </trkpt>
      <trkpt lat="62.633750599846" lon="17.981574567418">
        <ele>89.2</ele>
        <time>2017-10-16T18:57:52Z</time>
      </trkpt>
      <trkpt lat="62.633757137728" lon="17.981498375947">
        <ele>89</ele>
        <time>2017-10-16T18:57:53Z</time>
      </trkpt>
      <trkpt lat="62.633760071393" lon="17.981423777037">
        <ele>89</ele>
        <time>2017-10-16T18:57:54Z</time>
      </trkpt>
      <trkpt lat="62.633763927067" lon="17.981355296914">
        <ele>88.8</ele>
        <time>2017-10-16T18:57:55Z</time>
      </trkpt>
      <trkpt lat="62.633773650071" lon="17.981289582818">
        <ele>88.8</ele>
        <time>2017-10-16T18:57:56Z</time>
      </trkpt>
      <trkpt lat="62.633795359192" lon="17.98119805247">
        <ele>89</ele>
        <time>2017-10-16T18:57:58Z</time>
      </trkpt>
      <trkpt lat="62.633802651445" lon="17.98116871582">
        <ele>89.2</ele>
        <time>2017-10-16T18:57:59Z</time>
      </trkpt>
      <trkpt lat="62.633805668929" lon="17.981153879857">
        <ele>89.2</ele>
        <time>2017-10-16T18:58:00Z</time>
      </trkpt>
      <trkpt lat="62.633808602594" lon="17.981126973958">
        <ele>89.4</ele>
        <time>2017-10-16T18:58:01Z</time>
      </trkpt>
      <trkpt lat="62.633812458268" lon="17.981097972584">
        <ele>89.4</ele>
        <time>2017-10-16T18:58:02Z</time>
      </trkpt>
      <trkpt lat="62.633820840168" lon="17.98107232397">
        <ele>89.4</ele>
        <time>2017-10-16T18:58:03Z</time>
      </trkpt>
      <trkpt lat="62.633828383878" lon="17.981056649817">
        <ele>89.4</ele>
        <time>2017-10-16T18:58:04Z</time>
      </trkpt>
      <trkpt lat="62.633845985868" lon="17.981020691466">
        <ele>89.6</ele>
        <time>2017-10-16T18:58:06Z</time>
      </trkpt>
      <trkpt lat="62.633861827659" lon="17.980980290708">
        <ele>89.6</ele>
        <time>2017-10-16T18:58:07Z</time>
      </trkpt>
      <trkpt lat="62.633880938391" lon="17.980917510277">
        <ele>89.6</ele>
        <time>2017-10-16T18:58:08Z</time>
      </trkpt>
      <trkpt lat="62.633897199277" lon="17.980871074551">
        <ele>89.6</ele>
        <time>2017-10-16T18:58:09Z</time>
      </trkpt>
      <trkpt lat="62.633915136543" lon="17.980820531694">
        <ele>89.8</ele>
        <time>2017-10-16T18:58:10Z</time>
      </trkpt>
      <trkpt lat="62.633936929483" lon="17.980761606937">
        <ele>89.8</ele>
        <time>2017-10-16T18:58:11Z</time>
      </trkpt>
      <trkpt lat="62.633956543129" lon="17.980710644985">
        <ele>90</ele>
        <time>2017-10-16T18:58:12Z</time>
      </trkpt>
      <trkpt lat="62.633973642205" lon="17.980661946146">
        <ele>90</ele>
        <time>2017-10-16T18:58:13Z</time>
      </trkpt>
      <trkpt lat="62.633994261679" lon="17.980606541787">
        <ele>90</ele>
        <time>2017-10-16T18:58:14Z</time>
      </trkpt>
      <trkpt lat="62.634014042963" lon="17.980551891799">
        <ele>90</ele>
        <time>2017-10-16T18:58:15Z</time>
      </trkpt>
      <trkpt lat="62.634033488971" lon="17.980500175476">
        <ele>90</ele>
        <time>2017-10-16T18:58:16Z</time>
      </trkpt>
      <trkpt lat="62.6340746441" lon="17.98041266844">
        <ele>89.6</ele>
        <time>2017-10-16T18:58:18Z</time>
      </trkpt>
      <trkpt lat="62.634087887502" lon="17.980379057021">
        <ele>89.6</ele>
        <time>2017-10-16T18:58:19Z</time>
      </trkpt>
      <trkpt lat="62.634095179755" lon="17.980359191918">
        <ele>89.8</ele>
        <time>2017-10-16T18:58:20Z</time>
      </trkpt>
      <trkpt lat="62.63410146618" lon="17.98033974591">
        <ele>90</ele>
        <time>2017-10-16T18:58:21Z</time>
      </trkpt>
      <trkpt lat="62.634107249691" lon="17.980323485024">
        <ele>90.2</ele>
        <time>2017-10-16T18:58:22Z</time>
      </trkpt>
      <trkpt lat="62.634116469781" lon="17.980295908573">
        <ele>90.2</ele>
        <time>2017-10-16T18:58:23Z</time>
      </trkpt>
      <trkpt lat="62.634125270776" lon="17.980281994619">
        <ele>90.4</ele>
        <time>2017-10-16T18:58:24Z</time>
      </trkpt>
      <trkpt lat="62.634135412875" lon="17.980278138945">
        <ele>90.2</ele>
        <time>2017-10-16T18:58:25Z</time>
      </trkpt>
      <trkpt lat="62.63416265405" lon="17.980233966332">
        <ele>90.2</ele>
        <time>2017-10-16T18:58:27Z</time>
      </trkpt>
      <trkpt lat="62.634188470302" lon="17.980193817031">
        <ele>90.2</ele>
        <time>2017-10-16T18:58:28Z</time>
      </trkpt>
      <trkpt lat="62.634210011785" lon="17.98014109488">
        <ele>90.2</ele>
        <time>2017-10-16T18:58:29Z</time>
      </trkpt>
      <trkpt lat="62.634235157485" lon="17.980077560078">
        <ele>90.2</ele>
        <time>2017-10-16T18:58:30Z</time>
      </trkpt>
      <trkpt lat="62.634257201882" lon="17.979995166001">
        <ele>90</ele>
        <time>2017-10-16T18:58:31Z</time>
      </trkpt>
      <trkpt lat="62.63427664789" lon="17.979928026982">
        <ele>90.2</ele>
        <time>2017-10-16T18:58:32Z</time>
      </trkpt>
      <trkpt lat="62.634297686459" lon="17.97986113942">
        <ele>90.2</ele>
        <time>2017-10-16T18:58:33Z</time>
      </trkpt>
      <trkpt lat="62.634316126639" lon="17.979787965433">
        <ele>90.2</ele>
        <time>2017-10-16T18:58:34Z</time>
      </trkpt>
      <trkpt lat="62.634331716973" lon="17.979728202486">
        <ele>90</ele>
        <time>2017-10-16T18:58:35Z</time>
      </trkpt>
      <trkpt lat="62.634351414438" lon="17.979648155341">
        <ele>90</ele>
        <time>2017-10-16T18:58:36Z</time>
      </trkpt>
      <trkpt lat="62.634366753315" lon="17.979576825372">
        <ele>90.4</ele>
        <time>2017-10-16T18:58:37Z</time>
      </trkpt>
      <trkpt lat="62.63438980354" lon="17.979457215659">
        <ele>90</ele>
        <time>2017-10-16T18:58:39Z</time>
      </trkpt>
      <trkpt lat="62.634396676698" lon="17.979432908149">
        <ele>90.2</ele>
        <time>2017-10-16T18:58:40Z</time>
      </trkpt>
      <trkpt lat="62.634405980607" lon="17.9794018113">
        <ele>90.2</ele>
        <time>2017-10-16T18:58:41Z</time>
      </trkpt>
      <trkpt lat="62.634402963123" lon="17.979401978938">
        <ele>89.8</ele>
        <time>2017-10-16T18:58:42Z</time>
      </trkpt>
      <trkpt lat="62.63440572915" lon="17.97935906361">
        <ele>90</ele>
        <time>2017-10-16T18:58:43Z</time>
      </trkpt>
      <trkpt lat="62.634409584824" lon="17.979335845747">
        <ele>90</ele>
        <time>2017-10-16T18:58:44Z</time>
      </trkpt>
      <trkpt lat="62.634410423014" lon="17.979313130798">
        <ele>90</ele>
        <time>2017-10-16T18:58:45Z</time>
      </trkpt>
      <trkpt lat="62.634423582597" lon="17.979271221298">
        <ele>89.8</ele>
        <time>2017-10-16T18:58:47Z</time>
      </trkpt>
      <trkpt lat="62.634434646705" lon="17.979197376759">
        <ele>89.8</ele>
        <time>2017-10-16T18:58:48Z</time>
      </trkpt>
      <trkpt lat="62.634444453528" lon="17.979103667117">
        <ele>89.8</ele>
        <time>2017-10-16T18:58:49Z</time>
      </trkpt>
      <trkpt lat="62.634457613111" lon="17.979034348804">
        <ele>89.8</ele>
        <time>2017-10-16T18:58:50Z</time>
      </trkpt>
      <trkpt lat="62.634474879825" lon="17.978937621678">
        <ele>89.6</ele>
        <time>2017-10-16T18:58:51Z</time>
      </trkpt>
      <trkpt lat="62.634489715788" lon="17.978841565104">
        <ele>89.6</ele>
        <time>2017-10-16T18:58:52Z</time>
      </trkpt>
      <trkpt lat="62.634503043009" lon="17.97876981604">
        <ele>89.6</ele>
        <time>2017-10-16T18:58:53Z</time>
      </trkpt>
      <trkpt lat="62.634518298067" lon="17.9786809679">
        <ele>89.4</ele>
        <time>2017-10-16T18:58:54Z</time>
      </trkpt>
      <trkpt lat="62.634535397143" lon="17.978606620447">
        <ele>89.4</ele>
        <time>2017-10-16T18:58:55Z</time>
      </trkpt>
      <trkpt lat="62.634551155115" lon="17.978518694316">
        <ele>89.4</ele>
        <time>2017-10-16T18:58:56Z</time>
      </trkpt>
      <trkpt lat="62.63456414706" lon="17.978440323551">
        <ele>89.2</ele>
        <time>2017-10-16T18:58:57Z</time>
      </trkpt>
      <trkpt lat="62.634578647747" lon="17.978349715212">
        <ele>89.2</ele>
        <time>2017-10-16T18:58:58Z</time>
      </trkpt>
      <trkpt lat="62.634599183402" lon="17.978200182116">
        <ele>88.8</ele>
        <time>2017-10-16T18:59:00Z</time>
      </trkpt>
      <trkpt lat="62.634606308017" lon="17.978143771929">
        <ele>88.6</ele>
        <time>2017-10-16T18:59:01Z</time>
      </trkpt>
      <trkpt lat="62.634610834243" lon="17.978117117487">
        <ele>88.4</ele>
        <time>2017-10-16T18:59:02Z</time>
      </trkpt>
      <trkpt lat="62.634612845899" lon="17.978098928764">
        <ele>88.4</ele>
        <time>2017-10-16T18:59:03Z</time>
      </trkpt>
      <trkpt lat="62.634614606098" lon="17.978078644566">
        <ele>88.4</ele>
        <time>2017-10-16T18:59:04Z</time>
      </trkpt>
      <trkpt lat="62.634619299962" lon="17.978059366196">
        <ele>88.4</ele>
        <time>2017-10-16T18:59:05Z</time>
      </trkpt>
      <trkpt lat="62.634626256939" lon="17.978033298487">
        <ele>88.4</ele>
        <time>2017-10-16T18:59:06Z</time>
      </trkpt>
      <trkpt lat="62.634630699346" lon="17.978017372877">
        <ele>88.2</ele>
        <time>2017-10-16T18:59:07Z</time>
      </trkpt>
      <trkpt lat="62.634631537536" lon="17.977999770887">
        <ele>88.2</ele>
        <time>2017-10-16T18:59:08Z</time>
      </trkpt>
      <trkpt lat="62.634631788993" lon="17.977981246888">
        <ele>88</ele>
        <time>2017-10-16T18:59:09Z</time>
      </trkpt>
      <trkpt lat="62.634634387382" lon="17.977969260771">
        <ele>88</ele>
        <time>2017-10-16T18:59:10Z</time>
      </trkpt>
      <trkpt lat="62.634641679635" lon="17.977954508627">
        <ele>88</ele>
        <time>2017-10-16T18:59:11Z</time>
      </trkpt>
      <trkpt lat="62.634650061535" lon="17.977945288537">
        <ele>88</ele>
        <time>2017-10-16T18:59:12Z</time>
      </trkpt>
      <trkpt lat="62.63465802434" lon="17.977940427035">
        <ele>88</ele>
        <time>2017-10-16T18:59:13Z</time>
      </trkpt>
      <trkpt lat="62.63466556805" lon="17.977938080103">
        <ele>88</ele>
        <time>2017-10-16T18:59:14Z</time>
      </trkpt>
      <trkpt lat="62.634670932466" lon="17.977945204718">
        <ele>88</ele>
        <time>2017-10-16T18:59:15Z</time>
      </trkpt>
      <trkpt lat="62.634669675181" lon="17.977960878871">
        <ele>88</ele>
        <time>2017-10-16T18:59:16Z</time>
      </trkpt>
      <trkpt lat="62.63466724443" lon="17.977974625187">
        <ele>88</ele>
        <time>2017-10-16T18:59:17Z</time>
      </trkpt>
      <trkpt lat="62.634666741516" lon="17.977990718435">
        <ele>88</ele>
        <time>2017-10-16T18:59:18Z</time>
      </trkpt>
      <trkpt lat="62.634664143127" lon="17.978007146959">
        <ele>88</ele>
        <time>2017-10-16T18:59:19Z</time>
      </trkpt>
      <trkpt lat="62.634663640213" lon="17.978023575483">
        <ele>88</ele>
        <time>2017-10-16T18:59:20Z</time>
      </trkpt>
      <trkpt lat="62.634661880014" lon="17.978054337056">
        <ele>88</ele>
        <time>2017-10-16T18:59:21Z</time>
      </trkpt>
      <trkpt lat="62.634660371272" lon="17.9780439435">
        <ele>88</ele>
        <time>2017-10-16T18:59:22Z</time>
      </trkpt>
      <trkpt lat="62.634651402639" lon="17.978085182448">
        <ele>88.2</ele>
        <time>2017-10-16T18:59:23Z</time>
      </trkpt>
      <trkpt lat="62.634647044051" lon="17.978111417795">
        <ele>88.4</ele>
        <time>2017-10-16T18:59:24Z</time>
      </trkpt>
      <trkpt lat="62.634642601644" lon="17.978118458591">
        <ele>88.4</ele>
        <time>2017-10-16T18:59:25Z</time>
      </trkpt>
      <trkpt lat="62.634637153409" lon="17.978135725305">
        <ele>88.6</ele>
        <time>2017-10-16T18:59:26Z</time>
      </trkpt>
      <trkpt lat="62.634631453717" lon="17.97814704087">
        <ele>88.8</ele>
        <time>2017-10-16T18:59:27Z</time>
      </trkpt>
      <trkpt lat="62.634633800649" lon="17.978152740562">
        <ele>88.8</ele>
        <time>2017-10-16T18:59:28Z</time>
      </trkpt>
      <trkpt lat="62.634628352414" lon="17.978169588181">
        <ele>88.6</ele>
        <time>2017-10-16T18:59:29Z</time>
      </trkpt>
      <trkpt lat="62.634625418749" lon="17.978191967854">
        <ele>88.6</ele>
        <time>2017-10-16T18:59:30Z</time>
      </trkpt>
      <trkpt lat="62.634622485084" lon="17.97821409607">
        <ele>88.6</ele>
        <time>2017-10-16T18:59:31Z</time>
      </trkpt>
      <trkpt lat="62.634620473428" lon="17.97823253625">
        <ele>88.6</ele>
        <time>2017-10-16T18:59:32Z</time>
      </trkpt>
      <trkpt lat="62.634618797048" lon="17.978254915923">
        <ele>88.6</ele>
        <time>2017-10-16T18:59:33Z</time>
      </trkpt>
      <trkpt lat="62.634616533935" lon="17.97827193118">
        <ele>88.6</ele>
        <time>2017-10-16T18:59:34Z</time>
      </trkpt>
      <trkpt lat="62.634615611926" lon="17.978285174582">
        <ele>88.6</ele>
        <time>2017-10-16T18:59:35Z</time>
      </trkpt>
      <trkpt lat="62.634613935546" lon="17.978307218979">
        <ele>88.6</ele>
        <time>2017-10-16T18:59:36Z</time>
      </trkpt>
      <trkpt lat="62.634612342985" lon="17.978333538145">
        <ele>88.6</ele>
        <time>2017-10-16T18:59:37Z</time>
      </trkpt>
      <trkpt lat="62.634611588614" lon="17.978352984153">
        <ele>88.8</ele>
        <time>2017-10-16T18:59:38Z</time>
      </trkpt>
      <trkpt lat="62.634609241682" lon="17.978369328858">
        <ele>88.8</ele>
        <time>2017-10-16T18:59:39Z</time>
      </trkpt>
      <trkpt lat="62.63460773294" lon="17.978390786522">
        <ele>88.8</ele>
        <time>2017-10-16T18:59:40Z</time>
      </trkpt>
      <trkpt lat="62.634604631637" lon="17.978416854231">
        <ele>88.8</ele>
        <time>2017-10-16T18:59:41Z</time>
      </trkpt>
      <trkpt lat="62.634601278877" lon="17.978438814809">
        <ele>88.8</ele>
        <time>2017-10-16T18:59:42Z</time>
      </trkpt>
      <trkpt lat="62.634600775963" lon="17.97846220031">
        <ele>88.6</ele>
        <time>2017-10-16T18:59:43Z</time>
      </trkpt>
      <trkpt lat="62.634600273049" lon="17.978486843096">
        <ele>88.6</ele>
        <time>2017-10-16T18:59:44Z</time>
      </trkpt>
      <trkpt lat="62.634598596669" lon="17.978511904977">
        <ele>88.6</ele>
        <time>2017-10-16T18:59:45Z</time>
      </trkpt>
      <trkpt lat="62.634598261393" lon="17.978531518623">
        <ele>88.8</ele>
        <time>2017-10-16T18:59:46Z</time>
      </trkpt>
      <trkpt lat="62.634598261393" lon="17.978551132269">
        <ele>88.8</ele>
        <time>2017-10-16T18:59:47Z</time>
      </trkpt>
      <trkpt lat="62.634598177574" lon="17.97857870872">
        <ele>88.8</ele>
        <time>2017-10-16T18:59:48Z</time>
      </trkpt>
      <trkpt lat="62.634600105411" lon="17.978604776429">
        <ele>88.8</ele>
        <time>2017-10-16T18:59:49Z</time>
      </trkpt>
      <trkpt lat="62.634600273049" lon="17.978625060627">
        <ele>88.8</ele>
        <time>2017-10-16T18:59:50Z</time>
      </trkpt>
      <trkpt lat="62.634599770135" lon="17.978650876879">
        <ele>88.8</ele>
        <time>2017-10-16T18:59:51Z</time>
      </trkpt>
      <trkpt lat="62.634598848126" lon="17.978675771122">
        <ele>89</ele>
        <time>2017-10-16T18:59:52Z</time>
      </trkpt>
      <trkpt lat="62.634597255565" lon="17.978699910994">
        <ele>89</ele>
        <time>2017-10-16T18:59:53Z</time>
      </trkpt>
      <trkpt lat="62.634597590841" lon="17.978733690051">
        <ele>89</ele>
        <time>2017-10-16T18:59:54Z</time>
      </trkpt>
      <trkpt lat="62.63459599828" lon="17.978751962593">
        <ele>89</ele>
        <time>2017-10-16T18:59:55Z</time>
      </trkpt>
      <trkpt lat="62.634597339384" lon="17.978772833524">
        <ele>89</ele>
        <time>2017-10-16T18:59:56Z</time>
      </trkpt>
      <trkpt lat="62.634597758479" lon="17.978796135206">
        <ele>89</ele>
        <time>2017-10-16T18:59:57Z</time>
      </trkpt>
      <trkpt lat="62.634600775963" lon="17.978813821015">
        <ele>89</ele>
        <time>2017-10-16T18:59:58Z</time>
      </trkpt>
      <trkpt lat="62.634603458171" lon="17.978826980598">
        <ele>89.2</ele>
        <time>2017-10-16T18:59:59Z</time>
      </trkpt>
      <trkpt lat="62.634601446515" lon="17.978825220399">
        <ele>89</ele>
        <time>2017-10-16T19:00:00Z</time>
      </trkpt>
      <trkpt lat="62.634604044904" lon="17.978824801304">
        <ele>89</ele>
        <time>2017-10-16T19:00:01Z</time>
      </trkpt>
      <trkpt lat="62.634778975157" lon="17.978866291709">
        <ele>90</ele>
        <time>2017-10-16T19:01:00Z</time>
      </trkpt>
      <trkpt lat="62.634804959047" lon="17.978875930894">
        <ele>90.8</ele>
        <time>2017-10-16T19:01:01Z</time>
      </trkpt>
      <trkpt lat="62.634837648457" lon="17.978895963635">
        <ele>90.6</ele>
        <time>2017-10-16T19:01:02Z</time>
      </trkpt>
      <trkpt lat="62.634864135261" lon="17.978912392159">
        <ele>90.4</ele>
        <time>2017-10-16T19:01:03Z</time>
      </trkpt>
      <trkpt lat="62.634890789703" lon="17.978927144303">
        <ele>90</ele>
        <time>2017-10-16T19:01:04Z</time>
      </trkpt>
      <trkpt lat="62.634910906263" lon="17.978938459868">
        <ele>90</ele>
        <time>2017-10-16T19:01:05Z</time>
      </trkpt>
      <trkpt lat="62.634941667836" lon="17.978951870908">
        <ele>89.6</ele>
        <time>2017-10-16T19:01:06Z</time>
      </trkpt>
      <trkpt lat="62.634966226803" lon="17.978958324971">
        <ele>88.6</ele>
        <time>2017-10-16T19:01:07Z</time>
      </trkpt>
      <trkpt lat="62.634989277028" lon="17.978973663848">
        <ele>88.6</ele>
        <time>2017-10-16T19:01:08Z</time>
      </trkpt>
      <trkpt lat="62.635011824339" lon="17.978985314689">
        <ele>88.6</ele>
        <time>2017-10-16T19:01:09Z</time>
      </trkpt>
      <trkpt lat="62.635036718582" lon="17.979002665222">
        <ele>88.2</ele>
        <time>2017-10-16T19:01:10Z</time>
      </trkpt>
      <trkpt lat="62.635061780463" lon="17.979015657167">
        <ele>88.2</ele>
        <time>2017-10-16T19:01:11Z</time>
      </trkpt>
      <trkpt lat="62.635091117113" lon="17.979027056551">
        <ele>88.2</ele>
        <time>2017-10-16T19:01:12Z</time>
      </trkpt>
      <trkpt lat="62.635118693564" lon="17.979039461763">
        <ele>88.2</ele>
        <time>2017-10-16T19:01:13Z</time>
      </trkpt>
      <trkpt lat="62.635145264187" lon="17.979043568894">
        <ele>88</ele>
        <time>2017-10-16T19:01:14Z</time>
      </trkpt>
      <trkpt lat="62.635173595009" lon="17.979052202251">
        <ele>88</ele>
        <time>2017-10-16T19:01:15Z</time>
      </trkpt>
      <trkpt lat="62.635203350754" lon="17.97906318254">
        <ele>88</ele>
        <time>2017-10-16T19:01:16Z</time>
      </trkpt>
      <trkpt lat="62.635227742083" lon="17.979067708766">
        <ele>88</ele>
        <time>2017-10-16T19:01:17Z</time>
      </trkpt>
      <trkpt lat="62.635257162552" lon="17.979075001019">
        <ele>87.8</ele>
        <time>2017-10-16T19:01:18Z</time>
      </trkpt>
      <trkpt lat="62.635284068451" lon="17.979077180313">
        <ele>87.6</ele>
        <time>2017-10-16T19:01:19Z</time>
      </trkpt>
      <trkpt lat="62.635306951038" lon="17.979083634376">
        <ele>87.6</ele>
        <time>2017-10-16T19:01:20Z</time>
      </trkpt>
      <trkpt lat="62.635338802258" lon="17.97909335738">
        <ele>87.4</ele>
        <time>2017-10-16T19:01:21Z</time>
      </trkpt>
      <trkpt lat="62.63536629489" lon="17.979097464511">
        <ele>87.4</ele>
        <time>2017-10-16T19:01:22Z</time>
      </trkpt>
      <trkpt lat="62.635385657079" lon="17.97909084281">
        <ele>87.4</ele>
        <time>2017-10-16T19:01:23Z</time>
      </trkpt>
      <trkpt lat="62.635425638742" lon="17.979085394575">
        <ele>87.4</ele>
        <time>2017-10-16T19:01:24Z</time>
      </trkpt>
      <trkpt lat="62.63544759932" lon="17.979071732078">
        <ele>87.4</ele>
        <time>2017-10-16T19:01:25Z</time>
      </trkpt>
      <trkpt lat="62.635476349237" lon="17.979067205852">
        <ele>87.4</ele>
        <time>2017-10-16T19:01:26Z</time>
      </trkpt>
      <trkpt lat="62.635495459969" lon="17.97907240263">
        <ele>87.4</ele>
        <time>2017-10-16T19:01:27Z</time>
      </trkpt>
      <trkpt lat="62.635526724456" lon="17.97906737349">
        <ele>87.2</ele>
        <time>2017-10-16T19:01:28Z</time>
      </trkpt>
      <trkpt lat="62.635553881812" lon="17.979076006847">
        <ele>87.2</ele>
        <time>2017-10-16T19:01:29Z</time>
      </trkpt>
      <trkpt lat="62.635580703892" lon="17.979066200024">
        <ele>87</ele>
        <time>2017-10-16T19:01:30Z</time>
      </trkpt>
      <trkpt lat="62.635606687782" lon="17.979064104549">
        <ele>86.8</ele>
        <time>2017-10-16T19:01:31Z</time>
      </trkpt>
      <trkpt lat="62.635635521518" lon="17.97905899159">
        <ele>86.8</ele>
        <time>2017-10-16T19:01:32Z</time>
      </trkpt>
      <trkpt lat="62.63566133777" lon="17.97906234435">
        <ele>86.6</ele>
        <time>2017-10-16T19:01:33Z</time>
      </trkpt>
      <trkpt lat="62.635683717443" lon="17.979062847264">
        <ele>86.4</ele>
        <time>2017-10-16T19:01:34Z</time>
      </trkpt>
      <trkpt lat="62.635704839831" lon="17.979056309382">
        <ele>86.4</ele>
        <time>2017-10-16T19:01:35Z</time>
      </trkpt>
      <trkpt lat="62.635732500101" lon="17.979045664369">
        <ele>86.2</ele>
        <time>2017-10-16T19:01:36Z</time>
      </trkpt>
      <trkpt lat="62.635756975249" lon="17.979043317437">
        <ele>86.2</ele>
        <time>2017-10-16T19:01:37Z</time>
      </trkpt>
      <trkpt lat="62.635783797329" lon="17.979044071808">
        <ele>86</ele>
        <time>2017-10-16T19:01:38Z</time>
      </trkpt>
      <trkpt lat="62.635809362124" lon="17.979038288297">
        <ele>85.8</ele>
        <time>2017-10-16T19:01:39Z</time>
      </trkpt>
      <trkpt lat="62.635829981598" lon="17.979037869202">
        <ele>85.8</ele>
        <time>2017-10-16T19:01:40Z</time>
      </trkpt>
      <trkpt lat="62.635854624384" lon="17.979037869202">
        <ele>85.6</ele>
        <time>2017-10-16T19:01:41Z</time>
      </trkpt>
      <trkpt lat="62.635879434808" lon="17.979037701564">
        <ele>85.4</ele>
        <time>2017-10-16T19:01:42Z</time>
      </trkpt>
      <trkpt lat="62.635901227748" lon="17.979038372116">
        <ele>85.4</ele>
        <time>2017-10-16T19:01:43Z</time>
      </trkpt>
      <trkpt lat="62.635927966009" lon="17.979054297726">
        <ele>85.4</ele>
        <time>2017-10-16T19:01:44Z</time>
      </trkpt>
      <trkpt lat="62.635947663474" lon="17.979066200024">
        <ele>85.4</ele>
        <time>2017-10-16T19:01:45Z</time>
      </trkpt>
      <trkpt lat="62.635970713699" lon="17.979082041815">
        <ele>85.4</ele>
        <time>2017-10-16T19:01:46Z</time>
      </trkpt>
      <trkpt lat="62.63598990825" lon="17.97911263575">
        <ele>85.4</ele>
        <time>2017-10-16T19:01:47Z</time>
      </trkpt>
      <trkpt lat="62.636006839688" lon="17.979157562734">
        <ele>85.4</ele>
        <time>2017-10-16T19:01:48Z</time>
      </trkpt>
      <trkpt lat="62.636017065606" lon="17.979209949609">
        <ele>85.6</ele>
        <time>2017-10-16T19:01:49Z</time>
      </trkpt>
      <trkpt lat="62.63602092128" lon="17.979264599597">
        <ele>85.6</ele>
        <time>2017-10-16T19:01:50Z</time>
      </trkpt>
      <trkpt lat="62.636023938764" lon="17.979316818834">
        <ele>85.6</ele>
        <time>2017-10-16T19:01:51Z</time>
      </trkpt>
      <trkpt lat="62.636020334547" lon="17.979364595664">
        <ele>85.8</ele>
        <time>2017-10-16T19:01:52Z</time>
      </trkpt>
      <trkpt lat="62.636014467217" lon="17.97941103139">
        <ele>85.6</ele>
        <time>2017-10-16T19:01:53Z</time>
      </trkpt>
      <trkpt lat="62.636013209932" lon="17.979459143496">
        <ele>85.4</ele>
        <time>2017-10-16T19:01:54Z</time>
      </trkpt>
      <trkpt lat="62.636012287923" lon="17.979505327765">
        <ele>85.2</ele>
        <time>2017-10-16T19:01:55Z</time>
      </trkpt>
      <trkpt lat="62.63601170119" lon="17.979557295545">
        <ele>85</ele>
        <time>2017-10-16T19:01:56Z</time>
      </trkpt>
      <trkpt lat="62.636012287923" lon="17.979618567234">
        <ele>84.8</ele>
        <time>2017-10-16T19:01:57Z</time>
      </trkpt>
      <trkpt lat="62.636008935163" lon="17.979678833095">
        <ele>84.6</ele>
        <time>2017-10-16T19:01:58Z</time>
      </trkpt>
      <trkpt lat="62.636011198276" lon="17.979739434232">
        <ele>84.2</ele>
        <time>2017-10-16T19:01:59Z</time>
      </trkpt>
      <trkpt lat="62.636011282095" lon="17.979791150555">
        <ele>83.8</ele>
        <time>2017-10-16T19:02:00Z</time>
      </trkpt>
      <trkpt lat="62.636011952647" lon="17.979850745864">
        <ele>83.4</ele>
        <time>2017-10-16T19:02:01Z</time>
      </trkpt>
      <trkpt lat="62.636021340375" lon="17.979912771924">
        <ele>83</ele>
        <time>2017-10-16T19:02:02Z</time>
      </trkpt>
      <trkpt lat="62.636024693135" lon="17.979976642002">
        <ele>82.6</ele>
        <time>2017-10-16T19:02:03Z</time>
      </trkpt>
      <trkpt lat="62.636036930709" lon="17.980033303646">
        <ele>82.4</ele>
        <time>2017-10-16T19:02:04Z</time>
      </trkpt>
      <trkpt lat="62.636041456935" lon="17.980083427408">
        <ele>82</ele>
        <time>2017-10-16T19:02:05Z</time>
      </trkpt>
      <trkpt lat="62.636049587378" lon="17.980158529232">
        <ele>81.8</ele>
        <time>2017-10-16T19:02:06Z</time>
      </trkpt>
      <trkpt lat="62.636060567667" lon="17.980217118713">
        <ele>81.8</ele>
        <time>2017-10-16T19:02:07Z</time>
      </trkpt>
      <trkpt lat="62.636072637603" lon="17.980277552212">
        <ele>81.6</ele>
        <time>2017-10-16T19:02:08Z</time>
      </trkpt>
      <trkpt lat="62.636081522417" lon="17.980336896064">
        <ele>81.4</ele>
        <time>2017-10-16T19:02:09Z</time>
      </trkpt>
      <trkpt lat="62.636088060299" lon="17.980385511084">
        <ele>81.4</ele>
        <time>2017-10-16T19:02:10Z</time>
      </trkpt>
      <trkpt lat="62.636097364208" lon="17.980448794429">
        <ele>81.4</ele>
        <time>2017-10-16T19:02:11Z</time>
      </trkpt>
      <trkpt lat="62.63610976942" lon="17.980502438589">
        <ele>81.4</ele>
        <time>2017-10-16T19:02:12Z</time>
      </trkpt>
      <trkpt lat="62.636116726397" lon="17.98056102807">
        <ele>81.2</ele>
        <time>2017-10-16T19:02:13Z</time>
      </trkpt>
      <trkpt lat="62.63612737141" lon="17.980613331126">
        <ele>81.2</ele>
        <time>2017-10-16T19:02:14Z</time>
      </trkpt>
      <trkpt lat="62.636144219029" lon="17.980658509567">
        <ele>81</ele>
        <time>2017-10-16T19:02:15Z</time>
      </trkpt>
      <trkpt lat="62.636163245942" lon="17.980718775428">
        <ele>81</ele>
        <time>2017-10-16T19:02:16Z</time>
      </trkpt>
      <trkpt lat="62.636178501" lon="17.980770827027">
        <ele>80.8</ele>
        <time>2017-10-16T19:02:17Z</time>
      </trkpt>
      <trkpt lat="62.636181099389" lon="17.980838049865">
        <ele>80.8</ele>
        <time>2017-10-16T19:02:18Z</time>
      </trkpt>
      <trkpt lat="62.636194929524" lon="17.980889263274">
        <ele>80.6</ele>
        <time>2017-10-16T19:02:19Z</time>
      </trkpt>
      <trkpt lat="62.636211860962" lon="17.98092899348">
        <ele>80.6</ele>
        <time>2017-10-16T19:02:20Z</time>
      </trkpt>
      <trkpt lat="62.63622460145" lon="17.980988756427">
        <ele>80.6</ele>
        <time>2017-10-16T19:02:21Z</time>
      </trkpt>
      <trkpt lat="62.636237341938" lon="17.981046759175">
        <ele>80.4</ele>
        <time>2017-10-16T19:02:22Z</time>
      </trkpt>
      <trkpt lat="62.636245388562" lon="17.981108449959">
        <ele>80.2</ele>
        <time>2017-10-16T19:02:23Z</time>
      </trkpt>
      <trkpt lat="62.636247567856" lon="17.981165530698">
        <ele>80.2</ele>
        <time>2017-10-16T19:02:24Z</time>
      </trkpt>
      <trkpt lat="62.636254692471" lon="17.981201572868">
        <ele>80.2</ele>
        <time>2017-10-16T19:02:25Z</time>
      </trkpt>
      <trkpt lat="62.636257458498" lon="17.981269466258">
        <ele>80.2</ele>
        <time>2017-10-16T19:02:26Z</time>
      </trkpt>
      <trkpt lat="62.636258883421" lon="17.981333252517">
        <ele>80</ele>
        <time>2017-10-16T19:02:27Z</time>
      </trkpt>
      <trkpt lat="62.636264164018" lon="17.981387231953">
        <ele>80</ele>
        <time>2017-10-16T19:02:28Z</time>
      </trkpt>
      <trkpt lat="62.636272043004" lon="17.981451856402">
        <ele>80</ele>
        <time>2017-10-16T19:02:29Z</time>
      </trkpt>
      <trkpt lat="62.636275479583" lon="17.981508015132">
        <ele>80</ele>
        <time>2017-10-16T19:02:30Z</time>
      </trkpt>
      <trkpt lat="62.636279167619" lon="17.98156098874">
        <ele>80</ele>
        <time>2017-10-16T19:02:31Z</time>
      </trkpt>
      <trkpt lat="62.636278832343" lon="17.981613710891">
        <ele>80</ele>
        <time>2017-10-16T19:02:32Z</time>
      </trkpt>
      <trkpt lat="62.636279251438" lon="17.98167498258">
        <ele>80</ele>
        <time>2017-10-16T19:02:33Z</time>
      </trkpt>
      <trkpt lat="62.636292578659" lon="17.981720999211">
        <ele>79.8</ele>
        <time>2017-10-16T19:02:34Z</time>
      </trkpt>
      <trkpt lat="62.636299619455" lon="17.981763914539">
        <ele>79.8</ele>
        <time>2017-10-16T19:02:35Z</time>
      </trkpt>
      <trkpt lat="62.636308671907" lon="17.981826275875">
        <ele>79.8</ele>
        <time>2017-10-16T19:02:36Z</time>
      </trkpt>
      <trkpt lat="62.63631344959" lon="17.981886793193">
        <ele>79.8</ele>
        <time>2017-10-16T19:02:37Z</time>
      </trkpt>
      <trkpt lat="62.636319736015" lon="17.981948819253">
        <ele>79.6</ele>
        <time>2017-10-16T19:02:38Z</time>
      </trkpt>
      <trkpt lat="62.636316886169" lon="17.982004475069">
        <ele>79.6</ele>
        <time>2017-10-16T19:02:39Z</time>
      </trkpt>
      <trkpt lat="62.63632183149" lon="17.982039679049">
        <ele>79.6</ele>
        <time>2017-10-16T19:02:40Z</time>
      </trkpt>
      <trkpt lat="62.636319652196" lon="17.982093407028">
        <ele>79.6</ele>
        <time>2017-10-16T19:02:41Z</time>
      </trkpt>
      <trkpt lat="62.63632183149" lon="17.982157360925">
        <ele>79.6</ele>
        <time>2017-10-16T19:02:42Z</time>
      </trkpt>
      <trkpt lat="62.636324094603" lon="17.982210250714">
        <ele>79.6</ele>
        <time>2017-10-16T19:02:43Z</time>
      </trkpt>
      <trkpt lat="62.636324178422" lon="17.982262805227">
        <ele>79.6</ele>
        <time>2017-10-16T19:02:44Z</time>
      </trkpt>
      <trkpt lat="62.636324765155" lon="17.982312677532">
        <ele>79.6</ele>
        <time>2017-10-16T19:02:45Z</time>
      </trkpt>
      <trkpt lat="62.636324513698" lon="17.982362801294">
        <ele>79.6</ele>
        <time>2017-10-16T19:02:46Z</time>
      </trkpt>
      <trkpt lat="62.636318814006" lon="17.982421642232">
        <ele>79.6</ele>
        <time>2017-10-16T19:02:47Z</time>
      </trkpt>
      <trkpt lat="62.636313784866" lon="17.982479728799">
        <ele>79.6</ele>
        <time>2017-10-16T19:02:48Z</time>
      </trkpt>
      <trkpt lat="62.636310767382" lon="17.98253328914">
        <ele>79.6</ele>
        <time>2017-10-16T19:02:49Z</time>
      </trkpt>
      <trkpt lat="62.636311354115" lon="17.982586262748">
        <ele>79.8</ele>
        <time>2017-10-16T19:02:50Z</time>
      </trkpt>
      <trkpt lat="62.636305235328" lon="17.982646193333">
        <ele>79.8</ele>
        <time>2017-10-16T19:02:51Z</time>
      </trkpt>
      <trkpt lat="62.63630255312" lon="17.982693215792">
        <ele>80</ele>
        <time>2017-10-16T19:02:52Z</time>
      </trkpt>
      <trkpt lat="62.636307079346" lon="17.982752559644">
        <ele>80</ele>
        <time>2017-10-16T19:02:53Z</time>
      </trkpt>
      <trkpt lat="62.6363042295" lon="17.982821710319">
        <ele>80</ele>
        <time>2017-10-16T19:02:54Z</time>
      </trkpt>
      <trkpt lat="62.636305319147" lon="17.982867810769">
        <ele>80.2</ele>
        <time>2017-10-16T19:02:55Z</time>
      </trkpt>
      <trkpt lat="62.636303056034" lon="17.982938805462">
        <ele>80.2</ele>
        <time>2017-10-16T19:02:56Z</time>
      </trkpt>
      <trkpt lat="62.636308168993" lon="17.983001250617">
        <ele>80.2</ele>
        <time>2017-10-16T19:02:57Z</time>
      </trkpt>
      <trkpt lat="62.636316886169" lon="17.983057325528">
        <ele>80.2</ele>
        <time>2017-10-16T19:02:58Z</time>
      </trkpt>
      <trkpt lat="62.636313784866" lon="17.983108455118">
        <ele>80.2</ele>
        <time>2017-10-16T19:02:59Z</time>
      </trkpt>
      <trkpt lat="62.636314120142" lon="17.983160590536">
        <ele>80.2</ele>
        <time>2017-10-16T19:03:00Z</time>
      </trkpt>
      <trkpt lat="62.636308671907" lon="17.983221694587">
        <ele>80.2</ele>
        <time>2017-10-16T19:03:01Z</time>
      </trkpt>
      <trkpt lat="62.63630590588" lon="17.98327676367">
        <ele>80.2</ele>
        <time>2017-10-16T19:03:02Z</time>
      </trkpt>
      <trkpt lat="62.636300625283" lon="17.983339711739">
        <ele>80</ele>
        <time>2017-10-16T19:03:03Z</time>
      </trkpt>
      <trkpt lat="62.636301463473" lon="17.983395702831">
        <ele>80.2</ele>
        <time>2017-10-16T19:03:04Z</time>
      </trkpt>
      <trkpt lat="62.636298613627" lon="17.983445742774">
        <ele>80.2</ele>
        <time>2017-10-16T19:03:05Z</time>
      </trkpt>
      <trkpt lat="62.636294422677" lon="17.983505002807">
        <ele>80.2</ele>
        <time>2017-10-16T19:03:06Z</time>
      </trkpt>
      <trkpt lat="62.636291405193" lon="17.983548421049">
        <ele>80.2</ele>
        <time>2017-10-16T19:03:07Z</time>
      </trkpt>
      <trkpt lat="62.63628411294" lon="17.983600388829">
        <ele>80.4</ele>
        <time>2017-10-16T19:03:08Z</time>
      </trkpt>
      <trkpt lat="62.636275898678" lon="17.983662666346">
        <ele>80.4</ele>
        <time>2017-10-16T19:03:09Z</time>
      </trkpt>
      <trkpt lat="62.636263242009" lon="17.983719914723">
        <ele>80.4</ele>
        <time>2017-10-16T19:03:10Z</time>
      </trkpt>
      <trkpt lat="62.636251339711" lon="17.983776241091">
        <ele>80.4</ele>
        <time>2017-10-16T19:03:11Z</time>
      </trkpt>
      <trkpt lat="62.636242706354" lon="17.98382661631">
        <ele>80.4</ele>
        <time>2017-10-16T19:03:12Z</time>
      </trkpt>
      <trkpt lat="62.636233150988" lon="17.983881853031">
        <ele>80.6</ele>
        <time>2017-10-16T19:03:13Z</time>
      </trkpt>
      <trkpt lat="62.636223847079" lon="17.98393306644">
        <ele>80.6</ele>
        <time>2017-10-16T19:03:14Z</time>
      </trkpt>
      <trkpt lat="62.636218566482" lon="17.983996182147">
        <ele>80.6</ele>
        <time>2017-10-16T19:03:15Z</time>
      </trkpt>
      <trkpt lat="62.636206412727" lon="17.984066422469">
        <ele>80.6</ele>
        <time>2017-10-16T19:03:16Z</time>
      </trkpt>
      <trkpt lat="62.636200377759" lon="17.984115708041">
        <ele>80.6</ele>
        <time>2017-10-16T19:03:17Z</time>
      </trkpt>
      <trkpt lat="62.636199539569" lon="17.984181589775">
        <ele>80.8</ele>
        <time>2017-10-16T19:03:18Z</time>
      </trkpt>
      <trkpt lat="62.636198114646" lon="17.984231126804">
        <ele>80.8</ele>
        <time>2017-10-16T19:03:19Z</time>
      </trkpt>
      <trkpt lat="62.63619610299" lon="17.984286112068">
        <ele>81</ele>
        <time>2017-10-16T19:03:20Z</time>
      </trkpt>
      <trkpt lat="62.636198785198" lon="17.984349730689">
        <ele>81</ele>
        <time>2017-10-16T19:03:21Z</time>
      </trkpt>
      <trkpt lat="62.636198701379" lon="17.984401027917">
        <ele>81</ele>
        <time>2017-10-16T19:03:22Z</time>
      </trkpt>
      <trkpt lat="62.636195935352" lon="17.98445022967">
        <ele>81.2</ele>
        <time>2017-10-16T19:03:23Z</time>
      </trkpt>
      <trkpt lat="62.636194342791" lon="17.984501526898">
        <ele>81.2</ele>
        <time>2017-10-16T19:03:24Z</time>
      </trkpt>
      <trkpt lat="62.636189146013" lon="17.984554751963">
        <ele>81.4</ele>
        <time>2017-10-16T19:03:25Z</time>
      </trkpt>
      <trkpt lat="62.636185038882" lon="17.984613089987">
        <ele>81.4</ele>
        <time>2017-10-16T19:03:26Z</time>
      </trkpt>
      <trkpt lat="62.636179506828" lon="17.984662124102">
        <ele>81.6</ele>
        <time>2017-10-16T19:03:27Z</time>
      </trkpt>
      <trkpt lat="62.636178165724" lon="17.984711828769">
        <ele>81.6</ele>
        <time>2017-10-16T19:03:28Z</time>
      </trkpt>
      <trkpt lat="62.636176992258" lon="17.984762623083">
        <ele>81.8</ele>
        <time>2017-10-16T19:03:29Z</time>
      </trkpt>
      <trkpt lat="62.636178501" lon="17.98481484232">
        <ele>81.8</ele>
        <time>2017-10-16T19:03:30Z</time>
      </trkpt>
      <trkpt lat="62.636175315878" lon="17.984882819529">
        <ele>82</ele>
        <time>2017-10-16T19:03:31Z</time>
      </trkpt>
      <trkpt lat="62.636175651154" lon="17.984936044594">
        <ele>82</ele>
        <time>2017-10-16T19:03:32Z</time>
      </trkpt>
      <trkpt lat="62.63616676634" lon="17.984978876103">
        <ele>82.2</ele>
        <time>2017-10-16T19:03:33Z</time>
      </trkpt>
      <trkpt lat="62.63616341358" lon="17.985025395648">
        <ele>82.2</ele>
        <time>2017-10-16T19:03:34Z</time>
      </trkpt>
      <trkpt lat="62.63615670806" lon="17.985068478614">
        <ele>82.4</ele>
        <time>2017-10-16T19:03:35Z</time>
      </trkpt>
      <trkpt lat="62.636147990884" lon="17.98512748719">
        <ele>82.4</ele>
        <time>2017-10-16T19:03:36Z</time>
      </trkpt>
      <trkpt lat="62.636143548477" lon="17.985184651748">
        <ele>82.6</ele>
        <time>2017-10-16T19:03:37Z</time>
      </trkpt>
      <trkpt lat="62.636136675319" lon="17.98523812827">
        <ele>82.6</ele>
        <time>2017-10-16T19:03:38Z</time>
      </trkpt>
      <trkpt lat="62.636128461057" lon="17.985296047199">
        <ele>82.8</ele>
        <time>2017-10-16T19:03:39Z</time>
      </trkpt>
      <trkpt lat="62.636131310903" lon="17.985342147649">
        <ele>82.8</ele>
        <time>2017-10-16T19:03:40Z</time>
      </trkpt>
      <trkpt lat="62.636128293419" lon="17.985390511212">
        <ele>82.8</ele>
        <time>2017-10-16T19:03:41Z</time>
      </trkpt>
      <trkpt lat="62.636127119953" lon="17.985443652458">
        <ele>83</ele>
        <time>2017-10-16T19:03:42Z</time>
      </trkpt>
      <trkpt lat="62.6361198277" lon="17.98547785061">
        <ele>83</ele>
        <time>2017-10-16T19:03:43Z</time>
      </trkpt>
      <trkpt lat="62.6361282096" lon="17.985514311875">
        <ele>83</ele>
        <time>2017-10-16T19:03:44Z</time>
      </trkpt>
      <trkpt lat="62.636117983682" lon="17.985568961863">
        <ele>83</ele>
        <time>2017-10-16T19:03:45Z</time>
      </trkpt>
      <trkpt lat="62.63610474028" lon="17.985604584938">
        <ele>83.2</ele>
        <time>2017-10-16T19:03:46Z</time>
      </trkpt>
      <trkpt lat="62.636094682" lon="17.985647416447">
        <ele>83.2</ele>
        <time>2017-10-16T19:03:47Z</time>
      </trkpt>
      <trkpt lat="62.636075906544" lon="17.985680776409">
        <ele>83.4</ele>
        <time>2017-10-16T19:03:48Z</time>
      </trkpt>
      <trkpt lat="62.636059897115" lon="17.985705419195">
        <ele>83.6</ele>
        <time>2017-10-16T19:03:49Z</time>
      </trkpt>
      <trkpt lat="62.636048833007" lon="17.985717656769">
        <ele>83.6</ele>
        <time>2017-10-16T19:03:50Z</time>
      </trkpt>
      <trkpt lat="62.636035002872" lon="17.985728217963">
        <ele>83.8</ele>
        <time>2017-10-16T19:03:51Z</time>
      </trkpt>
      <trkpt lat="62.636020334547" lon="17.985743389202">
        <ele>84</ele>
        <time>2017-10-16T19:03:52Z</time>
      </trkpt>
      <trkpt lat="62.636001810548" lon="17.985763421943">
        <ele>84</ele>
        <time>2017-10-16T19:03:53Z</time>
      </trkpt>
      <trkpt lat="62.63598068816" lon="17.985784460512">
        <ele>84</ele>
        <time>2017-10-16T19:03:54Z</time>
      </trkpt>
      <trkpt lat="62.635958224668" lon="17.985805918176">
        <ele>84.2</ele>
        <time>2017-10-16T19:03:55Z</time>
      </trkpt>
      <trkpt lat="62.635936599366" lon="17.985833662265">
        <ele>84.2</ele>
        <time>2017-10-16T19:03:56Z</time>
      </trkpt>
      <trkpt lat="62.635914638788" lon="17.985858556508">
        <ele>84.2</ele>
        <time>2017-10-16T19:03:57Z</time>
      </trkpt>
      <trkpt lat="62.635895360418" lon="17.985887976977">
        <ele>84.4</ele>
        <time>2017-10-16T19:03:58Z</time>
      </trkpt>
      <trkpt lat="62.635878596618" lon="17.985918654731">
        <ele>84.4</ele>
        <time>2017-10-16T19:03:59Z</time>
      </trkpt>
      <trkpt lat="62.63586082699" lon="17.985955702729">
        <ele>84.4</ele>
        <time>2017-10-16T19:04:00Z</time>
      </trkpt>
      <trkpt lat="62.635835262195" lon="17.985999623885">
        <ele>84.6</ele>
        <time>2017-10-16T19:04:01Z</time>
      </trkpt>
      <trkpt lat="62.635812882522" lon="17.986051088751">
        <ele>84.6</ele>
        <time>2017-10-16T19:04:02Z</time>
      </trkpt>
      <trkpt lat="62.635790167573" lon="17.986084951627">
        <ele>84.8</ele>
        <time>2017-10-16T19:04:03Z</time>
      </trkpt>
      <trkpt lat="62.63577030247" lon="17.986124430376">
        <ele>85</ele>
        <time>2017-10-16T19:04:04Z</time>
      </trkpt>
      <trkpt lat="62.635761585294" lon="17.986166675152">
        <ele>85.2</ele>
        <time>2017-10-16T19:04:05Z</time>
      </trkpt>
      <trkpt lat="62.635740630544" lon="17.986218391475">
        <ele>85.4</ele>
        <time>2017-10-16T19:04:06Z</time>
      </trkpt>
      <trkpt lat="62.635728728246" lon="17.986258373138">
        <ele>85.6</ele>
        <time>2017-10-16T19:04:07Z</time>
      </trkpt>
      <trkpt lat="62.635717328862" lon="17.986282596829">
        <ele>85.8</ele>
        <time>2017-10-16T19:04:08Z</time>
      </trkpt>
      <trkpt lat="62.635698301949" lon="17.986338755559">
        <ele>85.8</ele>
        <time>2017-10-16T19:04:09Z</time>
      </trkpt>
      <trkpt lat="62.635672904792" lon="17.986399775791">
        <ele>85.8</ele>
        <time>2017-10-16T19:04:10Z</time>
      </trkpt>
      <trkpt lat="62.635658739381" lon="17.98643841635">
        <ele>86</ele>
        <time>2017-10-16T19:04:11Z</time>
      </trkpt>
      <trkpt lat="62.635648681101" lon="17.98647864947">
        <ele>86</ele>
        <time>2017-10-16T19:04:12Z</time>
      </trkpt>
      <trkpt lat="62.635637365536" lon="17.986509243405">
        <ele>86</ele>
        <time>2017-10-16T19:04:13Z</time>
      </trkpt>
      <trkpt lat="62.635623954496" lon="17.986558696615">
        <ele>86</ele>
        <time>2017-10-16T19:04:14Z</time>
      </trkpt>
      <trkpt lat="62.635601491004" lon="17.986626422367">
        <ele>86.2</ele>
        <time>2017-10-16T19:04:15Z</time>
      </trkpt>
      <trkpt lat="62.635583972833" lon="17.98667646231">
        <ele>86.4</ele>
        <time>2017-10-16T19:04:16Z</time>
      </trkpt>
      <trkpt lat="62.635567209033" lon="17.986709235539">
        <ele>86.6</ele>
        <time>2017-10-16T19:04:17Z</time>
      </trkpt>
      <trkpt lat="62.635542566247" lon="17.986761538595">
        <ele>86.8</ele>
        <time>2017-10-16T19:04:18Z</time>
      </trkpt>
      <trkpt lat="62.635527897922" lon="17.986802358448">
        <ele>86.8</ele>
        <time>2017-10-16T19:04:19Z</time>
      </trkpt>
      <trkpt lat="62.635516414719" lon="17.986843681215">
        <ele>86.8</ele>
        <time>2017-10-16T19:04:20Z</time>
      </trkpt>
      <trkpt lat="62.635499818557" lon="17.986890703674">
        <ele>86.8</ele>
        <time>2017-10-16T19:04:21Z</time>
      </trkpt>
      <trkpt lat="62.63548615606" lon="17.98693546302">
        <ele>87</ele>
        <time>2017-10-16T19:04:22Z</time>
      </trkpt>
      <trkpt lat="62.635475008133" lon="17.986966643688">
        <ele>87</ele>
        <time>2017-10-16T19:04:23Z</time>
      </trkpt>
      <trkpt lat="62.635454640116" lon="17.98701006193">
        <ele>87.2</ele>
        <time>2017-10-16T19:04:24Z</time>
      </trkpt>
      <trkpt lat="62.635442318723" lon="17.987031771051">
        <ele>87.4</ele>
        <time>2017-10-16T19:04:25Z</time>
      </trkpt>
      <trkpt lat="62.635421280154" lon="17.987075859845">
        <ele>87.6</ele>
        <time>2017-10-16T19:04:26Z</time>
      </trkpt>
      <trkpt lat="62.635400409223" lon="17.987133024403">
        <ele>87.6</ele>
        <time>2017-10-16T19:04:27Z</time>
      </trkpt>
      <trkpt lat="62.635381298491" lon="17.987185998011">
        <ele>87.6</ele>
        <time>2017-10-16T19:04:28Z</time>
      </trkpt>
      <trkpt lat="62.63536461851" lon="17.987213658281">
        <ele>87.6</ele>
        <time>2017-10-16T19:04:29Z</time>
      </trkpt>
      <trkpt lat="62.635344669588" lon="17.987262608577">
        <ele>87.6</ele>
        <time>2017-10-16T19:04:30Z</time>
      </trkpt>
      <trkpt lat="62.635326983779" lon="17.987303512249">
        <ele>87.8</ele>
        <time>2017-10-16T19:04:31Z</time>
      </trkpt>
      <trkpt lat="62.635305861391" lon="17.987350115613">
        <ele>87.8</ele>
        <time>2017-10-16T19:04:32Z</time>
      </trkpt>
      <trkpt lat="62.635289013772" lon="17.987388169439">
        <ele>88</ele>
        <time>2017-10-16T19:04:33Z</time>
      </trkpt>
      <trkpt lat="62.635269567764" lon="17.98743250969">
        <ele>88</ele>
        <time>2017-10-16T19:04:34Z</time>
      </trkpt>
      <trkpt lat="62.635255486172" lon="17.987473245724">
        <ele>88.2</ele>
        <time>2017-10-16T19:04:35Z</time>
      </trkpt>
      <trkpt lat="62.635231262481" lon="17.987508533523">
        <ele>88.4</ele>
        <time>2017-10-16T19:04:36Z</time>
      </trkpt>
      <trkpt lat="62.635213828129" lon="17.987542228761">
        <ele>88.4</ele>
        <time>2017-10-16T19:04:37Z</time>
      </trkpt>
      <trkpt lat="62.6351894368" lon="17.987585563184">
        <ele>88.6</ele>
        <time>2017-10-16T19:04:38Z</time>
      </trkpt>
      <trkpt lat="62.635172673" lon="17.987624706657">
        <ele>88.8</ele>
        <time>2017-10-16T19:04:39Z</time>
      </trkpt>
      <trkpt lat="62.635160770702" lon="17.987672148211">
        <ele>89</ele>
        <time>2017-10-16T19:04:40Z</time>
      </trkpt>
      <trkpt lat="62.635140905599" lon="17.987720260317">
        <ele>89.2</ele>
        <time>2017-10-16T19:04:41Z</time>
      </trkpt>
      <trkpt lat="62.635116765727" lon="17.987778430703">
        <ele>89.2</ele>
        <time>2017-10-16T19:04:42Z</time>
      </trkpt>
      <trkpt lat="62.635089105457" lon="17.987840372944">
        <ele>89.2</ele>
        <time>2017-10-16T19:04:43Z</time>
      </trkpt>
      <trkpt lat="62.635065552318" lon="17.987872643259">
        <ele>89.4</ele>
        <time>2017-10-16T19:04:44Z</time>
      </trkpt>
      <trkpt lat="62.635040574256" lon="17.987910697085">
        <ele>89.4</ele>
        <time>2017-10-16T19:04:45Z</time>
      </trkpt>
      <trkpt lat="62.635012746348" lon="17.987939447002">
        <ele>89.4</ele>
        <time>2017-10-16T19:04:46Z</time>
      </trkpt>
      <trkpt lat="62.634988103562" lon="17.987950762567">
        <ele>89.6</ele>
        <time>2017-10-16T19:04:47Z</time>
      </trkpt>
      <trkpt lat="62.634965723889" lon="17.987961156123">
        <ele>89.8</ele>
        <time>2017-10-16T19:04:48Z</time>
      </trkpt>
      <trkpt lat="62.634948289537" lon="17.987971884955">
        <ele>89.8</ele>
        <time>2017-10-16T19:04:49Z</time>
      </trkpt>
      <trkpt lat="62.634921048362" lon="17.987977165552">
        <ele>90</ele>
        <time>2017-10-16T19:04:50Z</time>
      </trkpt>
      <trkpt lat="62.634894226282" lon="17.987988481117">
        <ele>90.2</ele>
        <time>2017-10-16T19:04:51Z</time>
      </trkpt>
      <trkpt lat="62.634868996763" lon="17.988004322908">
        <ele>90.2</ele>
        <time>2017-10-16T19:04:52Z</time>
      </trkpt>
      <trkpt lat="62.634841504131" lon="17.988023266002">
        <ele>90.4</ele>
        <time>2017-10-16T19:04:53Z</time>
      </trkpt>
      <trkpt lat="62.634814514413" lon="17.988038101965">
        <ele>90.4</ele>
        <time>2017-10-16T19:04:54Z</time>
      </trkpt>
      <trkpt lat="62.634797918251" lon="17.988038604879">
        <ele>90.6</ele>
        <time>2017-10-16T19:04:55Z</time>
      </trkpt>
      <trkpt lat="62.634751314887" lon="17.988074814687">
        <ele>90.8</ele>
        <time>2017-10-16T19:04:56Z</time>
      </trkpt>
      <trkpt lat="62.634714937441" lon="17.988093506324">
        <ele>90.8</ele>
        <time>2017-10-16T19:04:57Z</time>
      </trkpt>
      <trkpt lat="62.63469825746" lon="17.988104989527">
        <ele>91</ele>
        <time>2017-10-16T19:04:58Z</time>
      </trkpt>
      <trkpt lat="62.634659449263" lon="17.988109851029">
        <ele>91</ele>
        <time>2017-10-16T19:04:59Z</time>
      </trkpt>
      <trkpt lat="62.634634387382" lon="17.988123513526">
        <ele>91</ele>
        <time>2017-10-16T19:05:00Z</time>
      </trkpt>
      <trkpt lat="62.634596333556" lon="17.988151257615">
        <ele>91.2</ele>
        <time>2017-10-16T19:05:01Z</time>
      </trkpt>
      <trkpt lat="62.634566996906" lon="17.9881525149">
        <ele>91.2</ele>
        <time>2017-10-16T19:05:02Z</time>
      </trkpt>
      <trkpt lat="62.634542437939" lon="17.988145055009">
        <ele>91.4</ele>
        <time>2017-10-16T19:05:03Z</time>
      </trkpt>
      <trkpt lat="62.634523746302" lon="17.988158633687">
        <ele>91.4</ele>
        <time>2017-10-16T19:05:04Z</time>
      </trkpt>
      <trkpt lat="62.63449709186" lon="17.988155280927">
        <ele>91.6</ele>
        <time>2017-10-16T19:05:05Z</time>
      </trkpt>
      <trkpt lat="62.634473957816" lon="17.988162908456">
        <ele>91.6</ele>
        <time>2017-10-16T19:05:06Z</time>
      </trkpt>
      <trkpt lat="62.634458032206" lon="17.988167686139">
        <ele>91.6</ele>
        <time>2017-10-16T19:05:07Z</time>
      </trkpt>
      <trkpt lat="62.634427438271" lon="17.988164920112">
        <ele>91.6</ele>
        <time>2017-10-16T19:05:08Z</time>
      </trkpt>
      <trkpt lat="62.634403130761" lon="17.988163746646">
        <ele>91.8</ele>
        <time>2017-10-16T19:05:09Z</time>
      </trkpt>
      <trkpt lat="62.634382092192" lon="17.988162656999">
        <ele>92</ele>
        <time>2017-10-16T19:05:10Z</time>
      </trkpt>
      <trkpt lat="62.634349067506" lon="17.988170200709">
        <ele>92</ele>
        <time>2017-10-16T19:05:11Z</time>
      </trkpt>
      <trkpt lat="62.634318138295" lon="17.988170033071">
        <ele>92</ele>
        <time>2017-10-16T19:05:12Z</time>
      </trkpt>
      <trkpt lat="62.634284862152" lon="17.988181683912">
        <ele>92</ele>
        <time>2017-10-16T19:05:13Z</time>
      </trkpt>
      <trkpt lat="62.634250412543" lon="17.988190568726">
        <ele>92</ele>
        <time>2017-10-16T19:05:14Z</time>
      </trkpt>
      <trkpt lat="62.634225266843" lon="17.988194675857">
        <ele>92</ele>
        <time>2017-10-16T19:05:15Z</time>
      </trkpt>
      <trkpt lat="62.634197606573" lon="17.988191993649">
        <ele>92.2</ele>
        <time>2017-10-16T19:05:16Z</time>
      </trkpt>
      <trkpt lat="62.634171203588" lon="17.988187215966">
        <ele>92.2</ele>
        <time>2017-10-16T19:05:17Z</time>
      </trkpt>
      <trkpt lat="62.634137256893" lon="17.988184701396">
        <ele>92.4</ele>
        <time>2017-10-16T19:05:18Z</time>
      </trkpt>
      <trkpt lat="62.634106746777" lon="17.988189311441">
        <ele>92.4</ele>
        <time>2017-10-16T19:05:19Z</time>
      </trkpt>
      <trkpt lat="62.634078918869" lon="17.988190401088">
        <ele>92.6</ele>
        <time>2017-10-16T19:05:20Z</time>
      </trkpt>
      <trkpt lat="62.634050001314" lon="17.98817430784">
        <ele>92.6</ele>
        <time>2017-10-16T19:05:21Z</time>
      </trkpt>
      <trkpt lat="62.634012701859" lon="17.98818101336">
        <ele>92.6</ele>
        <time>2017-10-16T19:05:22Z</time>
      </trkpt>
      <trkpt lat="62.633978336069" lon="17.988184869034">
        <ele>92.8</ele>
        <time>2017-10-16T19:05:23Z</time>
      </trkpt>
      <trkpt lat="62.633946317211" lon="17.988186293957">
        <ele>92.8</ele>
        <time>2017-10-16T19:05:24Z</time>
      </trkpt>
      <trkpt lat="62.633923350805" lon="17.988171625632">
        <ele>92.8</ele>
        <time>2017-10-16T19:05:25Z</time>
      </trkpt>
      <trkpt lat="62.633898875657" lon="17.988160980619">
        <ele>93</ele>
        <time>2017-10-16T19:05:26Z</time>
      </trkpt>
      <trkpt lat="62.633869874283" lon="17.988139606774">
        <ele>93</ele>
        <time>2017-10-16T19:05:27Z</time>
      </trkpt>
      <trkpt lat="62.633841124366" lon="17.988102055862">
        <ele>93</ele>
        <time>2017-10-16T19:05:28Z</time>
      </trkpt>
      <trkpt lat="62.633817403589" lon="17.988078167447">
        <ele>93</ele>
        <time>2017-10-16T19:05:29Z</time>
      </trkpt>
      <trkpt lat="62.633791587337" lon="17.988062158018">
        <ele>93</ele>
        <time>2017-10-16T19:05:30Z</time>
      </trkpt>
      <trkpt lat="62.633761412497" lon="17.988037515232">
        <ele>93.2</ele>
        <time>2017-10-16T19:05:31Z</time>
      </trkpt>
      <trkpt lat="62.633735260969" lon="17.988012369532">
        <ele>93.2</ele>
        <time>2017-10-16T19:05:32Z</time>
      </trkpt>
      <trkpt lat="62.633703242111" lon="17.987989235488">
        <ele>93.2</ele>
        <time>2017-10-16T19:05:33Z</time>
      </trkpt>
      <trkpt lat="62.633676336212" lon="17.987973309878">
        <ele>93.4</ele>
        <time>2017-10-16T19:05:34Z</time>
      </trkpt>
      <trkpt lat="62.633650352322" lon="17.987954031508">
        <ele>93.4</ele>
        <time>2017-10-16T19:05:35Z</time>
      </trkpt>
      <trkpt lat="62.633626044812" lon="17.987928131437">
        <ele>93.4</ele>
        <time>2017-10-16T19:05:36Z</time>
      </trkpt>
      <trkpt lat="62.633604000415" lon="17.987912205827">
        <ele>93.2</ele>
        <time>2017-10-16T19:05:37Z</time>
      </trkpt>
      <trkpt lat="62.633578184163" lon="17.987890077611">
        <ele>93.2</ele>
        <time>2017-10-16T19:05:38Z</time>
      </trkpt>
      <trkpt lat="62.633560582173" lon="17.987854035441">
        <ele>93.4</ele>
        <time>2017-10-16T19:05:39Z</time>
      </trkpt>
      <trkpt lat="62.633536693758" lon="17.98783651727">
        <ele>93.4</ele>
        <time>2017-10-16T19:05:40Z</time>
      </trkpt>
      <trkpt lat="62.633507860022" lon="17.987815478701">
        <ele>93.8</ele>
        <time>2017-10-16T19:05:41Z</time>
      </trkpt>
      <trkpt lat="62.633482798141" lon="17.987781783463">
        <ele>94</ele>
        <time>2017-10-16T19:05:42Z</time>
      </trkpt>
      <trkpt lat="62.633454886414" lon="17.987755631935">
        <ele>94.4</ele>
        <time>2017-10-16T19:05:43Z</time>
      </trkpt>
      <trkpt lat="62.633428734886" lon="17.987737443212">
        <ele>94.6</ele>
        <time>2017-10-16T19:05:44Z</time>
      </trkpt>
      <trkpt lat="62.633412809276" lon="17.987710118218">
        <ele>94.8</ele>
        <time>2017-10-16T19:05:45Z</time>
      </trkpt>
      <trkpt lat="62.633391686888" lon="17.98767726117">
        <ele>94.8</ele>
        <time>2017-10-16T19:05:46Z</time>
      </trkpt>
      <trkpt lat="62.633372743794" lon="17.987618252594">
        <ele>94.8</ele>
        <time>2017-10-16T19:05:47Z</time>
      </trkpt>
      <trkpt lat="62.633356482908" lon="17.987563854063">
        <ele>95</ele>
        <time>2017-10-16T19:05:48Z</time>
      </trkpt>
      <trkpt lat="62.633337372176" lon="17.987522447477">
        <ele>95</ele>
        <time>2017-10-16T19:05:49Z</time>
      </trkpt>
      <trkpt lat="62.633324966964" lon="17.987478274864">
        <ele>95.4</ele>
        <time>2017-10-16T19:05:50Z</time>
      </trkpt>
      <trkpt lat="62.633301246187" lon="17.987430330396">
        <ele>95.4</ele>
        <time>2017-10-16T19:05:51Z</time>
      </trkpt>
      <trkpt lat="62.633280794351" lon="17.987389091448">
        <ele>95.6</ele>
        <time>2017-10-16T19:05:52Z</time>
      </trkpt>
      <trkpt lat="62.633264365827" lon="17.98733695603">
        <ele>95.6</ele>
        <time>2017-10-16T19:05:53Z</time>
      </trkpt>
      <trkpt lat="62.633246260923" lon="17.987278366549">
        <ele>95.6</ele>
        <time>2017-10-16T19:05:54Z</time>
      </trkpt>
      <trkpt lat="62.633235699729" lon="17.987217430136">
        <ele>95.4</ele>
        <time>2017-10-16T19:05:55Z</time>
      </trkpt>
      <trkpt lat="62.633216588997" lon="17.987157080456">
        <ele>95.2</ele>
        <time>2017-10-16T19:05:56Z</time>
      </trkpt>
      <trkpt lat="62.633199154645" lon="17.98710226283">
        <ele>95</ele>
        <time>2017-10-16T19:05:57Z</time>
      </trkpt>
      <trkpt lat="62.633189850736" lon="17.987035710544">
        <ele>94.6</ele>
        <time>2017-10-16T19:05:58Z</time>
      </trkpt>
      <trkpt lat="62.633180798284" lon="17.986977456339">
        <ele>94.4</ele>
        <time>2017-10-16T19:05:59Z</time>
      </trkpt>
      <trkpt lat="62.633172332565" lon="17.986917274297">
        <ele>94.2</ele>
        <time>2017-10-16T19:06:00Z</time>
      </trkpt>
      <trkpt lat="62.633164956493" lon="17.986854074771">
        <ele>93.8</ele>
        <time>2017-10-16T19:06:01Z</time>
      </trkpt>
      <trkpt lat="62.633155568765" lon="17.986785846105">
        <ele>93.6</ele>
        <time>2017-10-16T19:06:02Z</time>
      </trkpt>
      <trkpt lat="62.63314928234" lon="17.986723987683">
        <ele>93.4</ele>
        <time>2017-10-16T19:06:03Z</time>
      </trkpt>
      <trkpt lat="62.633141319535" lon="17.986665482021">
        <ele>93.4</ele>
        <time>2017-10-16T19:06:04Z</time>
      </trkpt>
      <trkpt lat="62.633132183264" lon="17.986599600287">
        <ele>93.4</ele>
        <time>2017-10-16T19:06:05Z</time>
      </trkpt>
      <trkpt lat="62.633121370613" lon="17.986529443784">
        <ele>93.4</ele>
        <time>2017-10-16T19:06:06Z</time>
      </trkpt>
      <trkpt lat="62.633112653437" lon="17.986464148783">
        <ele>93.6</ele>
        <time>2017-10-16T19:06:07Z</time>
      </trkpt>
      <trkpt lat="62.633109803591" lon="17.986394076099">
        <ele>93.4</ele>
        <time>2017-10-16T19:06:08Z</time>
      </trkpt>
      <trkpt lat="62.633106702288" lon="17.986323165225">
        <ele>93.4</ele>
        <time>2017-10-16T19:06:09Z</time>
      </trkpt>
      <trkpt lat="62.633103098071" lon="17.986257702586">
        <ele>93.2</ele>
        <time>2017-10-16T19:06:10Z</time>
      </trkpt>
      <trkpt lat="62.63310402008" lon="17.986180002373">
        <ele>93.2</ele>
        <time>2017-10-16T19:06:11Z</time>
      </trkpt>
      <trkpt lat="62.633107624297" lon="17.986111270793">
        <ele>92.8</ele>
        <time>2017-10-16T19:06:12Z</time>
      </trkpt>
      <trkpt lat="62.633106869926" lon="17.986033905856">
        <ele>92.6</ele>
        <time>2017-10-16T19:06:13Z</time>
      </trkpt>
      <trkpt lat="62.6331107256" lon="17.985966180104">
        <ele>92.4</ele>
        <time>2017-10-16T19:06:14Z</time>
      </trkpt>
      <trkpt lat="62.633112569618" lon="17.985902896759">
        <ele>92</ele>
        <time>2017-10-16T19:06:15Z</time>
      </trkpt>
      <trkpt lat="62.633111479971" lon="17.985837601758">
        <ele>91.8</ele>
        <time>2017-10-16T19:06:16Z</time>
      </trkpt>
      <trkpt lat="62.633115922378" lon="17.985781694485">
        <ele>91.8</ele>
        <time>2017-10-16T19:06:17Z</time>
      </trkpt>
      <trkpt lat="62.633116844387" lon="17.985707682308">
        <ele>91.6</ele>
        <time>2017-10-16T19:06:18Z</time>
      </trkpt>
      <trkpt lat="62.633113994541" lon="17.985647248809">
        <ele>91.6</ele>
        <time>2017-10-16T19:06:19Z</time>
      </trkpt>
      <trkpt lat="62.633119358957" lon="17.985593856106">
        <ele>91.6</ele>
        <time>2017-10-16T19:06:20Z</time>
      </trkpt>
      <trkpt lat="62.633123382269" lon="17.985518419006">
        <ele>91.4</ele>
        <time>2017-10-16T19:06:21Z</time>
      </trkpt>
      <trkpt lat="62.633130255427" lon="17.985457231136">
        <ele>91.2</ele>
        <time>2017-10-16T19:06:22Z</time>
      </trkpt>
      <trkpt lat="62.633129333418" lon="17.985385901167">
        <ele>91</ele>
        <time>2017-10-16T19:06:23Z</time>
      </trkpt>
      <trkpt lat="62.633140984259" lon="17.985309039144">
        <ele>90.8</ele>
        <time>2017-10-16T19:06:24Z</time>
      </trkpt>
      <trkpt lat="62.63314509139" lon="17.985235446062">
        <ele>90.6</ele>
        <time>2017-10-16T19:06:25Z</time>
      </trkpt>
      <trkpt lat="62.633150874901" lon="17.985161098609">
        <ele>90.4</ele>
        <time>2017-10-16T19:06:26Z</time>
      </trkpt>
      <trkpt lat="62.633156071679" lon="17.98508641588">
        <ele>90</ele>
        <time>2017-10-16T19:06:27Z</time>
      </trkpt>
      <trkpt lat="62.633165375588" lon="17.985009218581">
        <ele>89.6</ele>
        <time>2017-10-16T19:06:28Z</time>
      </trkpt>
      <trkpt lat="62.633174260402" lon="17.984940738458">
        <ele>89.2</ele>
        <time>2017-10-16T19:06:29Z</time>
      </trkpt>
      <trkpt lat="62.633187671442" lon="17.984875192">
        <ele>88.8</ele>
        <time>2017-10-16T19:06:30Z</time>
      </trkpt>
      <trkpt lat="62.633195801885" lon="17.984809142628">
        <ele>88.6</ele>
        <time>2017-10-16T19:06:31Z</time>
      </trkpt>
      <trkpt lat="62.633201669215" lon="17.984739237582">
        <ele>88.4</ele>
        <time>2017-10-16T19:06:32Z</time>
      </trkpt>
      <trkpt lat="62.63321466116" lon="17.984675535142">
        <ele>88.2</ele>
        <time>2017-10-16T19:06:33Z</time>
      </trkpt>
      <trkpt lat="62.633226228182" lon="17.984616358928">
        <ele>88.2</ele>
        <time>2017-10-16T19:06:34Z</time>
      </trkpt>
      <trkpt lat="62.633234190987" lon="17.984551147746">
        <ele>88.2</ele>
        <time>2017-10-16T19:06:35Z</time>
      </trkpt>
      <trkpt lat="62.633246680018" lon="17.984485517469">
        <ele>88</ele>
        <time>2017-10-16T19:06:36Z</time>
      </trkpt>
      <trkpt lat="62.633256822117" lon="17.984441763951">
        <ele>88</ele>
        <time>2017-10-16T19:06:37Z</time>
      </trkpt>
      <trkpt lat="62.633265539293" lon="17.984393651845">
        <ele>88</ele>
        <time>2017-10-16T19:06:38Z</time>
      </trkpt>
      <trkpt lat="62.633272077175" lon="17.984333805079">
        <ele>88</ele>
        <time>2017-10-16T19:06:39Z</time>
      </trkpt>
      <trkpt lat="62.633279704704" lon="17.984283513679">
        <ele>88</ele>
        <time>2017-10-16T19:06:40Z</time>
      </trkpt>
      <trkpt lat="62.633286410224" lon="17.984214446823">
        <ele>88.2</ele>
        <time>2017-10-16T19:06:41Z</time>
      </trkpt>
      <trkpt lat="62.633293786296" lon="17.984147140166">
        <ele>88.2</ele>
        <time>2017-10-16T19:06:42Z</time>
      </trkpt>
      <trkpt lat="62.6333035093" lon="17.984087377219">
        <ele>88.2</ele>
        <time>2017-10-16T19:06:43Z</time>
      </trkpt>
      <trkpt lat="62.633308286983" lon="17.984021160209">
        <ele>88.2</ele>
        <time>2017-10-16T19:06:44Z</time>
      </trkpt>
      <trkpt lat="62.633320356919" lon="17.983960642891">
        <ele>88.4</ele>
        <time>2017-10-16T19:06:45Z</time>
      </trkpt>
      <trkpt lat="62.633327062439" lon="17.983892162768">
        <ele>88.4</ele>
        <time>2017-10-16T19:06:46Z</time>
      </trkpt>
      <trkpt lat="62.633329912285" lon="17.983827538319">
        <ele>88.6</ele>
        <time>2017-10-16T19:06:47Z</time>
      </trkpt>
      <trkpt lat="62.633334354692" lon="17.983754029056">
        <ele>88.6</ele>
        <time>2017-10-16T19:06:48Z</time>
      </trkpt>
      <trkpt lat="62.633338461823" lon="17.983692422091">
        <ele>88.8</ele>
        <time>2017-10-16T19:06:49Z</time>
      </trkpt>
      <trkpt lat="62.633347178999" lon="17.983634503162">
        <ele>88.8</ele>
        <time>2017-10-16T19:06:50Z</time>
      </trkpt>
      <trkpt lat="62.633360254763" lon="17.983562754098">
        <ele>88.8</ele>
        <time>2017-10-16T19:06:51Z</time>
      </trkpt>
      <trkpt lat="62.633361595867" lon="17.983492932871">
        <ele>88.8</ele>
        <time>2017-10-16T19:06:52Z</time>
      </trkpt>
      <trkpt lat="62.633372827613" lon="17.983429649526">
        <ele>88.6</ele>
        <time>2017-10-16T19:06:53Z</time>
      </trkpt>
      <trkpt lat="62.633383807902" lon="17.983360750308">
        <ele>88.4</ele>
        <time>2017-10-16T19:06:54Z</time>
      </trkpt>
      <trkpt lat="62.633394452915" lon="17.983306770872">
        <ele>88.4</ele>
        <time>2017-10-16T19:06:55Z</time>
      </trkpt>
      <trkpt lat="62.633406439032" lon="17.983242062604">
        <ele>88.4</ele>
        <time>2017-10-16T19:06:56Z</time>
      </trkpt>
      <trkpt lat="62.633421023538" lon="17.983175426499">
        <ele>88.6</ele>
        <time>2017-10-16T19:06:57Z</time>
      </trkpt>
      <trkpt lat="62.63343091418" lon="17.983117256113">
        <ele>88.8</ele>
        <time>2017-10-16T19:06:58Z</time>
      </trkpt>
      <trkpt lat="62.633446085419" lon="17.983061013564">
        <ele>89</ele>
        <time>2017-10-16T19:06:59Z</time>
      </trkpt>
      <trkpt lat="62.633455892242" lon="17.983002172626">
        <ele>89.2</ele>
        <time>2017-10-16T19:07:00Z</time>
      </trkpt>
      <trkpt lat="62.633464777056" lon="17.982945930077">
        <ele>89.2</ele>
        <time>2017-10-16T19:07:01Z</time>
      </trkpt>
      <trkpt lat="62.633477517544" lon="17.982889771347">
        <ele>89.2</ele>
        <time>2017-10-16T19:07:02Z</time>
      </trkpt>
      <trkpt lat="62.633491850593" lon="17.982829505486">
        <ele>89</ele>
        <time>2017-10-16T19:07:03Z</time>
      </trkpt>
      <trkpt lat="62.633502495606" lon="17.98277720243">
        <ele>88.6</ele>
        <time>2017-10-16T19:07:04Z</time>
      </trkpt>
      <trkpt lat="62.633516158103" lon="17.982726491935">
        <ele>88.4</ele>
        <time>2017-10-16T19:07:05Z</time>
      </trkpt>
      <trkpt lat="62.633530407333" lon="17.982662035124">
        <ele>88.2</ele>
        <time>2017-10-16T19:07:06Z</time>
      </trkpt>
      <trkpt lat="62.633540633251" lon="17.982616102312">
        <ele>88.2</ele>
        <time>2017-10-16T19:07:07Z</time>
      </trkpt>
      <trkpt lat="62.633553709015" lon="17.982574025174">
        <ele>88.4</ele>
        <time>2017-10-16T19:07:08Z</time>
      </trkpt>
      <trkpt lat="62.633562929105" lon="17.982508562535">
        <ele>88.6</ele>
        <time>2017-10-16T19:07:09Z</time>
      </trkpt>
      <trkpt lat="62.633570556634" lon="17.982450811244">
        <ele>88.6</ele>
        <time>2017-10-16T19:07:10Z</time>
      </trkpt>
      <trkpt lat="62.633585811692" lon="17.982392221763">
        <ele>88.8</ele>
        <time>2017-10-16T19:07:11Z</time>
      </trkpt>
      <trkpt lat="62.633599306551" lon="17.982329860427">
        <ele>88.8</ele>
        <time>2017-10-16T19:07:12Z</time>
      </trkpt>
      <trkpt lat="62.633605425338" lon="17.982268672557">
        <ele>88.8</ele>
        <time>2017-10-16T19:07:13Z</time>
      </trkpt>
      <trkpt lat="62.633614226333" lon="17.982207736144">
        <ele>88.8</ele>
        <time>2017-10-16T19:07:14Z</time>
      </trkpt>
      <trkpt lat="62.633632247418" lon="17.982156606554">
        <ele>88.6</ele>
        <time>2017-10-16T19:07:15Z</time>
      </trkpt>
      <trkpt lat="62.633641970422" lon="17.98210245948">
        <ele>88.6</ele>
        <time>2017-10-16T19:07:16Z</time>
      </trkpt>
      <trkpt lat="62.633647334838" lon="17.982041439248">
        <ele>88.4</ele>
        <time>2017-10-16T19:07:17Z</time>
      </trkpt>
      <trkpt lat="62.633653621263" lon="17.981981005749">
        <ele>88.6</ele>
        <time>2017-10-16T19:07:18Z</time>
      </trkpt>
      <trkpt lat="62.633661332611" lon="17.981924260286">
        <ele>88.6</ele>
        <time>2017-10-16T19:07:19Z</time>
      </trkpt>
      <trkpt lat="62.633664014819" lon="17.981871538135">
        <ele>88.8</ele>
        <time>2017-10-16T19:07:20Z</time>
      </trkpt>
      <trkpt lat="62.633670971796" lon="17.981807248962">
        <ele>88.8</ele>
        <time>2017-10-16T19:07:21Z</time>
      </trkpt>
      <trkpt lat="62.633673654004" lon="17.981747402196">
        <ele>89</ele>
        <time>2017-10-16T19:07:22Z</time>
      </trkpt>
      <trkpt lat="62.63367818023" lon="17.981705744153">
        <ele>89</ele>
        <time>2017-10-16T19:07:23Z</time>
      </trkpt>
      <trkpt lat="62.633684215198" lon="17.981628546854">
        <ele>89</ele>
        <time>2017-10-16T19:07:24Z</time>
      </trkpt>
      <trkpt lat="62.633687903234" lon="17.981560066731">
        <ele>89</ele>
        <time>2017-10-16T19:07:25Z</time>
      </trkpt>
      <trkpt lat="62.633693602926" lon="17.981497621576">
        <ele>89.2</ele>
        <time>2017-10-16T19:07:26Z</time>
      </trkpt>
      <trkpt lat="62.633700559903" lon="17.981435679335">
        <ele>89.2</ele>
        <time>2017-10-16T19:07:27Z</time>
      </trkpt>
      <trkpt lat="62.633709528536" lon="17.981377173673">
        <ele>89.2</ele>
        <time>2017-10-16T19:07:28Z</time>
      </trkpt>
      <trkpt lat="62.63371338421" lon="17.981315315251">
        <ele>89.2</ele>
        <time>2017-10-16T19:07:29Z</time>
      </trkpt>
      <trkpt lat="62.633723526309" lon="17.981257983055">
        <ele>89.4</ele>
        <time>2017-10-16T19:07:30Z</time>
      </trkpt>
      <trkpt lat="62.633735847702" lon="17.981190173484">
        <ele>89.2</ele>
        <time>2017-10-16T19:07:31Z</time>
      </trkpt>
      <trkpt lat="62.633752862959" lon="17.981141390826">
        <ele>89.2</ele>
        <time>2017-10-16T19:07:32Z</time>
      </trkpt>
      <trkpt lat="62.633769626759" lon="17.981083890992">
        <ele>89.2</ele>
        <time>2017-10-16T19:07:33Z</time>
      </trkpt>
      <trkpt lat="62.633785720007" lon="17.98104131094">
        <ele>89</ele>
        <time>2017-10-16T19:07:34Z</time>
      </trkpt>
      <trkpt lat="62.633800053056" lon="17.980982805278">
        <ele>89</ele>
        <time>2017-10-16T19:07:35Z</time>
      </trkpt>
      <trkpt lat="62.633816816856" lon="17.980921365951">
        <ele>89.2</ele>
        <time>2017-10-16T19:07:36Z</time>
      </trkpt>
      <trkpt lat="62.633836514321" lon="17.980880546098">
        <ele>89.2</ele>
        <time>2017-10-16T19:07:37Z</time>
      </trkpt>
      <trkpt lat="62.633855792691" lon="17.98084014534">
        <ele>89.4</ele>
        <time>2017-10-16T19:07:38Z</time>
      </trkpt>
      <trkpt lat="62.633878088545" lon="17.980806114826">
        <ele>89.4</ele>
        <time>2017-10-16T19:07:39Z</time>
      </trkpt>
      <trkpt lat="62.63389527144" lon="17.980764875878">
        <ele>89.4</ele>
        <time>2017-10-16T19:07:40Z</time>
      </trkpt>
      <trkpt lat="62.633908850118" lon="17.980711650813">
        <ele>89.4</ele>
        <time>2017-10-16T19:07:41Z</time>
      </trkpt>
      <trkpt lat="62.633926116832" lon="17.980664795992">
        <ele>89.4</ele>
        <time>2017-10-16T19:07:42Z</time>
      </trkpt>
      <trkpt lat="62.633943132089" lon="17.980621545388">
        <ele>89.6</ele>
        <time>2017-10-16T19:07:43Z</time>
      </trkpt>
      <trkpt lat="62.63395897388" lon="17.98057443911">
        <ele>89.6</ele>
        <time>2017-10-16T19:07:44Z</time>
      </trkpt>
      <trkpt lat="62.633972804015" lon="17.980537055836">
        <ele>89.6</ele>
        <time>2017-10-16T19:07:45Z</time>
      </trkpt>
      <trkpt lat="62.633986131236" lon="17.980483830771">
        <ele>89.6</ele>
        <time>2017-10-16T19:07:46Z</time>
      </trkpt>
      <trkpt lat="62.633996608611" lon="17.980428258774">
        <ele>89.6</ele>
        <time>2017-10-16T19:07:47Z</time>
      </trkpt>
      <trkpt lat="62.634012115126" lon="17.980372351501">
        <ele>89.8</ele>
        <time>2017-10-16T19:07:48Z</time>
      </trkpt>
      <trkpt lat="62.634021502854" lon="17.980310576898">
        <ele>89.8</ele>
        <time>2017-10-16T19:07:49Z</time>
      </trkpt>
      <trkpt lat="62.634033656609" lon="17.980264560267">
        <ele>89.8</ele>
        <time>2017-10-16T19:07:50Z</time>
      </trkpt>
      <trkpt lat="62.634051426237" lon="17.980227260812">
        <ele>90</ele>
        <time>2017-10-16T19:07:51Z</time>
      </trkpt>
      <trkpt lat="62.634065843105" lon="17.980191973013">
        <ele>89.8</ele>
        <time>2017-10-16T19:07:52Z</time>
      </trkpt>
      <trkpt lat="62.63407548229" lon="17.980142268346">
        <ele>89.8</ele>
        <time>2017-10-16T19:07:53Z</time>
      </trkpt>
      <trkpt lat="62.634098532515" lon="17.980110333307">
        <ele>89.8</ele>
        <time>2017-10-16T19:07:54Z</time>
      </trkpt>
      <trkpt lat="62.634109177528" lon="17.980054677491">
        <ele>89.8</ele>
        <time>2017-10-16T19:07:55Z</time>
      </trkpt>
      <trkpt lat="62.634128791174" lon="17.980013103267">
        <ele>89.8</ele>
        <time>2017-10-16T19:07:56Z</time>
      </trkpt>
      <trkpt lat="62.634150500295" lon="17.979981922599">
        <ele>89.8</ele>
        <time>2017-10-16T19:07:57Z</time>
      </trkpt>
      <trkpt lat="62.634171287407" lon="17.979928362258">
        <ele>89.8</ele>
        <time>2017-10-16T19:07:58Z</time>
      </trkpt>
      <trkpt lat="62.63419366708" lon="17.979883519093">
        <ele>89.8</ele>
        <time>2017-10-16T19:07:59Z</time>
      </trkpt>
      <trkpt lat="62.634211939622" lon="17.979845884362">
        <ele>89.8</ele>
        <time>2017-10-16T19:08:00Z</time>
      </trkpt>
      <trkpt lat="62.634221997902" lon="17.979778745343">
        <ele>89.8</ele>
        <time>2017-10-16T19:08:01Z</time>
      </trkpt>
      <trkpt lat="62.634239348435" lon="17.97971697074">
        <ele>89.8</ele>
        <time>2017-10-16T19:08:02Z</time>
      </trkpt>
      <trkpt lat="62.63426491323" lon="17.979678665457">
        <ele>89.6</ele>
        <time>2017-10-16T19:08:03Z</time>
      </trkpt>
      <trkpt lat="62.634281341754" lon="17.979627619686">
        <ele>89.8</ele>
        <time>2017-10-16T19:08:04Z</time>
      </trkpt>
      <trkpt lat="62.634293495509" lon="17.979565090712">
        <ele>89.8</ele>
        <time>2017-10-16T19:08:05Z</time>
      </trkpt>
      <trkpt lat="62.634306319816" lon="17.979510189267">
        <ele>89.8</ele>
        <time>2017-10-16T19:08:06Z</time>
      </trkpt>
      <trkpt lat="62.634315036992" lon="17.979453946718">
        <ele>90</ele>
        <time>2017-10-16T19:08:07Z</time>
      </trkpt>
      <trkpt lat="62.634329034765" lon="17.979402481852">
        <ele>90</ele>
        <time>2017-10-16T19:08:08Z</time>
      </trkpt>
      <trkpt lat="62.634339260683" lon="17.979348418597">
        <ele>90</ele>
        <time>2017-10-16T19:08:09Z</time>
      </trkpt>
      <trkpt lat="62.634351414438" lon="17.979306592916">
        <ele>90</ele>
        <time>2017-10-16T19:08:10Z</time>
      </trkpt>
      <trkpt lat="62.634361807994" lon="17.979248087254">
        <ele>89.8</ele>
        <time>2017-10-16T19:08:11Z</time>
      </trkpt>
      <trkpt lat="62.634364825478" lon="17.979190503601">
        <ele>89.6</ele>
        <time>2017-10-16T19:08:12Z</time>
      </trkpt>
      <trkpt lat="62.634377817423" lon="17.979136021251">
        <ele>89.6</ele>
        <time>2017-10-16T19:08:13Z</time>
      </trkpt>
      <trkpt lat="62.634391815196" lon="17.979086903317">
        <ele>89.4</ele>
        <time>2017-10-16T19:08:14Z</time>
      </trkpt>
      <trkpt lat="62.634402627847" lon="17.979037366288">
        <ele>89.2</ele>
        <time>2017-10-16T19:08:15Z</time>
      </trkpt>
      <trkpt lat="62.634437999465" lon="17.978942315542">
        <ele>89.2</ele>
        <time>2017-10-16T19:08:17Z</time>
      </trkpt>
      <trkpt lat="62.634455098541" lon="17.978891940323">
        <ele>89.2</ele>
        <time>2017-10-16T19:08:18Z</time>
      </trkpt>
      <trkpt lat="62.634474293092" lon="17.978859167094">
        <ele>88.4</ele>
        <time>2017-10-16T19:08:19Z</time>
      </trkpt>
      <trkpt lat="62.634495080204" lon="17.97882932753">
        <ele>88.6</ele>
        <time>2017-10-16T19:08:20Z</time>
      </trkpt>
      <trkpt lat="62.6345188848" lon="17.978809630065">
        <ele>88.6</ele>
        <time>2017-10-16T19:08:21Z</time>
      </trkpt>
      <trkpt lat="62.634539420455" lon="17.978796973396">
        <ele>88.6</ele>
        <time>2017-10-16T19:08:22Z</time>
      </trkpt>
      <trkpt lat="62.63455911792" lon="17.978786496021">
        <ele>88.6</ele>
        <time>2017-10-16T19:08:23Z</time>
      </trkpt>
      <trkpt lat="62.634566410173" lon="17.978761601778">
        <ele>89.2</ele>
        <time>2017-10-16T19:08:24Z</time>
      </trkpt>
      <trkpt lat="62.634552160943" lon="17.978729247644">
        <ele>89.4</ele>
        <time>2017-10-16T19:08:25Z</time>
      </trkpt>
      <trkpt lat="62.634548305269" lon="17.978684907393">
        <ele>89.6</ele>
        <time>2017-10-16T19:08:26Z</time>
      </trkpt>
      <trkpt lat="62.634539504274" lon="17.97864995487">
        <ele>89.6</ele>
        <time>2017-10-16T19:08:27Z</time>
      </trkpt>
      <trkpt lat="62.634536402971" lon="17.978608715922">
        <ele>89.8</ele>
        <time>2017-10-16T19:08:28Z</time>
      </trkpt>
      <trkpt lat="62.634536235333" lon="17.978564627128">
        <ele>89.8</ele>
        <time>2017-10-16T19:08:29Z</time>
      </trkpt>
      <trkpt lat="62.634535900057" lon="17.978511234425">
        <ele>89.8</ele>
        <time>2017-10-16T19:08:30Z</time>
      </trkpt>
      <trkpt lat="62.634543443767" lon="17.978451136202">
        <ele>89.6</ele>
        <time>2017-10-16T19:08:31Z</time>
      </trkpt>
      <trkpt lat="62.634549981649" lon="17.9783959833">
        <ele>89.4</ele>
        <time>2017-10-16T19:08:32Z</time>
      </trkpt>
      <trkpt lat="62.634555262246" lon="17.978347200642">
        <ele>89.2</ele>
        <time>2017-10-16T19:08:33Z</time>
      </trkpt>
      <trkpt lat="62.634561381033" lon="17.978288443523">
        <ele>89</ele>
        <time>2017-10-16T19:08:34Z</time>
      </trkpt>
      <trkpt lat="62.634566326354" lon="17.978229770223">
        <ele>89</ele>
        <time>2017-10-16T19:08:35Z</time>
      </trkpt>
      <trkpt lat="62.634583844525" lon="17.978174533502">
        <ele>89</ele>
        <time>2017-10-16T19:08:36Z</time>
      </trkpt>
      <trkpt lat="62.634596920289" lon="17.978112507442">
        <ele>89</ele>
        <time>2017-10-16T19:08:37Z</time>
      </trkpt>
      <trkpt lat="62.634609828415" lon="17.978052744495">
        <ele>89</ele>
        <time>2017-10-16T19:08:38Z</time>
      </trkpt>
      <trkpt lat="62.634618880867" lon="17.977996753403">
        <ele>89</ele>
        <time>2017-10-16T19:08:39Z</time>
      </trkpt>
      <trkpt lat="62.634629944975" lon="17.977945959089">
        <ele>89</ele>
        <time>2017-10-16T19:08:40Z</time>
      </trkpt>
      <trkpt lat="62.63464209873" lon="17.977882256649">
        <ele>88.8</ele>
        <time>2017-10-16T19:08:41Z</time>
      </trkpt>
      <trkpt lat="62.634649139526" lon="17.977817296924">
        <ele>88.8</ele>
        <time>2017-10-16T19:08:42Z</time>
      </trkpt>
      <trkpt lat="62.634654001028" lon="17.977758455986">
        <ele>88.6</ele>
        <time>2017-10-16T19:08:43Z</time>
      </trkpt>
      <trkpt lat="62.634661125643" lon="17.977697603392">
        <ele>88.6</ele>
        <time>2017-10-16T19:08:44Z</time>
      </trkpt>
      <trkpt lat="62.634671267742" lon="17.977645048879">
        <ele>88.4</ele>
        <time>2017-10-16T19:08:45Z</time>
      </trkpt>
      <trkpt lat="62.634680404013" lon="17.977583190457">
        <ele>88.4</ele>
        <time>2017-10-16T19:08:46Z</time>
      </trkpt>
      <trkpt lat="62.634690210836" lon="17.977531138858">
        <ele>88.2</ele>
        <time>2017-10-16T19:08:47Z</time>
      </trkpt>
      <trkpt lat="62.63469993384" lon="17.977473555205">
        <ele>88.2</ele>
        <time>2017-10-16T19:08:48Z</time>
      </trkpt>
      <trkpt lat="62.634703538057" lon="17.977423179986">
        <ele>88</ele>
        <time>2017-10-16T19:08:49Z</time>
      </trkpt>
      <trkpt lat="62.634710746491" lon="17.977361992116">
        <ele>88</ele>
        <time>2017-10-16T19:08:50Z</time>
      </trkpt>
      <trkpt lat="62.634717871106" lon="17.977311281621">
        <ele>88</ele>
        <time>2017-10-16T19:08:51Z</time>
      </trkpt>
      <trkpt lat="62.634724911902" lon="17.977261828411">
        <ele>87.8</ele>
        <time>2017-10-16T19:08:52Z</time>
      </trkpt>
      <trkpt lat="62.634735808372" lon="17.977208519527">
        <ele>88</ele>
        <time>2017-10-16T19:08:53Z</time>
      </trkpt>
      <trkpt lat="62.634749051774" lon="17.977150516779">
        <ele>88</ele>
        <time>2017-10-16T19:08:54Z</time>
      </trkpt>
      <trkpt lat="62.634757852769" lon="17.977096453524">
        <ele>88.2</ele>
        <time>2017-10-16T19:08:55Z</time>
      </trkpt>
      <trkpt lat="62.634772604913" lon="17.977030990885">
        <ele>88.4</ele>
        <time>2017-10-16T19:08:56Z</time>
      </trkpt>
      <trkpt lat="62.63478207646" lon="17.976979358381">
        <ele>88.4</ele>
        <time>2017-10-16T19:08:57Z</time>
      </trkpt>
      <trkpt lat="62.634790961274" lon="17.976923032013">
        <ele>88.4</ele>
        <time>2017-10-16T19:08:58Z</time>
      </trkpt>
      <trkpt lat="62.634806048694" lon="17.97687131569">
        <ele>88.2</ele>
        <time>2017-10-16T19:08:59Z</time>
      </trkpt>
      <trkpt lat="62.634819292096" lon="17.97682521524">
        <ele>88</ele>
        <time>2017-10-16T19:09:00Z</time>
      </trkpt>
      <trkpt lat="62.634831194394" lon="17.976767883044">
        <ele>87.6</ele>
        <time>2017-10-16T19:09:01Z</time>
      </trkpt>
      <trkpt lat="62.634848628746" lon="17.976707198088">
        <ele>87.4</ele>
        <time>2017-10-16T19:09:02Z</time>
      </trkpt>
      <trkpt lat="62.634859357578" lon="17.976648524788">
        <ele>87.4</ele>
        <time>2017-10-16T19:09:03Z</time>
      </trkpt>
      <trkpt lat="62.634868493849" lon="17.976593623343">
        <ele>87.4</ele>
        <time>2017-10-16T19:09:04Z</time>
      </trkpt>
      <trkpt lat="62.634878552129" lon="17.976529417989">
        <ele>87.6</ele>
        <time>2017-10-16T19:09:05Z</time>
      </trkpt>
      <trkpt lat="62.634885006192" lon="17.976460099676">
        <ele>87.8</ele>
        <time>2017-10-16T19:09:06Z</time>
      </trkpt>
      <trkpt lat="62.634888945685" lon="17.97639941472">
        <ele>88</ele>
        <time>2017-10-16T19:09:07Z</time>
      </trkpt>
      <trkpt lat="62.634894645377" lon="17.976330347864">
        <ele>88</ele>
        <time>2017-10-16T19:09:08Z</time>
      </trkpt>
      <trkpt lat="62.634903446372" lon="17.976252815289">
        <ele>88</ele>
        <time>2017-10-16T19:09:09Z</time>
      </trkpt>
      <trkpt lat="62.634910068073" lon="17.976196321283">
        <ele>88</ele>
        <time>2017-10-16T19:09:10Z</time>
      </trkpt>
      <trkpt lat="62.634920629267" lon="17.976128092617">
        <ele>88</ele>
        <time>2017-10-16T19:09:11Z</time>
      </trkpt>
      <trkpt lat="62.634932615384" lon="17.976072017706">
        <ele>88</ele>
        <time>2017-10-16T19:09:12Z</time>
      </trkpt>
      <trkpt lat="62.634944433863" lon="17.976017451537">
        <ele>88</ele>
        <time>2017-10-16T19:09:13Z</time>
      </trkpt>
      <trkpt lat="62.634956252342" lon="17.975955844572">
        <ele>87.8</ele>
        <time>2017-10-16T19:09:14Z</time>
      </trkpt>
      <trkpt lat="62.634965220975" lon="17.975900524032">
        <ele>87.6</ele>
        <time>2017-10-16T19:09:15Z</time>
      </trkpt>
      <trkpt lat="62.63497318378" lon="17.975837995058">
        <ele>87.4</ele>
        <time>2017-10-16T19:09:16Z</time>
      </trkpt>
      <trkpt lat="62.634986762458" lon="17.975784518536">
        <ele>87.2</ele>
        <time>2017-10-16T19:09:17Z</time>
      </trkpt>
      <trkpt lat="62.635000508774" lon="17.97572886272">
        <ele>87</ele>
        <time>2017-10-16T19:09:18Z</time>
      </trkpt>
      <trkpt lat="62.635010734692" lon="17.97567773313">
        <ele>86.8</ele>
        <time>2017-10-16T19:09:19Z</time>
      </trkpt>
      <trkpt lat="62.635020709153" lon="17.975627357911">
        <ele>86.8</ele>
        <time>2017-10-16T19:09:20Z</time>
      </trkpt>
      <trkpt lat="62.635032611451" lon="17.975576228321">
        <ele>86.6</ele>
        <time>2017-10-16T19:09:21Z</time>
      </trkpt>
      <trkpt lat="62.635042334455" lon="17.975532558622">
        <ele>86.4</ele>
        <time>2017-10-16T19:09:22Z</time>
      </trkpt>
      <trkpt lat="62.63504442993" lon="17.975482686317">
        <ele>86.4</ele>
        <time>2017-10-16T19:09:23Z</time>
      </trkpt>
      <trkpt lat="62.635056583685" lon="17.975419989705">
        <ele>86</ele>
        <time>2017-10-16T19:09:24Z</time>
      </trkpt>
      <trkpt lat="62.635062115739" lon="17.975363998613">
        <ele>86</ele>
        <time>2017-10-16T19:09:25Z</time>
      </trkpt>
      <trkpt lat="62.635068485983" lon="17.975304570942">
        <ele>85.8</ele>
        <time>2017-10-16T19:09:26Z</time>
      </trkpt>
      <trkpt lat="62.635069072716" lon="17.975236174638">
        <ele>85.6</ele>
        <time>2017-10-16T19:09:27Z</time>
      </trkpt>
      <trkpt lat="62.635068821259" lon="17.975181189374">
        <ele>85.4</ele>
        <time>2017-10-16T19:09:28Z</time>
      </trkpt>
      <trkpt lat="62.635067396336" lon="17.975122348436">
        <ele>85.4</ele>
        <time>2017-10-16T19:09:29Z</time>
      </trkpt>
      <trkpt lat="62.635060020264" lon="17.97506333986">
        <ele>85.4</ele>
        <time>2017-10-16T19:09:30Z</time>
      </trkpt>
      <trkpt lat="62.635050464898" lon="17.97500047561">
        <ele>85.2</ele>
        <time>2017-10-16T19:09:31Z</time>
      </trkpt>
      <trkpt lat="62.635039149333" lon="17.974951692952">
        <ele>85.2</ele>
        <time>2017-10-16T19:09:32Z</time>
      </trkpt>
      <trkpt lat="62.635030013062" lon="17.974901736828">
        <ele>85.2</ele>
        <time>2017-10-16T19:09:33Z</time>
      </trkpt>
      <trkpt lat="62.635016015289" lon="17.974854211455">
        <ele>85.2</ele>
        <time>2017-10-16T19:09:34Z</time>
      </trkpt>
      <trkpt lat="62.634996234005" lon="17.974806686082">
        <ele>85</ele>
        <time>2017-10-16T19:09:35Z</time>
      </trkpt>
      <trkpt lat="62.634979218748" lon="17.974744324746">
        <ele>84.8</ele>
        <time>2017-10-16T19:09:36Z</time>
      </trkpt>
      <trkpt lat="62.634966059165" lon="17.974699649219">
        <ele>84.6</ele>
        <time>2017-10-16T19:09:37Z</time>
      </trkpt>
      <trkpt lat="62.634959521283" lon="17.97464508305">
        <ele>84.4</ele>
        <time>2017-10-16T19:09:38Z</time>
      </trkpt>
      <trkpt lat="62.634954911238" lon="17.974586828845">
        <ele>84</ele>
        <time>2017-10-16T19:09:39Z</time>
      </trkpt>
      <trkpt lat="62.634940159094" lon="17.97453611835">
        <ele>83.8</ele>
        <time>2017-10-16T19:09:40Z</time>
      </trkpt>
      <trkpt lat="62.63492205419" lon="17.974497645429">
        <ele>83.4</ele>
        <time>2017-10-16T19:09:41Z</time>
      </trkpt>
      <trkpt lat="62.634911073901" lon="17.974439642681">
        <ele>83.2</ele>
        <time>2017-10-16T19:09:42Z</time>
      </trkpt>
      <trkpt lat="62.634904703657" lon="17.974384489779">
        <ele>83</ele>
        <time>2017-10-16T19:09:43Z</time>
      </trkpt>
      <trkpt lat="62.634896573214" lon="17.974330342705">
        <ele>82.8</ele>
        <time>2017-10-16T19:09:44Z</time>
      </trkpt>
      <trkpt lat="62.634887269305" lon="17.974286170092">
        <ele>82.8</ele>
        <time>2017-10-16T19:09:45Z</time>
      </trkpt>
      <trkpt lat="62.634878384491" lon="17.974245434058">
        <ele>82.6</ele>
        <time>2017-10-16T19:09:46Z</time>
      </trkpt>
      <trkpt lat="62.634865811641" lon="17.974191286984">
        <ele>82.4</ele>
        <time>2017-10-16T19:09:47Z</time>
      </trkpt>
      <trkpt lat="62.634850891859" lon="17.974131440218">
        <ele>82.2</ele>
        <time>2017-10-16T19:09:48Z</time>
      </trkpt>
      <trkpt lat="62.634835552982" lon="17.974076119678">
        <ele>82.4</ele>
        <time>2017-10-16T19:09:49Z</time>
      </trkpt>
      <trkpt lat="62.634825327064" lon="17.974017027283">
        <ele>82.4</ele>
        <time>2017-10-16T19:09:50Z</time>
      </trkpt>
      <trkpt lat="62.634812586576" lon="17.973962964028">
        <ele>82.4</ele>
        <time>2017-10-16T19:09:51Z</time>
      </trkpt>
      <trkpt lat="62.634801019554" lon="17.973913007904">
        <ele>82.6</ele>
        <time>2017-10-16T19:09:52Z</time>
      </trkpt>
      <trkpt lat="62.6347954875" lon="17.973849137826">
        <ele>82.6</ele>
        <time>2017-10-16T19:09:53Z</time>
      </trkpt>
      <trkpt lat="62.634785093944" lon="17.973788955784">
        <ele>82.6</ele>
        <time>2017-10-16T19:09:54Z</time>
      </trkpt>
      <trkpt lat="62.634773107827" lon="17.973738748203">
        <ele>82.4</ele>
        <time>2017-10-16T19:09:55Z</time>
      </trkpt>
      <trkpt lat="62.634764223013" lon="17.97369206102">
        <ele>82.4</ele>
        <time>2017-10-16T19:09:56Z</time>
      </trkpt>
      <trkpt lat="62.63475273981" lon="17.973643194543">
        <ele>82.4</ele>
        <time>2017-10-16T19:09:57Z</time>
      </trkpt>
      <trkpt lat="62.634742430073" lon="17.973577396628">
        <ele>82.4</ele>
        <time>2017-10-16T19:09:58Z</time>
      </trkpt>
      <trkpt lat="62.634734634906" lon="17.973512855998">
        <ele>82</ele>
        <time>2017-10-16T19:09:59Z</time>
      </trkpt>
      <trkpt lat="62.634724492807" lon="17.973453763603">
        <ele>82</ele>
        <time>2017-10-16T19:10:00Z</time>
      </trkpt>
      <trkpt lat="62.63471669764" lon="17.973384948204">
        <ele>81.8</ele>
        <time>2017-10-16T19:10:01Z</time>
      </trkpt>
      <trkpt lat="62.634712255233" lon="17.973314204968">
        <ele>81.6</ele>
        <time>2017-10-16T19:10:02Z</time>
      </trkpt>
      <trkpt lat="62.634708818654" lon="17.97324782032">
        <ele>81.6</ele>
        <time>2017-10-16T19:10:03Z</time>
      </trkpt>
      <trkpt lat="62.634708148102" lon="17.973187889735">
        <ele>81.4</ele>
        <time>2017-10-16T19:10:04Z</time>
      </trkpt>
      <trkpt lat="62.634707645188" lon="17.973128629702">
        <ele>81.4</ele>
        <time>2017-10-16T19:10:05Z</time>
      </trkpt>
      <trkpt lat="62.634718457839" lon="17.97306341852">
        <ele>81.4</ele>
        <time>2017-10-16T19:10:06Z</time>
      </trkpt>
      <trkpt lat="62.634726504463" lon="17.972993178198">
        <ele>81.6</ele>
        <time>2017-10-16T19:10:07Z</time>
      </trkpt>
      <trkpt lat="62.634735389277" lon="17.972932157966">
        <ele>81.6</ele>
        <time>2017-10-16T19:10:08Z</time>
      </trkpt>
      <trkpt lat="62.634745782833" lon="17.972875580141">
        <ele>81.6</ele>
        <time>2017-10-16T19:10:09Z</time>
      </trkpt>
      <trkpt lat="62.634758858597" lon="17.972822103619">
        <ele>81.6</ele>
        <time>2017-10-16T19:10:10Z</time>
      </trkpt>
      <trkpt lat="62.634773275465" lon="17.972764939061">
        <ele>81.6</ele>
        <time>2017-10-16T19:10:11Z</time>
      </trkpt>
      <trkpt lat="62.63479213474" lon="17.972710289073">
        <ele>81.4</ele>
        <time>2017-10-16T19:10:12Z</time>
      </trkpt>
      <trkpt lat="62.634805378142" lon="17.972655974361">
        <ele>81.4</ele>
        <time>2017-10-16T19:10:13Z</time>
      </trkpt>
      <trkpt lat="62.63481979501" lon="17.972603922762">
        <ele>81.4</ele>
        <time>2017-10-16T19:10:14Z</time>
      </trkpt>
      <trkpt lat="62.634832703136" lon="17.972552709353">
        <ele>81.4</ele>
        <time>2017-10-16T19:10:15Z</time>
      </trkpt>
      <trkpt lat="62.634845108348" lon="17.97249596389">
        <ele>81.4</ele>
        <time>2017-10-16T19:10:16Z</time>
      </trkpt>
      <trkpt lat="62.634857597379" lon="17.972440559531">
        <ele>81.4</ele>
        <time>2017-10-16T19:10:17Z</time>
      </trkpt>
      <trkpt lat="62.634874361179" lon="17.97237610272">
        <ele>81.2</ele>
        <time>2017-10-16T19:10:18Z</time>
      </trkpt>
      <trkpt lat="62.634889029504" lon="17.972319608714">
        <ele>81.2</ele>
        <time>2017-10-16T19:10:19Z</time>
      </trkpt>
      <trkpt lat="62.634909565159" lon="17.972266551287">
        <ele>81.2</ele>
        <time>2017-10-16T19:10:20Z</time>
      </trkpt>
      <trkpt lat="62.634934459402" lon="17.972207542711">
        <ele>81</ele>
        <time>2017-10-16T19:10:21Z</time>
      </trkpt>
      <trkpt lat="62.634954156867" lon="17.972155742569">
        <ele>80.8</ele>
        <time>2017-10-16T19:10:22Z</time>
      </trkpt>
      <trkpt lat="62.634969579563" lon="17.97210201459">
        <ele>80.8</ele>
        <time>2017-10-16T19:10:23Z</time>
      </trkpt>
      <trkpt lat="62.634989193209" lon="17.972039653254">
        <ele>80.4</ele>
        <time>2017-10-16T19:10:24Z</time>
      </trkpt>
      <trkpt lat="62.635002352792" lon="17.971981231411">
        <ele>80.2</ele>
        <time>2017-10-16T19:10:25Z</time>
      </trkpt>
      <trkpt lat="62.635022553171" lon="17.971919121532">
        <ele>79.8</ele>
        <time>2017-10-16T19:10:26Z</time>
      </trkpt>
      <trkpt lat="62.635038227324" lon="17.971838990568">
        <ele>79.4</ele>
        <time>2017-10-16T19:10:27Z</time>
      </trkpt>
      <trkpt lat="62.635049794346" lon="17.97178434058">
        <ele>79</ele>
        <time>2017-10-16T19:10:28Z</time>
      </trkpt>
      <trkpt lat="62.635058176246" lon="17.971731786067">
        <ele>78.6</ele>
        <time>2017-10-16T19:10:29Z</time>
      </trkpt>
      <trkpt lat="62.635065636137" lon="17.971656013691">
        <ele>78.4</ele>
        <time>2017-10-16T19:10:30Z</time>
      </trkpt>
      <trkpt lat="62.635072257838" lon="17.971591640699">
        <ele>78.2</ele>
        <time>2017-10-16T19:10:31Z</time>
      </trkpt>
      <trkpt lat="62.635079298634" lon="17.971520226911">
        <ele>77.8</ele>
        <time>2017-10-16T19:10:32Z</time>
      </trkpt>
      <trkpt lat="62.635085920335" lon="17.97145325553">
        <ele>77.4</ele>
        <time>2017-10-16T19:10:33Z</time>
      </trkpt>
      <trkpt lat="62.635090781837" lon="17.971388211986">
        <ele>77</ele>
        <time>2017-10-16T19:10:34Z</time>
      </trkpt>
      <trkpt lat="62.635103019411" lon="17.971328281401">
        <ele>76.8</ele>
        <time>2017-10-16T19:10:35Z</time>
      </trkpt>
      <trkpt lat="62.635119950849" lon="17.971266506798">
        <ele>76.4</ele>
        <time>2017-10-16T19:10:36Z</time>
      </trkpt>
      <trkpt lat="62.63512657255" lon="17.971211186258">
        <ele>76.4</ele>
        <time>2017-10-16T19:10:37Z</time>
      </trkpt>
      <trkpt lat="62.63513327807" lon="17.971142538497">
        <ele>76.2</ele>
        <time>2017-10-16T19:10:38Z</time>
      </trkpt>
      <trkpt lat="62.635136044097" lon="17.971082859369">
        <ele>76</ele>
        <time>2017-10-16T19:10:39Z</time>
      </trkpt>
      <trkpt lat="62.635136547011" lon="17.971025191897">
        <ele>75.8</ele>
        <time>2017-10-16T19:10:40Z</time>
      </trkpt>
      <trkpt lat="62.635148868404" lon="17.970951263539">
        <ele>75.6</ele>
        <time>2017-10-16T19:10:41Z</time>
      </trkpt>
      <trkpt lat="62.635154484277" lon="17.97087658081">
        <ele>75.4</ele>
        <time>2017-10-16T19:10:42Z</time>
      </trkpt>
      <trkpt lat="62.635162698539" lon="17.970812710732">
        <ele>75</ele>
        <time>2017-10-16T19:10:43Z</time>
      </trkpt>
      <trkpt lat="62.635169655516" lon="17.970744398247">
        <ele>74.8</ele>
        <time>2017-10-16T19:10:44Z</time>
      </trkpt>
      <trkpt lat="62.635176780131" lon="17.970682875101">
        <ele>74.4</ele>
        <time>2017-10-16T19:10:45Z</time>
      </trkpt>
      <trkpt lat="62.635184323841" lon="17.970615316987">
        <ele>74</ele>
        <time>2017-10-16T19:10:46Z</time>
      </trkpt>
      <trkpt lat="62.63519195137" lon="17.97054633395">
        <ele>73.8</ele>
        <time>2017-10-16T19:10:47Z</time>
      </trkpt>
      <trkpt lat="62.635201255279" lon="17.970483553519">
        <ele>73.6</ele>
        <time>2017-10-16T19:10:48Z</time>
      </trkpt>
      <trkpt lat="62.635205697686" lon="17.97041892907">
        <ele>73.6</ele>
        <time>2017-10-16T19:10:49Z</time>
      </trkpt>
      <trkpt lat="62.635211984111" lon="17.970347515282">
        <ele>73.4</ele>
        <time>2017-10-16T19:10:50Z</time>
      </trkpt>
      <trkpt lat="62.635220366011" lon="17.970277694055">
        <ele>73.4</ele>
        <time>2017-10-16T19:10:51Z</time>
      </trkpt>
      <trkpt lat="62.635227658264" lon="17.970206783181">
        <ele>73.4</ele>
        <time>2017-10-16T19:10:52Z</time>
      </trkpt>
      <trkpt lat="62.635234531422" lon="17.970139141248">
        <ele>73.2</ele>
        <time>2017-10-16T19:10:53Z</time>
      </trkpt>
      <trkpt lat="62.635246936634" lon="17.97008700583">
        <ele>73.2</ele>
        <time>2017-10-16T19:10:54Z</time>
      </trkpt>
      <trkpt lat="62.635258000742" lon="17.970031936747">
        <ele>73</ele>
        <time>2017-10-16T19:10:55Z</time>
      </trkpt>
      <trkpt lat="62.63526990304" lon="17.969964713909">
        <ele>73</ele>
        <time>2017-10-16T19:10:56Z</time>
      </trkpt>
      <trkpt lat="62.635279374587" lon="17.969902017297">
        <ele>72.6</ele>
        <time>2017-10-16T19:10:57Z</time>
      </trkpt>
      <trkpt lat="62.635289516686" lon="17.969842673445">
        <ele>72.2</ele>
        <time>2017-10-16T19:10:58Z</time>
      </trkpt>
      <trkpt lat="62.63530175426" lon="17.969787185267">
        <ele>71.8</ele>
        <time>2017-10-16T19:10:59Z</time>
      </trkpt>
      <trkpt lat="62.635309884703" lon="17.969731277994">
        <ele>71.6</ele>
        <time>2017-10-16T19:11:00Z</time>
      </trkpt>
      <trkpt lat="62.635323044286" lon="17.969671598866">
        <ele>71.2</ele>
        <time>2017-10-16T19:11:01Z</time>
      </trkpt>
      <trkpt lat="62.635339640448" lon="17.969610830091">
        <ele>71</ele>
        <time>2017-10-16T19:11:02Z</time>
      </trkpt>
      <trkpt lat="62.635351794203" lon="17.96955056423">
        <ele>71</ele>
        <time>2017-10-16T19:11:03Z</time>
      </trkpt>
      <trkpt lat="62.635366546347" lon="17.969506056341">
        <ele>70.8</ele>
        <time>2017-10-16T19:11:04Z</time>
      </trkpt>
      <trkpt lat="62.635378783921" lon="17.96944662867">
        <ele>70.4</ele>
        <time>2017-10-16T19:11:05Z</time>
      </trkpt>
      <trkpt lat="62.635392446418" lon="17.969390721397">
        <ele>70.2</ele>
        <time>2017-10-16T19:11:06Z</time>
      </trkpt>
      <trkpt lat="62.635406108915" lon="17.969341268187">
        <ele>69.6</ele>
        <time>2017-10-16T19:11:07Z</time>
      </trkpt>
      <trkpt lat="62.635421866887" lon="17.96928569619">
        <ele>69.2</ele>
        <time>2017-10-16T19:11:08Z</time>
      </trkpt>
      <trkpt lat="62.635433853004" lon="17.969226436157">
        <ele>68.6</ele>
        <time>2017-10-16T19:11:09Z</time>
      </trkpt>
      <trkpt lat="62.635447431682" lon="17.969171367074">
        <ele>68</ele>
        <time>2017-10-16T19:11:10Z</time>
      </trkpt>
      <trkpt lat="62.635462938197" lon="17.969111101213">
        <ele>67.6</ele>
        <time>2017-10-16T19:11:11Z</time>
      </trkpt>
      <trkpt lat="62.635480372549" lon="17.969050919171">
        <ele>67.4</ele>
        <time>2017-10-16T19:11:12Z</time>
      </trkpt>
      <trkpt lat="62.635495124693" lon="17.968997442649">
        <ele>67.2</ele>
        <time>2017-10-16T19:11:13Z</time>
      </trkpt>
      <trkpt lat="62.635513983968" lon="17.96894371467">
        <ele>67</ele>
        <time>2017-10-16T19:11:14Z</time>
      </trkpt>
      <trkpt lat="62.635528568474" lon="17.968897195125">
        <ele>66.6</ele>
        <time>2017-10-16T19:11:15Z</time>
      </trkpt>
      <trkpt lat="62.635542398609" lon="17.968840198205">
        <ele>66.2</ele>
        <time>2017-10-16T19:11:16Z</time>
      </trkpt>
      <trkpt lat="62.6355582404" lon="17.968796025592">
        <ele>66</ele>
        <time>2017-10-16T19:11:17Z</time>
      </trkpt>
      <trkpt lat="62.635574585105" lon="17.968744141631">
        <ele>65.4</ele>
        <time>2017-10-16T19:11:18Z</time>
      </trkpt>
      <trkpt lat="62.635589588706" lon="17.968696029525">
        <ele>65.2</ele>
        <time>2017-10-16T19:11:19Z</time>
      </trkpt>
      <trkpt lat="62.635609286171" lon="17.968651856912">
        <ele>65.2</ele>
        <time>2017-10-16T19:11:20Z</time>
      </trkpt>
      <trkpt lat="62.635629738007" lon="17.968613803086">
        <ele>65.2</ele>
        <time>2017-10-16T19:11:21Z</time>
      </trkpt>
      <trkpt lat="62.635648178187" lon="17.968567534998">
        <ele>65.2</ele>
        <time>2017-10-16T19:11:22Z</time>
      </trkpt>
      <trkpt lat="62.635666199272" lon="17.968511879182">
        <ele>65.4</ele>
        <time>2017-10-16T19:11:23Z</time>
      </trkpt>
      <trkpt lat="62.635683382167" lon="17.968460498135">
        <ele>65.4</ele>
        <time>2017-10-16T19:11:24Z</time>
      </trkpt>
      <trkpt lat="62.63569654175" lon="17.968416241703">
        <ele>65.4</ele>
        <time>2017-10-16T19:11:25Z</time>
      </trkpt>
      <trkpt lat="62.635714395197" lon="17.968358322774">
        <ele>65.2</ele>
        <time>2017-10-16T19:11:26Z</time>
      </trkpt>
      <trkpt lat="62.635733673567" lon="17.968312725238">
        <ele>65</ele>
        <time>2017-10-16T19:11:27Z</time>
      </trkpt>
      <trkpt lat="62.635747755159" lon="17.968263607304">
        <ele>64.4</ele>
        <time>2017-10-16T19:11:28Z</time>
      </trkpt>
      <trkpt lat="62.635763094036" lon="17.968218177406">
        <ele>64</ele>
        <time>2017-10-16T19:11:29Z</time>
      </trkpt>
      <trkpt lat="62.63577700799" lon="17.968165622893">
        <ele>63.6</ele>
        <time>2017-10-16T19:11:30Z</time>
      </trkpt>
      <trkpt lat="62.63578622808" lon="17.968110218534">
        <ele>63.4</ele>
        <time>2017-10-16T19:11:31Z</time>
      </trkpt>
      <trkpt lat="62.635790670487" lon="17.968056825831">
        <ele>63.2</ele>
        <time>2017-10-16T19:11:32Z</time>
      </trkpt>
      <trkpt lat="62.63579460998" lon="17.967999577454">
        <ele>63.2</ele>
        <time>2017-10-16T19:11:33Z</time>
      </trkpt>
      <trkpt lat="62.635799890577" lon="17.967948699321">
        <ele>63.2</ele>
        <time>2017-10-16T19:11:34Z</time>
      </trkpt>
      <trkpt lat="62.635805171174" lon="17.967904610527">
        <ele>63.2</ele>
        <time>2017-10-16T19:11:35Z</time>
      </trkpt>
      <trkpt lat="62.635815816187" lon="17.967832945282">
        <ele>63.2</ele>
        <time>2017-10-16T19:11:36Z</time>
      </trkpt>
      <trkpt lat="62.635819168947" lon="17.967788437393">
        <ele>63</ele>
        <time>2017-10-16T19:11:37Z</time>
      </trkpt>
      <trkpt lat="62.635819504223" lon="17.967728422989">
        <ele>62.6</ele>
        <time>2017-10-16T19:11:38Z</time>
      </trkpt>
      <trkpt lat="62.635819588042" lon="17.967670168784">
        <ele>62.2</ele>
        <time>2017-10-16T19:11:39Z</time>
      </trkpt>
      <trkpt lat="62.63581724111" lon="17.967620967031">
        <ele>62.2</ele>
        <time>2017-10-16T19:11:40Z</time>
      </trkpt>
      <trkpt lat="62.63581556473" lon="17.967566065586">
        <ele>62</ele>
        <time>2017-10-16T19:11:41Z</time>
      </trkpt>
      <trkpt lat="62.635812882522" lon="17.967501105861">
        <ele>62</ele>
        <time>2017-10-16T19:11:42Z</time>
      </trkpt>
      <trkpt lat="62.635810032676" lon="17.967449976271">
        <ele>62.2</ele>
        <time>2017-10-16T19:11:43Z</time>
      </trkpt>
      <trkpt lat="62.63580634464" lon="17.96739138679">
        <ele>62.6</ele>
        <time>2017-10-16T19:11:44Z</time>
      </trkpt>
      <trkpt lat="62.635802824242" lon="17.967337658811">
        <ele>62.6</ele>
        <time>2017-10-16T19:11:45Z</time>
      </trkpt>
      <trkpt lat="62.635802069871" lon="17.967281416262">
        <ele>62.6</ele>
        <time>2017-10-16T19:11:46Z</time>
      </trkpt>
      <trkpt lat="62.635798884749" lon="17.967227269188">
        <ele>62.4</ele>
        <time>2017-10-16T19:11:47Z</time>
      </trkpt>
      <trkpt lat="62.635797711283" lon="17.967166500413">
        <ele>62.2</ele>
        <time>2017-10-16T19:11:48Z</time>
      </trkpt>
      <trkpt lat="62.635793855609" lon="17.967108832941">
        <ele>61.6</ele>
        <time>2017-10-16T19:11:49Z</time>
      </trkpt>
      <trkpt lat="62.635790083754" lon="17.967055859333">
        <ele>61</ele>
        <time>2017-10-16T19:11:50Z</time>
      </trkpt>
      <trkpt lat="62.635786730994" lon="17.96698905559">
        <ele>60.4</ele>
        <time>2017-10-16T19:11:51Z</time>
      </trkpt>
      <trkpt lat="62.635781701854" lon="17.966937171629">
        <ele>59.8</ele>
        <time>2017-10-16T19:11:52Z</time>
      </trkpt>
      <trkpt lat="62.635778432913" lon="17.966885622944">
        <ele>59.8</ele>
        <time>2017-10-16T19:11:53Z</time>
      </trkpt>
      <trkpt lat="62.63577868437" lon="17.966823345427">
        <ele>59.8</ele>
        <time>2017-10-16T19:11:54Z</time>
      </trkpt>
      <trkpt lat="62.635781618035" lon="17.966767354335">
        <ele>60.2</ele>
        <time>2017-10-16T19:11:55Z</time>
      </trkpt>
      <trkpt lat="62.635785138433" lon="17.966705998827">
        <ele>60.4</ele>
        <time>2017-10-16T19:11:56Z</time>
      </trkpt>
      <trkpt lat="62.635785557528" lon="17.966632405745">
        <ele>60.6</ele>
        <time>2017-10-16T19:11:57Z</time>
      </trkpt>
      <trkpt lat="62.635780696026" lon="17.966569876771">
        <ele>60.6</ele>
        <time>2017-10-16T19:11:58Z</time>
      </trkpt>
      <trkpt lat="62.635774577239" lon="17.966508102168">
        <ele>60.8</ele>
        <time>2017-10-16T19:11:59Z</time>
      </trkpt>
      <trkpt lat="62.635768542271" lon="17.966445657013">
        <ele>60.6</ele>
        <time>2017-10-16T19:12:00Z</time>
      </trkpt>
      <trkpt lat="62.63576862609" lon="17.966386061704">
        <ele>60.6</ele>
        <time>2017-10-16T19:12:01Z</time>
      </trkpt>
      <trkpt lat="62.63577030247" lon="17.96632688549">
        <ele>60.4</ele>
        <time>2017-10-16T19:12:02Z</time>
      </trkpt>
      <trkpt lat="62.635772649402" lon="17.966265865258">
        <ele>60.2</ele>
        <time>2017-10-16T19:12:03Z</time>
      </trkpt>
      <trkpt lat="62.635774074325" lon="17.966207359596">
        <ele>59.6</ele>
        <time>2017-10-16T19:12:04Z</time>
      </trkpt>
      <trkpt lat="62.635783378234" lon="17.966151955237">
        <ele>59.6</ele>
        <time>2017-10-16T19:12:05Z</time>
      </trkpt>
      <trkpt lat="62.635802069871" lon="17.96609638324">
        <ele>59.4</ele>
        <time>2017-10-16T19:12:06Z</time>
      </trkpt>
      <trkpt lat="62.635818330757" lon="17.966053467912">
        <ele>58.8</ele>
        <time>2017-10-16T19:12:07Z</time>
      </trkpt>
      <trkpt lat="62.635836184204" lon="17.966012312783">
        <ele>58.6</ele>
        <time>2017-10-16T19:12:08Z</time>
      </trkpt>
      <trkpt lat="62.635854624384" lon="17.965969397455">
        <ele>58.4</ele>
        <time>2017-10-16T19:12:09Z</time>
      </trkpt>
      <trkpt lat="62.635871974917" lon="17.965935702217">
        <ele>58.2</ele>
        <time>2017-10-16T19:12:10Z</time>
      </trkpt>
      <trkpt lat="62.635892342934" lon="17.965900162961">
        <ele>57.8</ele>
        <time>2017-10-16T19:12:11Z</time>
      </trkpt>
      <trkpt lat="62.63591447115" lon="17.965853894873">
        <ele>57.4</ele>
        <time>2017-10-16T19:12:12Z</time>
      </trkpt>
      <trkpt lat="62.635934755348" lon="17.965811566278">
        <ele>57</ele>
        <time>2017-10-16T19:12:13Z</time>
      </trkpt>
      <trkpt lat="62.635956464469" lon="17.965768734769">
        <ele>56.4</ele>
        <time>2017-10-16T19:12:14Z</time>
      </trkpt>
      <trkpt lat="62.635973060631" lon="17.965732189685">
        <ele>55.6</ele>
        <time>2017-10-16T19:12:15Z</time>
      </trkpt>
      <trkpt lat="62.635991249354" lon="17.965687262701">
        <ele>55.2</ele>
        <time>2017-10-16T19:12:16Z</time>
      </trkpt>
      <trkpt lat="62.636010527724" lon="17.965640324061">
        <ele>55.2</ele>
        <time>2017-10-16T19:12:17Z</time>
      </trkpt>
      <trkpt lat="62.636031482474" lon="17.965592714869">
        <ele>55</ele>
        <time>2017-10-16T19:12:18Z</time>
      </trkpt>
      <trkpt lat="62.636052604862" lon="17.965549212808">
        <ele>55</ele>
        <time>2017-10-16T19:12:19Z</time>
      </trkpt>
      <trkpt lat="62.636074984535" lon="17.965509901697">
        <ele>55.4</ele>
        <time>2017-10-16T19:12:20Z</time>
      </trkpt>
      <trkpt lat="62.636099040588" lon="17.965461705772">
        <ele>55.4</ele>
        <time>2017-10-16T19:12:21Z</time>
      </trkpt>
      <trkpt lat="62.636119073329" lon="17.965421556471">
        <ele>56</ele>
        <time>2017-10-16T19:12:22Z</time>
      </trkpt>
      <trkpt lat="62.636143213201" lon="17.965387442138">
        <ele>56.4</ele>
        <time>2017-10-16T19:12:23Z</time>
      </trkpt>
      <trkpt lat="62.636167436892" lon="17.965344023896">
        <ele>56.8</ele>
        <time>2017-10-16T19:12:24Z</time>
      </trkpt>
      <trkpt lat="62.636187218176" lon="17.965303204043">
        <ele>57</ele>
        <time>2017-10-16T19:12:25Z</time>
      </trkpt>
      <trkpt lat="62.636212363876" lon="17.96525903143">
        <ele>57</ele>
        <time>2017-10-16T19:12:26Z</time>
      </trkpt>
      <trkpt lat="62.636234324454" lon="17.965215864645">
        <ele>57.4</ele>
        <time>2017-10-16T19:12:27Z</time>
      </trkpt>
      <trkpt lat="62.636253519005" lon="17.96517521243">
        <ele>57.2</ele>
        <time>2017-10-16T19:12:28Z</time>
      </trkpt>
      <trkpt lat="62.63627405466" lon="17.965136739509">
        <ele>57.4</ele>
        <time>2017-10-16T19:12:29Z</time>
      </trkpt>
      <trkpt lat="62.636292913935" lon="17.965087873032">
        <ele>57.4</ele>
        <time>2017-10-16T19:12:30Z</time>
      </trkpt>
      <trkpt lat="62.636310599744" lon="17.965035821433">
        <ele>57.4</ele>
        <time>2017-10-16T19:12:31Z</time>
      </trkpt>
      <trkpt lat="62.636330297209" lon="17.964990475354">
        <ele>57.6</ele>
        <time>2017-10-16T19:12:32Z</time>
      </trkpt>
      <trkpt lat="62.636351922511" lon="17.964949655501">
        <ele>57.4</ele>
        <time>2017-10-16T19:12:33Z</time>
      </trkpt>
      <trkpt lat="62.636369189225" lon="17.964910092933">
        <ele>57.2</ele>
        <time>2017-10-16T19:12:34Z</time>
      </trkpt>
      <trkpt lat="62.636385114835" lon="17.96487849317">
        <ele>57</ele>
        <time>2017-10-16T19:12:35Z</time>
      </trkpt>
      <trkpt lat="62.636407745965" lon="17.964844630294">
        <ele>56.6</ele>
        <time>2017-10-16T19:12:36Z</time>
      </trkpt>
      <trkpt lat="62.636427359611" lon="17.964816970024">
        <ele>56.4</ele>
        <time>2017-10-16T19:12:37Z</time>
      </trkpt>
      <trkpt lat="62.636448733456" lon="17.964791405229">
        <ele>56.4</ele>
        <time>2017-10-16T19:12:38Z</time>
      </trkpt>
      <trkpt lat="62.636469604387" lon="17.964760476018">
        <ele>56</ele>
        <time>2017-10-16T19:12:39Z</time>
      </trkpt>
      <trkpt lat="62.636488882757" lon="17.964733067205">
        <ele>55.8</ele>
        <time>2017-10-16T19:12:40Z</time>
      </trkpt>
      <trkpt lat="62.636506903842" lon="17.964702976184">
        <ele>55.8</ele>
        <time>2017-10-16T19:12:41Z</time>
      </trkpt>
      <trkpt lat="62.636530876076" lon="17.964670957326">
        <ele>55.8</ele>
        <time>2017-10-16T19:12:42Z</time>
      </trkpt>
      <trkpt lat="62.636550992636" lon="17.964646565997">
        <ele>55.6</ele>
        <time>2017-10-16T19:12:43Z</time>
      </trkpt>
      <trkpt lat="62.636571863567" lon="17.964622426125">
        <ele>55.6</ele>
        <time>2017-10-16T19:12:44Z</time>
      </trkpt>
      <trkpt lat="62.636592315403" lon="17.964598370072">
        <ele>55.6</ele>
        <time>2017-10-16T19:12:45Z</time>
      </trkpt>
      <trkpt lat="62.636612599601" lon="17.96457674477">
        <ele>55.6</ele>
        <time>2017-10-16T19:12:46Z</time>
      </trkpt>
      <trkpt lat="62.636630117772" lon="17.964559813332">
        <ele>55.4</ele>
        <time>2017-10-16T19:12:47Z</time>
      </trkpt>
      <trkpt lat="62.636652581264" lon="17.964533913261">
        <ele>55.4</ele>
        <time>2017-10-16T19:12:48Z</time>
      </trkpt>
      <trkpt lat="62.636674541842" lon="17.9645155569">
        <ele>55.4</ele>
        <time>2017-10-16T19:12:49Z</time>
      </trkpt>
      <trkpt lat="62.63671075165" lon="17.964483538042">
        <ele>55.2</ele>
        <time>2017-10-16T19:12:51Z</time>
      </trkpt>
      <trkpt lat="62.636723408319" lon="17.964485549698">
        <ele>55</ele>
        <time>2017-10-16T19:12:52Z</time>
      </trkpt>
      <trkpt lat="62.636729527106" lon="17.964479682368">
        <ele>55.4</ele>
        <time>2017-10-16T19:12:53Z</time>
      </trkpt>
      <trkpt lat="62.636743692517" lon="17.964491081752">
        <ele>55.6</ele>
        <time>2017-10-16T19:12:54Z</time>
      </trkpt>
      <trkpt lat="62.636751487684" lon="17.964485130603">
        <ele>55.4</ele>
        <time>2017-10-16T19:12:55Z</time>
      </trkpt>
      <trkpt lat="62.636766742742" lon="17.96449963129">
        <ele>55.6</ele>
        <time>2017-10-16T19:12:56Z</time>
      </trkpt>
      <trkpt lat="62.636777639212" lon="17.964503989878">
        <ele>55.6</ele>
        <time>2017-10-16T19:12:57Z</time>
      </trkpt>
      <trkpt lat="62.636788954777" lon="17.964514299615">
        <ele>55.6</ele>
        <time>2017-10-16T19:12:58Z</time>
      </trkpt>
      <trkpt lat="62.636802784912" lon="17.964518490565">
        <ele>55.4</ele>
        <time>2017-10-16T19:12:59Z</time>
      </trkpt>
      <trkpt lat="62.636816028314" lon="17.964522765334">
        <ele>55.4</ele>
        <time>2017-10-16T19:13:00Z</time>
      </trkpt>
      <trkpt lat="62.636828433526" lon="17.964520837497">
        <ele>55.4</ele>
        <time>2017-10-16T19:13:01Z</time>
      </trkpt>
      <trkpt lat="62.636838407987" lon="17.964528213569">
        <ele>55.6</ele>
        <time>2017-10-16T19:13:02Z</time>
      </trkpt>
      <trkpt lat="62.63685072938" lon="17.964536260193">
        <ele>55.6</ele>
        <time>2017-10-16T19:13:03Z</time>
      </trkpt>
      <trkpt lat="62.636863553687" lon="17.964538690944">
        <ele>55.6</ele>
        <time>2017-10-16T19:13:04Z</time>
      </trkpt>
      <trkpt lat="62.636878054374" lon="17.964552856355">
        <ele>55.4</ele>
        <time>2017-10-16T19:13:05Z</time>
      </trkpt>
      <trkpt lat="62.636895740183" lon="17.964570709802">
        <ele>55.4</ele>
        <time>2017-10-16T19:13:06Z</time>
      </trkpt>
      <trkpt lat="62.63691024087" lon="17.964573643467">
        <ele>55.2</ele>
        <time>2017-10-16T19:13:07Z</time>
      </trkpt>
      <trkpt lat="62.636923232815" lon="17.964578840245">
        <ele>55.2</ele>
        <time>2017-10-16T19:13:08Z</time>
      </trkpt>
      <trkpt lat="62.636932704362" lon="17.964587473602">
        <ele>55.2</ele>
        <time>2017-10-16T19:13:09Z</time>
      </trkpt>
      <trkpt lat="62.636944019927" lon="17.964597280425">
        <ele>55</ele>
        <time>2017-10-16T19:13:10Z</time>
      </trkpt>
      <trkpt lat="62.636955335492" lon="17.964594849674">
        <ele>55</ele>
        <time>2017-10-16T19:13:11Z</time>
      </trkpt>
      <trkpt lat="62.636966148143" lon="17.964592921837">
        <ele>55</ele>
        <time>2017-10-16T19:13:12Z</time>
      </trkpt>
      <trkpt lat="62.636981570839" lon="17.964614128044">
        <ele>55</ele>
        <time>2017-10-16T19:13:13Z</time>
      </trkpt>
      <trkpt lat="62.636994227508" lon="17.964629047826">
        <ele>55</ele>
        <time>2017-10-16T19:13:14Z</time>
      </trkpt>
      <trkpt lat="62.637006548901" lon="17.96463877083">
        <ele>55</ele>
        <time>2017-10-16T19:13:15Z</time>
      </trkpt>
      <trkpt lat="62.637017948285" lon="17.964652349508">
        <ele>55</ele>
        <time>2017-10-16T19:13:16Z</time>
      </trkpt>
      <trkpt lat="62.637024486167" lon="17.96466307834">
        <ele>55</ele>
        <time>2017-10-16T19:13:17Z</time>
      </trkpt>
      <trkpt lat="62.637034041533" lon="17.964672382249">
        <ele>55</ele>
        <time>2017-10-16T19:13:18Z</time>
      </trkpt>
      <trkpt lat="62.637046614383" lon="17.964684200728">
        <ele>55</ele>
        <time>2017-10-16T19:13:19Z</time>
      </trkpt>
      <trkpt lat="62.637057678491" lon="17.964697025035">
        <ele>55</ele>
        <time>2017-10-16T19:13:20Z</time>
      </trkpt>
      <trkpt lat="62.637071089531" lon="17.964701299804">
        <ele>55</ele>
        <time>2017-10-16T19:13:21Z</time>
      </trkpt>
      <trkpt lat="62.637081818363" lon="17.964697863225">
        <ele>55</ele>
        <time>2017-10-16T19:13:22Z</time>
      </trkpt>
      <trkpt lat="62.637091541367" lon="17.964687721126">
        <ele>55</ele>
        <time>2017-10-16T19:13:23Z</time>
      </trkpt>
      <trkpt lat="62.637104449493" lon="17.964684787461">
        <ele>55</ele>
        <time>2017-10-16T19:13:24Z</time>
      </trkpt>
      <trkpt lat="62.637113418126" lon="17.96468068033">
        <ele>55</ele>
        <time>2017-10-16T19:13:25Z</time>
      </trkpt>
      <trkpt lat="62.637124398415" lon="17.964670789688">
        <ele>55</ele>
        <time>2017-10-16T19:13:26Z</time>
      </trkpt>
      <trkpt lat="62.637135294885" lon="17.964655953725">
        <ele>55</ele>
        <time>2017-10-16T19:13:27Z</time>
      </trkpt>
      <trkpt lat="62.637145269346" lon="17.96463877083">
        <ele>55</ele>
        <time>2017-10-16T19:13:28Z</time>
      </trkpt>
      <trkpt lat="62.637155411445" lon="17.964623515772">
        <ele>55</ele>
        <time>2017-10-16T19:13:29Z</time>
      </trkpt>
      <trkpt lat="62.637162619879" lon="17.964607590162">
        <ele>54.8</ele>
        <time>2017-10-16T19:13:30Z</time>
      </trkpt>
      <trkpt lat="62.637170498865" lon="17.964591748371">
        <ele>54.8</ele>
        <time>2017-10-16T19:13:31Z</time>
      </trkpt>
      <trkpt lat="62.637179551317" lon="17.964580432806">
        <ele>54.6</ele>
        <time>2017-10-16T19:13:32Z</time>
      </trkpt>
      <trkpt lat="62.63718851995" lon="17.964567105585">
        <ele>54.6</ele>
        <time>2017-10-16T19:13:33Z</time>
      </trkpt>
      <trkpt lat="62.63719941642" lon="17.964550509423">
        <ele>54.6</ele>
        <time>2017-10-16T19:13:34Z</time>
      </trkpt>
      <trkpt lat="62.637211570175" lon="17.96453818803">
        <ele>54.6</ele>
        <time>2017-10-16T19:13:35Z</time>
      </trkpt>
      <trkpt lat="62.63722456212" lon="17.964519496393">
        <ele>54.6</ele>
        <time>2017-10-16T19:13:36Z</time>
      </trkpt>
      <trkpt lat="62.637237218789" lon="17.964501475308">
        <ele>54.4</ele>
        <time>2017-10-16T19:13:37Z</time>
      </trkpt>
      <trkpt lat="62.637246606517" lon="17.964490495019">
        <ele>54.4</ele>
        <time>2017-10-16T19:13:38Z</time>
      </trkpt>
      <trkpt lat="62.637254066408" lon="17.964474317952">
        <ele>54.4</ele>
        <time>2017-10-16T19:13:39Z</time>
      </trkpt>
      <trkpt lat="62.637262615946" lon="17.964461661283">
        <ele>54.2</ele>
        <time>2017-10-16T19:13:40Z</time>
      </trkpt>
      <trkpt lat="62.637273009502" lon="17.964446490044">
        <ele>54</ele>
        <time>2017-10-16T19:13:41Z</time>
      </trkpt>
      <trkpt lat="62.637285163257" lon="17.964431570262">
        <ele>54</ele>
        <time>2017-10-16T19:13:42Z</time>
      </trkpt>
      <trkpt lat="62.637296562641" lon="17.964417740127">
        <ele>53.8</ele>
        <time>2017-10-16T19:13:43Z</time>
      </trkpt>
      <trkpt lat="62.637308464939" lon="17.964406256924">
        <ele>53.6</ele>
        <time>2017-10-16T19:13:44Z</time>
      </trkpt>
      <trkpt lat="62.637319445228" lon="17.964391253323">
        <ele>53.4</ele>
        <time>2017-10-16T19:13:45Z</time>
      </trkpt>
      <trkpt lat="62.637328581499" lon="17.964373567514">
        <ele>53.4</ele>
        <time>2017-10-16T19:13:46Z</time>
      </trkpt>
      <trkpt lat="62.637339645607" lon="17.964357809542">
        <ele>53.4</ele>
        <time>2017-10-16T19:13:47Z</time>
      </trkpt>
      <trkpt lat="62.637350122982" lon="17.96434121338">
        <ele>53.2</ele>
        <time>2017-10-16T19:13:48Z</time>
      </trkpt>
      <trkpt lat="62.637358588701" lon="17.964327131788">
        <ele>53.2</ele>
        <time>2017-10-16T19:13:49Z</time>
      </trkpt>
      <trkpt lat="62.63736621623" lon="17.964312044368">
        <ele>53.4</ele>
        <time>2017-10-16T19:13:50Z</time>
      </trkpt>
      <trkpt lat="62.637375855415" lon="17.964294442378">
        <ele>53.4</ele>
        <time>2017-10-16T19:13:51Z</time>
      </trkpt>
      <trkpt lat="62.637385829876" lon="17.964275247827">
        <ele>53.6</ele>
        <time>2017-10-16T19:13:52Z</time>
      </trkpt>
      <trkpt lat="62.637396810165" lon="17.964255047448">
        <ele>53.4</ele>
        <time>2017-10-16T19:13:53Z</time>
      </trkpt>
      <trkpt lat="62.637409383015" lon="17.964238199829">
        <ele>53.4</ele>
        <time>2017-10-16T19:13:54Z</time>
      </trkpt>
      <trkpt lat="62.637417932553" lon="17.964220178744">
        <ele>53.4</ele>
        <time>2017-10-16T19:13:55Z</time>
      </trkpt>
      <trkpt lat="62.637427236462" lon="17.964205007505">
        <ele>53.2</ele>
        <time>2017-10-16T19:13:56Z</time>
      </trkpt>
      <trkpt lat="62.63743662419" lon="17.964187992248">
        <ele>53.2</ele>
        <time>2017-10-16T19:13:57Z</time>
      </trkpt>
      <trkpt lat="62.637448107393" lon="17.96417692814">
        <ele>53.2</ele>
        <time>2017-10-16T19:13:58Z</time>
      </trkpt>
      <trkpt lat="62.6374609317" lon="17.964161086349">
        <ele>53.2</ele>
        <time>2017-10-16T19:13:59Z</time>
      </trkpt>
      <trkpt lat="62.637477863138" lon="17.964138958133">
        <ele>53.2</ele>
        <time>2017-10-16T19:14:00Z</time>
      </trkpt>
      <trkpt lat="62.637493369653" lon="17.964110962587">
        <ele>53.2</ele>
        <time>2017-10-16T19:14:01Z</time>
      </trkpt>
      <trkpt lat="62.637510804005" lon="17.96408221267">
        <ele>53.4</ele>
        <time>2017-10-16T19:14:02Z</time>
      </trkpt>
      <trkpt lat="62.637529579461" lon="17.964055306771">
        <ele>53.6</ele>
        <time>2017-10-16T19:14:03Z</time>
      </trkpt>
      <trkpt lat="62.637550869487" lon="17.964031418356">
        <ele>53.6</ele>
        <time>2017-10-16T19:14:04Z</time>
      </trkpt>
      <trkpt lat="62.637568387658" lon="17.964006524113">
        <ele>53.4</ele>
        <time>2017-10-16T19:14:05Z</time>
      </trkpt>
      <trkpt lat="62.637589090951" lon="17.963975259626">
        <ele>53.6</ele>
        <time>2017-10-16T19:14:06Z</time>
      </trkpt>
      <trkpt lat="62.637610213339" lon="17.963953801962">
        <ele>53.4</ele>
        <time>2017-10-16T19:14:07Z</time>
      </trkpt>
      <trkpt lat="62.637629575528" lon="17.963934272135">
        <ele>53.4</ele>
        <time>2017-10-16T19:14:08Z</time>
      </trkpt>
      <trkpt lat="62.637648518622" lon="17.963914071756">
        <ele>53.2</ele>
        <time>2017-10-16T19:14:09Z</time>
      </trkpt>
      <trkpt lat="62.637667377897" lon="17.963893284644">
        <ele>53</ele>
        <time>2017-10-16T19:14:10Z</time>
      </trkpt>
      <trkpt lat="62.637686237172" lon="17.963876353206">
        <ele>53</ele>
        <time>2017-10-16T19:14:11Z</time>
      </trkpt>
      <trkpt lat="62.637707694836" lon="17.963856404284">
        <ele>53</ele>
        <time>2017-10-16T19:14:12Z</time>
      </trkpt>
      <trkpt lat="62.637724877731" lon="17.963835449534">
        <ele>52.8</ele>
        <time>2017-10-16T19:14:13Z</time>
      </trkpt>
      <trkpt lat="62.637742395902" lon="17.963804017409">
        <ele>53</ele>
        <time>2017-10-16T19:14:14Z</time>
      </trkpt>
      <trkpt lat="62.637757567141" lon="17.963776776234">
        <ele>52.8</ele>
        <time>2017-10-16T19:14:15Z</time>
      </trkpt>
      <trkpt lat="62.637777599882" lon="17.963747271946">
        <ele>52.8</ele>
        <time>2017-10-16T19:14:16Z</time>
      </trkpt>
      <trkpt lat="62.637795788605" lon="17.963719444038">
        <ele>52.6</ele>
        <time>2017-10-16T19:14:17Z</time>
      </trkpt>
      <trkpt lat="62.637812636224" lon="17.963691951406">
        <ele>52.4</ele>
        <time>2017-10-16T19:14:18Z</time>
      </trkpt>
      <trkpt lat="62.637830908766" lon="17.963669739371">
        <ele>52.4</ele>
        <time>2017-10-16T19:14:19Z</time>
      </trkpt>
      <trkpt lat="62.637849516584" lon="17.96365054482">
        <ele>52.2</ele>
        <time>2017-10-16T19:14:20Z</time>
      </trkpt>
      <trkpt lat="62.637866448022" lon="17.963626656405">
        <ele>51.8</ele>
        <time>2017-10-16T19:14:21Z</time>
      </trkpt>
      <trkpt lat="62.637884133831" lon="17.963605031103">
        <ele>51.8</ele>
        <time>2017-10-16T19:14:22Z</time>
      </trkpt>
      <trkpt lat="62.63790349602" lon="17.963585249819">
        <ele>51.8</ele>
        <time>2017-10-16T19:14:23Z</time>
      </trkpt>
      <trkpt lat="62.637920762734" lon="17.963563792155">
        <ele>51.8</ele>
        <time>2017-10-16T19:14:24Z</time>
      </trkpt>
      <trkpt lat="62.637936604525" lon="17.9635432565">
        <ele>51.8</ele>
        <time>2017-10-16T19:14:25Z</time>
      </trkpt>
      <trkpt lat="62.637952781592" lon="17.963539400826">
        <ele>52.2</ele>
        <time>2017-10-16T19:14:26Z</time>
      </trkpt>
      <trkpt lat="62.637965354442" lon="17.963530264555">
        <ele>52.2</ele>
        <time>2017-10-16T19:14:27Z</time>
      </trkpt>
      <trkpt lat="62.637982034423" lon="17.963527666166">
        <ele>52.6</ele>
        <time>2017-10-16T19:14:28Z</time>
      </trkpt>
      <trkpt lat="62.638000306965" lon="17.963519703361">
        <ele>52.6</ele>
        <time>2017-10-16T19:14:29Z</time>
      </trkpt>
      <trkpt lat="62.63802084262" lon="17.963509561262">
        <ele>52.8</ele>
        <time>2017-10-16T19:14:30Z</time>
      </trkpt>
      <trkpt lat="62.638041210637" lon="17.963493635652">
        <ele>52.8</ele>
        <time>2017-10-16T19:14:31Z</time>
      </trkpt>
      <trkpt lat="62.638057806799" lon="17.963484918476">
        <ele>53</ele>
        <time>2017-10-16T19:14:32Z</time>
      </trkpt>
      <trkpt lat="62.638076666074" lon="17.963474357282">
        <ele>53</ele>
        <time>2017-10-16T19:14:33Z</time>
      </trkpt>
      <trkpt lat="62.638100722127" lon="17.963473602911">
        <ele>53</ele>
        <time>2017-10-16T19:14:34Z</time>
      </trkpt>
      <trkpt lat="62.638121593058" lon="17.9634762013">
        <ele>52.8</ele>
        <time>2017-10-16T19:14:35Z</time>
      </trkpt>
      <trkpt lat="62.638138608315" lon="17.96349380329">
        <ele>52.8</ele>
        <time>2017-10-16T19:14:36Z</time>
      </trkpt>
      <trkpt lat="62.638155707391" lon="17.963529342546">
        <ele>52.6</ele>
        <time>2017-10-16T19:14:37Z</time>
      </trkpt>
      <trkpt lat="62.638164005472" lon="17.96356169668">
        <ele>52.4</ele>
        <time>2017-10-16T19:14:38Z</time>
      </trkpt>
      <trkpt lat="62.638172638829" lon="17.963604779646">
        <ele>52.2</ele>
        <time>2017-10-16T19:14:39Z</time>
      </trkpt>
      <trkpt lat="62.638182194195" lon="17.963641073273">
        <ele>52.2</ele>
        <time>2017-10-16T19:14:40Z</time>
      </trkpt>
      <trkpt lat="62.638192503932" lon="17.963670158466">
        <ele>51.8</ele>
        <time>2017-10-16T19:14:41Z</time>
      </trkpt>
      <trkpt lat="62.638206585524" lon="17.963707038826">
        <ele>51.8</ele>
        <time>2017-10-16T19:14:42Z</time>
      </trkpt>
      <trkpt lat="62.638217901089" lon="17.963743500091">
        <ele>51.8</ele>
        <time>2017-10-16T19:14:43Z</time>
      </trkpt>
      <trkpt lat="62.638229216654" lon="17.963772752922">
        <ele>52</ele>
        <time>2017-10-16T19:14:44Z</time>
      </trkpt>
      <trkpt lat="62.638241705685" lon="17.963805526151">
        <ele>52</ele>
        <time>2017-10-16T19:14:45Z</time>
      </trkpt>
      <trkpt lat="62.638253691802" lon="17.963846094547">
        <ele>52</ele>
        <time>2017-10-16T19:14:46Z</time>
      </trkpt>
      <trkpt lat="62.638264420634" lon="17.96387769431">
        <ele>52.2</ele>
        <time>2017-10-16T19:14:47Z</time>
      </trkpt>
      <trkpt lat="62.638275736199" lon="17.963915245222">
        <ele>52.2</ele>
        <time>2017-10-16T19:14:48Z</time>
      </trkpt>
      <trkpt lat="62.638288057592" lon="17.963954053419">
        <ele>52</ele>
        <time>2017-10-16T19:14:49Z</time>
      </trkpt>
      <trkpt lat="62.638298786424" lon="17.963983054793">
        <ele>52</ele>
        <time>2017-10-16T19:14:50Z</time>
      </trkpt>
      <trkpt lat="62.638309347618" lon="17.964017504402">
        <ele>51.8</ele>
        <time>2017-10-16T19:14:51Z</time>
      </trkpt>
      <trkpt lat="62.63832007645" lon="17.964053630391">
        <ele>51.8</ele>
        <time>2017-10-16T19:14:52Z</time>
      </trkpt>
      <trkpt lat="62.638329799454" lon="17.964087744724">
        <ele>51.6</ele>
        <time>2017-10-16T19:14:53Z</time>
      </trkpt>
      <trkpt lat="62.638339941553" lon="17.964121439962">
        <ele>51.6</ele>
        <time>2017-10-16T19:14:54Z</time>
      </trkpt>
      <trkpt lat="62.638353939326" lon="17.964158404141">
        <ele>51.8</ele>
        <time>2017-10-16T19:14:55Z</time>
      </trkpt>
      <trkpt lat="62.638367098909" lon="17.964193272845">
        <ele>51.8</ele>
        <time>2017-10-16T19:14:56Z</time>
      </trkpt>
      <trkpt lat="62.638380174673" lon="17.964225459341">
        <ele>51.8</ele>
        <time>2017-10-16T19:14:57Z</time>
      </trkpt>
      <trkpt lat="62.638392663704" lon="17.964261082416">
        <ele>51.8</ele>
        <time>2017-10-16T19:14:58Z</time>
      </trkpt>
      <trkpt lat="62.638402051432" lon="17.964298130414">
        <ele>51.8</ele>
        <time>2017-10-16T19:14:59Z</time>
      </trkpt>
      <trkpt lat="62.638412025893" lon="17.964332496204">
        <ele>52</ele>
        <time>2017-10-16T19:15:00Z</time>
      </trkpt>
      <trkpt lat="62.638424934019" lon="17.964363173958">
        <ele>52</ele>
        <time>2017-10-16T19:15:01Z</time>
      </trkpt>
      <trkpt lat="62.638436417222" lon="17.964403155621">
        <ele>51.8</ele>
        <time>2017-10-16T19:15:02Z</time>
      </trkpt>
      <trkpt lat="62.638447900425" lon="17.964434671565">
        <ele>51.8</ele>
        <time>2017-10-16T19:15:03Z</time>
      </trkpt>
      <trkpt lat="62.638457120515" lon="17.964471887201">
        <ele>51.8</ele>
        <time>2017-10-16T19:15:04Z</time>
      </trkpt>
      <trkpt lat="62.638468184623" lon="17.964506923543">
        <ele>51.8</ele>
        <time>2017-10-16T19:15:05Z</time>
      </trkpt>
      <trkpt lat="62.638480925111" lon="17.964546653749">
        <ele>51.8</ele>
        <time>2017-10-16T19:15:06Z</time>
      </trkpt>
      <trkpt lat="62.638490983391" lon="17.964570793621">
        <ele>52</ele>
        <time>2017-10-16T19:15:07Z</time>
      </trkpt>
      <trkpt lat="62.638504562069" lon="17.964573643467">
        <ele>52.2</ele>
        <time>2017-10-16T19:15:08Z</time>
      </trkpt>
      <trkpt lat="62.638509423571" lon="17.964542546618">
        <ele>52.2</ele>
        <time>2017-10-16T19:15:09Z</time>
      </trkpt>
      <trkpt lat="62.6385002873" lon="17.964511449769">
        <ele>52.4</ele>
        <time>2017-10-16T19:15:10Z</time>
      </trkpt>
      <trkpt lat="62.638490648115" lon="17.964480520558">
        <ele>52.4</ele>
        <time>2017-10-16T19:15:11Z</time>
      </trkpt>
      <trkpt lat="62.638479584007" lon="17.964445484216">
        <ele>52.6</ele>
        <time>2017-10-16T19:15:12Z</time>
      </trkpt>
      <trkpt lat="62.638468855175" lon="17.964420170878">
        <ele>52.6</ele>
        <time>2017-10-16T19:15:13Z</time>
      </trkpt>
      <trkpt lat="62.638463071664" lon="17.964406424562">
        <ele>52.6</ele>
        <time>2017-10-16T19:15:14Z</time>
      </trkpt>
      <trkpt lat="62.638447565149" lon="17.964360659388">
        <ele>52.6</ele>
        <time>2017-10-16T19:15:15Z</time>
      </trkpt>
      <trkpt lat="62.638435243756" lon="17.964329813996">
        <ele>52.4</ele>
        <time>2017-10-16T19:15:16Z</time>
      </trkpt>
      <trkpt lat="62.638423509096" lon="17.964304500658">
        <ele>52.4</ele>
        <time>2017-10-16T19:15:17Z</time>
      </trkpt>
      <trkpt lat="62.638410433332" lon="17.964278097673">
        <ele>52</ele>
        <time>2017-10-16T19:15:18Z</time>
      </trkpt>
      <trkpt lat="62.638399453043" lon="17.964248341928">
        <ele>51.8</ele>
        <time>2017-10-16T19:15:19Z</time>
      </trkpt>
      <trkpt lat="62.638390316772" lon="17.964222525676">
        <ele>51.6</ele>
        <time>2017-10-16T19:15:20Z</time>
      </trkpt>
      <trkpt lat="62.638379168845" lon="17.964193189026">
        <ele>51.4</ele>
        <time>2017-10-16T19:15:21Z</time>
      </trkpt>
      <trkpt lat="62.638368775289" lon="17.964162846548">
        <ele>51.4</ele>
        <time>2017-10-16T19:15:22Z</time>
      </trkpt>
      <trkpt lat="62.638357543543" lon="17.964142981445">
        <ele>51.2</ele>
        <time>2017-10-16T19:15:23Z</time>
      </trkpt>
      <trkpt lat="62.638343042856" lon="17.964113644795">
        <ele>51.2</ele>
        <time>2017-10-16T19:15:24Z</time>
      </trkpt>
      <trkpt lat="62.638333655128" lon="17.964081877394">
        <ele>51</ele>
        <time>2017-10-16T19:15:25Z</time>
      </trkpt>
      <trkpt lat="62.638322507201" lon="17.964051870192">
        <ele>51.2</ele>
        <time>2017-10-16T19:15:26Z</time>
      </trkpt>
      <trkpt lat="62.638310521084" lon="17.9640210248">
        <ele>51.2</ele>
        <time>2017-10-16T19:15:27Z</time>
      </trkpt>
      <trkpt lat="62.638299792252" lon="17.963984814992">
        <ele>51</ele>
        <time>2017-10-16T19:15:28Z</time>
      </trkpt>
      <trkpt lat="62.63828990161" lon="17.963950952116">
        <ele>51</ele>
        <time>2017-10-16T19:15:29Z</time>
      </trkpt>
      <trkpt lat="62.638277244941" lon="17.963924800588">
        <ele>51</ele>
        <time>2017-10-16T19:15:30Z</time>
      </trkpt>
      <trkpt lat="62.638263666263" lon="17.963887082038">
        <ele>51.2</ele>
        <time>2017-10-16T19:15:31Z</time>
      </trkpt>
      <trkpt lat="62.638250590499" lon="17.963851961877">
        <ele>51.6</ele>
        <time>2017-10-16T19:15:32Z</time>
      </trkpt>
      <trkpt lat="62.638240029305" lon="17.96382405015">
        <ele>52</ele>
        <time>2017-10-16T19:15:33Z</time>
      </trkpt>
      <trkpt lat="62.638227959369" lon="17.963792282749">
        <ele>52.2</ele>
        <time>2017-10-16T19:15:34Z</time>
      </trkpt>
      <trkpt lat="62.638218404003" lon="17.963768645791">
        <ele>52.4</ele>
        <time>2017-10-16T19:15:35Z</time>
      </trkpt>
      <trkpt lat="62.638200634375" lon="17.963728664128">
        <ele>52.4</ele>
        <time>2017-10-16T19:15:36Z</time>
      </trkpt>
      <trkpt lat="62.638189486448" lon="17.963703686066">
        <ele>52.4</ele>
        <time>2017-10-16T19:15:37Z</time>
      </trkpt>
      <trkpt lat="62.638177667969" lon="17.963673678864">
        <ele>52.2</ele>
        <time>2017-10-16T19:15:38Z</time>
      </trkpt>
      <trkpt lat="62.638167777327" lon="17.963650209544">
        <ele>52.2</ele>
        <time>2017-10-16T19:15:39Z</time>
      </trkpt>
      <trkpt lat="62.638153528097" lon="17.963617603953">
        <ele>52</ele>
        <time>2017-10-16T19:15:40Z</time>
      </trkpt>
      <trkpt lat="62.638142883084" lon="17.963587177656">
        <ele>52</ele>
        <time>2017-10-16T19:15:41Z</time>
      </trkpt>
      <trkpt lat="62.638130142596" lon="17.963547363631">
        <ele>51.8</ele>
        <time>2017-10-16T19:15:42Z</time>
      </trkpt>
      <trkpt lat="62.638118743212" lon="17.963515344773">
        <ele>51.4</ele>
        <time>2017-10-16T19:15:43Z</time>
      </trkpt>
      <trkpt lat="62.638107762923" lon="17.963478296775">
        <ele>51.2</ele>
        <time>2017-10-16T19:15:44Z</time>
      </trkpt>
      <trkpt lat="62.638096782634" lon="17.963441584053">
        <ele>51.2</ele>
        <time>2017-10-16T19:15:45Z</time>
      </trkpt>
      <trkpt lat="62.63808538325" lon="17.963407218263">
        <ele>51.2</ele>
        <time>2017-10-16T19:15:46Z</time>
      </trkpt>
      <trkpt lat="62.638074319142" lon="17.96337645669">
        <ele>51.4</ele>
        <time>2017-10-16T19:15:47Z</time>
      </trkpt>
      <trkpt lat="62.638057806799" lon="17.963348544963">
        <ele>51.4</ele>
        <time>2017-10-16T19:15:48Z</time>
      </trkpt>
      <trkpt lat="62.638043557569" lon="17.963341755624">
        <ele>51.8</ele>
        <time>2017-10-16T19:15:49Z</time>
      </trkpt>
      <trkpt lat="62.638031655271" lon="17.963364973487">
        <ele>52</ele>
        <time>2017-10-16T19:15:50Z</time>
      </trkpt>
      <trkpt lat="62.638028553968" lon="17.963405122788">
        <ele>52.2</ele>
        <time>2017-10-16T19:15:51Z</time>
      </trkpt>
      <trkpt lat="62.638038193153" lon="17.963436890189">
        <ele>52.2</ele>
        <time>2017-10-16T19:15:52Z</time>
      </trkpt>
      <trkpt lat="62.6380476647" lon="17.963464634278">
        <ele>52.4</ele>
        <time>2017-10-16T19:15:53Z</time>
      </trkpt>
      <trkpt lat="62.638050849822" lon="17.963508303977">
        <ele>52.6</ele>
        <time>2017-10-16T19:15:54Z</time>
      </trkpt>
      <trkpt lat="62.638046742691" lon="17.963544010871">
        <ele>52.6</ele>
        <time>2017-10-16T19:15:55Z</time>
      </trkpt>
      <trkpt lat="62.638036265316" lon="17.963578628118">
        <ele>52.8</ele>
        <time>2017-10-16T19:15:56Z</time>
      </trkpt>
      <trkpt lat="62.638022183724" lon="17.963608467682">
        <ele>52.8</ele>
        <time>2017-10-16T19:15:57Z</time>
      </trkpt>
      <trkpt lat="62.638008605046" lon="17.963634200115">
        <ele>53</ele>
        <time>2017-10-16T19:15:58Z</time>
      </trkpt>
      <trkpt lat="62.637998043852" lon="17.963656915064">
        <ele>53</ele>
        <time>2017-10-16T19:15:59Z</time>
      </trkpt>
      <trkpt lat="62.637981950604" lon="17.963682144583">
        <ele>53</ele>
        <time>2017-10-16T19:16:00Z</time>
      </trkpt>
      <trkpt lat="62.637966779365" lon="17.96370083622">
        <ele>53.2</ele>
        <time>2017-10-16T19:16:01Z</time>
      </trkpt>
      <trkpt lat="62.637952530135" lon="17.963719779314">
        <ele>53.2</ele>
        <time>2017-10-16T19:16:02Z</time>
      </trkpt>
      <trkpt lat="62.637938616181" lon="17.963741236978">
        <ele>53.2</ele>
        <time>2017-10-16T19:16:03Z</time>
      </trkpt>
      <trkpt lat="62.637921768562" lon="17.963764957755">
        <ele>53.2</ele>
        <time>2017-10-16T19:16:04Z</time>
      </trkpt>
      <trkpt lat="62.637911542644" lon="17.963786834514">
        <ele>53.4</ele>
        <time>2017-10-16T19:16:05Z</time>
      </trkpt>
      <trkpt lat="62.637895784672" lon="17.963815165336">
        <ele>53.4</ele>
        <time>2017-10-16T19:16:06Z</time>
      </trkpt>
      <trkpt lat="62.637882122175" lon="17.963836874457">
        <ele>53.4</ele>
        <time>2017-10-16T19:16:07Z</time>
      </trkpt>
      <trkpt lat="62.637868375859" lon="17.963858751216">
        <ele>53.4</ele>
        <time>2017-10-16T19:16:08Z</time>
      </trkpt>
      <trkpt lat="62.637856976475" lon="17.963882304355">
        <ele>53.4</ele>
        <time>2017-10-16T19:16:09Z</time>
      </trkpt>
      <trkpt lat="62.637843649254" lon="17.963904264933">
        <ele>53.6</ele>
        <time>2017-10-16T19:16:10Z</time>
      </trkpt>
      <trkpt lat="62.637828813291" lon="17.963931003194">
        <ele>53.8</ele>
        <time>2017-10-16T19:16:11Z</time>
      </trkpt>
      <trkpt lat="62.637814144966" lon="17.96395648417">
        <ele>53.8</ele>
        <time>2017-10-16T19:16:12Z</time>
      </trkpt>
      <trkpt lat="62.637798973727" lon="17.963978025653">
        <ele>54</ele>
        <time>2017-10-16T19:16:13Z</time>
      </trkpt>
      <trkpt lat="62.637783970126" lon="17.963996633471">
        <ele>54</ele>
        <time>2017-10-16T19:16:14Z</time>
      </trkpt>
      <trkpt lat="62.637772486923" lon="17.964014738375">
        <ele>54</ele>
        <time>2017-10-16T19:16:15Z</time>
      </trkpt>
      <trkpt lat="62.637761590453" lon="17.964035441668">
        <ele>54</ele>
        <time>2017-10-16T19:16:16Z</time>
      </trkpt>
      <trkpt lat="62.637758824426" lon="17.964051702554">
        <ele>53.8</ele>
        <time>2017-10-16T19:16:17Z</time>
      </trkpt>
      <trkpt lat="62.637760752263" lon="17.964042650102">
        <ele>53.8</ele>
        <time>2017-10-16T19:16:18Z</time>
      </trkpt>
      <trkpt lat="62.637760752263" lon="17.964042650102">
        <ele>53.8</ele>
        <time>2017-10-16T19:16:19Z</time>
      </trkpt>
    </trkseg>
  </trk>
</gpx>